<?xml version="1.0" encoding="UTF-8" standalone="no" ?>
<gpx xmlns="http://www.topografix.com/GPX/1/1" xmlns:xsi="http://www.w3.org/2001/XMLSchema-instance" xsi:schemaLocation="http://www.topografix.com/GPX/1/1 http://www.topografix.com/GPX/1/1/gpx.xsd" version="1.1" creator="VisuGPX - https://www.visugpx.com">
  <metadata>
    <name>Boucle St-André, Ambérieux</name>
  </metadata>
  <trk>
    <name><![CDATA[Boucle St-André, Ambérieux_1]]></name>
    <extensions>
      <line xmlns="http://www.topografix.com/GPX/gpx_style/0/2">
        <color>0000FF</color>
        <width>4</width>
      </line>
    </extensions>
    <trkseg>
      <trkpt lat="45.9348" lon="4.95409">
        <ele>289.7</ele>
        <time>2023-09-24T14:22:12Z</time>
      </trkpt>
      <trkpt lat="45.93478" lon="4.95406">
        <ele>289.8</ele>
        <time>2023-09-24T12:41:52Z</time>
      </trkpt>
      <trkpt lat="45.93478" lon="4.95406">
        <ele>289.8</ele>
        <time>2023-09-24T12:41:52Z</time>
      </trkpt>
      <trkpt lat="45.93475" lon="4.95403">
        <ele>289.9</ele>
        <time>2023-09-24T12:41:53Z</time>
      </trkpt>
      <trkpt lat="45.93473" lon="4.95399">
        <ele>290</ele>
        <time>2023-09-24T12:41:54Z</time>
      </trkpt>
      <trkpt lat="45.93471" lon="4.95395">
        <ele>290</ele>
        <time>2023-09-24T12:41:55Z</time>
      </trkpt>
      <trkpt lat="45.93468" lon="4.95391">
        <ele>290</ele>
        <time>2023-09-24T12:41:56Z</time>
      </trkpt>
      <trkpt lat="45.93466" lon="4.95387">
        <ele>290</ele>
        <time>2023-09-24T12:41:57Z</time>
      </trkpt>
      <trkpt lat="45.93463" lon="4.95384">
        <ele>290</ele>
        <time>2023-09-24T12:41:58Z</time>
      </trkpt>
      <trkpt lat="45.9346" lon="4.9538">
        <ele>290</ele>
        <time>2023-09-24T12:41:59Z</time>
      </trkpt>
      <trkpt lat="45.93458" lon="4.95376">
        <ele>290</ele>
        <time>2023-09-24T12:42:00Z</time>
      </trkpt>
      <trkpt lat="45.93455" lon="4.95373">
        <ele>290</ele>
        <time>2023-09-24T12:42:01Z</time>
      </trkpt>
      <trkpt lat="45.93453" lon="4.95369">
        <ele>290</ele>
        <time>2023-09-24T12:42:02Z</time>
      </trkpt>
      <trkpt lat="45.93451" lon="4.95366">
        <ele>290</ele>
        <time>2023-09-24T12:42:03Z</time>
      </trkpt>
      <trkpt lat="45.93448" lon="4.95363">
        <ele>290</ele>
        <time>2023-09-24T12:42:04Z</time>
      </trkpt>
      <trkpt lat="45.93446" lon="4.9536">
        <ele>290</ele>
        <time>2023-09-24T12:42:05Z</time>
      </trkpt>
      <trkpt lat="45.93444" lon="4.95356">
        <ele>290.2</ele>
        <time>2023-09-24T12:42:06Z</time>
      </trkpt>
      <trkpt lat="45.93441" lon="4.95353">
        <ele>290.4</ele>
        <time>2023-09-24T12:42:07Z</time>
      </trkpt>
      <trkpt lat="45.93439" lon="4.9535">
        <ele>290.5</ele>
        <time>2023-09-24T12:42:08Z</time>
      </trkpt>
      <trkpt lat="45.93437" lon="4.95346">
        <ele>290.7</ele>
        <time>2023-09-24T12:42:09Z</time>
      </trkpt>
      <trkpt lat="45.93434" lon="4.95343">
        <ele>290.8</ele>
        <time>2023-09-24T12:42:10Z</time>
      </trkpt>
      <trkpt lat="45.93432" lon="4.9534">
        <ele>290.9</ele>
        <time>2023-09-24T12:42:11Z</time>
      </trkpt>
      <trkpt lat="45.9343" lon="4.95336">
        <ele>291</ele>
        <time>2023-09-24T12:42:12Z</time>
      </trkpt>
      <trkpt lat="45.93428" lon="4.95332">
        <ele>291</ele>
        <time>2023-09-24T12:42:13Z</time>
      </trkpt>
      <trkpt lat="45.93425" lon="4.95329">
        <ele>291.1</ele>
        <time>2023-09-24T12:42:14Z</time>
      </trkpt>
      <trkpt lat="45.93423" lon="4.95326">
        <ele>291.2</ele>
        <time>2023-09-24T12:42:15Z</time>
      </trkpt>
      <trkpt lat="45.93421" lon="4.95322">
        <ele>291.3</ele>
        <time>2023-09-24T12:42:16Z</time>
      </trkpt>
      <trkpt lat="45.93419" lon="4.95319">
        <ele>291.5</ele>
        <time>2023-09-24T12:42:17Z</time>
      </trkpt>
      <trkpt lat="45.93416" lon="4.95316">
        <ele>291.6</ele>
        <time>2023-09-24T12:42:18Z</time>
      </trkpt>
      <trkpt lat="45.93414" lon="4.95313">
        <ele>291.8</ele>
        <time>2023-09-24T12:42:19Z</time>
      </trkpt>
      <trkpt lat="45.93412" lon="4.9531">
        <ele>292</ele>
        <time>2023-09-24T12:42:20Z</time>
      </trkpt>
      <trkpt lat="45.9341" lon="4.95306">
        <ele>292.2</ele>
        <time>2023-09-24T12:42:21Z</time>
      </trkpt>
      <trkpt lat="45.93407" lon="4.95303">
        <ele>292.3</ele>
        <time>2023-09-24T12:42:22Z</time>
      </trkpt>
      <trkpt lat="45.93405" lon="4.953">
        <ele>292.3</ele>
        <time>2023-09-24T12:42:23Z</time>
      </trkpt>
      <trkpt lat="45.93403" lon="4.95296">
        <ele>292.3</ele>
        <time>2023-09-24T12:42:24Z</time>
      </trkpt>
      <trkpt lat="45.934" lon="4.95293">
        <ele>292.3</ele>
        <time>2023-09-24T12:42:25Z</time>
      </trkpt>
      <trkpt lat="45.93398" lon="4.95291">
        <ele>292.3</ele>
        <time>2023-09-24T12:42:26Z</time>
      </trkpt>
      <trkpt lat="45.93395" lon="4.95287">
        <ele>292.3</ele>
        <time>2023-09-24T12:42:27Z</time>
      </trkpt>
      <trkpt lat="45.93393" lon="4.95284">
        <ele>292.2</ele>
        <time>2023-09-24T12:42:28Z</time>
      </trkpt>
      <trkpt lat="45.93391" lon="4.95281">
        <ele>292.1</ele>
        <time>2023-09-24T12:42:29Z</time>
      </trkpt>
      <trkpt lat="45.93388" lon="4.95278">
        <ele>292.1</ele>
        <time>2023-09-24T12:42:30Z</time>
      </trkpt>
      <trkpt lat="45.93386" lon="4.95275">
        <ele>292.4</ele>
        <time>2023-09-24T12:42:31Z</time>
      </trkpt>
      <trkpt lat="45.93383" lon="4.95271">
        <ele>292.8</ele>
        <time>2023-09-24T12:42:32Z</time>
      </trkpt>
      <trkpt lat="45.93381" lon="4.95268">
        <ele>293.1</ele>
        <time>2023-09-24T12:42:33Z</time>
      </trkpt>
      <trkpt lat="45.93379" lon="4.95266">
        <ele>293.3</ele>
        <time>2023-09-24T12:42:34Z</time>
      </trkpt>
      <trkpt lat="45.93376" lon="4.95262">
        <ele>293.5</ele>
        <time>2023-09-24T12:42:35Z</time>
      </trkpt>
      <trkpt lat="45.93374" lon="4.95259">
        <ele>293.7</ele>
        <time>2023-09-24T12:42:36Z</time>
      </trkpt>
      <trkpt lat="45.93372" lon="4.95256">
        <ele>293.8</ele>
        <time>2023-09-24T12:42:37Z</time>
      </trkpt>
      <trkpt lat="45.93369" lon="4.95252">
        <ele>294</ele>
        <time>2023-09-24T12:42:38Z</time>
      </trkpt>
      <trkpt lat="45.93367" lon="4.9525">
        <ele>294</ele>
        <time>2023-09-24T12:42:39Z</time>
      </trkpt>
      <trkpt lat="45.93365" lon="4.95247">
        <ele>294.1</ele>
        <time>2023-09-24T12:42:40Z</time>
      </trkpt>
      <trkpt lat="45.93362" lon="4.95244">
        <ele>294.2</ele>
        <time>2023-09-24T12:42:41Z</time>
      </trkpt>
      <trkpt lat="45.9336" lon="4.9524">
        <ele>294.5</ele>
        <time>2023-09-24T12:42:42Z</time>
      </trkpt>
      <trkpt lat="45.93358" lon="4.95237">
        <ele>294.8</ele>
        <time>2023-09-24T12:42:43Z</time>
      </trkpt>
      <trkpt lat="45.93356" lon="4.95234">
        <ele>295</ele>
        <time>2023-09-24T12:42:44Z</time>
      </trkpt>
      <trkpt lat="45.93354" lon="4.95231">
        <ele>295.3</ele>
        <time>2023-09-24T12:42:45Z</time>
      </trkpt>
      <trkpt lat="45.93352" lon="4.95229">
        <ele>295.5</ele>
        <time>2023-09-24T12:42:46Z</time>
      </trkpt>
      <trkpt lat="45.93349" lon="4.95226">
        <ele>295.8</ele>
        <time>2023-09-24T12:42:47Z</time>
      </trkpt>
      <trkpt lat="45.93347" lon="4.95224">
        <ele>296</ele>
        <time>2023-09-24T12:42:48Z</time>
      </trkpt>
      <trkpt lat="45.93345" lon="4.95221">
        <ele>296.2</ele>
        <time>2023-09-24T12:42:49Z</time>
      </trkpt>
      <trkpt lat="45.93343" lon="4.95219">
        <ele>296.3</ele>
        <time>2023-09-24T12:42:50Z</time>
      </trkpt>
      <trkpt lat="45.9334" lon="4.95216">
        <ele>296.5</ele>
        <time>2023-09-24T12:42:51Z</time>
      </trkpt>
      <trkpt lat="45.93339" lon="4.95215">
        <ele>296.6</ele>
        <time>2023-09-24T12:42:52Z</time>
      </trkpt>
      <trkpt lat="45.93335" lon="4.95212">
        <ele>296.9</ele>
        <time>2023-09-24T12:42:53Z</time>
      </trkpt>
      <trkpt lat="45.93334" lon="4.95211">
        <ele>297</ele>
        <time>2023-09-24T12:42:54Z</time>
      </trkpt>
      <trkpt lat="45.93331" lon="4.95208">
        <ele>297.2</ele>
        <time>2023-09-24T12:42:55Z</time>
      </trkpt>
      <trkpt lat="45.9333" lon="4.95207">
        <ele>297.2</ele>
        <time>2023-09-24T12:42:56Z</time>
      </trkpt>
      <trkpt lat="45.93327" lon="4.95204">
        <ele>297.5</ele>
        <time>2023-09-24T12:42:57Z</time>
      </trkpt>
      <trkpt lat="45.93325" lon="4.95203">
        <ele>297.6</ele>
        <time>2023-09-24T12:42:58Z</time>
      </trkpt>
      <trkpt lat="45.93323" lon="4.95202">
        <ele>297.7</ele>
        <time>2023-09-24T12:42:59Z</time>
      </trkpt>
      <trkpt lat="45.93319" lon="4.952">
        <ele>298</ele>
        <time>2023-09-24T12:43:00Z</time>
      </trkpt>
      <trkpt lat="45.93318" lon="4.95199">
        <ele>298.1</ele>
        <time>2023-09-24T12:43:01Z</time>
      </trkpt>
      <trkpt lat="45.93315" lon="4.95197">
        <ele>298.3</ele>
        <time>2023-09-24T12:43:02Z</time>
      </trkpt>
      <trkpt lat="45.93314" lon="4.95197">
        <ele>298.4</ele>
        <time>2023-09-24T12:43:03Z</time>
      </trkpt>
      <trkpt lat="45.93312" lon="4.95195">
        <ele>298.5</ele>
        <time>2023-09-24T12:43:04Z</time>
      </trkpt>
      <trkpt lat="45.93311" lon="4.95194">
        <ele>298.6</ele>
        <time>2023-09-24T12:43:05Z</time>
      </trkpt>
      <trkpt lat="45.93312" lon="4.95189">
        <ele>298.4</ele>
        <time>2023-09-24T12:43:06Z</time>
      </trkpt>
      <trkpt lat="45.93312" lon="4.95188">
        <ele>298.4</ele>
        <time>2023-09-24T12:43:07Z</time>
      </trkpt>
      <trkpt lat="45.93314" lon="4.95183">
        <ele>298.2</ele>
        <time>2023-09-24T12:43:08Z</time>
      </trkpt>
      <trkpt lat="45.93317" lon="4.9518">
        <ele>298.1</ele>
        <time>2023-09-24T12:43:09Z</time>
      </trkpt>
      <trkpt lat="45.93318" lon="4.95177">
        <ele>298</ele>
        <time>2023-09-24T12:43:10Z</time>
      </trkpt>
      <trkpt lat="45.93322" lon="4.95171">
        <ele>298</ele>
        <time>2023-09-24T12:43:11Z</time>
      </trkpt>
      <trkpt lat="45.93325" lon="4.95165">
        <ele>297.9</ele>
        <time>2023-09-24T12:43:12Z</time>
      </trkpt>
      <trkpt lat="45.93328" lon="4.9516">
        <ele>297.6</ele>
        <time>2023-09-24T12:43:13Z</time>
      </trkpt>
      <trkpt lat="45.93331" lon="4.95154">
        <ele>297.1</ele>
        <time>2023-09-24T12:43:14Z</time>
      </trkpt>
      <trkpt lat="45.93335" lon="4.95148">
        <ele>296.6</ele>
        <time>2023-09-24T12:43:15Z</time>
      </trkpt>
      <trkpt lat="45.93339" lon="4.95141">
        <ele>295.9</ele>
        <time>2023-09-24T12:43:16Z</time>
      </trkpt>
      <trkpt lat="45.93343" lon="4.95134">
        <ele>295.5</ele>
        <time>2023-09-24T12:43:17Z</time>
      </trkpt>
      <trkpt lat="45.93347" lon="4.95127">
        <ele>295.1</ele>
        <time>2023-09-24T12:43:18Z</time>
      </trkpt>
      <trkpt lat="45.93351" lon="4.9512">
        <ele>294.7</ele>
        <time>2023-09-24T12:43:19Z</time>
      </trkpt>
      <trkpt lat="45.93356" lon="4.95111">
        <ele>294.2</ele>
        <time>2023-09-24T12:43:20Z</time>
      </trkpt>
      <trkpt lat="45.9336" lon="4.95103">
        <ele>294</ele>
        <time>2023-09-24T12:43:21Z</time>
      </trkpt>
      <trkpt lat="45.93364" lon="4.95095">
        <ele>294</ele>
        <time>2023-09-24T12:43:22Z</time>
      </trkpt>
      <trkpt lat="45.93368" lon="4.95087">
        <ele>294</ele>
        <time>2023-09-24T12:43:23Z</time>
      </trkpt>
      <trkpt lat="45.93372" lon="4.95078">
        <ele>293.8</ele>
        <time>2023-09-24T12:43:24Z</time>
      </trkpt>
      <trkpt lat="45.93376" lon="4.9507">
        <ele>293.5</ele>
        <time>2023-09-24T12:43:25Z</time>
      </trkpt>
      <trkpt lat="45.93379" lon="4.95061">
        <ele>293.2</ele>
        <time>2023-09-24T12:43:26Z</time>
      </trkpt>
      <trkpt lat="45.93383" lon="4.95053">
        <ele>293</ele>
        <time>2023-09-24T12:43:27Z</time>
      </trkpt>
      <trkpt lat="45.93387" lon="4.95045">
        <ele>293</ele>
        <time>2023-09-24T12:43:28Z</time>
      </trkpt>
      <trkpt lat="45.9339" lon="4.95037">
        <ele>293</ele>
        <time>2023-09-24T12:43:29Z</time>
      </trkpt>
      <trkpt lat="45.93394" lon="4.95029">
        <ele>292.8</ele>
        <time>2023-09-24T12:43:30Z</time>
      </trkpt>
      <trkpt lat="45.93397" lon="4.95021">
        <ele>292.5</ele>
        <time>2023-09-24T12:43:31Z</time>
      </trkpt>
      <trkpt lat="45.934" lon="4.95013">
        <ele>292.3</ele>
        <time>2023-09-24T12:43:32Z</time>
      </trkpt>
      <trkpt lat="45.93403" lon="4.95006">
        <ele>292.1</ele>
        <time>2023-09-24T12:43:33Z</time>
      </trkpt>
      <trkpt lat="45.93406" lon="4.94999">
        <ele>292</ele>
        <time>2023-09-24T12:43:34Z</time>
      </trkpt>
      <trkpt lat="45.9341" lon="4.94991">
        <ele>292</ele>
        <time>2023-09-24T12:43:35Z</time>
      </trkpt>
      <trkpt lat="45.93413" lon="4.94983">
        <ele>292</ele>
        <time>2023-09-24T12:43:36Z</time>
      </trkpt>
      <trkpt lat="45.93416" lon="4.94976">
        <ele>292</ele>
        <time>2023-09-24T12:43:37Z</time>
      </trkpt>
      <trkpt lat="45.93419" lon="4.94968">
        <ele>291.9</ele>
        <time>2023-09-24T12:43:38Z</time>
      </trkpt>
      <trkpt lat="45.93421" lon="4.94961">
        <ele>291.8</ele>
        <time>2023-09-24T12:43:39Z</time>
      </trkpt>
      <trkpt lat="45.93423" lon="4.94953">
        <ele>291.8</ele>
        <time>2023-09-24T12:43:40Z</time>
      </trkpt>
      <trkpt lat="45.93425" lon="4.94946">
        <ele>291.7</ele>
        <time>2023-09-24T12:43:41Z</time>
      </trkpt>
      <trkpt lat="45.93427" lon="4.94939">
        <ele>291.5</ele>
        <time>2023-09-24T12:43:42Z</time>
      </trkpt>
      <trkpt lat="45.9343" lon="4.94932">
        <ele>291.3</ele>
        <time>2023-09-24T12:43:43Z</time>
      </trkpt>
      <trkpt lat="45.93432" lon="4.94925">
        <ele>291.1</ele>
        <time>2023-09-24T12:43:44Z</time>
      </trkpt>
      <trkpt lat="45.93434" lon="4.94918">
        <ele>291</ele>
        <time>2023-09-24T12:43:45Z</time>
      </trkpt>
      <trkpt lat="45.93436" lon="4.94911">
        <ele>291.1</ele>
        <time>2023-09-24T12:43:46Z</time>
      </trkpt>
      <trkpt lat="45.93438" lon="4.94904">
        <ele>291.4</ele>
        <time>2023-09-24T12:43:47Z</time>
      </trkpt>
      <trkpt lat="45.93439" lon="4.94898">
        <ele>291.5</ele>
        <time>2023-09-24T12:43:48Z</time>
      </trkpt>
      <trkpt lat="45.93439" lon="4.94891">
        <ele>291.7</ele>
        <time>2023-09-24T12:43:49Z</time>
      </trkpt>
      <trkpt lat="45.9344" lon="4.94885">
        <ele>291.8</ele>
        <time>2023-09-24T12:43:50Z</time>
      </trkpt>
      <trkpt lat="45.9344" lon="4.94879">
        <ele>291.8</ele>
        <time>2023-09-24T12:43:51Z</time>
      </trkpt>
      <trkpt lat="45.93441" lon="4.94874">
        <ele>291.9</ele>
        <time>2023-09-24T12:43:52Z</time>
      </trkpt>
      <trkpt lat="45.93441" lon="4.94868">
        <ele>291.9</ele>
        <time>2023-09-24T12:43:53Z</time>
      </trkpt>
      <trkpt lat="45.93441" lon="4.94863">
        <ele>291.9</ele>
        <time>2023-09-24T12:43:54Z</time>
      </trkpt>
      <trkpt lat="45.9344" lon="4.94857">
        <ele>291.7</ele>
        <time>2023-09-24T12:43:55Z</time>
      </trkpt>
      <trkpt lat="45.9344" lon="4.94851">
        <ele>291.5</ele>
        <time>2023-09-24T12:43:56Z</time>
      </trkpt>
      <trkpt lat="45.9344" lon="4.94846">
        <ele>291.4</ele>
        <time>2023-09-24T12:43:57Z</time>
      </trkpt>
      <trkpt lat="45.9344" lon="4.9484">
        <ele>291.2</ele>
        <time>2023-09-24T12:43:58Z</time>
      </trkpt>
      <trkpt lat="45.9344" lon="4.94834">
        <ele>291</ele>
        <time>2023-09-24T12:43:59Z</time>
      </trkpt>
      <trkpt lat="45.9344" lon="4.94829">
        <ele>291</ele>
        <time>2023-09-24T12:44:00Z</time>
      </trkpt>
      <trkpt lat="45.9344" lon="4.94823">
        <ele>291</ele>
        <time>2023-09-24T12:44:01Z</time>
      </trkpt>
      <trkpt lat="45.93439" lon="4.94817">
        <ele>291</ele>
        <time>2023-09-24T12:44:02Z</time>
      </trkpt>
      <trkpt lat="45.93439" lon="4.94811">
        <ele>291</ele>
        <time>2023-09-24T12:44:03Z</time>
      </trkpt>
      <trkpt lat="45.93439" lon="4.94805">
        <ele>291</ele>
        <time>2023-09-24T12:44:04Z</time>
      </trkpt>
      <trkpt lat="45.93438" lon="4.94798">
        <ele>291</ele>
        <time>2023-09-24T12:44:05Z</time>
      </trkpt>
      <trkpt lat="45.93437" lon="4.94793">
        <ele>291</ele>
        <time>2023-09-24T12:44:06Z</time>
      </trkpt>
      <trkpt lat="45.93437" lon="4.94787">
        <ele>291</ele>
        <time>2023-09-24T12:44:07Z</time>
      </trkpt>
      <trkpt lat="45.93436" lon="4.94782">
        <ele>291</ele>
        <time>2023-09-24T12:44:08Z</time>
      </trkpt>
      <trkpt lat="45.93436" lon="4.94776">
        <ele>291</ele>
        <time>2023-09-24T12:44:09Z</time>
      </trkpt>
      <trkpt lat="45.93436" lon="4.9477">
        <ele>291</ele>
        <time>2023-09-24T12:44:10Z</time>
      </trkpt>
      <trkpt lat="45.93436" lon="4.94764">
        <ele>291</ele>
        <time>2023-09-24T12:44:11Z</time>
      </trkpt>
      <trkpt lat="45.93435" lon="4.94758">
        <ele>291</ele>
        <time>2023-09-24T12:44:12Z</time>
      </trkpt>
      <trkpt lat="45.93434" lon="4.94752">
        <ele>291</ele>
        <time>2023-09-24T12:44:13Z</time>
      </trkpt>
      <trkpt lat="45.93434" lon="4.94745">
        <ele>291</ele>
        <time>2023-09-24T12:44:14Z</time>
      </trkpt>
      <trkpt lat="45.93434" lon="4.94739">
        <ele>291</ele>
        <time>2023-09-24T12:44:15Z</time>
      </trkpt>
      <trkpt lat="45.93433" lon="4.94732">
        <ele>291</ele>
        <time>2023-09-24T12:44:16Z</time>
      </trkpt>
      <trkpt lat="45.93433" lon="4.94726">
        <ele>291</ele>
        <time>2023-09-24T12:44:17Z</time>
      </trkpt>
      <trkpt lat="45.93432" lon="4.94719">
        <ele>291.1</ele>
        <time>2023-09-24T12:44:18Z</time>
      </trkpt>
      <trkpt lat="45.93432" lon="4.94713">
        <ele>291.3</ele>
        <time>2023-09-24T12:44:19Z</time>
      </trkpt>
      <trkpt lat="45.93432" lon="4.94706">
        <ele>291.6</ele>
        <time>2023-09-24T12:44:20Z</time>
      </trkpt>
      <trkpt lat="45.93431" lon="4.947">
        <ele>291.8</ele>
        <time>2023-09-24T12:44:21Z</time>
      </trkpt>
      <trkpt lat="45.93431" lon="4.94694">
        <ele>292</ele>
        <time>2023-09-24T12:44:22Z</time>
      </trkpt>
      <trkpt lat="45.9343" lon="4.94687">
        <ele>292</ele>
        <time>2023-09-24T12:44:23Z</time>
      </trkpt>
      <trkpt lat="45.9343" lon="4.94681">
        <ele>292</ele>
        <time>2023-09-24T12:44:24Z</time>
      </trkpt>
      <trkpt lat="45.9343" lon="4.94675">
        <ele>292</ele>
        <time>2023-09-24T12:44:25Z</time>
      </trkpt>
      <trkpt lat="45.9343" lon="4.94668">
        <ele>292</ele>
        <time>2023-09-24T12:44:26Z</time>
      </trkpt>
      <trkpt lat="45.9343" lon="4.94662">
        <ele>292</ele>
        <time>2023-09-24T12:44:27Z</time>
      </trkpt>
      <trkpt lat="45.9343" lon="4.94656">
        <ele>292</ele>
        <time>2023-09-24T12:44:28Z</time>
      </trkpt>
      <trkpt lat="45.9343" lon="4.9465">
        <ele>292</ele>
        <time>2023-09-24T12:44:29Z</time>
      </trkpt>
      <trkpt lat="45.9343" lon="4.94643">
        <ele>292</ele>
        <time>2023-09-24T12:44:30Z</time>
      </trkpt>
      <trkpt lat="45.9343" lon="4.94637">
        <ele>292.1</ele>
        <time>2023-09-24T12:44:31Z</time>
      </trkpt>
      <trkpt lat="45.9343" lon="4.94631">
        <ele>292.3</ele>
        <time>2023-09-24T12:44:32Z</time>
      </trkpt>
      <trkpt lat="45.9343" lon="4.94625">
        <ele>292.5</ele>
        <time>2023-09-24T12:44:33Z</time>
      </trkpt>
      <trkpt lat="45.9343" lon="4.94619">
        <ele>292.7</ele>
        <time>2023-09-24T12:44:34Z</time>
      </trkpt>
      <trkpt lat="45.93431" lon="4.94613">
        <ele>292.9</ele>
        <time>2023-09-24T12:44:35Z</time>
      </trkpt>
      <trkpt lat="45.93431" lon="4.94606">
        <ele>293</ele>
        <time>2023-09-24T12:44:36Z</time>
      </trkpt>
      <trkpt lat="45.93432" lon="4.946">
        <ele>293</ele>
        <time>2023-09-24T12:44:37Z</time>
      </trkpt>
      <trkpt lat="45.93432" lon="4.94594">
        <ele>293</ele>
        <time>2023-09-24T12:44:38Z</time>
      </trkpt>
      <trkpt lat="45.93432" lon="4.94588">
        <ele>293</ele>
        <time>2023-09-24T12:44:39Z</time>
      </trkpt>
      <trkpt lat="45.93433" lon="4.94582">
        <ele>293</ele>
        <time>2023-09-24T12:44:40Z</time>
      </trkpt>
      <trkpt lat="45.93433" lon="4.94576">
        <ele>293</ele>
        <time>2023-09-24T12:44:41Z</time>
      </trkpt>
      <trkpt lat="45.93433" lon="4.94571">
        <ele>293</ele>
        <time>2023-09-24T12:44:42Z</time>
      </trkpt>
      <trkpt lat="45.93434" lon="4.94565">
        <ele>293</ele>
        <time>2023-09-24T12:44:43Z</time>
      </trkpt>
      <trkpt lat="45.93434" lon="4.94559">
        <ele>293</ele>
        <time>2023-09-24T12:44:44Z</time>
      </trkpt>
      <trkpt lat="45.93435" lon="4.94553">
        <ele>293</ele>
        <time>2023-09-24T12:44:45Z</time>
      </trkpt>
      <trkpt lat="45.93435" lon="4.94547">
        <ele>293.1</ele>
        <time>2023-09-24T12:44:46Z</time>
      </trkpt>
      <trkpt lat="45.93436" lon="4.94541">
        <ele>293.2</ele>
        <time>2023-09-24T12:44:47Z</time>
      </trkpt>
      <trkpt lat="45.93437" lon="4.94535">
        <ele>293.2</ele>
        <time>2023-09-24T12:44:48Z</time>
      </trkpt>
      <trkpt lat="45.93438" lon="4.94529">
        <ele>293.2</ele>
        <time>2023-09-24T12:44:49Z</time>
      </trkpt>
      <trkpt lat="45.93438" lon="4.94523">
        <ele>293.2</ele>
        <time>2023-09-24T12:44:50Z</time>
      </trkpt>
      <trkpt lat="45.93439" lon="4.94517">
        <ele>293.2</ele>
        <time>2023-09-24T12:44:51Z</time>
      </trkpt>
      <trkpt lat="45.93439" lon="4.94511">
        <ele>293.2</ele>
        <time>2023-09-24T12:44:52Z</time>
      </trkpt>
      <trkpt lat="45.9344" lon="4.94506">
        <ele>293.2</ele>
        <time>2023-09-24T12:44:53Z</time>
      </trkpt>
      <trkpt lat="45.93441" lon="4.945">
        <ele>293.1</ele>
        <time>2023-09-24T12:44:54Z</time>
      </trkpt>
      <trkpt lat="45.93441" lon="4.94494">
        <ele>293.1</ele>
        <time>2023-09-24T12:44:55Z</time>
      </trkpt>
      <trkpt lat="45.93442" lon="4.94488">
        <ele>293</ele>
        <time>2023-09-24T12:44:56Z</time>
      </trkpt>
      <trkpt lat="45.93443" lon="4.94482">
        <ele>293</ele>
        <time>2023-09-24T12:44:57Z</time>
      </trkpt>
      <trkpt lat="45.93444" lon="4.94476">
        <ele>293</ele>
        <time>2023-09-24T12:44:58Z</time>
      </trkpt>
      <trkpt lat="45.93445" lon="4.9447">
        <ele>293.1</ele>
        <time>2023-09-24T12:44:59Z</time>
      </trkpt>
      <trkpt lat="45.93446" lon="4.94464">
        <ele>293.3</ele>
        <time>2023-09-24T12:45:00Z</time>
      </trkpt>
      <trkpt lat="45.93446" lon="4.94458">
        <ele>293.5</ele>
        <time>2023-09-24T12:45:01Z</time>
      </trkpt>
      <trkpt lat="45.93447" lon="4.94452">
        <ele>293.7</ele>
        <time>2023-09-24T12:45:02Z</time>
      </trkpt>
      <trkpt lat="45.93447" lon="4.94445">
        <ele>293.9</ele>
        <time>2023-09-24T12:45:03Z</time>
      </trkpt>
      <trkpt lat="45.93448" lon="4.94439">
        <ele>293.9</ele>
        <time>2023-09-24T12:45:04Z</time>
      </trkpt>
      <trkpt lat="45.93449" lon="4.94433">
        <ele>293.8</ele>
        <time>2023-09-24T12:45:05Z</time>
      </trkpt>
      <trkpt lat="45.9345" lon="4.94427">
        <ele>293.8</ele>
        <time>2023-09-24T12:45:06Z</time>
      </trkpt>
      <trkpt lat="45.93452" lon="4.94422">
        <ele>293.7</ele>
        <time>2023-09-24T12:45:07Z</time>
      </trkpt>
      <trkpt lat="45.93454" lon="4.94416">
        <ele>293.7</ele>
        <time>2023-09-24T12:45:08Z</time>
      </trkpt>
      <trkpt lat="45.93455" lon="4.9441">
        <ele>293.6</ele>
        <time>2023-09-24T12:45:09Z</time>
      </trkpt>
      <trkpt lat="45.93457" lon="4.94404">
        <ele>293.5</ele>
        <time>2023-09-24T12:45:10Z</time>
      </trkpt>
      <trkpt lat="45.93458" lon="4.94398">
        <ele>293.5</ele>
        <time>2023-09-24T12:45:11Z</time>
      </trkpt>
      <trkpt lat="45.9346" lon="4.94392">
        <ele>293.4</ele>
        <time>2023-09-24T12:45:12Z</time>
      </trkpt>
      <trkpt lat="45.93461" lon="4.94386">
        <ele>293.4</ele>
        <time>2023-09-24T12:45:13Z</time>
      </trkpt>
      <trkpt lat="45.93463" lon="4.94381">
        <ele>293.2</ele>
        <time>2023-09-24T12:45:14Z</time>
      </trkpt>
      <trkpt lat="45.93465" lon="4.94375">
        <ele>293.1</ele>
        <time>2023-09-24T12:45:15Z</time>
      </trkpt>
      <trkpt lat="45.93468" lon="4.9437">
        <ele>293</ele>
        <time>2023-09-24T12:45:16Z</time>
      </trkpt>
      <trkpt lat="45.9347" lon="4.94365">
        <ele>293</ele>
        <time>2023-09-24T12:45:17Z</time>
      </trkpt>
      <trkpt lat="45.93472" lon="4.94359">
        <ele>293.1</ele>
        <time>2023-09-24T12:45:18Z</time>
      </trkpt>
      <trkpt lat="45.93474" lon="4.94354">
        <ele>293.2</ele>
        <time>2023-09-24T12:45:19Z</time>
      </trkpt>
      <trkpt lat="45.93477" lon="4.94349">
        <ele>293.2</ele>
        <time>2023-09-24T12:45:20Z</time>
      </trkpt>
      <trkpt lat="45.93479" lon="4.94344">
        <ele>293.2</ele>
        <time>2023-09-24T12:45:21Z</time>
      </trkpt>
      <trkpt lat="45.93482" lon="4.94339">
        <ele>293.2</ele>
        <time>2023-09-24T12:45:22Z</time>
      </trkpt>
      <trkpt lat="45.93484" lon="4.94334">
        <ele>293.1</ele>
        <time>2023-09-24T12:45:23Z</time>
      </trkpt>
      <trkpt lat="45.93487" lon="4.94329">
        <ele>292.9</ele>
        <time>2023-09-24T12:45:24Z</time>
      </trkpt>
      <trkpt lat="45.9349" lon="4.94324">
        <ele>292.8</ele>
        <time>2023-09-24T12:45:25Z</time>
      </trkpt>
      <trkpt lat="45.93493" lon="4.94319">
        <ele>292.8</ele>
        <time>2023-09-24T12:45:26Z</time>
      </trkpt>
      <trkpt lat="45.93496" lon="4.94314">
        <ele>292.8</ele>
        <time>2023-09-24T12:45:27Z</time>
      </trkpt>
      <trkpt lat="45.935" lon="4.9431">
        <ele>292.8</ele>
        <time>2023-09-24T12:45:28Z</time>
      </trkpt>
      <trkpt lat="45.93503" lon="4.94306">
        <ele>292.9</ele>
        <time>2023-09-24T12:45:29Z</time>
      </trkpt>
      <trkpt lat="45.93507" lon="4.94301">
        <ele>292.8</ele>
        <time>2023-09-24T12:45:30Z</time>
      </trkpt>
      <trkpt lat="45.9351" lon="4.94297">
        <ele>292.8</ele>
        <time>2023-09-24T12:45:31Z</time>
      </trkpt>
      <trkpt lat="45.93513" lon="4.94293">
        <ele>292.7</ele>
        <time>2023-09-24T12:45:32Z</time>
      </trkpt>
      <trkpt lat="45.93517" lon="4.94288">
        <ele>292.8</ele>
        <time>2023-09-24T12:45:33Z</time>
      </trkpt>
      <trkpt lat="45.93521" lon="4.94284">
        <ele>292.8</ele>
        <time>2023-09-24T12:45:34Z</time>
      </trkpt>
      <trkpt lat="45.93524" lon="4.9428">
        <ele>292.9</ele>
        <time>2023-09-24T12:45:35Z</time>
      </trkpt>
      <trkpt lat="45.93527" lon="4.94276">
        <ele>293.1</ele>
        <time>2023-09-24T12:45:36Z</time>
      </trkpt>
      <trkpt lat="45.9353" lon="4.94271">
        <ele>293.1</ele>
        <time>2023-09-24T12:45:37Z</time>
      </trkpt>
      <trkpt lat="45.93534" lon="4.94267">
        <ele>293.1</ele>
        <time>2023-09-24T12:45:38Z</time>
      </trkpt>
      <trkpt lat="45.93536" lon="4.94262">
        <ele>293.1</ele>
        <time>2023-09-24T12:45:39Z</time>
      </trkpt>
      <trkpt lat="45.93539" lon="4.94258">
        <ele>293</ele>
        <time>2023-09-24T12:45:40Z</time>
      </trkpt>
      <trkpt lat="45.93542" lon="4.94253">
        <ele>292.9</ele>
        <time>2023-09-24T12:45:41Z</time>
      </trkpt>
      <trkpt lat="45.93545" lon="4.94247">
        <ele>292.8</ele>
        <time>2023-09-24T12:45:42Z</time>
      </trkpt>
      <trkpt lat="45.93547" lon="4.94242">
        <ele>292.7</ele>
        <time>2023-09-24T12:45:43Z</time>
      </trkpt>
      <trkpt lat="45.93549" lon="4.94236">
        <ele>292.7</ele>
        <time>2023-09-24T12:45:44Z</time>
      </trkpt>
      <trkpt lat="45.93551" lon="4.94231">
        <ele>292.8</ele>
        <time>2023-09-24T12:45:45Z</time>
      </trkpt>
      <trkpt lat="45.93554" lon="4.94225">
        <ele>292.9</ele>
        <time>2023-09-24T12:45:46Z</time>
      </trkpt>
      <trkpt lat="45.93556" lon="4.94219">
        <ele>293.1</ele>
        <time>2023-09-24T12:45:47Z</time>
      </trkpt>
      <trkpt lat="45.93558" lon="4.94214">
        <ele>293.3</ele>
        <time>2023-09-24T12:45:48Z</time>
      </trkpt>
      <trkpt lat="45.9356" lon="4.94208">
        <ele>293.4</ele>
        <time>2023-09-24T12:45:49Z</time>
      </trkpt>
      <trkpt lat="45.93562" lon="4.94202">
        <ele>293.6</ele>
        <time>2023-09-24T12:45:50Z</time>
      </trkpt>
      <trkpt lat="45.93564" lon="4.94197">
        <ele>293.6</ele>
        <time>2023-09-24T12:45:51Z</time>
      </trkpt>
      <trkpt lat="45.93566" lon="4.94191">
        <ele>293.6</ele>
        <time>2023-09-24T12:45:52Z</time>
      </trkpt>
      <trkpt lat="45.93567" lon="4.94185">
        <ele>293.6</ele>
        <time>2023-09-24T12:45:53Z</time>
      </trkpt>
      <trkpt lat="45.93568" lon="4.94179">
        <ele>293.6</ele>
        <time>2023-09-24T12:45:54Z</time>
      </trkpt>
      <trkpt lat="45.9357" lon="4.94173">
        <ele>293.5</ele>
        <time>2023-09-24T12:45:55Z</time>
      </trkpt>
      <trkpt lat="45.93571" lon="4.94167">
        <ele>293.4</ele>
        <time>2023-09-24T12:45:56Z</time>
      </trkpt>
      <trkpt lat="45.93572" lon="4.94161">
        <ele>293.4</ele>
        <time>2023-09-24T12:45:57Z</time>
      </trkpt>
      <trkpt lat="45.93572" lon="4.94154">
        <ele>293.5</ele>
        <time>2023-09-24T12:45:58Z</time>
      </trkpt>
      <trkpt lat="45.93573" lon="4.94148">
        <ele>293.5</ele>
        <time>2023-09-24T12:45:59Z</time>
      </trkpt>
      <trkpt lat="45.93573" lon="4.94142">
        <ele>293.6</ele>
        <time>2023-09-24T12:46:00Z</time>
      </trkpt>
      <trkpt lat="45.93573" lon="4.94136">
        <ele>293.7</ele>
        <time>2023-09-24T12:46:01Z</time>
      </trkpt>
      <trkpt lat="45.93573" lon="4.94129">
        <ele>293.8</ele>
        <time>2023-09-24T12:46:02Z</time>
      </trkpt>
      <trkpt lat="45.93573" lon="4.94123">
        <ele>293.8</ele>
        <time>2023-09-24T12:46:03Z</time>
      </trkpt>
      <trkpt lat="45.93573" lon="4.94117">
        <ele>293.9</ele>
        <time>2023-09-24T12:46:04Z</time>
      </trkpt>
      <trkpt lat="45.93573" lon="4.94111">
        <ele>294</ele>
        <time>2023-09-24T12:46:05Z</time>
      </trkpt>
      <trkpt lat="45.93572" lon="4.94104">
        <ele>294</ele>
        <time>2023-09-24T12:46:06Z</time>
      </trkpt>
      <trkpt lat="45.93572" lon="4.94098">
        <ele>294</ele>
        <time>2023-09-24T12:46:07Z</time>
      </trkpt>
      <trkpt lat="45.93571" lon="4.94092">
        <ele>294</ele>
        <time>2023-09-24T12:46:08Z</time>
      </trkpt>
      <trkpt lat="45.9357" lon="4.94086">
        <ele>294</ele>
        <time>2023-09-24T12:46:09Z</time>
      </trkpt>
      <trkpt lat="45.9357" lon="4.9408">
        <ele>294</ele>
        <time>2023-09-24T12:46:10Z</time>
      </trkpt>
      <trkpt lat="45.93569" lon="4.94074">
        <ele>294</ele>
        <time>2023-09-24T12:46:11Z</time>
      </trkpt>
      <trkpt lat="45.93569" lon="4.94068">
        <ele>294</ele>
        <time>2023-09-24T12:46:12Z</time>
      </trkpt>
      <trkpt lat="45.93568" lon="4.94061">
        <ele>294</ele>
        <time>2023-09-24T12:46:13Z</time>
      </trkpt>
      <trkpt lat="45.93568" lon="4.94055">
        <ele>294</ele>
        <time>2023-09-24T12:46:14Z</time>
      </trkpt>
      <trkpt lat="45.93567" lon="4.94049">
        <ele>294</ele>
        <time>2023-09-24T12:46:15Z</time>
      </trkpt>
      <trkpt lat="45.93566" lon="4.94042">
        <ele>294</ele>
        <time>2023-09-24T12:46:16Z</time>
      </trkpt>
      <trkpt lat="45.93565" lon="4.94035">
        <ele>294</ele>
        <time>2023-09-24T12:46:17Z</time>
      </trkpt>
      <trkpt lat="45.93565" lon="4.94029">
        <ele>294</ele>
        <time>2023-09-24T12:46:18Z</time>
      </trkpt>
      <trkpt lat="45.93564" lon="4.94022">
        <ele>294.1</ele>
        <time>2023-09-24T12:46:19Z</time>
      </trkpt>
      <trkpt lat="45.93564" lon="4.94015">
        <ele>294.1</ele>
        <time>2023-09-24T12:46:20Z</time>
      </trkpt>
      <trkpt lat="45.93563" lon="4.94009">
        <ele>294.2</ele>
        <time>2023-09-24T12:46:21Z</time>
      </trkpt>
      <trkpt lat="45.93563" lon="4.94002">
        <ele>294.2</ele>
        <time>2023-09-24T12:46:22Z</time>
      </trkpt>
      <trkpt lat="45.93562" lon="4.93996">
        <ele>294.3</ele>
        <time>2023-09-24T12:46:23Z</time>
      </trkpt>
      <trkpt lat="45.93561" lon="4.93989">
        <ele>294.5</ele>
        <time>2023-09-24T12:46:24Z</time>
      </trkpt>
      <trkpt lat="45.93561" lon="4.93982">
        <ele>294.7</ele>
        <time>2023-09-24T12:46:25Z</time>
      </trkpt>
      <trkpt lat="45.9356" lon="4.93975">
        <ele>294.9</ele>
        <time>2023-09-24T12:46:26Z</time>
      </trkpt>
      <trkpt lat="45.93559" lon="4.93969">
        <ele>295</ele>
        <time>2023-09-24T12:46:27Z</time>
      </trkpt>
      <trkpt lat="45.93558" lon="4.93962">
        <ele>295</ele>
        <time>2023-09-24T12:46:28Z</time>
      </trkpt>
      <trkpt lat="45.93559" lon="4.93955">
        <ele>295</ele>
        <time>2023-09-24T12:46:29Z</time>
      </trkpt>
      <trkpt lat="45.93558" lon="4.9395">
        <ele>295</ele>
        <time>2023-09-24T12:46:30Z</time>
      </trkpt>
      <trkpt lat="45.93557" lon="4.93943">
        <ele>295</ele>
        <time>2023-09-24T12:46:31Z</time>
      </trkpt>
      <trkpt lat="45.93557" lon="4.93938">
        <ele>295</ele>
        <time>2023-09-24T12:46:32Z</time>
      </trkpt>
      <trkpt lat="45.93557" lon="4.93932">
        <ele>295</ele>
        <time>2023-09-24T12:46:33Z</time>
      </trkpt>
      <trkpt lat="45.93556" lon="4.93927">
        <ele>295</ele>
        <time>2023-09-24T12:46:34Z</time>
      </trkpt>
      <trkpt lat="45.93555" lon="4.93922">
        <ele>295</ele>
        <time>2023-09-24T12:46:35Z</time>
      </trkpt>
      <trkpt lat="45.93554" lon="4.93917">
        <ele>295</ele>
        <time>2023-09-24T12:46:36Z</time>
      </trkpt>
      <trkpt lat="45.93553" lon="4.93912">
        <ele>295</ele>
        <time>2023-09-24T12:46:37Z</time>
      </trkpt>
      <trkpt lat="45.93552" lon="4.93907">
        <ele>295</ele>
        <time>2023-09-24T12:46:38Z</time>
      </trkpt>
      <trkpt lat="45.93552" lon="4.93901">
        <ele>295</ele>
        <time>2023-09-24T12:46:39Z</time>
      </trkpt>
      <trkpt lat="45.93551" lon="4.93895">
        <ele>295</ele>
        <time>2023-09-24T12:46:40Z</time>
      </trkpt>
      <trkpt lat="45.93551" lon="4.93889">
        <ele>295</ele>
        <time>2023-09-24T12:46:41Z</time>
      </trkpt>
      <trkpt lat="45.9355" lon="4.93882">
        <ele>295</ele>
        <time>2023-09-24T12:46:42Z</time>
      </trkpt>
      <trkpt lat="45.93549" lon="4.93876">
        <ele>295</ele>
        <time>2023-09-24T12:46:43Z</time>
      </trkpt>
      <trkpt lat="45.93548" lon="4.9387">
        <ele>295</ele>
        <time>2023-09-24T12:46:44Z</time>
      </trkpt>
      <trkpt lat="45.93547" lon="4.93864">
        <ele>295</ele>
        <time>2023-09-24T12:46:45Z</time>
      </trkpt>
      <trkpt lat="45.93546" lon="4.93858">
        <ele>295</ele>
        <time>2023-09-24T12:46:46Z</time>
      </trkpt>
      <trkpt lat="45.93545" lon="4.93851">
        <ele>295</ele>
        <time>2023-09-24T12:46:47Z</time>
      </trkpt>
      <trkpt lat="45.93543" lon="4.93845">
        <ele>295</ele>
        <time>2023-09-24T12:46:48Z</time>
      </trkpt>
      <trkpt lat="45.93542" lon="4.93839">
        <ele>295</ele>
        <time>2023-09-24T12:46:49Z</time>
      </trkpt>
      <trkpt lat="45.93541" lon="4.93833">
        <ele>295</ele>
        <time>2023-09-24T12:46:50Z</time>
      </trkpt>
      <trkpt lat="45.93539" lon="4.93828">
        <ele>295.2</ele>
        <time>2023-09-24T12:46:51Z</time>
      </trkpt>
      <trkpt lat="45.93538" lon="4.93822">
        <ele>295.4</ele>
        <time>2023-09-24T12:46:52Z</time>
      </trkpt>
      <trkpt lat="45.93537" lon="4.93816">
        <ele>295.6</ele>
        <time>2023-09-24T12:46:53Z</time>
      </trkpt>
      <trkpt lat="45.93536" lon="4.93812">
        <ele>295.8</ele>
        <time>2023-09-24T12:46:54Z</time>
      </trkpt>
      <trkpt lat="45.93534" lon="4.93806">
        <ele>296</ele>
        <time>2023-09-24T12:46:55Z</time>
      </trkpt>
      <trkpt lat="45.93533" lon="4.93801">
        <ele>296</ele>
        <time>2023-09-24T12:46:56Z</time>
      </trkpt>
      <trkpt lat="45.93531" lon="4.93795">
        <ele>296</ele>
        <time>2023-09-24T12:46:57Z</time>
      </trkpt>
      <trkpt lat="45.9353" lon="4.93789">
        <ele>296</ele>
        <time>2023-09-24T12:46:58Z</time>
      </trkpt>
      <trkpt lat="45.93529" lon="4.93784">
        <ele>296</ele>
        <time>2023-09-24T12:46:59Z</time>
      </trkpt>
      <trkpt lat="45.93527" lon="4.93779">
        <ele>296</ele>
        <time>2023-09-24T12:47:00Z</time>
      </trkpt>
      <trkpt lat="45.93525" lon="4.93774">
        <ele>296</ele>
        <time>2023-09-24T12:47:01Z</time>
      </trkpt>
      <trkpt lat="45.93523" lon="4.93769">
        <ele>296</ele>
        <time>2023-09-24T12:47:02Z</time>
      </trkpt>
      <trkpt lat="45.93521" lon="4.93764">
        <ele>296</ele>
        <time>2023-09-24T12:47:03Z</time>
      </trkpt>
      <trkpt lat="45.9352" lon="4.93759">
        <ele>296</ele>
        <time>2023-09-24T12:47:04Z</time>
      </trkpt>
      <trkpt lat="45.93518" lon="4.93755">
        <ele>296</ele>
        <time>2023-09-24T12:47:05Z</time>
      </trkpt>
      <trkpt lat="45.93519" lon="4.93751">
        <ele>296</ele>
        <time>2023-09-24T12:47:06Z</time>
      </trkpt>
      <trkpt lat="45.9352" lon="4.9375">
        <ele>296</ele>
        <time>2023-09-24T12:47:07Z</time>
      </trkpt>
      <trkpt lat="45.9352" lon="4.93748">
        <ele>296</ele>
        <time>2023-09-24T12:47:08Z</time>
      </trkpt>
      <trkpt lat="45.93522" lon="4.93747">
        <ele>296</ele>
        <time>2023-09-24T12:47:09Z</time>
      </trkpt>
      <trkpt lat="45.93522" lon="4.93746">
        <ele>296</ele>
        <time>2023-09-24T12:47:10Z</time>
      </trkpt>
      <trkpt lat="45.93523" lon="4.93745">
        <ele>296</ele>
        <time>2023-09-24T12:47:11Z</time>
      </trkpt>
      <trkpt lat="45.93523" lon="4.93745">
        <ele>296</ele>
        <time>2023-09-24T12:47:12Z</time>
      </trkpt>
      <trkpt lat="45.93523" lon="4.93744">
        <ele>296</ele>
        <time>2023-09-24T12:47:13Z</time>
      </trkpt>
      <trkpt lat="45.93524" lon="4.93744">
        <ele>296</ele>
        <time>2023-09-24T12:47:14Z</time>
      </trkpt>
      <trkpt lat="45.93524" lon="4.93743">
        <ele>296</ele>
        <time>2023-09-24T12:47:15Z</time>
      </trkpt>
      <trkpt lat="45.93525" lon="4.93743">
        <ele>296</ele>
        <time>2023-09-24T12:47:16Z</time>
      </trkpt>
      <trkpt lat="45.93525" lon="4.93742">
        <ele>296</ele>
        <time>2023-09-24T12:47:17Z</time>
      </trkpt>
      <trkpt lat="45.93526" lon="4.93741">
        <ele>296</ele>
        <time>2023-09-24T12:47:18Z</time>
      </trkpt>
      <trkpt lat="45.93526" lon="4.93741">
        <ele>296</ele>
        <time>2023-09-24T12:47:19Z</time>
      </trkpt>
      <trkpt lat="45.93527" lon="4.9374">
        <ele>296</ele>
        <time>2023-09-24T12:47:24Z</time>
      </trkpt>
      <trkpt lat="45.93527" lon="4.9374">
        <ele>296</ele>
        <time>2023-09-24T12:47:25Z</time>
      </trkpt>
      <trkpt lat="45.93529" lon="4.93736">
        <ele>296</ele>
        <time>2023-09-24T12:47:26Z</time>
      </trkpt>
      <trkpt lat="45.93529" lon="4.93734">
        <ele>296</ele>
        <time>2023-09-24T12:47:27Z</time>
      </trkpt>
      <trkpt lat="45.93531" lon="4.93731">
        <ele>296</ele>
        <time>2023-09-24T12:47:28Z</time>
      </trkpt>
      <trkpt lat="45.93533" lon="4.93728">
        <ele>296</ele>
        <time>2023-09-24T12:47:29Z</time>
      </trkpt>
      <trkpt lat="45.93534" lon="4.93726">
        <ele>296</ele>
        <time>2023-09-24T12:47:30Z</time>
      </trkpt>
      <trkpt lat="45.93536" lon="4.93724">
        <ele>296</ele>
        <time>2023-09-24T12:47:31Z</time>
      </trkpt>
      <trkpt lat="45.93538" lon="4.93722">
        <ele>296</ele>
        <time>2023-09-24T12:47:32Z</time>
      </trkpt>
      <trkpt lat="45.93539" lon="4.93717">
        <ele>296</ele>
        <time>2023-09-24T12:47:33Z</time>
      </trkpt>
      <trkpt lat="45.93539" lon="4.93716">
        <ele>296</ele>
        <time>2023-09-24T12:47:34Z</time>
      </trkpt>
      <trkpt lat="45.9354" lon="4.93715">
        <ele>296</ele>
        <time>2023-09-24T12:47:35Z</time>
      </trkpt>
      <trkpt lat="45.93543" lon="4.93712">
        <ele>296</ele>
        <time>2023-09-24T12:47:36Z</time>
      </trkpt>
      <trkpt lat="45.93546" lon="4.93709">
        <ele>296</ele>
        <time>2023-09-24T12:47:37Z</time>
      </trkpt>
      <trkpt lat="45.93546" lon="4.93707">
        <ele>296</ele>
        <time>2023-09-24T12:47:38Z</time>
      </trkpt>
      <trkpt lat="45.93549" lon="4.93702">
        <ele>296</ele>
        <time>2023-09-24T12:47:39Z</time>
      </trkpt>
      <trkpt lat="45.9355" lon="4.937">
        <ele>296</ele>
        <time>2023-09-24T12:47:40Z</time>
      </trkpt>
      <trkpt lat="45.93553" lon="4.93696">
        <ele>296</ele>
        <time>2023-09-24T12:47:41Z</time>
      </trkpt>
      <trkpt lat="45.93555" lon="4.93693">
        <ele>295.9</ele>
        <time>2023-09-24T12:47:42Z</time>
      </trkpt>
      <trkpt lat="45.93557" lon="4.93689">
        <ele>295.8</ele>
        <time>2023-09-24T12:47:43Z</time>
      </trkpt>
      <trkpt lat="45.9356" lon="4.93685">
        <ele>295.6</ele>
        <time>2023-09-24T12:47:44Z</time>
      </trkpt>
      <trkpt lat="45.93562" lon="4.93683">
        <ele>295.5</ele>
        <time>2023-09-24T12:47:45Z</time>
      </trkpt>
      <trkpt lat="45.93563" lon="4.93682">
        <ele>295.4</ele>
        <time>2023-09-24T12:47:46Z</time>
      </trkpt>
      <trkpt lat="45.93565" lon="4.93678">
        <ele>295.3</ele>
        <time>2023-09-24T12:47:47Z</time>
      </trkpt>
      <trkpt lat="45.93568" lon="4.93676">
        <ele>295.2</ele>
        <time>2023-09-24T12:47:48Z</time>
      </trkpt>
      <trkpt lat="45.9357" lon="4.93672">
        <ele>295.1</ele>
        <time>2023-09-24T12:47:49Z</time>
      </trkpt>
      <trkpt lat="45.93571" lon="4.93671">
        <ele>295.1</ele>
        <time>2023-09-24T12:47:50Z</time>
      </trkpt>
      <trkpt lat="45.93572" lon="4.9367">
        <ele>295</ele>
        <time>2023-09-24T12:47:51Z</time>
      </trkpt>
      <trkpt lat="45.93574" lon="4.93668">
        <ele>295</ele>
        <time>2023-09-24T12:47:52Z</time>
      </trkpt>
      <trkpt lat="45.93575" lon="4.93664">
        <ele>295</ele>
        <time>2023-09-24T12:47:53Z</time>
      </trkpt>
      <trkpt lat="45.93575" lon="4.93662">
        <ele>295</ele>
        <time>2023-09-24T12:47:54Z</time>
      </trkpt>
      <trkpt lat="45.93577" lon="4.93657">
        <ele>295</ele>
        <time>2023-09-24T12:47:55Z</time>
      </trkpt>
      <trkpt lat="45.93578" lon="4.93655">
        <ele>295</ele>
        <time>2023-09-24T12:47:56Z</time>
      </trkpt>
      <trkpt lat="45.93581" lon="4.93652">
        <ele>295</ele>
        <time>2023-09-24T12:47:57Z</time>
      </trkpt>
      <trkpt lat="45.93583" lon="4.93649">
        <ele>295</ele>
        <time>2023-09-24T12:47:58Z</time>
      </trkpt>
      <trkpt lat="45.93586" lon="4.93642">
        <ele>295</ele>
        <time>2023-09-24T12:47:59Z</time>
      </trkpt>
      <trkpt lat="45.93589" lon="4.93638">
        <ele>295</ele>
        <time>2023-09-24T12:48:00Z</time>
      </trkpt>
      <trkpt lat="45.9359" lon="4.93635">
        <ele>295</ele>
        <time>2023-09-24T12:48:01Z</time>
      </trkpt>
      <trkpt lat="45.93594" lon="4.93631">
        <ele>295</ele>
        <time>2023-09-24T12:48:02Z</time>
      </trkpt>
      <trkpt lat="45.93596" lon="4.93627">
        <ele>295</ele>
        <time>2023-09-24T12:48:03Z</time>
      </trkpt>
      <trkpt lat="45.93597" lon="4.93627">
        <ele>295</ele>
        <time>2023-09-24T12:48:04Z</time>
      </trkpt>
      <trkpt lat="45.93599" lon="4.93624">
        <ele>295</ele>
        <time>2023-09-24T12:48:05Z</time>
      </trkpt>
      <trkpt lat="45.93602" lon="4.93621">
        <ele>295</ele>
        <time>2023-09-24T12:48:06Z</time>
      </trkpt>
      <trkpt lat="45.93604" lon="4.93618">
        <ele>295</ele>
        <time>2023-09-24T12:48:07Z</time>
      </trkpt>
      <trkpt lat="45.93604" lon="4.93617">
        <ele>295</ele>
        <time>2023-09-24T12:48:08Z</time>
      </trkpt>
      <trkpt lat="45.93607" lon="4.93613">
        <ele>295</ele>
        <time>2023-09-24T12:48:09Z</time>
      </trkpt>
      <trkpt lat="45.93608" lon="4.93612">
        <ele>295</ele>
        <time>2023-09-24T12:48:10Z</time>
      </trkpt>
      <trkpt lat="45.93609" lon="4.93609">
        <ele>295</ele>
        <time>2023-09-24T12:48:11Z</time>
      </trkpt>
      <trkpt lat="45.93611" lon="4.93605">
        <ele>295</ele>
        <time>2023-09-24T12:48:12Z</time>
      </trkpt>
      <trkpt lat="45.93612" lon="4.93605">
        <ele>295</ele>
        <time>2023-09-24T12:48:13Z</time>
      </trkpt>
      <trkpt lat="45.93615" lon="4.93601">
        <ele>295</ele>
        <time>2023-09-24T12:48:14Z</time>
      </trkpt>
      <trkpt lat="45.93617" lon="4.93599">
        <ele>295</ele>
        <time>2023-09-24T12:48:15Z</time>
      </trkpt>
      <trkpt lat="45.93617" lon="4.93596">
        <ele>295</ele>
        <time>2023-09-24T12:48:16Z</time>
      </trkpt>
      <trkpt lat="45.93618" lon="4.93593">
        <ele>295</ele>
        <time>2023-09-24T12:48:17Z</time>
      </trkpt>
      <trkpt lat="45.9362" lon="4.9359">
        <ele>295</ele>
        <time>2023-09-24T12:48:18Z</time>
      </trkpt>
      <trkpt lat="45.93623" lon="4.93587">
        <ele>295</ele>
        <time>2023-09-24T12:48:19Z</time>
      </trkpt>
      <trkpt lat="45.93623" lon="4.93586">
        <ele>295</ele>
        <time>2023-09-24T12:48:20Z</time>
      </trkpt>
      <trkpt lat="45.93625" lon="4.93581">
        <ele>295</ele>
        <time>2023-09-24T12:48:21Z</time>
      </trkpt>
      <trkpt lat="45.93626" lon="4.93579">
        <ele>295</ele>
        <time>2023-09-24T12:48:22Z</time>
      </trkpt>
      <trkpt lat="45.93628" lon="4.93576">
        <ele>295</ele>
        <time>2023-09-24T12:48:23Z</time>
      </trkpt>
      <trkpt lat="45.93631" lon="4.93572">
        <ele>295</ele>
        <time>2023-09-24T12:48:24Z</time>
      </trkpt>
      <trkpt lat="45.93633" lon="4.93569">
        <ele>295</ele>
        <time>2023-09-24T12:48:25Z</time>
      </trkpt>
      <trkpt lat="45.93635" lon="4.93565">
        <ele>295</ele>
        <time>2023-09-24T12:48:26Z</time>
      </trkpt>
      <trkpt lat="45.93637" lon="4.9356">
        <ele>295</ele>
        <time>2023-09-24T12:48:27Z</time>
      </trkpt>
      <trkpt lat="45.93638" lon="4.93556">
        <ele>295</ele>
        <time>2023-09-24T12:48:28Z</time>
      </trkpt>
      <trkpt lat="45.93639" lon="4.93555">
        <ele>295</ele>
        <time>2023-09-24T12:48:29Z</time>
      </trkpt>
      <trkpt lat="45.93643" lon="4.93551">
        <ele>295</ele>
        <time>2023-09-24T12:48:30Z</time>
      </trkpt>
      <trkpt lat="45.93645" lon="4.93549">
        <ele>295</ele>
        <time>2023-09-24T12:48:31Z</time>
      </trkpt>
      <trkpt lat="45.93648" lon="4.93547">
        <ele>295</ele>
        <time>2023-09-24T12:48:32Z</time>
      </trkpt>
      <trkpt lat="45.93651" lon="4.93543">
        <ele>295</ele>
        <time>2023-09-24T12:48:33Z</time>
      </trkpt>
      <trkpt lat="45.93652" lon="4.93541">
        <ele>295</ele>
        <time>2023-09-24T12:48:34Z</time>
      </trkpt>
      <trkpt lat="45.93653" lon="4.93537">
        <ele>295</ele>
        <time>2023-09-24T12:48:35Z</time>
      </trkpt>
      <trkpt lat="45.93655" lon="4.93534">
        <ele>295</ele>
        <time>2023-09-24T12:48:36Z</time>
      </trkpt>
      <trkpt lat="45.93656" lon="4.93532">
        <ele>295</ele>
        <time>2023-09-24T12:48:37Z</time>
      </trkpt>
      <trkpt lat="45.93659" lon="4.93529">
        <ele>295</ele>
        <time>2023-09-24T12:48:38Z</time>
      </trkpt>
      <trkpt lat="45.93659" lon="4.93528">
        <ele>295</ele>
        <time>2023-09-24T12:48:39Z</time>
      </trkpt>
      <trkpt lat="45.93661" lon="4.93524">
        <ele>295</ele>
        <time>2023-09-24T12:48:40Z</time>
      </trkpt>
      <trkpt lat="45.93662" lon="4.93523">
        <ele>295</ele>
        <time>2023-09-24T12:48:41Z</time>
      </trkpt>
      <trkpt lat="45.93664" lon="4.9352">
        <ele>295</ele>
        <time>2023-09-24T12:48:42Z</time>
      </trkpt>
      <trkpt lat="45.93665" lon="4.93519">
        <ele>295</ele>
        <time>2023-09-24T12:48:43Z</time>
      </trkpt>
      <trkpt lat="45.93666" lon="4.93516">
        <ele>295</ele>
        <time>2023-09-24T12:48:44Z</time>
      </trkpt>
      <trkpt lat="45.93667" lon="4.93513">
        <ele>295</ele>
        <time>2023-09-24T12:48:45Z</time>
      </trkpt>
      <trkpt lat="45.93668" lon="4.93512">
        <ele>295</ele>
        <time>2023-09-24T12:48:46Z</time>
      </trkpt>
      <trkpt lat="45.93671" lon="4.93508">
        <ele>295</ele>
        <time>2023-09-24T12:48:47Z</time>
      </trkpt>
      <trkpt lat="45.93672" lon="4.93508">
        <ele>295</ele>
        <time>2023-09-24T12:48:48Z</time>
      </trkpt>
      <trkpt lat="45.93674" lon="4.93504">
        <ele>295</ele>
        <time>2023-09-24T12:48:49Z</time>
      </trkpt>
      <trkpt lat="45.93677" lon="4.93501">
        <ele>295</ele>
        <time>2023-09-24T12:48:50Z</time>
      </trkpt>
      <trkpt lat="45.93678" lon="4.935">
        <ele>295</ele>
        <time>2023-09-24T12:48:51Z</time>
      </trkpt>
      <trkpt lat="45.9368" lon="4.93496">
        <ele>295</ele>
        <time>2023-09-24T12:48:52Z</time>
      </trkpt>
      <trkpt lat="45.93681" lon="4.93494">
        <ele>295</ele>
        <time>2023-09-24T12:48:53Z</time>
      </trkpt>
      <trkpt lat="45.93684" lon="4.93492">
        <ele>295</ele>
        <time>2023-09-24T12:48:54Z</time>
      </trkpt>
      <trkpt lat="45.93685" lon="4.93488">
        <ele>295</ele>
        <time>2023-09-24T12:48:55Z</time>
      </trkpt>
      <trkpt lat="45.93686" lon="4.93487">
        <ele>295</ele>
        <time>2023-09-24T12:48:56Z</time>
      </trkpt>
      <trkpt lat="45.93689" lon="4.93483">
        <ele>295</ele>
        <time>2023-09-24T12:48:57Z</time>
      </trkpt>
      <trkpt lat="45.93692" lon="4.93479">
        <ele>295</ele>
        <time>2023-09-24T12:48:58Z</time>
      </trkpt>
      <trkpt lat="45.93694" lon="4.93474">
        <ele>295</ele>
        <time>2023-09-24T12:48:59Z</time>
      </trkpt>
      <trkpt lat="45.93694" lon="4.93472">
        <ele>295</ele>
        <time>2023-09-24T12:49:00Z</time>
      </trkpt>
      <trkpt lat="45.93697" lon="4.93468">
        <ele>295</ele>
        <time>2023-09-24T12:49:01Z</time>
      </trkpt>
      <trkpt lat="45.93698" lon="4.93466">
        <ele>295</ele>
        <time>2023-09-24T12:49:02Z</time>
      </trkpt>
      <trkpt lat="45.93701" lon="4.93463">
        <ele>295</ele>
        <time>2023-09-24T12:49:03Z</time>
      </trkpt>
      <trkpt lat="45.93702" lon="4.93462">
        <ele>295</ele>
        <time>2023-09-24T12:49:04Z</time>
      </trkpt>
      <trkpt lat="45.93704" lon="4.93457">
        <ele>295</ele>
        <time>2023-09-24T12:49:05Z</time>
      </trkpt>
      <trkpt lat="45.93706" lon="4.93453">
        <ele>295</ele>
        <time>2023-09-24T12:49:06Z</time>
      </trkpt>
      <trkpt lat="45.93707" lon="4.93452">
        <ele>295</ele>
        <time>2023-09-24T12:49:07Z</time>
      </trkpt>
      <trkpt lat="45.9371" lon="4.93449">
        <ele>295</ele>
        <time>2023-09-24T12:49:08Z</time>
      </trkpt>
      <trkpt lat="45.93711" lon="4.93448">
        <ele>295</ele>
        <time>2023-09-24T12:49:09Z</time>
      </trkpt>
      <trkpt lat="45.93713" lon="4.93445">
        <ele>295</ele>
        <time>2023-09-24T12:49:10Z</time>
      </trkpt>
      <trkpt lat="45.93716" lon="4.93442">
        <ele>295</ele>
        <time>2023-09-24T12:49:11Z</time>
      </trkpt>
      <trkpt lat="45.93717" lon="4.93437">
        <ele>295</ele>
        <time>2023-09-24T12:49:12Z</time>
      </trkpt>
      <trkpt lat="45.93718" lon="4.93435">
        <ele>295</ele>
        <time>2023-09-24T12:49:13Z</time>
      </trkpt>
      <trkpt lat="45.93721" lon="4.93432">
        <ele>295</ele>
        <time>2023-09-24T12:49:14Z</time>
      </trkpt>
      <trkpt lat="45.93723" lon="4.93429">
        <ele>295</ele>
        <time>2023-09-24T12:49:15Z</time>
      </trkpt>
      <trkpt lat="45.93725" lon="4.93425">
        <ele>295</ele>
        <time>2023-09-24T12:49:16Z</time>
      </trkpt>
      <trkpt lat="45.93727" lon="4.93423">
        <ele>295</ele>
        <time>2023-09-24T12:49:17Z</time>
      </trkpt>
      <trkpt lat="45.9373" lon="4.93419">
        <ele>295</ele>
        <time>2023-09-24T12:49:18Z</time>
      </trkpt>
      <trkpt lat="45.93733" lon="4.93415">
        <ele>295</ele>
        <time>2023-09-24T12:49:19Z</time>
      </trkpt>
      <trkpt lat="45.93735" lon="4.93412">
        <ele>295</ele>
        <time>2023-09-24T12:49:20Z</time>
      </trkpt>
      <trkpt lat="45.93736" lon="4.93408">
        <ele>295</ele>
        <time>2023-09-24T12:49:21Z</time>
      </trkpt>
      <trkpt lat="45.93739" lon="4.93406">
        <ele>295</ele>
        <time>2023-09-24T12:49:22Z</time>
      </trkpt>
      <trkpt lat="45.93741" lon="4.93401">
        <ele>295</ele>
        <time>2023-09-24T12:49:23Z</time>
      </trkpt>
      <trkpt lat="45.93742" lon="4.93399">
        <ele>295</ele>
        <time>2023-09-24T12:49:24Z</time>
      </trkpt>
      <trkpt lat="45.93744" lon="4.93397">
        <ele>295</ele>
        <time>2023-09-24T12:49:25Z</time>
      </trkpt>
      <trkpt lat="45.93746" lon="4.93392">
        <ele>295</ele>
        <time>2023-09-24T12:49:26Z</time>
      </trkpt>
      <trkpt lat="45.93747" lon="4.9339">
        <ele>295</ele>
        <time>2023-09-24T12:49:27Z</time>
      </trkpt>
      <trkpt lat="45.93749" lon="4.93387">
        <ele>295</ele>
        <time>2023-09-24T12:49:28Z</time>
      </trkpt>
      <trkpt lat="45.93751" lon="4.93384">
        <ele>295</ele>
        <time>2023-09-24T12:49:29Z</time>
      </trkpt>
      <trkpt lat="45.93754" lon="4.9338">
        <ele>295</ele>
        <time>2023-09-24T12:49:30Z</time>
      </trkpt>
      <trkpt lat="45.93756" lon="4.93376">
        <ele>295</ele>
        <time>2023-09-24T12:49:31Z</time>
      </trkpt>
      <trkpt lat="45.93759" lon="4.93371">
        <ele>295</ele>
        <time>2023-09-24T12:49:32Z</time>
      </trkpt>
      <trkpt lat="45.9376" lon="4.9337">
        <ele>295</ele>
        <time>2023-09-24T12:49:33Z</time>
      </trkpt>
      <trkpt lat="45.93762" lon="4.93366">
        <ele>295</ele>
        <time>2023-09-24T12:49:34Z</time>
      </trkpt>
      <trkpt lat="45.93765" lon="4.9336">
        <ele>295</ele>
        <time>2023-09-24T12:49:36Z</time>
      </trkpt>
      <trkpt lat="45.93767" lon="4.93358">
        <ele>295</ele>
        <time>2023-09-24T12:49:37Z</time>
      </trkpt>
      <trkpt lat="45.9377" lon="4.93354">
        <ele>295.1</ele>
        <time>2023-09-24T12:49:39Z</time>
      </trkpt>
      <trkpt lat="45.93772" lon="4.93351">
        <ele>295.1</ele>
        <time>2023-09-24T12:49:40Z</time>
      </trkpt>
      <trkpt lat="45.93773" lon="4.93347">
        <ele>295.1</ele>
        <time>2023-09-24T12:49:41Z</time>
      </trkpt>
      <trkpt lat="45.93776" lon="4.93343">
        <ele>295</ele>
        <time>2023-09-24T12:49:42Z</time>
      </trkpt>
      <trkpt lat="45.93776" lon="4.93342">
        <ele>295</ele>
        <time>2023-09-24T12:49:43Z</time>
      </trkpt>
      <trkpt lat="45.93779" lon="4.93337">
        <ele>295</ele>
        <time>2023-09-24T12:49:44Z</time>
      </trkpt>
      <trkpt lat="45.93781" lon="4.93335">
        <ele>295.1</ele>
        <time>2023-09-24T12:49:45Z</time>
      </trkpt>
      <trkpt lat="45.93783" lon="4.93331">
        <ele>295.3</ele>
        <time>2023-09-24T12:49:46Z</time>
      </trkpt>
      <trkpt lat="45.93785" lon="4.93328">
        <ele>295.4</ele>
        <time>2023-09-24T12:49:47Z</time>
      </trkpt>
      <trkpt lat="45.93785" lon="4.93326">
        <ele>295.5</ele>
        <time>2023-09-24T12:49:48Z</time>
      </trkpt>
      <trkpt lat="45.93788" lon="4.93323">
        <ele>295.6</ele>
        <time>2023-09-24T12:49:49Z</time>
      </trkpt>
      <trkpt lat="45.93789" lon="4.93321">
        <ele>295.7</ele>
        <time>2023-09-24T12:49:50Z</time>
      </trkpt>
      <trkpt lat="45.93792" lon="4.93318">
        <ele>295.8</ele>
        <time>2023-09-24T12:49:51Z</time>
      </trkpt>
      <trkpt lat="45.93793" lon="4.93317">
        <ele>295.8</ele>
        <time>2023-09-24T12:49:52Z</time>
      </trkpt>
      <trkpt lat="45.93795" lon="4.93314">
        <ele>295.9</ele>
        <time>2023-09-24T12:49:53Z</time>
      </trkpt>
      <trkpt lat="45.93799" lon="4.93311">
        <ele>296</ele>
        <time>2023-09-24T12:49:54Z</time>
      </trkpt>
      <trkpt lat="45.93801" lon="4.93308">
        <ele>296</ele>
        <time>2023-09-24T12:49:55Z</time>
      </trkpt>
      <trkpt lat="45.93804" lon="4.93304">
        <ele>296</ele>
        <time>2023-09-24T12:49:56Z</time>
      </trkpt>
      <trkpt lat="45.93805" lon="4.93303">
        <ele>296</ele>
        <time>2023-09-24T12:49:57Z</time>
      </trkpt>
      <trkpt lat="45.93806" lon="4.93298">
        <ele>296</ele>
        <time>2023-09-24T12:49:58Z</time>
      </trkpt>
      <trkpt lat="45.93808" lon="4.93295">
        <ele>295.9</ele>
        <time>2023-09-24T12:49:59Z</time>
      </trkpt>
      <trkpt lat="45.9381" lon="4.9329">
        <ele>295.8</ele>
        <time>2023-09-24T12:50:00Z</time>
      </trkpt>
      <trkpt lat="45.93811" lon="4.93288">
        <ele>295.8</ele>
        <time>2023-09-24T12:50:01Z</time>
      </trkpt>
      <trkpt lat="45.93814" lon="4.93284">
        <ele>295.7</ele>
        <time>2023-09-24T12:50:02Z</time>
      </trkpt>
      <trkpt lat="45.93817" lon="4.93281">
        <ele>295.6</ele>
        <time>2023-09-24T12:50:03Z</time>
      </trkpt>
      <trkpt lat="45.93819" lon="4.93278">
        <ele>295.5</ele>
        <time>2023-09-24T12:50:04Z</time>
      </trkpt>
      <trkpt lat="45.9382" lon="4.93274">
        <ele>295.5</ele>
        <time>2023-09-24T12:50:05Z</time>
      </trkpt>
      <trkpt lat="45.93823" lon="4.9327">
        <ele>295.4</ele>
        <time>2023-09-24T12:50:06Z</time>
      </trkpt>
      <trkpt lat="45.93824" lon="4.93269">
        <ele>295.3</ele>
        <time>2023-09-24T12:50:07Z</time>
      </trkpt>
      <trkpt lat="45.93827" lon="4.93264">
        <ele>295.2</ele>
        <time>2023-09-24T12:50:08Z</time>
      </trkpt>
      <trkpt lat="45.93828" lon="4.93261">
        <ele>295.2</ele>
        <time>2023-09-24T12:50:09Z</time>
      </trkpt>
      <trkpt lat="45.9383" lon="4.93258">
        <ele>295.1</ele>
        <time>2023-09-24T12:50:10Z</time>
      </trkpt>
      <trkpt lat="45.93832" lon="4.93254">
        <ele>295</ele>
        <time>2023-09-24T12:50:11Z</time>
      </trkpt>
      <trkpt lat="45.93835" lon="4.93248">
        <ele>295</ele>
        <time>2023-09-24T12:50:12Z</time>
      </trkpt>
      <trkpt lat="45.93838" lon="4.93245">
        <ele>295</ele>
        <time>2023-09-24T12:50:13Z</time>
      </trkpt>
      <trkpt lat="45.93838" lon="4.93244">
        <ele>295</ele>
        <time>2023-09-24T12:50:14Z</time>
      </trkpt>
      <trkpt lat="45.93841" lon="4.9324">
        <ele>295</ele>
        <time>2023-09-24T12:50:15Z</time>
      </trkpt>
      <trkpt lat="45.93842" lon="4.93239">
        <ele>295</ele>
        <time>2023-09-24T12:50:16Z</time>
      </trkpt>
      <trkpt lat="45.93844" lon="4.93236">
        <ele>295</ele>
        <time>2023-09-24T12:50:17Z</time>
      </trkpt>
      <trkpt lat="45.93847" lon="4.93233">
        <ele>295</ele>
        <time>2023-09-24T12:50:18Z</time>
      </trkpt>
      <trkpt lat="45.9385" lon="4.9323">
        <ele>295</ele>
        <time>2023-09-24T12:50:19Z</time>
      </trkpt>
      <trkpt lat="45.93852" lon="4.93226">
        <ele>295</ele>
        <time>2023-09-24T12:50:20Z</time>
      </trkpt>
      <trkpt lat="45.93854" lon="4.93223">
        <ele>295</ele>
        <time>2023-09-24T12:50:21Z</time>
      </trkpt>
      <trkpt lat="45.93856" lon="4.9322">
        <ele>295</ele>
        <time>2023-09-24T12:50:22Z</time>
      </trkpt>
      <trkpt lat="45.93858" lon="4.93217">
        <ele>295</ele>
        <time>2023-09-24T12:50:23Z</time>
      </trkpt>
      <trkpt lat="45.93859" lon="4.93216">
        <ele>295</ele>
        <time>2023-09-24T12:50:24Z</time>
      </trkpt>
      <trkpt lat="45.93861" lon="4.93214">
        <ele>295</ele>
        <time>2023-09-24T12:50:25Z</time>
      </trkpt>
      <trkpt lat="45.93861" lon="4.93212">
        <ele>295</ele>
        <time>2023-09-24T12:50:26Z</time>
      </trkpt>
      <trkpt lat="45.93861" lon="4.93211">
        <ele>295</ele>
        <time>2023-09-24T12:50:27Z</time>
      </trkpt>
      <trkpt lat="45.93863" lon="4.93208">
        <ele>295</ele>
        <time>2023-09-24T12:50:28Z</time>
      </trkpt>
      <trkpt lat="45.93866" lon="4.93204">
        <ele>295</ele>
        <time>2023-09-24T12:50:29Z</time>
      </trkpt>
      <trkpt lat="45.93868" lon="4.93203">
        <ele>295</ele>
        <time>2023-09-24T12:50:30Z</time>
      </trkpt>
      <trkpt lat="45.93869" lon="4.93199">
        <ele>295</ele>
        <time>2023-09-24T12:50:31Z</time>
      </trkpt>
      <trkpt lat="45.9387" lon="4.93197">
        <ele>295</ele>
        <time>2023-09-24T12:50:32Z</time>
      </trkpt>
      <trkpt lat="45.93872" lon="4.93194">
        <ele>295</ele>
        <time>2023-09-24T12:50:33Z</time>
      </trkpt>
      <trkpt lat="45.93874" lon="4.93191">
        <ele>295</ele>
        <time>2023-09-24T12:50:34Z</time>
      </trkpt>
      <trkpt lat="45.93876" lon="4.93188">
        <ele>295</ele>
        <time>2023-09-24T12:50:35Z</time>
      </trkpt>
      <trkpt lat="45.93879" lon="4.93185">
        <ele>295</ele>
        <time>2023-09-24T12:50:36Z</time>
      </trkpt>
      <trkpt lat="45.93881" lon="4.93182">
        <ele>295</ele>
        <time>2023-09-24T12:50:37Z</time>
      </trkpt>
      <trkpt lat="45.93883" lon="4.93178">
        <ele>295</ele>
        <time>2023-09-24T12:50:38Z</time>
      </trkpt>
      <trkpt lat="45.93885" lon="4.93174">
        <ele>295</ele>
        <time>2023-09-24T12:50:39Z</time>
      </trkpt>
      <trkpt lat="45.93886" lon="4.93173">
        <ele>295</ele>
        <time>2023-09-24T12:50:40Z</time>
      </trkpt>
      <trkpt lat="45.93888" lon="4.93169">
        <ele>295</ele>
        <time>2023-09-24T12:50:41Z</time>
      </trkpt>
      <trkpt lat="45.93889" lon="4.93168">
        <ele>295</ele>
        <time>2023-09-24T12:50:42Z</time>
      </trkpt>
      <trkpt lat="45.93891" lon="4.93164">
        <ele>295</ele>
        <time>2023-09-24T12:50:43Z</time>
      </trkpt>
      <trkpt lat="45.93892" lon="4.93162">
        <ele>295</ele>
        <time>2023-09-24T12:50:44Z</time>
      </trkpt>
      <trkpt lat="45.93894" lon="4.93159">
        <ele>295</ele>
        <time>2023-09-24T12:50:45Z</time>
      </trkpt>
      <trkpt lat="45.93896" lon="4.93155">
        <ele>295</ele>
        <time>2023-09-24T12:50:46Z</time>
      </trkpt>
      <trkpt lat="45.93898" lon="4.93154">
        <ele>295</ele>
        <time>2023-09-24T12:50:47Z</time>
      </trkpt>
      <trkpt lat="45.93899" lon="4.93151">
        <ele>295</ele>
        <time>2023-09-24T12:50:48Z</time>
      </trkpt>
      <trkpt lat="45.939" lon="4.9315">
        <ele>295</ele>
        <time>2023-09-24T12:50:49Z</time>
      </trkpt>
      <trkpt lat="45.93902" lon="4.93145">
        <ele>295</ele>
        <time>2023-09-24T12:50:50Z</time>
      </trkpt>
      <trkpt lat="45.93905" lon="4.93142">
        <ele>295</ele>
        <time>2023-09-24T12:50:51Z</time>
      </trkpt>
      <trkpt lat="45.93906" lon="4.93139">
        <ele>295</ele>
        <time>2023-09-24T12:50:52Z</time>
      </trkpt>
      <trkpt lat="45.9391" lon="4.93134">
        <ele>295</ele>
        <time>2023-09-24T12:50:53Z</time>
      </trkpt>
      <trkpt lat="45.93912" lon="4.93129">
        <ele>295</ele>
        <time>2023-09-24T12:50:54Z</time>
      </trkpt>
      <trkpt lat="45.93914" lon="4.93126">
        <ele>295</ele>
        <time>2023-09-24T12:50:55Z</time>
      </trkpt>
      <trkpt lat="45.93916" lon="4.93123">
        <ele>295</ele>
        <time>2023-09-24T12:50:56Z</time>
      </trkpt>
      <trkpt lat="45.93919" lon="4.93119">
        <ele>294.9</ele>
        <time>2023-09-24T12:50:57Z</time>
      </trkpt>
      <trkpt lat="45.93921" lon="4.93115">
        <ele>294.8</ele>
        <time>2023-09-24T12:50:58Z</time>
      </trkpt>
      <trkpt lat="45.93923" lon="4.93111">
        <ele>294.8</ele>
        <time>2023-09-24T12:50:59Z</time>
      </trkpt>
      <trkpt lat="45.93926" lon="4.93108">
        <ele>294.6</ele>
        <time>2023-09-24T12:51:00Z</time>
      </trkpt>
      <trkpt lat="45.93929" lon="4.93103">
        <ele>294.4</ele>
        <time>2023-09-24T12:51:01Z</time>
      </trkpt>
      <trkpt lat="45.9393" lon="4.93101">
        <ele>294.3</ele>
        <time>2023-09-24T12:51:02Z</time>
      </trkpt>
      <trkpt lat="45.93933" lon="4.93097">
        <ele>294.2</ele>
        <time>2023-09-24T12:51:03Z</time>
      </trkpt>
      <trkpt lat="45.93936" lon="4.93093">
        <ele>294.1</ele>
        <time>2023-09-24T12:51:04Z</time>
      </trkpt>
      <trkpt lat="45.93939" lon="4.93088">
        <ele>294</ele>
        <time>2023-09-24T12:51:05Z</time>
      </trkpt>
      <trkpt lat="45.93941" lon="4.93083">
        <ele>294</ele>
        <time>2023-09-24T12:51:06Z</time>
      </trkpt>
      <trkpt lat="45.93944" lon="4.93079">
        <ele>294</ele>
        <time>2023-09-24T12:51:07Z</time>
      </trkpt>
      <trkpt lat="45.93947" lon="4.93074">
        <ele>293.9</ele>
        <time>2023-09-24T12:51:08Z</time>
      </trkpt>
      <trkpt lat="45.93948" lon="4.93073">
        <ele>293.9</ele>
        <time>2023-09-24T12:51:09Z</time>
      </trkpt>
      <trkpt lat="45.93954" lon="4.93069">
        <ele>293.8</ele>
        <time>2023-09-24T12:51:10Z</time>
      </trkpt>
      <trkpt lat="45.93955" lon="4.93063">
        <ele>293.9</ele>
        <time>2023-09-24T12:51:11Z</time>
      </trkpt>
      <trkpt lat="45.93957" lon="4.93058">
        <ele>294</ele>
        <time>2023-09-24T12:51:12Z</time>
      </trkpt>
      <trkpt lat="45.9396" lon="4.93054">
        <ele>294</ele>
        <time>2023-09-24T12:51:13Z</time>
      </trkpt>
      <trkpt lat="45.93961" lon="4.93053">
        <ele>294</ele>
        <time>2023-09-24T12:51:14Z</time>
      </trkpt>
      <trkpt lat="45.93964" lon="4.93049">
        <ele>294</ele>
        <time>2023-09-24T12:51:15Z</time>
      </trkpt>
      <trkpt lat="45.93967" lon="4.93045">
        <ele>294</ele>
        <time>2023-09-24T12:51:16Z</time>
      </trkpt>
      <trkpt lat="45.93968" lon="4.93043">
        <ele>294</ele>
        <time>2023-09-24T12:51:17Z</time>
      </trkpt>
      <trkpt lat="45.93971" lon="4.9304">
        <ele>294</ele>
        <time>2023-09-24T12:51:18Z</time>
      </trkpt>
      <trkpt lat="45.93973" lon="4.93037">
        <ele>294</ele>
        <time>2023-09-24T12:51:19Z</time>
      </trkpt>
      <trkpt lat="45.93976" lon="4.93033">
        <ele>293.9</ele>
        <time>2023-09-24T12:51:20Z</time>
      </trkpt>
      <trkpt lat="45.93979" lon="4.9303">
        <ele>293.8</ele>
        <time>2023-09-24T12:51:21Z</time>
      </trkpt>
      <trkpt lat="45.93981" lon="4.93027">
        <ele>293.7</ele>
        <time>2023-09-24T12:51:22Z</time>
      </trkpt>
      <trkpt lat="45.93983" lon="4.93024">
        <ele>293.7</ele>
        <time>2023-09-24T12:51:23Z</time>
      </trkpt>
      <trkpt lat="45.93986" lon="4.93021">
        <ele>293.6</ele>
        <time>2023-09-24T12:51:24Z</time>
      </trkpt>
      <trkpt lat="45.93989" lon="4.93018">
        <ele>293.6</ele>
        <time>2023-09-24T12:51:25Z</time>
      </trkpt>
      <trkpt lat="45.93993" lon="4.93016">
        <ele>293.6</ele>
        <time>2023-09-24T12:51:26Z</time>
      </trkpt>
      <trkpt lat="45.93995" lon="4.93013">
        <ele>293.6</ele>
        <time>2023-09-24T12:51:27Z</time>
      </trkpt>
      <trkpt lat="45.93998" lon="4.93009">
        <ele>293.7</ele>
        <time>2023-09-24T12:51:28Z</time>
      </trkpt>
      <trkpt lat="45.94001" lon="4.93007">
        <ele>293.7</ele>
        <time>2023-09-24T12:51:29Z</time>
      </trkpt>
      <trkpt lat="45.94004" lon="4.93004">
        <ele>293.7</ele>
        <time>2023-09-24T12:51:30Z</time>
      </trkpt>
      <trkpt lat="45.94006" lon="4.93001">
        <ele>293.8</ele>
        <time>2023-09-24T12:51:31Z</time>
      </trkpt>
      <trkpt lat="45.9401" lon="4.92998">
        <ele>293.6</ele>
        <time>2023-09-24T12:51:32Z</time>
      </trkpt>
      <trkpt lat="45.94013" lon="4.92996">
        <ele>293.5</ele>
        <time>2023-09-24T12:51:33Z</time>
      </trkpt>
      <trkpt lat="45.94015" lon="4.92993">
        <ele>293.5</ele>
        <time>2023-09-24T12:51:34Z</time>
      </trkpt>
      <trkpt lat="45.94018" lon="4.9299">
        <ele>293.4</ele>
        <time>2023-09-24T12:51:35Z</time>
      </trkpt>
      <trkpt lat="45.9402" lon="4.92987">
        <ele>293.3</ele>
        <time>2023-09-24T12:51:36Z</time>
      </trkpt>
      <trkpt lat="45.94022" lon="4.92985">
        <ele>293.2</ele>
        <time>2023-09-24T12:51:37Z</time>
      </trkpt>
      <trkpt lat="45.94026" lon="4.92984">
        <ele>293.1</ele>
        <time>2023-09-24T12:51:38Z</time>
      </trkpt>
      <trkpt lat="45.94027" lon="4.92984">
        <ele>293</ele>
        <time>2023-09-24T12:51:39Z</time>
      </trkpt>
      <trkpt lat="45.94029" lon="4.92982">
        <ele>293</ele>
        <time>2023-09-24T12:51:40Z</time>
      </trkpt>
      <trkpt lat="45.9403" lon="4.92979">
        <ele>293</ele>
        <time>2023-09-24T12:51:42Z</time>
      </trkpt>
      <trkpt lat="45.94032" lon="4.92975">
        <ele>293</ele>
        <time>2023-09-24T12:51:43Z</time>
      </trkpt>
      <trkpt lat="45.94033" lon="4.92973">
        <ele>293</ele>
        <time>2023-09-24T12:51:44Z</time>
      </trkpt>
      <trkpt lat="45.94035" lon="4.92971">
        <ele>293</ele>
        <time>2023-09-24T12:51:45Z</time>
      </trkpt>
      <trkpt lat="45.94038" lon="4.92969">
        <ele>293.1</ele>
        <time>2023-09-24T12:51:46Z</time>
      </trkpt>
      <trkpt lat="45.94041" lon="4.92967">
        <ele>293.1</ele>
        <time>2023-09-24T12:51:47Z</time>
      </trkpt>
      <trkpt lat="45.94043" lon="4.92965">
        <ele>293.1</ele>
        <time>2023-09-24T12:51:48Z</time>
      </trkpt>
      <trkpt lat="45.94046" lon="4.92963">
        <ele>293.1</ele>
        <time>2023-09-24T12:51:49Z</time>
      </trkpt>
      <trkpt lat="45.9405" lon="4.92961">
        <ele>293.1</ele>
        <time>2023-09-24T12:51:50Z</time>
      </trkpt>
      <trkpt lat="45.94052" lon="4.92959">
        <ele>293.1</ele>
        <time>2023-09-24T12:51:51Z</time>
      </trkpt>
      <trkpt lat="45.94056" lon="4.92958">
        <ele>293</ele>
        <time>2023-09-24T12:51:52Z</time>
      </trkpt>
      <trkpt lat="45.94057" lon="4.92958">
        <ele>293</ele>
        <time>2023-09-24T12:51:53Z</time>
      </trkpt>
      <trkpt lat="45.9406" lon="4.92955">
        <ele>293.1</ele>
        <time>2023-09-24T12:51:54Z</time>
      </trkpt>
      <trkpt lat="45.94062" lon="4.92954">
        <ele>293.2</ele>
        <time>2023-09-24T12:51:55Z</time>
      </trkpt>
      <trkpt lat="45.94063" lon="4.92951">
        <ele>293.2</ele>
        <time>2023-09-24T12:51:56Z</time>
      </trkpt>
      <trkpt lat="45.94066" lon="4.92946">
        <ele>293.4</ele>
        <time>2023-09-24T12:51:57Z</time>
      </trkpt>
      <trkpt lat="45.94067" lon="4.92944">
        <ele>293.4</ele>
        <time>2023-09-24T12:51:58Z</time>
      </trkpt>
      <trkpt lat="45.94068" lon="4.92939">
        <ele>293.6</ele>
        <time>2023-09-24T12:51:59Z</time>
      </trkpt>
      <trkpt lat="45.94069" lon="4.92935">
        <ele>293.7</ele>
        <time>2023-09-24T12:52:00Z</time>
      </trkpt>
      <trkpt lat="45.94072" lon="4.92933">
        <ele>293.8</ele>
        <time>2023-09-24T12:52:01Z</time>
      </trkpt>
      <trkpt lat="45.94074" lon="4.92934">
        <ele>293.8</ele>
        <time>2023-09-24T12:52:02Z</time>
      </trkpt>
      <trkpt lat="45.94078" lon="4.92936">
        <ele>293.9</ele>
        <time>2023-09-24T12:52:03Z</time>
      </trkpt>
      <trkpt lat="45.94079" lon="4.92936">
        <ele>293.9</ele>
        <time>2023-09-24T12:52:04Z</time>
      </trkpt>
      <trkpt lat="45.94082" lon="4.92937">
        <ele>294</ele>
        <time>2023-09-24T12:52:05Z</time>
      </trkpt>
      <trkpt lat="45.94084" lon="4.92938">
        <ele>294</ele>
        <time>2023-09-24T12:52:06Z</time>
      </trkpt>
      <trkpt lat="45.94087" lon="4.92939">
        <ele>293.9</ele>
        <time>2023-09-24T12:52:07Z</time>
      </trkpt>
      <trkpt lat="45.9409" lon="4.9294">
        <ele>293.8</ele>
        <time>2023-09-24T12:52:08Z</time>
      </trkpt>
      <trkpt lat="45.94092" lon="4.92942">
        <ele>293.7</ele>
        <time>2023-09-24T12:52:09Z</time>
      </trkpt>
      <trkpt lat="45.94095" lon="4.92944">
        <ele>293.6</ele>
        <time>2023-09-24T12:52:10Z</time>
      </trkpt>
      <trkpt lat="45.94099" lon="4.92945">
        <ele>293.4</ele>
        <time>2023-09-24T12:52:11Z</time>
      </trkpt>
      <trkpt lat="45.94101" lon="4.92947">
        <ele>293.3</ele>
        <time>2023-09-24T12:52:12Z</time>
      </trkpt>
      <trkpt lat="45.94104" lon="4.92949">
        <ele>293.2</ele>
        <time>2023-09-24T12:52:13Z</time>
      </trkpt>
      <trkpt lat="45.94106" lon="4.92952">
        <ele>293.1</ele>
        <time>2023-09-24T12:52:14Z</time>
      </trkpt>
      <trkpt lat="45.94109" lon="4.92953">
        <ele>293.1</ele>
        <time>2023-09-24T12:52:15Z</time>
      </trkpt>
      <trkpt lat="45.9411" lon="4.92954">
        <ele>293</ele>
        <time>2023-09-24T12:52:16Z</time>
      </trkpt>
      <trkpt lat="45.94113" lon="4.92955">
        <ele>293</ele>
        <time>2023-09-24T12:52:17Z</time>
      </trkpt>
      <trkpt lat="45.94115" lon="4.92957">
        <ele>293.1</ele>
        <time>2023-09-24T12:52:18Z</time>
      </trkpt>
      <trkpt lat="45.94118" lon="4.92959">
        <ele>293.1</ele>
        <time>2023-09-24T12:52:19Z</time>
      </trkpt>
      <trkpt lat="45.94121" lon="4.92961">
        <ele>293.1</ele>
        <time>2023-09-24T12:52:20Z</time>
      </trkpt>
      <trkpt lat="45.94124" lon="4.92962">
        <ele>293.2</ele>
        <time>2023-09-24T12:52:21Z</time>
      </trkpt>
      <trkpt lat="45.94127" lon="4.92964">
        <ele>293.2</ele>
        <time>2023-09-24T12:52:22Z</time>
      </trkpt>
      <trkpt lat="45.9413" lon="4.92966">
        <ele>293.2</ele>
        <time>2023-09-24T12:52:23Z</time>
      </trkpt>
      <trkpt lat="45.94133" lon="4.92967">
        <ele>293.1</ele>
        <time>2023-09-24T12:52:24Z</time>
      </trkpt>
      <trkpt lat="45.94136" lon="4.9297">
        <ele>293.1</ele>
        <time>2023-09-24T12:52:25Z</time>
      </trkpt>
      <trkpt lat="45.94139" lon="4.92972">
        <ele>293</ele>
        <time>2023-09-24T12:52:26Z</time>
      </trkpt>
      <trkpt lat="45.94142" lon="4.92975">
        <ele>293.1</ele>
        <time>2023-09-24T12:52:27Z</time>
      </trkpt>
      <trkpt lat="45.94146" lon="4.92976">
        <ele>293.2</ele>
        <time>2023-09-24T12:52:28Z</time>
      </trkpt>
      <trkpt lat="45.94149" lon="4.92977">
        <ele>293.3</ele>
        <time>2023-09-24T12:52:29Z</time>
      </trkpt>
      <trkpt lat="45.94153" lon="4.92982">
        <ele>293.3</ele>
        <time>2023-09-24T12:52:30Z</time>
      </trkpt>
      <trkpt lat="45.94157" lon="4.92984">
        <ele>293.4</ele>
        <time>2023-09-24T12:52:31Z</time>
      </trkpt>
      <trkpt lat="45.9416" lon="4.92985">
        <ele>293.4</ele>
        <time>2023-09-24T12:52:32Z</time>
      </trkpt>
      <trkpt lat="45.94164" lon="4.92986">
        <ele>293.5</ele>
        <time>2023-09-24T12:52:33Z</time>
      </trkpt>
      <trkpt lat="45.94168" lon="4.92988">
        <ele>293.5</ele>
        <time>2023-09-24T12:52:34Z</time>
      </trkpt>
      <trkpt lat="45.94172" lon="4.92989">
        <ele>293.5</ele>
        <time>2023-09-24T12:52:35Z</time>
      </trkpt>
      <trkpt lat="45.94175" lon="4.92991">
        <ele>293.5</ele>
        <time>2023-09-24T12:52:36Z</time>
      </trkpt>
      <trkpt lat="45.94177" lon="4.92991">
        <ele>293.6</ele>
        <time>2023-09-24T12:52:37Z</time>
      </trkpt>
      <trkpt lat="45.9418" lon="4.92991">
        <ele>293.6</ele>
        <time>2023-09-24T12:52:38Z</time>
      </trkpt>
      <trkpt lat="45.94184" lon="4.92992">
        <ele>293.7</ele>
        <time>2023-09-24T12:52:39Z</time>
      </trkpt>
      <trkpt lat="45.94187" lon="4.92994">
        <ele>293.8</ele>
        <time>2023-09-24T12:52:40Z</time>
      </trkpt>
      <trkpt lat="45.9419" lon="4.92995">
        <ele>293.9</ele>
        <time>2023-09-24T12:52:41Z</time>
      </trkpt>
      <trkpt lat="45.94193" lon="4.92996">
        <ele>294</ele>
        <time>2023-09-24T12:52:42Z</time>
      </trkpt>
      <trkpt lat="45.94196" lon="4.92995">
        <ele>294</ele>
        <time>2023-09-24T12:52:43Z</time>
      </trkpt>
      <trkpt lat="45.94197" lon="4.92996">
        <ele>294</ele>
        <time>2023-09-24T12:52:44Z</time>
      </trkpt>
      <trkpt lat="45.942" lon="4.92997">
        <ele>294</ele>
        <time>2023-09-24T12:52:45Z</time>
      </trkpt>
      <trkpt lat="45.94204" lon="4.92999">
        <ele>294</ele>
        <time>2023-09-24T12:52:46Z</time>
      </trkpt>
      <trkpt lat="45.94208" lon="4.93">
        <ele>294</ele>
        <time>2023-09-24T12:52:47Z</time>
      </trkpt>
      <trkpt lat="45.94211" lon="4.93003">
        <ele>294</ele>
        <time>2023-09-24T12:52:48Z</time>
      </trkpt>
      <trkpt lat="45.94212" lon="4.93004">
        <ele>294</ele>
        <time>2023-09-24T12:52:49Z</time>
      </trkpt>
      <trkpt lat="45.94213" lon="4.93006">
        <ele>294</ele>
        <time>2023-09-24T12:52:50Z</time>
      </trkpt>
      <trkpt lat="45.94216" lon="4.93006">
        <ele>294</ele>
        <time>2023-09-24T12:52:51Z</time>
      </trkpt>
      <trkpt lat="45.94219" lon="4.93008">
        <ele>294</ele>
        <time>2023-09-24T12:52:52Z</time>
      </trkpt>
      <trkpt lat="45.94224" lon="4.9301">
        <ele>294</ele>
        <time>2023-09-24T12:52:53Z</time>
      </trkpt>
      <trkpt lat="45.94226" lon="4.93012">
        <ele>294</ele>
        <time>2023-09-24T12:52:54Z</time>
      </trkpt>
      <trkpt lat="45.9423" lon="4.93013">
        <ele>294</ele>
        <time>2023-09-24T12:52:55Z</time>
      </trkpt>
      <trkpt lat="45.94234" lon="4.93015">
        <ele>294</ele>
        <time>2023-09-24T12:52:56Z</time>
      </trkpt>
      <trkpt lat="45.94235" lon="4.93015">
        <ele>294</ele>
        <time>2023-09-24T12:52:57Z</time>
      </trkpt>
      <trkpt lat="45.94239" lon="4.93018">
        <ele>294</ele>
        <time>2023-09-24T12:52:58Z</time>
      </trkpt>
      <trkpt lat="45.94239" lon="4.93019">
        <ele>294</ele>
        <time>2023-09-24T12:52:59Z</time>
      </trkpt>
      <trkpt lat="45.94243" lon="4.93022">
        <ele>294</ele>
        <time>2023-09-24T12:53:00Z</time>
      </trkpt>
      <trkpt lat="45.94245" lon="4.93022">
        <ele>294</ele>
        <time>2023-09-24T12:53:01Z</time>
      </trkpt>
      <trkpt lat="45.94248" lon="4.93023">
        <ele>294</ele>
        <time>2023-09-24T12:53:02Z</time>
      </trkpt>
      <trkpt lat="45.94251" lon="4.93026">
        <ele>294</ele>
        <time>2023-09-24T12:53:03Z</time>
      </trkpt>
      <trkpt lat="45.94254" lon="4.93029">
        <ele>294</ele>
        <time>2023-09-24T12:53:04Z</time>
      </trkpt>
      <trkpt lat="45.94254" lon="4.9303">
        <ele>294</ele>
        <time>2023-09-24T12:53:05Z</time>
      </trkpt>
      <trkpt lat="45.94257" lon="4.9303">
        <ele>294</ele>
        <time>2023-09-24T12:53:06Z</time>
      </trkpt>
      <trkpt lat="45.9426" lon="4.93029">
        <ele>294</ele>
        <time>2023-09-24T12:53:07Z</time>
      </trkpt>
      <trkpt lat="45.94263" lon="4.93031">
        <ele>294</ele>
        <time>2023-09-24T12:53:08Z</time>
      </trkpt>
      <trkpt lat="45.94267" lon="4.93033">
        <ele>294</ele>
        <time>2023-09-24T12:53:09Z</time>
      </trkpt>
      <trkpt lat="45.94268" lon="4.93034">
        <ele>294</ele>
        <time>2023-09-24T12:53:10Z</time>
      </trkpt>
      <trkpt lat="45.94271" lon="4.93036">
        <ele>294</ele>
        <time>2023-09-24T12:53:11Z</time>
      </trkpt>
      <trkpt lat="45.94273" lon="4.93038">
        <ele>294</ele>
        <time>2023-09-24T12:53:12Z</time>
      </trkpt>
      <trkpt lat="45.94276" lon="4.93039">
        <ele>294</ele>
        <time>2023-09-24T12:53:13Z</time>
      </trkpt>
      <trkpt lat="45.94279" lon="4.93041">
        <ele>294</ele>
        <time>2023-09-24T12:53:14Z</time>
      </trkpt>
      <trkpt lat="45.94284" lon="4.93043">
        <ele>294</ele>
        <time>2023-09-24T12:53:15Z</time>
      </trkpt>
      <trkpt lat="45.94287" lon="4.93044">
        <ele>294</ele>
        <time>2023-09-24T12:53:16Z</time>
      </trkpt>
      <trkpt lat="45.9429" lon="4.93045">
        <ele>294</ele>
        <time>2023-09-24T12:53:17Z</time>
      </trkpt>
      <trkpt lat="45.94294" lon="4.93047">
        <ele>294</ele>
        <time>2023-09-24T12:53:18Z</time>
      </trkpt>
      <trkpt lat="45.94296" lon="4.93047">
        <ele>294</ele>
        <time>2023-09-24T12:53:19Z</time>
      </trkpt>
      <trkpt lat="45.943" lon="4.93049">
        <ele>294</ele>
        <time>2023-09-24T12:53:20Z</time>
      </trkpt>
      <trkpt lat="45.94303" lon="4.9305">
        <ele>294</ele>
        <time>2023-09-24T12:53:21Z</time>
      </trkpt>
      <trkpt lat="45.94306" lon="4.93052">
        <ele>294</ele>
        <time>2023-09-24T12:53:22Z</time>
      </trkpt>
      <trkpt lat="45.94309" lon="4.93054">
        <ele>294</ele>
        <time>2023-09-24T12:53:23Z</time>
      </trkpt>
      <trkpt lat="45.94312" lon="4.93055">
        <ele>294</ele>
        <time>2023-09-24T12:53:24Z</time>
      </trkpt>
      <trkpt lat="45.94316" lon="4.93056">
        <ele>294</ele>
        <time>2023-09-24T12:53:25Z</time>
      </trkpt>
      <trkpt lat="45.94317" lon="4.93057">
        <ele>294</ele>
        <time>2023-09-24T12:53:26Z</time>
      </trkpt>
      <trkpt lat="45.94321" lon="4.93059">
        <ele>294</ele>
        <time>2023-09-24T12:53:27Z</time>
      </trkpt>
      <trkpt lat="45.94325" lon="4.9306">
        <ele>294</ele>
        <time>2023-09-24T12:53:28Z</time>
      </trkpt>
      <trkpt lat="45.94328" lon="4.93061">
        <ele>294</ele>
        <time>2023-09-24T12:53:29Z</time>
      </trkpt>
      <trkpt lat="45.94331" lon="4.93063">
        <ele>294</ele>
        <time>2023-09-24T12:53:30Z</time>
      </trkpt>
      <trkpt lat="45.94335" lon="4.93064">
        <ele>294</ele>
        <time>2023-09-24T12:53:31Z</time>
      </trkpt>
      <trkpt lat="45.94337" lon="4.93066">
        <ele>294</ele>
        <time>2023-09-24T12:53:32Z</time>
      </trkpt>
      <trkpt lat="45.9434" lon="4.93069">
        <ele>294</ele>
        <time>2023-09-24T12:53:33Z</time>
      </trkpt>
      <trkpt lat="45.94343" lon="4.93069">
        <ele>294</ele>
        <time>2023-09-24T12:53:34Z</time>
      </trkpt>
      <trkpt lat="45.94346" lon="4.93071">
        <ele>294</ele>
        <time>2023-09-24T12:53:35Z</time>
      </trkpt>
      <trkpt lat="45.94349" lon="4.93072">
        <ele>294</ele>
        <time>2023-09-24T12:53:36Z</time>
      </trkpt>
      <trkpt lat="45.94352" lon="4.93072">
        <ele>294</ele>
        <time>2023-09-24T12:53:37Z</time>
      </trkpt>
      <trkpt lat="45.94356" lon="4.93075">
        <ele>294</ele>
        <time>2023-09-24T12:53:38Z</time>
      </trkpt>
      <trkpt lat="45.94357" lon="4.93077">
        <ele>294</ele>
        <time>2023-09-24T12:53:39Z</time>
      </trkpt>
      <trkpt lat="45.9436" lon="4.93078">
        <ele>294</ele>
        <time>2023-09-24T12:53:40Z</time>
      </trkpt>
      <trkpt lat="45.94363" lon="4.93079">
        <ele>294</ele>
        <time>2023-09-24T12:53:41Z</time>
      </trkpt>
      <trkpt lat="45.94364" lon="4.9308">
        <ele>294</ele>
        <time>2023-09-24T12:53:42Z</time>
      </trkpt>
      <trkpt lat="45.94367" lon="4.93081">
        <ele>294</ele>
        <time>2023-09-24T12:53:43Z</time>
      </trkpt>
      <trkpt lat="45.9437" lon="4.93081">
        <ele>294</ele>
        <time>2023-09-24T12:53:44Z</time>
      </trkpt>
      <trkpt lat="45.94372" lon="4.93081">
        <ele>294</ele>
        <time>2023-09-24T12:53:45Z</time>
      </trkpt>
      <trkpt lat="45.94376" lon="4.93081">
        <ele>294</ele>
        <time>2023-09-24T12:53:46Z</time>
      </trkpt>
      <trkpt lat="45.9438" lon="4.93081">
        <ele>294</ele>
        <time>2023-09-24T12:53:48Z</time>
      </trkpt>
      <trkpt lat="45.94381" lon="4.9308">
        <ele>294</ele>
        <time>2023-09-24T12:53:49Z</time>
      </trkpt>
      <trkpt lat="45.94386" lon="4.93079">
        <ele>294</ele>
        <time>2023-09-24T12:53:50Z</time>
      </trkpt>
      <trkpt lat="45.94389" lon="4.93077">
        <ele>294</ele>
        <time>2023-09-24T12:53:51Z</time>
      </trkpt>
      <trkpt lat="45.94392" lon="4.93076">
        <ele>294</ele>
        <time>2023-09-24T12:53:52Z</time>
      </trkpt>
      <trkpt lat="45.94395" lon="4.93076">
        <ele>294</ele>
        <time>2023-09-24T12:53:53Z</time>
      </trkpt>
      <trkpt lat="45.94399" lon="4.93075">
        <ele>294</ele>
        <time>2023-09-24T12:53:54Z</time>
      </trkpt>
      <trkpt lat="45.94401" lon="4.93076">
        <ele>294</ele>
        <time>2023-09-24T12:53:55Z</time>
      </trkpt>
      <trkpt lat="45.94405" lon="4.93074">
        <ele>294</ele>
        <time>2023-09-24T12:53:56Z</time>
      </trkpt>
      <trkpt lat="45.94409" lon="4.93073">
        <ele>294</ele>
        <time>2023-09-24T12:53:57Z</time>
      </trkpt>
      <trkpt lat="45.94412" lon="4.93073">
        <ele>294</ele>
        <time>2023-09-24T12:53:58Z</time>
      </trkpt>
      <trkpt lat="45.94415" lon="4.93071">
        <ele>294</ele>
        <time>2023-09-24T12:53:59Z</time>
      </trkpt>
      <trkpt lat="45.94419" lon="4.93071">
        <ele>294</ele>
        <time>2023-09-24T12:54:00Z</time>
      </trkpt>
      <trkpt lat="45.9442" lon="4.9307">
        <ele>294</ele>
        <time>2023-09-24T12:54:01Z</time>
      </trkpt>
      <trkpt lat="45.94423" lon="4.93069">
        <ele>294</ele>
        <time>2023-09-24T12:54:02Z</time>
      </trkpt>
      <trkpt lat="45.94426" lon="4.93069">
        <ele>294</ele>
        <time>2023-09-24T12:54:03Z</time>
      </trkpt>
      <trkpt lat="45.9443" lon="4.93067">
        <ele>294</ele>
        <time>2023-09-24T12:54:04Z</time>
      </trkpt>
      <trkpt lat="45.94434" lon="4.93066">
        <ele>294</ele>
        <time>2023-09-24T12:54:05Z</time>
      </trkpt>
      <trkpt lat="45.94437" lon="4.93066">
        <ele>294</ele>
        <time>2023-09-24T12:54:06Z</time>
      </trkpt>
      <trkpt lat="45.9444" lon="4.93065">
        <ele>294</ele>
        <time>2023-09-24T12:54:07Z</time>
      </trkpt>
      <trkpt lat="45.94443" lon="4.93062">
        <ele>294</ele>
        <time>2023-09-24T12:54:08Z</time>
      </trkpt>
      <trkpt lat="45.94446" lon="4.93062">
        <ele>294</ele>
        <time>2023-09-24T12:54:09Z</time>
      </trkpt>
      <trkpt lat="45.94449" lon="4.9306">
        <ele>294</ele>
        <time>2023-09-24T12:54:10Z</time>
      </trkpt>
      <trkpt lat="45.94453" lon="4.93059">
        <ele>294</ele>
        <time>2023-09-24T12:54:11Z</time>
      </trkpt>
      <trkpt lat="45.94457" lon="4.93059">
        <ele>294</ele>
        <time>2023-09-24T12:54:12Z</time>
      </trkpt>
      <trkpt lat="45.9446" lon="4.93058">
        <ele>294</ele>
        <time>2023-09-24T12:54:13Z</time>
      </trkpt>
      <trkpt lat="45.94464" lon="4.93057">
        <ele>294</ele>
        <time>2023-09-24T12:54:14Z</time>
      </trkpt>
      <trkpt lat="45.94465" lon="4.93056">
        <ele>294</ele>
        <time>2023-09-24T12:54:15Z</time>
      </trkpt>
      <trkpt lat="45.94469" lon="4.93056">
        <ele>294</ele>
        <time>2023-09-24T12:54:16Z</time>
      </trkpt>
      <trkpt lat="45.94473" lon="4.93055">
        <ele>294</ele>
        <time>2023-09-24T12:54:17Z</time>
      </trkpt>
      <trkpt lat="45.94474" lon="4.93055">
        <ele>294</ele>
        <time>2023-09-24T12:54:18Z</time>
      </trkpt>
      <trkpt lat="45.94478" lon="4.93054">
        <ele>294</ele>
        <time>2023-09-24T12:54:19Z</time>
      </trkpt>
      <trkpt lat="45.94482" lon="4.93053">
        <ele>294</ele>
        <time>2023-09-24T12:54:20Z</time>
      </trkpt>
      <trkpt lat="45.94485" lon="4.93052">
        <ele>294</ele>
        <time>2023-09-24T12:54:21Z</time>
      </trkpt>
      <trkpt lat="45.94487" lon="4.93051">
        <ele>294</ele>
        <time>2023-09-24T12:54:22Z</time>
      </trkpt>
      <trkpt lat="45.9449" lon="4.93051">
        <ele>294</ele>
        <time>2023-09-24T12:54:23Z</time>
      </trkpt>
      <trkpt lat="45.94494" lon="4.93049">
        <ele>294</ele>
        <time>2023-09-24T12:54:24Z</time>
      </trkpt>
      <trkpt lat="45.94497" lon="4.93048">
        <ele>294</ele>
        <time>2023-09-24T12:54:25Z</time>
      </trkpt>
      <trkpt lat="45.945" lon="4.93047">
        <ele>294</ele>
        <time>2023-09-24T12:54:26Z</time>
      </trkpt>
      <trkpt lat="45.94504" lon="4.93047">
        <ele>294</ele>
        <time>2023-09-24T12:54:27Z</time>
      </trkpt>
      <trkpt lat="45.94507" lon="4.93046">
        <ele>294</ele>
        <time>2023-09-24T12:54:28Z</time>
      </trkpt>
      <trkpt lat="45.94511" lon="4.93045">
        <ele>294</ele>
        <time>2023-09-24T12:54:29Z</time>
      </trkpt>
      <trkpt lat="45.94514" lon="4.93044">
        <ele>294</ele>
        <time>2023-09-24T12:54:30Z</time>
      </trkpt>
      <trkpt lat="45.94518" lon="4.93042">
        <ele>294</ele>
        <time>2023-09-24T12:54:31Z</time>
      </trkpt>
      <trkpt lat="45.94521" lon="4.93041">
        <ele>294</ele>
        <time>2023-09-24T12:54:32Z</time>
      </trkpt>
      <trkpt lat="45.94524" lon="4.93039">
        <ele>294</ele>
        <time>2023-09-24T12:54:33Z</time>
      </trkpt>
      <trkpt lat="45.94528" lon="4.93036">
        <ele>294</ele>
        <time>2023-09-24T12:54:34Z</time>
      </trkpt>
      <trkpt lat="45.9453" lon="4.93033">
        <ele>294</ele>
        <time>2023-09-24T12:54:35Z</time>
      </trkpt>
      <trkpt lat="45.94532" lon="4.9303">
        <ele>294</ele>
        <time>2023-09-24T12:54:36Z</time>
      </trkpt>
      <trkpt lat="45.94536" lon="4.93022">
        <ele>293.9</ele>
        <time>2023-09-24T12:54:37Z</time>
      </trkpt>
      <trkpt lat="45.94538" lon="4.93018">
        <ele>293.8</ele>
        <time>2023-09-24T12:54:38Z</time>
      </trkpt>
      <trkpt lat="45.9454" lon="4.93013">
        <ele>293.7</ele>
        <time>2023-09-24T12:54:39Z</time>
      </trkpt>
      <trkpt lat="45.94541" lon="4.93009">
        <ele>293.6</ele>
        <time>2023-09-24T12:54:40Z</time>
      </trkpt>
      <trkpt lat="45.94542" lon="4.93005">
        <ele>293.6</ele>
        <time>2023-09-24T12:54:41Z</time>
      </trkpt>
      <trkpt lat="45.94544" lon="4.93001">
        <ele>293.6</ele>
        <time>2023-09-24T12:54:42Z</time>
      </trkpt>
      <trkpt lat="45.94546" lon="4.92997">
        <ele>293.7</ele>
        <time>2023-09-24T12:54:43Z</time>
      </trkpt>
      <trkpt lat="45.94548" lon="4.92993">
        <ele>293.7</ele>
        <time>2023-09-24T12:54:44Z</time>
      </trkpt>
      <trkpt lat="45.94549" lon="4.92988">
        <ele>293.8</ele>
        <time>2023-09-24T12:54:45Z</time>
      </trkpt>
      <trkpt lat="45.94551" lon="4.92985">
        <ele>293.8</ele>
        <time>2023-09-24T12:54:46Z</time>
      </trkpt>
      <trkpt lat="45.94553" lon="4.92981">
        <ele>293.9</ele>
        <time>2023-09-24T12:54:47Z</time>
      </trkpt>
      <trkpt lat="45.94555" lon="4.92977">
        <ele>294</ele>
        <time>2023-09-24T12:54:48Z</time>
      </trkpt>
      <trkpt lat="45.94557" lon="4.92971">
        <ele>293.9</ele>
        <time>2023-09-24T12:54:49Z</time>
      </trkpt>
      <trkpt lat="45.94559" lon="4.92968">
        <ele>293.7</ele>
        <time>2023-09-24T12:54:50Z</time>
      </trkpt>
      <trkpt lat="45.9456" lon="4.92963">
        <ele>293.6</ele>
        <time>2023-09-24T12:54:51Z</time>
      </trkpt>
      <trkpt lat="45.94562" lon="4.92959">
        <ele>293.4</ele>
        <time>2023-09-24T12:54:52Z</time>
      </trkpt>
      <trkpt lat="45.94563" lon="4.92955">
        <ele>293.3</ele>
        <time>2023-09-24T12:54:53Z</time>
      </trkpt>
      <trkpt lat="45.94566" lon="4.92951">
        <ele>293.1</ele>
        <time>2023-09-24T12:54:54Z</time>
      </trkpt>
      <trkpt lat="45.94567" lon="4.92946">
        <ele>293</ele>
        <time>2023-09-24T12:54:55Z</time>
      </trkpt>
      <trkpt lat="45.94568" lon="4.92943">
        <ele>293</ele>
        <time>2023-09-24T12:54:56Z</time>
      </trkpt>
      <trkpt lat="45.94571" lon="4.92938">
        <ele>293</ele>
        <time>2023-09-24T12:54:57Z</time>
      </trkpt>
      <trkpt lat="45.94573" lon="4.92933">
        <ele>293.1</ele>
        <time>2023-09-24T12:54:58Z</time>
      </trkpt>
      <trkpt lat="45.94574" lon="4.9293">
        <ele>293.2</ele>
        <time>2023-09-24T12:54:59Z</time>
      </trkpt>
      <trkpt lat="45.94576" lon="4.92925">
        <ele>293.3</ele>
        <time>2023-09-24T12:55:00Z</time>
      </trkpt>
      <trkpt lat="45.94578" lon="4.92921">
        <ele>293.5</ele>
        <time>2023-09-24T12:55:01Z</time>
      </trkpt>
      <trkpt lat="45.9458" lon="4.92917">
        <ele>293.8</ele>
        <time>2023-09-24T12:55:02Z</time>
      </trkpt>
      <trkpt lat="45.94581" lon="4.92913">
        <ele>293.7</ele>
        <time>2023-09-24T12:55:03Z</time>
      </trkpt>
      <trkpt lat="45.94582" lon="4.92909">
        <ele>293.6</ele>
        <time>2023-09-24T12:55:04Z</time>
      </trkpt>
      <trkpt lat="45.94584" lon="4.92906">
        <ele>293.6</ele>
        <time>2023-09-24T12:55:05Z</time>
      </trkpt>
      <trkpt lat="45.94586" lon="4.92901">
        <ele>293.4</ele>
        <time>2023-09-24T12:55:06Z</time>
      </trkpt>
      <trkpt lat="45.94587" lon="4.92898">
        <ele>293.3</ele>
        <time>2023-09-24T12:55:07Z</time>
      </trkpt>
      <trkpt lat="45.94589" lon="4.92894">
        <ele>293.1</ele>
        <time>2023-09-24T12:55:08Z</time>
      </trkpt>
      <trkpt lat="45.9459" lon="4.9289">
        <ele>293</ele>
        <time>2023-09-24T12:55:09Z</time>
      </trkpt>
      <trkpt lat="45.94592" lon="4.92885">
        <ele>293</ele>
        <time>2023-09-24T12:55:10Z</time>
      </trkpt>
      <trkpt lat="45.94593" lon="4.92881">
        <ele>293</ele>
        <time>2023-09-24T12:55:11Z</time>
      </trkpt>
      <trkpt lat="45.94594" lon="4.92877">
        <ele>293</ele>
        <time>2023-09-24T12:55:12Z</time>
      </trkpt>
      <trkpt lat="45.94596" lon="4.92873">
        <ele>293</ele>
        <time>2023-09-24T12:55:13Z</time>
      </trkpt>
      <trkpt lat="45.94598" lon="4.92869">
        <ele>293</ele>
        <time>2023-09-24T12:55:14Z</time>
      </trkpt>
      <trkpt lat="45.94599" lon="4.92865">
        <ele>293</ele>
        <time>2023-09-24T12:55:15Z</time>
      </trkpt>
      <trkpt lat="45.94601" lon="4.92861">
        <ele>293</ele>
        <time>2023-09-24T12:55:16Z</time>
      </trkpt>
      <trkpt lat="45.94603" lon="4.92857">
        <ele>293.1</ele>
        <time>2023-09-24T12:55:17Z</time>
      </trkpt>
      <trkpt lat="45.94604" lon="4.92852">
        <ele>293.2</ele>
        <time>2023-09-24T12:55:18Z</time>
      </trkpt>
      <trkpt lat="45.94606" lon="4.92848">
        <ele>293.3</ele>
        <time>2023-09-24T12:55:19Z</time>
      </trkpt>
      <trkpt lat="45.94608" lon="4.92844">
        <ele>293.5</ele>
        <time>2023-09-24T12:55:20Z</time>
      </trkpt>
      <trkpt lat="45.9461" lon="4.9284">
        <ele>293.7</ele>
        <time>2023-09-24T12:55:21Z</time>
      </trkpt>
      <trkpt lat="45.94611" lon="4.92836">
        <ele>293.9</ele>
        <time>2023-09-24T12:55:22Z</time>
      </trkpt>
      <trkpt lat="45.94612" lon="4.92831">
        <ele>293.9</ele>
        <time>2023-09-24T12:55:23Z</time>
      </trkpt>
      <trkpt lat="45.94614" lon="4.92828">
        <ele>293.6</ele>
        <time>2023-09-24T12:55:24Z</time>
      </trkpt>
      <trkpt lat="45.94616" lon="4.92825">
        <ele>293.4</ele>
        <time>2023-09-24T12:55:25Z</time>
      </trkpt>
      <trkpt lat="45.94617" lon="4.92821">
        <ele>293.2</ele>
        <time>2023-09-24T12:55:26Z</time>
      </trkpt>
      <trkpt lat="45.94619" lon="4.92817">
        <ele>293</ele>
        <time>2023-09-24T12:55:27Z</time>
      </trkpt>
      <trkpt lat="45.9462" lon="4.92813">
        <ele>292.9</ele>
        <time>2023-09-24T12:55:28Z</time>
      </trkpt>
      <trkpt lat="45.94622" lon="4.92808">
        <ele>292.7</ele>
        <time>2023-09-24T12:55:29Z</time>
      </trkpt>
      <trkpt lat="45.94623" lon="4.92804">
        <ele>292.5</ele>
        <time>2023-09-24T12:55:30Z</time>
      </trkpt>
      <trkpt lat="45.94625" lon="4.92799">
        <ele>292.4</ele>
        <time>2023-09-24T12:55:31Z</time>
      </trkpt>
      <trkpt lat="45.94627" lon="4.92795">
        <ele>292.3</ele>
        <time>2023-09-24T12:55:32Z</time>
      </trkpt>
      <trkpt lat="45.94628" lon="4.92791">
        <ele>292.2</ele>
        <time>2023-09-24T12:55:33Z</time>
      </trkpt>
      <trkpt lat="45.9463" lon="4.92786">
        <ele>292.1</ele>
        <time>2023-09-24T12:55:34Z</time>
      </trkpt>
      <trkpt lat="45.94631" lon="4.92782">
        <ele>292</ele>
        <time>2023-09-24T12:55:35Z</time>
      </trkpt>
      <trkpt lat="45.94633" lon="4.92778">
        <ele>292</ele>
        <time>2023-09-24T12:55:36Z</time>
      </trkpt>
      <trkpt lat="45.94634" lon="4.92774">
        <ele>292.1</ele>
        <time>2023-09-24T12:55:37Z</time>
      </trkpt>
      <trkpt lat="45.94636" lon="4.92769">
        <ele>292.3</ele>
        <time>2023-09-24T12:55:38Z</time>
      </trkpt>
      <trkpt lat="45.94638" lon="4.92765">
        <ele>292.4</ele>
        <time>2023-09-24T12:55:39Z</time>
      </trkpt>
      <trkpt lat="45.94639" lon="4.92761">
        <ele>292.6</ele>
        <time>2023-09-24T12:55:40Z</time>
      </trkpt>
      <trkpt lat="45.94641" lon="4.92757">
        <ele>292.7</ele>
        <time>2023-09-24T12:55:41Z</time>
      </trkpt>
      <trkpt lat="45.94642" lon="4.92753">
        <ele>292.8</ele>
        <time>2023-09-24T12:55:42Z</time>
      </trkpt>
      <trkpt lat="45.94644" lon="4.92748">
        <ele>292.8</ele>
        <time>2023-09-24T12:55:43Z</time>
      </trkpt>
      <trkpt lat="45.94646" lon="4.92744">
        <ele>292.7</ele>
        <time>2023-09-24T12:55:44Z</time>
      </trkpt>
      <trkpt lat="45.94648" lon="4.9274">
        <ele>292.7</ele>
        <time>2023-09-24T12:55:45Z</time>
      </trkpt>
      <trkpt lat="45.9465" lon="4.92736">
        <ele>292.6</ele>
        <time>2023-09-24T12:55:46Z</time>
      </trkpt>
      <trkpt lat="45.94651" lon="4.92732">
        <ele>292.6</ele>
        <time>2023-09-24T12:55:47Z</time>
      </trkpt>
      <trkpt lat="45.94652" lon="4.92728">
        <ele>292.5</ele>
        <time>2023-09-24T12:55:48Z</time>
      </trkpt>
      <trkpt lat="45.94654" lon="4.92724">
        <ele>292.5</ele>
        <time>2023-09-24T12:55:49Z</time>
      </trkpt>
      <trkpt lat="45.94656" lon="4.92721">
        <ele>292.4</ele>
        <time>2023-09-24T12:55:50Z</time>
      </trkpt>
      <trkpt lat="45.94658" lon="4.92717">
        <ele>292.4</ele>
        <time>2023-09-24T12:55:51Z</time>
      </trkpt>
      <trkpt lat="45.94659" lon="4.92713">
        <ele>292.4</ele>
        <time>2023-09-24T12:55:52Z</time>
      </trkpt>
      <trkpt lat="45.94661" lon="4.92708">
        <ele>292.5</ele>
        <time>2023-09-24T12:55:54Z</time>
      </trkpt>
      <trkpt lat="45.94662" lon="4.92704">
        <ele>292.6</ele>
        <time>2023-09-24T12:55:55Z</time>
      </trkpt>
      <trkpt lat="45.94663" lon="4.927">
        <ele>292.7</ele>
        <time>2023-09-24T12:55:56Z</time>
      </trkpt>
      <trkpt lat="45.94665" lon="4.92695">
        <ele>292.9</ele>
        <time>2023-09-24T12:55:57Z</time>
      </trkpt>
      <trkpt lat="45.94665" lon="4.92693">
        <ele>293</ele>
        <time>2023-09-24T12:55:58Z</time>
      </trkpt>
      <trkpt lat="45.94667" lon="4.92688">
        <ele>293.2</ele>
        <time>2023-09-24T12:55:59Z</time>
      </trkpt>
      <trkpt lat="45.94669" lon="4.92684">
        <ele>293.3</ele>
        <time>2023-09-24T12:56:00Z</time>
      </trkpt>
      <trkpt lat="45.9467" lon="4.9268">
        <ele>293.5</ele>
        <time>2023-09-24T12:56:01Z</time>
      </trkpt>
      <trkpt lat="45.94671" lon="4.92676">
        <ele>293.6</ele>
        <time>2023-09-24T12:56:02Z</time>
      </trkpt>
      <trkpt lat="45.94672" lon="4.92671">
        <ele>293.7</ele>
        <time>2023-09-24T12:56:03Z</time>
      </trkpt>
      <trkpt lat="45.94674" lon="4.92667">
        <ele>293.7</ele>
        <time>2023-09-24T12:56:04Z</time>
      </trkpt>
      <trkpt lat="45.94675" lon="4.92661">
        <ele>293.6</ele>
        <time>2023-09-24T12:56:05Z</time>
      </trkpt>
      <trkpt lat="45.94676" lon="4.92659">
        <ele>293.5</ele>
        <time>2023-09-24T12:56:06Z</time>
      </trkpt>
      <trkpt lat="45.94677" lon="4.92655">
        <ele>293.4</ele>
        <time>2023-09-24T12:56:07Z</time>
      </trkpt>
      <trkpt lat="45.94678" lon="4.9265">
        <ele>293.2</ele>
        <time>2023-09-24T12:56:08Z</time>
      </trkpt>
      <trkpt lat="45.94679" lon="4.92646">
        <ele>293.1</ele>
        <time>2023-09-24T12:56:09Z</time>
      </trkpt>
      <trkpt lat="45.9468" lon="4.92642">
        <ele>293.1</ele>
        <time>2023-09-24T12:56:10Z</time>
      </trkpt>
      <trkpt lat="45.94682" lon="4.92638">
        <ele>293</ele>
        <time>2023-09-24T12:56:11Z</time>
      </trkpt>
      <trkpt lat="45.94682" lon="4.92633">
        <ele>293.2</ele>
        <time>2023-09-24T12:56:12Z</time>
      </trkpt>
      <trkpt lat="45.94684" lon="4.92628">
        <ele>293.4</ele>
        <time>2023-09-24T12:56:13Z</time>
      </trkpt>
      <trkpt lat="45.94685" lon="4.92624">
        <ele>293.5</ele>
        <time>2023-09-24T12:56:14Z</time>
      </trkpt>
      <trkpt lat="45.94687" lon="4.9262">
        <ele>293.7</ele>
        <time>2023-09-24T12:56:15Z</time>
      </trkpt>
      <trkpt lat="45.94687" lon="4.92615">
        <ele>293.9</ele>
        <time>2023-09-24T12:56:16Z</time>
      </trkpt>
      <trkpt lat="45.94688" lon="4.92611">
        <ele>294</ele>
        <time>2023-09-24T12:56:17Z</time>
      </trkpt>
      <trkpt lat="45.9469" lon="4.92606">
        <ele>294</ele>
        <time>2023-09-24T12:56:18Z</time>
      </trkpt>
      <trkpt lat="45.94691" lon="4.92605">
        <ele>294</ele>
        <time>2023-09-24T12:56:19Z</time>
      </trkpt>
      <trkpt lat="45.94693" lon="4.92602">
        <ele>294</ele>
        <time>2023-09-24T12:56:20Z</time>
      </trkpt>
      <trkpt lat="45.94694" lon="4.92602">
        <ele>294</ele>
        <time>2023-09-24T12:56:21Z</time>
      </trkpt>
      <trkpt lat="45.94698" lon="4.92601">
        <ele>294</ele>
        <time>2023-09-24T12:56:22Z</time>
      </trkpt>
      <trkpt lat="45.94699" lon="4.92601">
        <ele>294</ele>
        <time>2023-09-24T12:56:23Z</time>
      </trkpt>
      <trkpt lat="45.94703" lon="4.92601">
        <ele>294</ele>
        <time>2023-09-24T12:56:24Z</time>
      </trkpt>
      <trkpt lat="45.94704" lon="4.92601">
        <ele>294</ele>
        <time>2023-09-24T12:56:25Z</time>
      </trkpt>
      <trkpt lat="45.94707" lon="4.92603">
        <ele>294</ele>
        <time>2023-09-24T12:56:26Z</time>
      </trkpt>
      <trkpt lat="45.9471" lon="4.92605">
        <ele>294</ele>
        <time>2023-09-24T12:56:27Z</time>
      </trkpt>
      <trkpt lat="45.94714" lon="4.92606">
        <ele>294</ele>
        <time>2023-09-24T12:56:28Z</time>
      </trkpt>
      <trkpt lat="45.94717" lon="4.92606">
        <ele>294</ele>
        <time>2023-09-24T12:56:29Z</time>
      </trkpt>
      <trkpt lat="45.94718" lon="4.92606">
        <ele>294</ele>
        <time>2023-09-24T12:56:30Z</time>
      </trkpt>
      <trkpt lat="45.94721" lon="4.92607">
        <ele>294</ele>
        <time>2023-09-24T12:56:31Z</time>
      </trkpt>
      <trkpt lat="45.94722" lon="4.92607">
        <ele>294</ele>
        <time>2023-09-24T12:56:32Z</time>
      </trkpt>
      <trkpt lat="45.94724" lon="4.92608">
        <ele>294</ele>
        <time>2023-09-24T12:56:33Z</time>
      </trkpt>
      <trkpt lat="45.94727" lon="4.92607">
        <ele>294</ele>
        <time>2023-09-24T12:56:34Z</time>
      </trkpt>
      <trkpt lat="45.94731" lon="4.92606">
        <ele>294</ele>
        <time>2023-09-24T12:56:35Z</time>
      </trkpt>
      <trkpt lat="45.94732" lon="4.92606">
        <ele>294</ele>
        <time>2023-09-24T12:56:36Z</time>
      </trkpt>
      <trkpt lat="45.94735" lon="4.92606">
        <ele>294</ele>
        <time>2023-09-24T12:56:37Z</time>
      </trkpt>
      <trkpt lat="45.94739" lon="4.92605">
        <ele>294</ele>
        <time>2023-09-24T12:56:38Z</time>
      </trkpt>
      <trkpt lat="45.94742" lon="4.92605">
        <ele>294</ele>
        <time>2023-09-24T12:56:39Z</time>
      </trkpt>
      <trkpt lat="45.94744" lon="4.92604">
        <ele>294</ele>
        <time>2023-09-24T12:56:40Z</time>
      </trkpt>
      <trkpt lat="45.9475" lon="4.92604">
        <ele>294</ele>
        <time>2023-09-24T12:56:41Z</time>
      </trkpt>
      <trkpt lat="45.94754" lon="4.92604">
        <ele>294</ele>
        <time>2023-09-24T12:56:42Z</time>
      </trkpt>
      <trkpt lat="45.94758" lon="4.92603">
        <ele>294</ele>
        <time>2023-09-24T12:56:43Z</time>
      </trkpt>
      <trkpt lat="45.94761" lon="4.92602">
        <ele>294</ele>
        <time>2023-09-24T12:56:44Z</time>
      </trkpt>
      <trkpt lat="45.94762" lon="4.92602">
        <ele>294</ele>
        <time>2023-09-24T12:56:45Z</time>
      </trkpt>
      <trkpt lat="45.94766" lon="4.92601">
        <ele>294</ele>
        <time>2023-09-24T12:56:46Z</time>
      </trkpt>
      <trkpt lat="45.94769" lon="4.926">
        <ele>294</ele>
        <time>2023-09-24T12:56:47Z</time>
      </trkpt>
      <trkpt lat="45.94773" lon="4.92599">
        <ele>294</ele>
        <time>2023-09-24T12:56:48Z</time>
      </trkpt>
      <trkpt lat="45.94774" lon="4.92599">
        <ele>294</ele>
        <time>2023-09-24T12:56:49Z</time>
      </trkpt>
      <trkpt lat="45.94777" lon="4.92598">
        <ele>294</ele>
        <time>2023-09-24T12:56:50Z</time>
      </trkpt>
      <trkpt lat="45.94782" lon="4.92597">
        <ele>294</ele>
        <time>2023-09-24T12:56:51Z</time>
      </trkpt>
      <trkpt lat="45.94785" lon="4.92596">
        <ele>294</ele>
        <time>2023-09-24T12:56:52Z</time>
      </trkpt>
      <trkpt lat="45.94789" lon="4.92595">
        <ele>294</ele>
        <time>2023-09-24T12:56:53Z</time>
      </trkpt>
      <trkpt lat="45.94793" lon="4.92594">
        <ele>294</ele>
        <time>2023-09-24T12:56:54Z</time>
      </trkpt>
      <trkpt lat="45.94794" lon="4.92593">
        <ele>294</ele>
        <time>2023-09-24T12:56:55Z</time>
      </trkpt>
      <trkpt lat="45.94798" lon="4.92593">
        <ele>294</ele>
        <time>2023-09-24T12:56:56Z</time>
      </trkpt>
      <trkpt lat="45.94801" lon="4.92592">
        <ele>294</ele>
        <time>2023-09-24T12:56:57Z</time>
      </trkpt>
      <trkpt lat="45.94805" lon="4.92592">
        <ele>294</ele>
        <time>2023-09-24T12:56:58Z</time>
      </trkpt>
      <trkpt lat="45.94807" lon="4.9259">
        <ele>294</ele>
        <time>2023-09-24T12:56:59Z</time>
      </trkpt>
      <trkpt lat="45.9481" lon="4.92589">
        <ele>294</ele>
        <time>2023-09-24T12:57:00Z</time>
      </trkpt>
      <trkpt lat="45.94814" lon="4.92589">
        <ele>294</ele>
        <time>2023-09-24T12:57:01Z</time>
      </trkpt>
      <trkpt lat="45.94816" lon="4.92589">
        <ele>294</ele>
        <time>2023-09-24T12:57:02Z</time>
      </trkpt>
      <trkpt lat="45.94819" lon="4.92588">
        <ele>294</ele>
        <time>2023-09-24T12:57:03Z</time>
      </trkpt>
      <trkpt lat="45.9482" lon="4.92587">
        <ele>294</ele>
        <time>2023-09-24T12:57:04Z</time>
      </trkpt>
      <trkpt lat="45.94824" lon="4.92586">
        <ele>294</ele>
        <time>2023-09-24T12:57:05Z</time>
      </trkpt>
      <trkpt lat="45.94827" lon="4.92586">
        <ele>294</ele>
        <time>2023-09-24T12:57:06Z</time>
      </trkpt>
      <trkpt lat="45.9483" lon="4.92585">
        <ele>294</ele>
        <time>2023-09-24T12:57:07Z</time>
      </trkpt>
      <trkpt lat="45.94834" lon="4.92585">
        <ele>294</ele>
        <time>2023-09-24T12:57:08Z</time>
      </trkpt>
      <trkpt lat="45.94837" lon="4.92584">
        <ele>294</ele>
        <time>2023-09-24T12:57:09Z</time>
      </trkpt>
      <trkpt lat="45.9484" lon="4.92584">
        <ele>294</ele>
        <time>2023-09-24T12:57:10Z</time>
      </trkpt>
      <trkpt lat="45.94843" lon="4.92583">
        <ele>294</ele>
        <time>2023-09-24T12:57:11Z</time>
      </trkpt>
      <trkpt lat="45.94842" lon="4.92583">
        <ele>294</ele>
        <time>2023-09-24T12:57:12Z</time>
      </trkpt>
      <trkpt lat="45.94842" lon="4.92583">
        <ele>294</ele>
        <time>2023-09-24T12:57:13Z</time>
      </trkpt>
      <trkpt lat="45.94842" lon="4.92583">
        <ele>294</ele>
        <time>2023-09-24T12:57:14Z</time>
      </trkpt>
      <trkpt lat="45.94842" lon="4.92583">
        <ele>294</ele>
        <time>2023-09-24T12:57:15Z</time>
      </trkpt>
      <trkpt lat="45.94842" lon="4.92584">
        <ele>294</ele>
        <time>2023-09-24T12:57:16Z</time>
      </trkpt>
      <trkpt lat="45.94843" lon="4.92583">
        <ele>294</ele>
        <time>2023-09-24T12:57:17Z</time>
      </trkpt>
      <trkpt lat="45.94843" lon="4.92583">
        <ele>294</ele>
        <time>2023-09-24T12:57:18Z</time>
      </trkpt>
      <trkpt lat="45.94843" lon="4.92583">
        <ele>294</ele>
        <time>2023-09-24T12:57:19Z</time>
      </trkpt>
      <trkpt lat="45.94844" lon="4.92583">
        <ele>294</ele>
        <time>2023-09-24T12:57:20Z</time>
      </trkpt>
      <trkpt lat="45.94846" lon="4.92583">
        <ele>294</ele>
        <time>2023-09-24T12:57:21Z</time>
      </trkpt>
      <trkpt lat="45.94848" lon="4.92583">
        <ele>294</ele>
        <time>2023-09-24T12:57:22Z</time>
      </trkpt>
      <trkpt lat="45.94849" lon="4.92583">
        <ele>294</ele>
        <time>2023-09-24T12:58:24Z</time>
      </trkpt>
      <trkpt lat="45.94851" lon="4.92583">
        <ele>294</ele>
        <time>2023-09-24T12:58:25Z</time>
      </trkpt>
      <trkpt lat="45.94853" lon="4.92583">
        <ele>294</ele>
        <time>2023-09-24T12:58:26Z</time>
      </trkpt>
      <trkpt lat="45.94856" lon="4.92582">
        <ele>294</ele>
        <time>2023-09-24T12:58:27Z</time>
      </trkpt>
      <trkpt lat="45.94857" lon="4.92582">
        <ele>294</ele>
        <time>2023-09-24T12:58:28Z</time>
      </trkpt>
      <trkpt lat="45.94858" lon="4.92581">
        <ele>294</ele>
        <time>2023-09-24T12:58:29Z</time>
      </trkpt>
      <trkpt lat="45.9486" lon="4.92581">
        <ele>294</ele>
        <time>2023-09-24T12:58:30Z</time>
      </trkpt>
      <trkpt lat="45.94864" lon="4.92579">
        <ele>294</ele>
        <time>2023-09-24T12:58:31Z</time>
      </trkpt>
      <trkpt lat="45.94865" lon="4.92579">
        <ele>294</ele>
        <time>2023-09-24T12:58:32Z</time>
      </trkpt>
      <trkpt lat="45.94871" lon="4.92577">
        <ele>294</ele>
        <time>2023-09-24T12:58:33Z</time>
      </trkpt>
      <trkpt lat="45.94873" lon="4.92577">
        <ele>294</ele>
        <time>2023-09-24T12:58:34Z</time>
      </trkpt>
      <trkpt lat="45.94877" lon="4.92575">
        <ele>294</ele>
        <time>2023-09-24T12:58:35Z</time>
      </trkpt>
      <trkpt lat="45.94878" lon="4.92575">
        <ele>294</ele>
        <time>2023-09-24T12:58:36Z</time>
      </trkpt>
      <trkpt lat="45.94881" lon="4.92574">
        <ele>294</ele>
        <time>2023-09-24T12:58:37Z</time>
      </trkpt>
      <trkpt lat="45.94884" lon="4.92573">
        <ele>294</ele>
        <time>2023-09-24T12:58:38Z</time>
      </trkpt>
      <trkpt lat="45.94884" lon="4.92573">
        <ele>294</ele>
        <time>2023-09-24T12:58:39Z</time>
      </trkpt>
      <trkpt lat="45.94888" lon="4.92572">
        <ele>294</ele>
        <time>2023-09-24T12:58:40Z</time>
      </trkpt>
      <trkpt lat="45.94889" lon="4.92573">
        <ele>294</ele>
        <time>2023-09-24T12:58:41Z</time>
      </trkpt>
      <trkpt lat="45.94893" lon="4.92572">
        <ele>294</ele>
        <time>2023-09-24T12:58:42Z</time>
      </trkpt>
      <trkpt lat="45.94897" lon="4.92571">
        <ele>294</ele>
        <time>2023-09-24T12:58:43Z</time>
      </trkpt>
      <trkpt lat="45.949" lon="4.92569">
        <ele>294</ele>
        <time>2023-09-24T12:58:44Z</time>
      </trkpt>
      <trkpt lat="45.94902" lon="4.92569">
        <ele>294</ele>
        <time>2023-09-24T12:58:45Z</time>
      </trkpt>
      <trkpt lat="45.94906" lon="4.92568">
        <ele>294</ele>
        <time>2023-09-24T12:58:46Z</time>
      </trkpt>
      <trkpt lat="45.9491" lon="4.92568">
        <ele>294</ele>
        <time>2023-09-24T12:58:47Z</time>
      </trkpt>
      <trkpt lat="45.94912" lon="4.92568">
        <ele>294</ele>
        <time>2023-09-24T12:58:48Z</time>
      </trkpt>
      <trkpt lat="45.94915" lon="4.92567">
        <ele>294</ele>
        <time>2023-09-24T12:58:49Z</time>
      </trkpt>
      <trkpt lat="45.94918" lon="4.92566">
        <ele>294</ele>
        <time>2023-09-24T12:58:50Z</time>
      </trkpt>
      <trkpt lat="45.94922" lon="4.92566">
        <ele>294</ele>
        <time>2023-09-24T12:58:51Z</time>
      </trkpt>
      <trkpt lat="45.94925" lon="4.92565">
        <ele>294</ele>
        <time>2023-09-24T12:58:52Z</time>
      </trkpt>
      <trkpt lat="45.94928" lon="4.92565">
        <ele>294</ele>
        <time>2023-09-24T12:58:53Z</time>
      </trkpt>
      <trkpt lat="45.94931" lon="4.92565">
        <ele>294</ele>
        <time>2023-09-24T12:58:54Z</time>
      </trkpt>
      <trkpt lat="45.94934" lon="4.92564">
        <ele>294</ele>
        <time>2023-09-24T12:58:55Z</time>
      </trkpt>
      <trkpt lat="45.94939" lon="4.92564">
        <ele>294</ele>
        <time>2023-09-24T12:58:56Z</time>
      </trkpt>
      <trkpt lat="45.94942" lon="4.92565">
        <ele>294</ele>
        <time>2023-09-24T12:58:57Z</time>
      </trkpt>
      <trkpt lat="45.94946" lon="4.92567">
        <ele>294</ele>
        <time>2023-09-24T12:58:58Z</time>
      </trkpt>
      <trkpt lat="45.94947" lon="4.92568">
        <ele>294</ele>
        <time>2023-09-24T12:58:59Z</time>
      </trkpt>
      <trkpt lat="45.9495" lon="4.92568">
        <ele>294</ele>
        <time>2023-09-24T12:59:00Z</time>
      </trkpt>
      <trkpt lat="45.94954" lon="4.92569">
        <ele>294</ele>
        <time>2023-09-24T12:59:01Z</time>
      </trkpt>
      <trkpt lat="45.94957" lon="4.9257">
        <ele>294</ele>
        <time>2023-09-24T12:59:02Z</time>
      </trkpt>
      <trkpt lat="45.9496" lon="4.92571">
        <ele>294</ele>
        <time>2023-09-24T12:59:03Z</time>
      </trkpt>
      <trkpt lat="45.94962" lon="4.92572">
        <ele>294</ele>
        <time>2023-09-24T12:59:04Z</time>
      </trkpt>
      <trkpt lat="45.94966" lon="4.92573">
        <ele>294</ele>
        <time>2023-09-24T12:59:05Z</time>
      </trkpt>
      <trkpt lat="45.94969" lon="4.92574">
        <ele>294</ele>
        <time>2023-09-24T12:59:06Z</time>
      </trkpt>
      <trkpt lat="45.94972" lon="4.92575">
        <ele>294</ele>
        <time>2023-09-24T12:59:07Z</time>
      </trkpt>
      <trkpt lat="45.94974" lon="4.92575">
        <ele>294</ele>
        <time>2023-09-24T12:59:08Z</time>
      </trkpt>
      <trkpt lat="45.94978" lon="4.92576">
        <ele>293.9</ele>
        <time>2023-09-24T12:59:09Z</time>
      </trkpt>
      <trkpt lat="45.9498" lon="4.92577">
        <ele>293.9</ele>
        <time>2023-09-24T12:59:10Z</time>
      </trkpt>
      <trkpt lat="45.94983" lon="4.92577">
        <ele>293.9</ele>
        <time>2023-09-24T12:59:11Z</time>
      </trkpt>
      <trkpt lat="45.94987" lon="4.92578">
        <ele>293.9</ele>
        <time>2023-09-24T12:59:12Z</time>
      </trkpt>
      <trkpt lat="45.9499" lon="4.92578">
        <ele>293.9</ele>
        <time>2023-09-24T12:59:13Z</time>
      </trkpt>
      <trkpt lat="45.94994" lon="4.92578">
        <ele>293.8</ele>
        <time>2023-09-24T12:59:14Z</time>
      </trkpt>
      <trkpt lat="45.94996" lon="4.92579">
        <ele>293.9</ele>
        <time>2023-09-24T12:59:15Z</time>
      </trkpt>
      <trkpt lat="45.95" lon="4.92579">
        <ele>293.8</ele>
        <time>2023-09-24T12:59:16Z</time>
      </trkpt>
      <trkpt lat="45.95003" lon="4.92579">
        <ele>293.8</ele>
        <time>2023-09-24T12:59:17Z</time>
      </trkpt>
      <trkpt lat="45.95007" lon="4.92579">
        <ele>293.6</ele>
        <time>2023-09-24T12:59:18Z</time>
      </trkpt>
      <trkpt lat="45.9501" lon="4.92579">
        <ele>293.5</ele>
        <time>2023-09-24T12:59:19Z</time>
      </trkpt>
      <trkpt lat="45.95014" lon="4.92579">
        <ele>293.4</ele>
        <time>2023-09-24T12:59:20Z</time>
      </trkpt>
      <trkpt lat="45.95017" lon="4.92579">
        <ele>293.3</ele>
        <time>2023-09-24T12:59:21Z</time>
      </trkpt>
      <trkpt lat="45.9502" lon="4.92579">
        <ele>293.2</ele>
        <time>2023-09-24T12:59:22Z</time>
      </trkpt>
      <trkpt lat="45.95024" lon="4.92578">
        <ele>293.1</ele>
        <time>2023-09-24T12:59:23Z</time>
      </trkpt>
      <trkpt lat="45.95027" lon="4.92578">
        <ele>293</ele>
        <time>2023-09-24T12:59:24Z</time>
      </trkpt>
      <trkpt lat="45.9503" lon="4.92579">
        <ele>293</ele>
        <time>2023-09-24T12:59:25Z</time>
      </trkpt>
      <trkpt lat="45.95033" lon="4.92579">
        <ele>293</ele>
        <time>2023-09-24T12:59:26Z</time>
      </trkpt>
      <trkpt lat="45.95036" lon="4.92578">
        <ele>293</ele>
        <time>2023-09-24T12:59:27Z</time>
      </trkpt>
      <trkpt lat="45.95039" lon="4.92578">
        <ele>293</ele>
        <time>2023-09-24T12:59:28Z</time>
      </trkpt>
      <trkpt lat="45.95042" lon="4.92577">
        <ele>293</ele>
        <time>2023-09-24T12:59:29Z</time>
      </trkpt>
      <trkpt lat="45.95046" lon="4.92577">
        <ele>293</ele>
        <time>2023-09-24T12:59:30Z</time>
      </trkpt>
      <trkpt lat="45.95049" lon="4.92577">
        <ele>293</ele>
        <time>2023-09-24T12:59:31Z</time>
      </trkpt>
      <trkpt lat="45.95053" lon="4.92577">
        <ele>293</ele>
        <time>2023-09-24T12:59:32Z</time>
      </trkpt>
      <trkpt lat="45.95057" lon="4.92577">
        <ele>293</ele>
        <time>2023-09-24T12:59:33Z</time>
      </trkpt>
      <trkpt lat="45.9506" lon="4.92578">
        <ele>293</ele>
        <time>2023-09-24T12:59:34Z</time>
      </trkpt>
      <trkpt lat="45.95063" lon="4.92578">
        <ele>293</ele>
        <time>2023-09-24T12:59:35Z</time>
      </trkpt>
      <trkpt lat="45.95067" lon="4.92578">
        <ele>293</ele>
        <time>2023-09-24T12:59:36Z</time>
      </trkpt>
      <trkpt lat="45.9507" lon="4.92578">
        <ele>293</ele>
        <time>2023-09-24T12:59:37Z</time>
      </trkpt>
      <trkpt lat="45.95073" lon="4.92578">
        <ele>293</ele>
        <time>2023-09-24T12:59:38Z</time>
      </trkpt>
      <trkpt lat="45.95077" lon="4.92579">
        <ele>293</ele>
        <time>2023-09-24T12:59:39Z</time>
      </trkpt>
      <trkpt lat="45.9508" lon="4.92579">
        <ele>293</ele>
        <time>2023-09-24T12:59:40Z</time>
      </trkpt>
      <trkpt lat="45.95083" lon="4.92578">
        <ele>293</ele>
        <time>2023-09-24T12:59:41Z</time>
      </trkpt>
      <trkpt lat="45.95086" lon="4.92579">
        <ele>293</ele>
        <time>2023-09-24T12:59:42Z</time>
      </trkpt>
      <trkpt lat="45.9509" lon="4.9258">
        <ele>293</ele>
        <time>2023-09-24T12:59:43Z</time>
      </trkpt>
      <trkpt lat="45.95093" lon="4.9258">
        <ele>293</ele>
        <time>2023-09-24T12:59:44Z</time>
      </trkpt>
      <trkpt lat="45.95096" lon="4.92581">
        <ele>293</ele>
        <time>2023-09-24T12:59:45Z</time>
      </trkpt>
      <trkpt lat="45.95099" lon="4.92582">
        <ele>293</ele>
        <time>2023-09-24T12:59:46Z</time>
      </trkpt>
      <trkpt lat="45.95102" lon="4.92582">
        <ele>293</ele>
        <time>2023-09-24T12:59:47Z</time>
      </trkpt>
      <trkpt lat="45.95105" lon="4.92583">
        <ele>293</ele>
        <time>2023-09-24T12:59:48Z</time>
      </trkpt>
      <trkpt lat="45.95109" lon="4.92583">
        <ele>293</ele>
        <time>2023-09-24T12:59:49Z</time>
      </trkpt>
      <trkpt lat="45.95112" lon="4.92583">
        <ele>293</ele>
        <time>2023-09-24T12:59:50Z</time>
      </trkpt>
      <trkpt lat="45.95114" lon="4.92585">
        <ele>293</ele>
        <time>2023-09-24T12:59:51Z</time>
      </trkpt>
      <trkpt lat="45.95118" lon="4.92585">
        <ele>293</ele>
        <time>2023-09-24T12:59:52Z</time>
      </trkpt>
      <trkpt lat="45.95122" lon="4.92586">
        <ele>293</ele>
        <time>2023-09-24T12:59:53Z</time>
      </trkpt>
      <trkpt lat="45.95125" lon="4.92587">
        <ele>293</ele>
        <time>2023-09-24T12:59:54Z</time>
      </trkpt>
      <trkpt lat="45.95127" lon="4.92587">
        <ele>293</ele>
        <time>2023-09-24T12:59:55Z</time>
      </trkpt>
      <trkpt lat="45.95131" lon="4.92588">
        <ele>293</ele>
        <time>2023-09-24T12:59:56Z</time>
      </trkpt>
      <trkpt lat="45.95134" lon="4.92589">
        <ele>293</ele>
        <time>2023-09-24T12:59:57Z</time>
      </trkpt>
      <trkpt lat="45.95137" lon="4.92589">
        <ele>293</ele>
        <time>2023-09-24T12:59:58Z</time>
      </trkpt>
      <trkpt lat="45.95141" lon="4.9259">
        <ele>293</ele>
        <time>2023-09-24T12:59:59Z</time>
      </trkpt>
      <trkpt lat="45.95143" lon="4.9259">
        <ele>293</ele>
        <time>2023-09-24T13:00:00Z</time>
      </trkpt>
      <trkpt lat="45.95146" lon="4.92591">
        <ele>293</ele>
        <time>2023-09-24T13:00:01Z</time>
      </trkpt>
      <trkpt lat="45.95149" lon="4.92592">
        <ele>293</ele>
        <time>2023-09-24T13:00:02Z</time>
      </trkpt>
      <trkpt lat="45.95152" lon="4.92591">
        <ele>293</ele>
        <time>2023-09-24T13:00:03Z</time>
      </trkpt>
      <trkpt lat="45.95155" lon="4.92592">
        <ele>293</ele>
        <time>2023-09-24T13:00:04Z</time>
      </trkpt>
      <trkpt lat="45.95158" lon="4.92594">
        <ele>293</ele>
        <time>2023-09-24T13:00:05Z</time>
      </trkpt>
      <trkpt lat="45.95162" lon="4.92594">
        <ele>293</ele>
        <time>2023-09-24T13:00:06Z</time>
      </trkpt>
      <trkpt lat="45.95166" lon="4.92595">
        <ele>293</ele>
        <time>2023-09-24T13:00:07Z</time>
      </trkpt>
      <trkpt lat="45.9517" lon="4.92595">
        <ele>293</ele>
        <time>2023-09-24T13:00:08Z</time>
      </trkpt>
      <trkpt lat="45.95173" lon="4.92596">
        <ele>293</ele>
        <time>2023-09-24T13:00:09Z</time>
      </trkpt>
      <trkpt lat="45.95176" lon="4.92596">
        <ele>293</ele>
        <time>2023-09-24T13:00:10Z</time>
      </trkpt>
      <trkpt lat="45.95179" lon="4.92597">
        <ele>293</ele>
        <time>2023-09-24T13:00:11Z</time>
      </trkpt>
      <trkpt lat="45.95183" lon="4.92598">
        <ele>293</ele>
        <time>2023-09-24T13:00:12Z</time>
      </trkpt>
      <trkpt lat="45.95186" lon="4.92599">
        <ele>293</ele>
        <time>2023-09-24T13:00:13Z</time>
      </trkpt>
      <trkpt lat="45.95189" lon="4.926">
        <ele>293</ele>
        <time>2023-09-24T13:00:14Z</time>
      </trkpt>
      <trkpt lat="45.95193" lon="4.92601">
        <ele>293</ele>
        <time>2023-09-24T13:00:15Z</time>
      </trkpt>
      <trkpt lat="45.95196" lon="4.92602">
        <ele>293</ele>
        <time>2023-09-24T13:00:16Z</time>
      </trkpt>
      <trkpt lat="45.952" lon="4.92604">
        <ele>293</ele>
        <time>2023-09-24T13:00:17Z</time>
      </trkpt>
      <trkpt lat="45.95203" lon="4.92607">
        <ele>293</ele>
        <time>2023-09-24T13:00:18Z</time>
      </trkpt>
      <trkpt lat="45.95206" lon="4.92609">
        <ele>293</ele>
        <time>2023-09-24T13:00:19Z</time>
      </trkpt>
      <trkpt lat="45.95208" lon="4.92613">
        <ele>293</ele>
        <time>2023-09-24T13:00:20Z</time>
      </trkpt>
      <trkpt lat="45.9521" lon="4.92617">
        <ele>293</ele>
        <time>2023-09-24T13:00:21Z</time>
      </trkpt>
      <trkpt lat="45.9521" lon="4.92622">
        <ele>293</ele>
        <time>2023-09-24T13:00:22Z</time>
      </trkpt>
      <trkpt lat="45.9521" lon="4.92626">
        <ele>293</ele>
        <time>2023-09-24T13:00:23Z</time>
      </trkpt>
      <trkpt lat="45.9521" lon="4.92631">
        <ele>293</ele>
        <time>2023-09-24T13:00:24Z</time>
      </trkpt>
      <trkpt lat="45.95209" lon="4.92636">
        <ele>293</ele>
        <time>2023-09-24T13:00:25Z</time>
      </trkpt>
      <trkpt lat="45.95208" lon="4.9264">
        <ele>293</ele>
        <time>2023-09-24T13:00:26Z</time>
      </trkpt>
      <trkpt lat="45.95207" lon="4.92645">
        <ele>292.9</ele>
        <time>2023-09-24T13:00:27Z</time>
      </trkpt>
      <trkpt lat="45.95206" lon="4.92649">
        <ele>292.8</ele>
        <time>2023-09-24T13:00:28Z</time>
      </trkpt>
      <trkpt lat="45.95205" lon="4.92654">
        <ele>292.8</ele>
        <time>2023-09-24T13:00:29Z</time>
      </trkpt>
      <trkpt lat="45.95205" lon="4.92656">
        <ele>292.8</ele>
        <time>2023-09-24T13:00:30Z</time>
      </trkpt>
      <trkpt lat="45.95204" lon="4.9266">
        <ele>292.7</ele>
        <time>2023-09-24T13:00:31Z</time>
      </trkpt>
      <trkpt lat="45.95203" lon="4.92665">
        <ele>292.7</ele>
        <time>2023-09-24T13:00:32Z</time>
      </trkpt>
      <trkpt lat="45.95202" lon="4.92669">
        <ele>292.7</ele>
        <time>2023-09-24T13:00:33Z</time>
      </trkpt>
      <trkpt lat="45.95201" lon="4.92673">
        <ele>292.6</ele>
        <time>2023-09-24T13:00:34Z</time>
      </trkpt>
      <trkpt lat="45.952" lon="4.92678">
        <ele>292.5</ele>
        <time>2023-09-24T13:00:35Z</time>
      </trkpt>
      <trkpt lat="45.95199" lon="4.92682">
        <ele>292.4</ele>
        <time>2023-09-24T13:00:36Z</time>
      </trkpt>
      <trkpt lat="45.95198" lon="4.92687">
        <ele>292.2</ele>
        <time>2023-09-24T13:00:37Z</time>
      </trkpt>
      <trkpt lat="45.95197" lon="4.92692">
        <ele>292.1</ele>
        <time>2023-09-24T13:00:38Z</time>
      </trkpt>
      <trkpt lat="45.95195" lon="4.92696">
        <ele>292</ele>
        <time>2023-09-24T13:00:39Z</time>
      </trkpt>
      <trkpt lat="45.95194" lon="4.92701">
        <ele>292</ele>
        <time>2023-09-24T13:00:40Z</time>
      </trkpt>
      <trkpt lat="45.95193" lon="4.92705">
        <ele>292.1</ele>
        <time>2023-09-24T13:00:41Z</time>
      </trkpt>
      <trkpt lat="45.95192" lon="4.92709">
        <ele>292.1</ele>
        <time>2023-09-24T13:00:42Z</time>
      </trkpt>
      <trkpt lat="45.95191" lon="4.92714">
        <ele>292.1</ele>
        <time>2023-09-24T13:00:43Z</time>
      </trkpt>
      <trkpt lat="45.95189" lon="4.92718">
        <ele>292.2</ele>
        <time>2023-09-24T13:00:44Z</time>
      </trkpt>
      <trkpt lat="45.95188" lon="4.92723">
        <ele>292.2</ele>
        <time>2023-09-24T13:00:45Z</time>
      </trkpt>
      <trkpt lat="45.95187" lon="4.92727">
        <ele>292.3</ele>
        <time>2023-09-24T13:00:46Z</time>
      </trkpt>
      <trkpt lat="45.95186" lon="4.92731">
        <ele>292.3</ele>
        <time>2023-09-24T13:00:47Z</time>
      </trkpt>
      <trkpt lat="45.95185" lon="4.92736">
        <ele>292.3</ele>
        <time>2023-09-24T13:00:48Z</time>
      </trkpt>
      <trkpt lat="45.95184" lon="4.9274">
        <ele>292.4</ele>
        <time>2023-09-24T13:00:49Z</time>
      </trkpt>
      <trkpt lat="45.95183" lon="4.92745">
        <ele>292.4</ele>
        <time>2023-09-24T13:00:50Z</time>
      </trkpt>
      <trkpt lat="45.95183" lon="4.92748">
        <ele>292.4</ele>
        <time>2023-09-24T13:00:51Z</time>
      </trkpt>
      <trkpt lat="45.95183" lon="4.92748">
        <ele>292.4</ele>
        <time>2023-09-24T13:00:52Z</time>
      </trkpt>
      <trkpt lat="45.95183" lon="4.92749">
        <ele>292.4</ele>
        <time>2023-09-24T13:00:53Z</time>
      </trkpt>
      <trkpt lat="45.95183" lon="4.92749">
        <ele>292.4</ele>
        <time>2023-09-24T13:00:54Z</time>
      </trkpt>
      <trkpt lat="45.95183" lon="4.92749">
        <ele>292.4</ele>
        <time>2023-09-24T13:00:55Z</time>
      </trkpt>
      <trkpt lat="45.95183" lon="4.9275">
        <ele>292.4</ele>
        <time>2023-09-24T13:00:56Z</time>
      </trkpt>
      <trkpt lat="45.95183" lon="4.9275">
        <ele>292.4</ele>
        <time>2023-09-24T13:00:57Z</time>
      </trkpt>
      <trkpt lat="45.95182" lon="4.92752">
        <ele>292.4</ele>
        <time>2023-09-24T13:00:58Z</time>
      </trkpt>
      <trkpt lat="45.95182" lon="4.92754">
        <ele>292.4</ele>
        <time>2023-09-24T13:00:59Z</time>
      </trkpt>
      <trkpt lat="45.95181" lon="4.92758">
        <ele>292.3</ele>
        <time>2023-09-24T13:01:00Z</time>
      </trkpt>
      <trkpt lat="45.9518" lon="4.92762">
        <ele>292.3</ele>
        <time>2023-09-24T13:01:01Z</time>
      </trkpt>
      <trkpt lat="45.95179" lon="4.92766">
        <ele>292.2</ele>
        <time>2023-09-24T13:01:02Z</time>
      </trkpt>
      <trkpt lat="45.95179" lon="4.92771">
        <ele>292.1</ele>
        <time>2023-09-24T13:01:03Z</time>
      </trkpt>
      <trkpt lat="45.95178" lon="4.92775">
        <ele>292.1</ele>
        <time>2023-09-24T13:01:04Z</time>
      </trkpt>
      <trkpt lat="45.95178" lon="4.92779">
        <ele>292</ele>
        <time>2023-09-24T13:01:05Z</time>
      </trkpt>
      <trkpt lat="45.95178" lon="4.92784">
        <ele>292</ele>
        <time>2023-09-24T13:01:06Z</time>
      </trkpt>
      <trkpt lat="45.95177" lon="4.92789">
        <ele>292</ele>
        <time>2023-09-24T13:01:07Z</time>
      </trkpt>
      <trkpt lat="45.95177" lon="4.92791">
        <ele>292</ele>
        <time>2023-09-24T13:01:08Z</time>
      </trkpt>
      <trkpt lat="45.95177" lon="4.92796">
        <ele>292</ele>
        <time>2023-09-24T13:01:09Z</time>
      </trkpt>
      <trkpt lat="45.95177" lon="4.928">
        <ele>292</ele>
        <time>2023-09-24T13:01:10Z</time>
      </trkpt>
      <trkpt lat="45.95176" lon="4.92804">
        <ele>292</ele>
        <time>2023-09-24T13:01:11Z</time>
      </trkpt>
      <trkpt lat="45.95176" lon="4.92809">
        <ele>292</ele>
        <time>2023-09-24T13:01:12Z</time>
      </trkpt>
      <trkpt lat="45.95176" lon="4.92813">
        <ele>292</ele>
        <time>2023-09-24T13:01:13Z</time>
      </trkpt>
      <trkpt lat="45.95176" lon="4.92818">
        <ele>292</ele>
        <time>2023-09-24T13:01:14Z</time>
      </trkpt>
      <trkpt lat="45.95176" lon="4.92822">
        <ele>292</ele>
        <time>2023-09-24T13:01:15Z</time>
      </trkpt>
      <trkpt lat="45.95175" lon="4.92827">
        <ele>292</ele>
        <time>2023-09-24T13:01:16Z</time>
      </trkpt>
      <trkpt lat="45.95175" lon="4.92832">
        <ele>292</ele>
        <time>2023-09-24T13:01:17Z</time>
      </trkpt>
      <trkpt lat="45.95175" lon="4.92836">
        <ele>292.1</ele>
        <time>2023-09-24T13:01:18Z</time>
      </trkpt>
      <trkpt lat="45.95175" lon="4.92841">
        <ele>292.3</ele>
        <time>2023-09-24T13:01:19Z</time>
      </trkpt>
      <trkpt lat="45.95175" lon="4.92846">
        <ele>292.5</ele>
        <time>2023-09-24T13:01:20Z</time>
      </trkpt>
      <trkpt lat="45.95175" lon="4.92851">
        <ele>292.6</ele>
        <time>2023-09-24T13:01:21Z</time>
      </trkpt>
      <trkpt lat="45.95174" lon="4.92854">
        <ele>292.7</ele>
        <time>2023-09-24T13:01:22Z</time>
      </trkpt>
      <trkpt lat="45.95173" lon="4.92859">
        <ele>292.9</ele>
        <time>2023-09-24T13:01:23Z</time>
      </trkpt>
      <trkpt lat="45.95173" lon="4.92864">
        <ele>292.9</ele>
        <time>2023-09-24T13:01:24Z</time>
      </trkpt>
      <trkpt lat="45.95174" lon="4.92868">
        <ele>292.8</ele>
        <time>2023-09-24T13:01:25Z</time>
      </trkpt>
      <trkpt lat="45.95174" lon="4.92873">
        <ele>292.6</ele>
        <time>2023-09-24T13:01:26Z</time>
      </trkpt>
      <trkpt lat="45.95174" lon="4.92877">
        <ele>292.4</ele>
        <time>2023-09-24T13:01:27Z</time>
      </trkpt>
      <trkpt lat="45.95174" lon="4.92882">
        <ele>292.2</ele>
        <time>2023-09-24T13:01:28Z</time>
      </trkpt>
      <trkpt lat="45.95174" lon="4.92886">
        <ele>292.1</ele>
        <time>2023-09-24T13:01:29Z</time>
      </trkpt>
      <trkpt lat="45.95175" lon="4.9289">
        <ele>292</ele>
        <time>2023-09-24T13:01:30Z</time>
      </trkpt>
      <trkpt lat="45.95175" lon="4.92895">
        <ele>292.2</ele>
        <time>2023-09-24T13:01:31Z</time>
      </trkpt>
      <trkpt lat="45.95175" lon="4.92899">
        <ele>292.3</ele>
        <time>2023-09-24T13:01:32Z</time>
      </trkpt>
      <trkpt lat="45.95177" lon="4.92905">
        <ele>292.4</ele>
        <time>2023-09-24T13:01:33Z</time>
      </trkpt>
      <trkpt lat="45.95179" lon="4.9291">
        <ele>292.4</ele>
        <time>2023-09-24T13:01:34Z</time>
      </trkpt>
      <trkpt lat="45.95179" lon="4.92912">
        <ele>292.5</ele>
        <time>2023-09-24T13:01:35Z</time>
      </trkpt>
      <trkpt lat="45.95181" lon="4.92916">
        <ele>292.5</ele>
        <time>2023-09-24T13:01:36Z</time>
      </trkpt>
      <trkpt lat="45.95183" lon="4.9292">
        <ele>292.4</ele>
        <time>2023-09-24T13:01:37Z</time>
      </trkpt>
      <trkpt lat="45.95186" lon="4.92923">
        <ele>292.3</ele>
        <time>2023-09-24T13:01:38Z</time>
      </trkpt>
      <trkpt lat="45.95188" lon="4.92926">
        <ele>292.2</ele>
        <time>2023-09-24T13:01:39Z</time>
      </trkpt>
      <trkpt lat="45.95191" lon="4.92929">
        <ele>292.1</ele>
        <time>2023-09-24T13:01:40Z</time>
      </trkpt>
      <trkpt lat="45.95193" lon="4.92932">
        <ele>292.1</ele>
        <time>2023-09-24T13:01:41Z</time>
      </trkpt>
      <trkpt lat="45.95196" lon="4.92935">
        <ele>292</ele>
        <time>2023-09-24T13:01:42Z</time>
      </trkpt>
      <trkpt lat="45.95199" lon="4.92938">
        <ele>292</ele>
        <time>2023-09-24T13:01:43Z</time>
      </trkpt>
      <trkpt lat="45.95202" lon="4.92941">
        <ele>292</ele>
        <time>2023-09-24T13:01:44Z</time>
      </trkpt>
      <trkpt lat="45.95204" lon="4.92943">
        <ele>292</ele>
        <time>2023-09-24T13:01:45Z</time>
      </trkpt>
      <trkpt lat="45.95207" lon="4.92945">
        <ele>292</ele>
        <time>2023-09-24T13:01:46Z</time>
      </trkpt>
      <trkpt lat="45.9521" lon="4.92948">
        <ele>292</ele>
        <time>2023-09-24T13:01:47Z</time>
      </trkpt>
      <trkpt lat="45.95212" lon="4.9295">
        <ele>292</ele>
        <time>2023-09-24T13:01:48Z</time>
      </trkpt>
      <trkpt lat="45.95215" lon="4.92952">
        <ele>292</ele>
        <time>2023-09-24T13:01:49Z</time>
      </trkpt>
      <trkpt lat="45.95218" lon="4.92955">
        <ele>292</ele>
        <time>2023-09-24T13:01:50Z</time>
      </trkpt>
      <trkpt lat="45.95221" lon="4.92957">
        <ele>292</ele>
        <time>2023-09-24T13:01:51Z</time>
      </trkpt>
      <trkpt lat="45.95224" lon="4.92959">
        <ele>292</ele>
        <time>2023-09-24T13:01:52Z</time>
      </trkpt>
      <trkpt lat="45.95227" lon="4.9296">
        <ele>292.1</ele>
        <time>2023-09-24T13:01:53Z</time>
      </trkpt>
      <trkpt lat="45.9523" lon="4.92961">
        <ele>292.2</ele>
        <time>2023-09-24T13:01:54Z</time>
      </trkpt>
      <trkpt lat="45.95233" lon="4.92963">
        <ele>292.3</ele>
        <time>2023-09-24T13:01:55Z</time>
      </trkpt>
      <trkpt lat="45.95236" lon="4.92965">
        <ele>292.4</ele>
        <time>2023-09-24T13:01:56Z</time>
      </trkpt>
      <trkpt lat="45.95239" lon="4.92966">
        <ele>292.5</ele>
        <time>2023-09-24T13:01:57Z</time>
      </trkpt>
      <trkpt lat="45.95242" lon="4.92968">
        <ele>292.6</ele>
        <time>2023-09-24T13:01:58Z</time>
      </trkpt>
      <trkpt lat="45.95246" lon="4.92969">
        <ele>292.8</ele>
        <time>2023-09-24T13:01:59Z</time>
      </trkpt>
      <trkpt lat="45.95249" lon="4.9297">
        <ele>292.9</ele>
        <time>2023-09-24T13:02:00Z</time>
      </trkpt>
      <trkpt lat="45.95252" lon="4.92971">
        <ele>293</ele>
        <time>2023-09-24T13:02:01Z</time>
      </trkpt>
      <trkpt lat="45.95255" lon="4.92972">
        <ele>293</ele>
        <time>2023-09-24T13:02:02Z</time>
      </trkpt>
      <trkpt lat="45.95259" lon="4.92973">
        <ele>293</ele>
        <time>2023-09-24T13:02:03Z</time>
      </trkpt>
      <trkpt lat="45.95262" lon="4.92975">
        <ele>292.9</ele>
        <time>2023-09-24T13:02:04Z</time>
      </trkpt>
      <trkpt lat="45.95266" lon="4.92975">
        <ele>292.9</ele>
        <time>2023-09-24T13:02:05Z</time>
      </trkpt>
      <trkpt lat="45.95267" lon="4.92975">
        <ele>292.9</ele>
        <time>2023-09-24T13:02:06Z</time>
      </trkpt>
      <trkpt lat="45.9527" lon="4.92976">
        <ele>292.9</ele>
        <time>2023-09-24T13:02:07Z</time>
      </trkpt>
      <trkpt lat="45.95273" lon="4.92977">
        <ele>292.8</ele>
        <time>2023-09-24T13:02:08Z</time>
      </trkpt>
      <trkpt lat="45.95277" lon="4.92978">
        <ele>292.8</ele>
        <time>2023-09-24T13:02:09Z</time>
      </trkpt>
      <trkpt lat="45.9528" lon="4.92979">
        <ele>292.7</ele>
        <time>2023-09-24T13:02:10Z</time>
      </trkpt>
      <trkpt lat="45.95284" lon="4.92979">
        <ele>292.6</ele>
        <time>2023-09-24T13:02:11Z</time>
      </trkpt>
      <trkpt lat="45.95287" lon="4.92981">
        <ele>292.6</ele>
        <time>2023-09-24T13:02:12Z</time>
      </trkpt>
      <trkpt lat="45.9529" lon="4.92982">
        <ele>292.5</ele>
        <time>2023-09-24T13:02:13Z</time>
      </trkpt>
      <trkpt lat="45.95294" lon="4.92984">
        <ele>292.5</ele>
        <time>2023-09-24T13:02:14Z</time>
      </trkpt>
      <trkpt lat="45.95297" lon="4.92986">
        <ele>292.5</ele>
        <time>2023-09-24T13:02:15Z</time>
      </trkpt>
      <trkpt lat="45.953" lon="4.92987">
        <ele>292.5</ele>
        <time>2023-09-24T13:02:16Z</time>
      </trkpt>
      <trkpt lat="45.95303" lon="4.92989">
        <ele>292.6</ele>
        <time>2023-09-24T13:02:17Z</time>
      </trkpt>
      <trkpt lat="45.95306" lon="4.92992">
        <ele>292.7</ele>
        <time>2023-09-24T13:02:18Z</time>
      </trkpt>
      <trkpt lat="45.95309" lon="4.92994">
        <ele>292.7</ele>
        <time>2023-09-24T13:02:19Z</time>
      </trkpt>
      <trkpt lat="45.95312" lon="4.92996">
        <ele>292.7</ele>
        <time>2023-09-24T13:02:20Z</time>
      </trkpt>
      <trkpt lat="45.95315" lon="4.92999">
        <ele>292.6</ele>
        <time>2023-09-24T13:02:21Z</time>
      </trkpt>
      <trkpt lat="45.95318" lon="4.93001">
        <ele>292.6</ele>
        <time>2023-09-24T13:02:22Z</time>
      </trkpt>
      <trkpt lat="45.95321" lon="4.93004">
        <ele>292.4</ele>
        <time>2023-09-24T13:02:23Z</time>
      </trkpt>
      <trkpt lat="45.95324" lon="4.93007">
        <ele>292.3</ele>
        <time>2023-09-24T13:02:24Z</time>
      </trkpt>
      <trkpt lat="45.95327" lon="4.93009">
        <ele>292.2</ele>
        <time>2023-09-24T13:02:25Z</time>
      </trkpt>
      <trkpt lat="45.9533" lon="4.93012">
        <ele>292.1</ele>
        <time>2023-09-24T13:02:26Z</time>
      </trkpt>
      <trkpt lat="45.95333" lon="4.93015">
        <ele>292</ele>
        <time>2023-09-24T13:02:27Z</time>
      </trkpt>
      <trkpt lat="45.95336" lon="4.93018">
        <ele>292</ele>
        <time>2023-09-24T13:02:28Z</time>
      </trkpt>
      <trkpt lat="45.95339" lon="4.93021">
        <ele>292</ele>
        <time>2023-09-24T13:02:29Z</time>
      </trkpt>
      <trkpt lat="45.95342" lon="4.93023">
        <ele>292</ele>
        <time>2023-09-24T13:02:30Z</time>
      </trkpt>
      <trkpt lat="45.95345" lon="4.93025">
        <ele>292</ele>
        <time>2023-09-24T13:02:31Z</time>
      </trkpt>
      <trkpt lat="45.95348" lon="4.93028">
        <ele>292</ele>
        <time>2023-09-24T13:02:32Z</time>
      </trkpt>
      <trkpt lat="45.95351" lon="4.93031">
        <ele>292</ele>
        <time>2023-09-24T13:02:33Z</time>
      </trkpt>
      <trkpt lat="45.95354" lon="4.93033">
        <ele>292</ele>
        <time>2023-09-24T13:02:34Z</time>
      </trkpt>
      <trkpt lat="45.95357" lon="4.93037">
        <ele>292</ele>
        <time>2023-09-24T13:02:35Z</time>
      </trkpt>
      <trkpt lat="45.9536" lon="4.93039">
        <ele>292</ele>
        <time>2023-09-24T13:02:36Z</time>
      </trkpt>
      <trkpt lat="45.95363" lon="4.93042">
        <ele>292</ele>
        <time>2023-09-24T13:02:37Z</time>
      </trkpt>
      <trkpt lat="45.95366" lon="4.93045">
        <ele>292</ele>
        <time>2023-09-24T13:02:38Z</time>
      </trkpt>
      <trkpt lat="45.95368" lon="4.93049">
        <ele>292</ele>
        <time>2023-09-24T13:02:39Z</time>
      </trkpt>
      <trkpt lat="45.9537" lon="4.93054">
        <ele>292</ele>
        <time>2023-09-24T13:02:40Z</time>
      </trkpt>
      <trkpt lat="45.95371" lon="4.93059">
        <ele>292</ele>
        <time>2023-09-24T13:02:41Z</time>
      </trkpt>
      <trkpt lat="45.95372" lon="4.93063">
        <ele>292</ele>
        <time>2023-09-24T13:02:42Z</time>
      </trkpt>
      <trkpt lat="45.95373" lon="4.93068">
        <ele>292</ele>
        <time>2023-09-24T13:02:43Z</time>
      </trkpt>
      <trkpt lat="45.95374" lon="4.93074">
        <ele>292</ele>
        <time>2023-09-24T13:02:44Z</time>
      </trkpt>
      <trkpt lat="45.95374" lon="4.9308">
        <ele>292</ele>
        <time>2023-09-24T13:02:45Z</time>
      </trkpt>
      <trkpt lat="45.95374" lon="4.93085">
        <ele>292</ele>
        <time>2023-09-24T13:02:46Z</time>
      </trkpt>
      <trkpt lat="45.95374" lon="4.93091">
        <ele>292</ele>
        <time>2023-09-24T13:02:47Z</time>
      </trkpt>
      <trkpt lat="45.95375" lon="4.93096">
        <ele>292</ele>
        <time>2023-09-24T13:02:48Z</time>
      </trkpt>
      <trkpt lat="45.95376" lon="4.93102">
        <ele>292</ele>
        <time>2023-09-24T13:02:49Z</time>
      </trkpt>
      <trkpt lat="45.95376" lon="4.93107">
        <ele>292</ele>
        <time>2023-09-24T13:02:50Z</time>
      </trkpt>
      <trkpt lat="45.95377" lon="4.93112">
        <ele>292</ele>
        <time>2023-09-24T13:02:51Z</time>
      </trkpt>
      <trkpt lat="45.95377" lon="4.93118">
        <ele>292</ele>
        <time>2023-09-24T13:02:52Z</time>
      </trkpt>
      <trkpt lat="45.95378" lon="4.93122">
        <ele>292</ele>
        <time>2023-09-24T13:02:53Z</time>
      </trkpt>
      <trkpt lat="45.95377" lon="4.93127">
        <ele>292</ele>
        <time>2023-09-24T13:02:54Z</time>
      </trkpt>
      <trkpt lat="45.95377" lon="4.93133">
        <ele>292</ele>
        <time>2023-09-24T13:02:55Z</time>
      </trkpt>
      <trkpt lat="45.95378" lon="4.93138">
        <ele>292</ele>
        <time>2023-09-24T13:02:56Z</time>
      </trkpt>
      <trkpt lat="45.95378" lon="4.93144">
        <ele>292</ele>
        <time>2023-09-24T13:02:57Z</time>
      </trkpt>
      <trkpt lat="45.95379" lon="4.93148">
        <ele>292</ele>
        <time>2023-09-24T13:02:58Z</time>
      </trkpt>
      <trkpt lat="45.95381" lon="4.93153">
        <ele>292</ele>
        <time>2023-09-24T13:02:59Z</time>
      </trkpt>
      <trkpt lat="45.95384" lon="4.93158">
        <ele>292</ele>
        <time>2023-09-24T13:03:00Z</time>
      </trkpt>
      <trkpt lat="45.95386" lon="4.93162">
        <ele>292</ele>
        <time>2023-09-24T13:03:01Z</time>
      </trkpt>
      <trkpt lat="45.95388" lon="4.93167">
        <ele>292</ele>
        <time>2023-09-24T13:03:02Z</time>
      </trkpt>
      <trkpt lat="45.9539" lon="4.93171">
        <ele>292</ele>
        <time>2023-09-24T13:03:03Z</time>
      </trkpt>
      <trkpt lat="45.95393" lon="4.93174">
        <ele>291.9</ele>
        <time>2023-09-24T13:03:04Z</time>
      </trkpt>
      <trkpt lat="45.95396" lon="4.93177">
        <ele>291.7</ele>
        <time>2023-09-24T13:03:05Z</time>
      </trkpt>
      <trkpt lat="45.95399" lon="4.9318">
        <ele>291.6</ele>
        <time>2023-09-24T13:03:06Z</time>
      </trkpt>
      <trkpt lat="45.95402" lon="4.93182">
        <ele>291.5</ele>
        <time>2023-09-24T13:03:07Z</time>
      </trkpt>
      <trkpt lat="45.95406" lon="4.93185">
        <ele>291.4</ele>
        <time>2023-09-24T13:03:08Z</time>
      </trkpt>
      <trkpt lat="45.95409" lon="4.93187">
        <ele>291.3</ele>
        <time>2023-09-24T13:03:09Z</time>
      </trkpt>
      <trkpt lat="45.95413" lon="4.93188">
        <ele>291.1</ele>
        <time>2023-09-24T13:03:10Z</time>
      </trkpt>
      <trkpt lat="45.95417" lon="4.93189">
        <ele>291</ele>
        <time>2023-09-24T13:03:11Z</time>
      </trkpt>
      <trkpt lat="45.95421" lon="4.9319">
        <ele>291</ele>
        <time>2023-09-24T13:03:12Z</time>
      </trkpt>
      <trkpt lat="45.95425" lon="4.93192">
        <ele>291</ele>
        <time>2023-09-24T13:03:13Z</time>
      </trkpt>
      <trkpt lat="45.95429" lon="4.93194">
        <ele>291</ele>
        <time>2023-09-24T13:03:14Z</time>
      </trkpt>
      <trkpt lat="45.95434" lon="4.93195">
        <ele>291</ele>
        <time>2023-09-24T13:03:15Z</time>
      </trkpt>
      <trkpt lat="45.95438" lon="4.93196">
        <ele>291</ele>
        <time>2023-09-24T13:03:16Z</time>
      </trkpt>
      <trkpt lat="45.95442" lon="4.93196">
        <ele>291</ele>
        <time>2023-09-24T13:03:17Z</time>
      </trkpt>
      <trkpt lat="45.95446" lon="4.93194">
        <ele>291</ele>
        <time>2023-09-24T13:03:18Z</time>
      </trkpt>
      <trkpt lat="45.95449" lon="4.9319">
        <ele>291</ele>
        <time>2023-09-24T13:03:19Z</time>
      </trkpt>
      <trkpt lat="45.95451" lon="4.93185">
        <ele>291</ele>
        <time>2023-09-24T13:03:20Z</time>
      </trkpt>
      <trkpt lat="45.95453" lon="4.9318">
        <ele>291</ele>
        <time>2023-09-24T13:03:21Z</time>
      </trkpt>
      <trkpt lat="45.95455" lon="4.93176">
        <ele>291</ele>
        <time>2023-09-24T13:03:22Z</time>
      </trkpt>
      <trkpt lat="45.95457" lon="4.93173">
        <ele>291</ele>
        <time>2023-09-24T13:03:23Z</time>
      </trkpt>
      <trkpt lat="45.9546" lon="4.9317">
        <ele>291</ele>
        <time>2023-09-24T13:03:24Z</time>
      </trkpt>
      <trkpt lat="45.95463" lon="4.93167">
        <ele>291</ele>
        <time>2023-09-24T13:03:25Z</time>
      </trkpt>
      <trkpt lat="45.95465" lon="4.93164">
        <ele>291</ele>
        <time>2023-09-24T13:03:26Z</time>
      </trkpt>
      <trkpt lat="45.95468" lon="4.93163">
        <ele>291</ele>
        <time>2023-09-24T13:03:27Z</time>
      </trkpt>
      <trkpt lat="45.95472" lon="4.93161">
        <ele>291</ele>
        <time>2023-09-24T13:03:28Z</time>
      </trkpt>
      <trkpt lat="45.95474" lon="4.93158">
        <ele>291</ele>
        <time>2023-09-24T13:03:29Z</time>
      </trkpt>
      <trkpt lat="45.95477" lon="4.93156">
        <ele>290.9</ele>
        <time>2023-09-24T13:03:30Z</time>
      </trkpt>
      <trkpt lat="45.9548" lon="4.93154">
        <ele>290.8</ele>
        <time>2023-09-24T13:03:31Z</time>
      </trkpt>
      <trkpt lat="45.95482" lon="4.93152">
        <ele>290.8</ele>
        <time>2023-09-24T13:03:32Z</time>
      </trkpt>
      <trkpt lat="45.95486" lon="4.93149">
        <ele>290.8</ele>
        <time>2023-09-24T13:03:33Z</time>
      </trkpt>
      <trkpt lat="45.95489" lon="4.93146">
        <ele>290.8</ele>
        <time>2023-09-24T13:03:34Z</time>
      </trkpt>
      <trkpt lat="45.95492" lon="4.93144">
        <ele>290.9</ele>
        <time>2023-09-24T13:03:35Z</time>
      </trkpt>
      <trkpt lat="45.95495" lon="4.93142">
        <ele>290.9</ele>
        <time>2023-09-24T13:03:36Z</time>
      </trkpt>
      <trkpt lat="45.95497" lon="4.93139">
        <ele>291</ele>
        <time>2023-09-24T13:03:37Z</time>
      </trkpt>
      <trkpt lat="45.95498" lon="4.93138">
        <ele>291</ele>
        <time>2023-09-24T13:03:38Z</time>
      </trkpt>
      <trkpt lat="45.95502" lon="4.93136">
        <ele>290.9</ele>
        <time>2023-09-24T13:03:39Z</time>
      </trkpt>
      <trkpt lat="45.95503" lon="4.93134">
        <ele>290.9</ele>
        <time>2023-09-24T13:03:40Z</time>
      </trkpt>
      <trkpt lat="45.95504" lon="4.93134">
        <ele>290.9</ele>
        <time>2023-09-24T13:03:41Z</time>
      </trkpt>
      <trkpt lat="45.95504" lon="4.93134">
        <ele>290.9</ele>
        <time>2023-09-24T13:03:42Z</time>
      </trkpt>
      <trkpt lat="45.95504" lon="4.93134">
        <ele>290.9</ele>
        <time>2023-09-24T13:03:43Z</time>
      </trkpt>
      <trkpt lat="45.95504" lon="4.93134">
        <ele>290.9</ele>
        <time>2023-09-24T13:03:44Z</time>
      </trkpt>
      <trkpt lat="45.95505" lon="4.93134">
        <ele>290.9</ele>
        <time>2023-09-24T13:03:45Z</time>
      </trkpt>
      <trkpt lat="45.95505" lon="4.93134">
        <ele>290.9</ele>
        <time>2023-09-24T13:03:46Z</time>
      </trkpt>
      <trkpt lat="45.95505" lon="4.93133">
        <ele>290.9</ele>
        <time>2023-09-24T13:03:47Z</time>
      </trkpt>
      <trkpt lat="45.95505" lon="4.93133">
        <ele>290.9</ele>
        <time>2023-09-24T13:03:48Z</time>
      </trkpt>
      <trkpt lat="45.95505" lon="4.93133">
        <ele>290.9</ele>
        <time>2023-09-24T13:03:49Z</time>
      </trkpt>
      <trkpt lat="45.95505" lon="4.93133">
        <ele>290.9</ele>
        <time>2023-09-24T13:03:50Z</time>
      </trkpt>
      <trkpt lat="45.95505" lon="4.93133">
        <ele>290.9</ele>
        <time>2023-09-24T13:03:51Z</time>
      </trkpt>
      <trkpt lat="45.95509" lon="4.93132">
        <ele>290.8</ele>
        <time>2023-09-24T13:04:12Z</time>
      </trkpt>
      <trkpt lat="45.95509" lon="4.9313">
        <ele>290.9</ele>
        <time>2023-09-24T13:04:13Z</time>
      </trkpt>
      <trkpt lat="45.95509" lon="4.93131">
        <ele>290.9</ele>
        <time>2023-09-24T13:04:14Z</time>
      </trkpt>
      <trkpt lat="45.95509" lon="4.93132">
        <ele>290.8</ele>
        <time>2023-09-24T13:04:15Z</time>
      </trkpt>
      <trkpt lat="45.95508" lon="4.93132">
        <ele>290.9</ele>
        <time>2023-09-24T13:04:16Z</time>
      </trkpt>
      <trkpt lat="45.95508" lon="4.93132">
        <ele>290.9</ele>
        <time>2023-09-24T13:04:17Z</time>
      </trkpt>
      <trkpt lat="45.95508" lon="4.93132">
        <ele>290.9</ele>
        <time>2023-09-24T13:04:18Z</time>
      </trkpt>
      <trkpt lat="45.95508" lon="4.93132">
        <ele>290.9</ele>
        <time>2023-09-24T13:04:19Z</time>
      </trkpt>
      <trkpt lat="45.95508" lon="4.93132">
        <ele>290.9</ele>
        <time>2023-09-24T13:04:20Z</time>
      </trkpt>
      <trkpt lat="45.95508" lon="4.93132">
        <ele>290.9</ele>
        <time>2023-09-24T13:04:21Z</time>
      </trkpt>
      <trkpt lat="45.9551" lon="4.9313">
        <ele>290.9</ele>
        <time>2023-09-24T13:05:18Z</time>
      </trkpt>
      <trkpt lat="45.95509" lon="4.9313">
        <ele>290.9</ele>
        <time>2023-09-24T13:05:19Z</time>
      </trkpt>
      <trkpt lat="45.95509" lon="4.9313">
        <ele>290.9</ele>
        <time>2023-09-24T13:05:20Z</time>
      </trkpt>
      <trkpt lat="45.95509" lon="4.9313">
        <ele>290.9</ele>
        <time>2023-09-24T13:05:21Z</time>
      </trkpt>
      <trkpt lat="45.95509" lon="4.93131">
        <ele>290.9</ele>
        <time>2023-09-24T13:05:22Z</time>
      </trkpt>
      <trkpt lat="45.95509" lon="4.93132">
        <ele>290.8</ele>
        <time>2023-09-24T13:05:23Z</time>
      </trkpt>
      <trkpt lat="45.95509" lon="4.93132">
        <ele>290.8</ele>
        <time>2023-09-24T13:05:24Z</time>
      </trkpt>
      <trkpt lat="45.95509" lon="4.93132">
        <ele>290.8</ele>
        <time>2023-09-24T13:05:25Z</time>
      </trkpt>
      <trkpt lat="45.95509" lon="4.93132">
        <ele>290.8</ele>
        <time>2023-09-24T13:05:26Z</time>
      </trkpt>
      <trkpt lat="45.95509" lon="4.93132">
        <ele>290.8</ele>
        <time>2023-09-24T13:05:27Z</time>
      </trkpt>
      <trkpt lat="45.95514" lon="4.93128">
        <ele>290.9</ele>
      </trkpt>
      <trkpt lat="45.95518" lon="4.93124">
        <ele>291</ele>
        <time>2023-09-24T13:05:37Z</time>
      </trkpt>
      <trkpt lat="45.9552" lon="4.93122">
        <ele>291.2</ele>
        <time>2023-09-24T13:05:38Z</time>
      </trkpt>
      <trkpt lat="45.95523" lon="4.93119">
        <ele>291.4</ele>
        <time>2023-09-24T13:05:39Z</time>
      </trkpt>
      <trkpt lat="45.95526" lon="4.93116">
        <ele>291.6</ele>
        <time>2023-09-24T13:05:40Z</time>
      </trkpt>
      <trkpt lat="45.95528" lon="4.93113">
        <ele>291.8</ele>
        <time>2023-09-24T13:05:41Z</time>
      </trkpt>
      <trkpt lat="45.9553" lon="4.9311">
        <ele>291.8</ele>
        <time>2023-09-24T13:05:42Z</time>
      </trkpt>
      <trkpt lat="45.95534" lon="4.93107">
        <ele>291.5</ele>
        <time>2023-09-24T13:05:43Z</time>
      </trkpt>
      <trkpt lat="45.95537" lon="4.93104">
        <ele>291.2</ele>
        <time>2023-09-24T13:05:44Z</time>
      </trkpt>
      <trkpt lat="45.95539" lon="4.931">
        <ele>291.1</ele>
        <time>2023-09-24T13:05:45Z</time>
      </trkpt>
      <trkpt lat="45.95542" lon="4.93096">
        <ele>291</ele>
        <time>2023-09-24T13:05:46Z</time>
      </trkpt>
      <trkpt lat="45.95544" lon="4.93092">
        <ele>290.9</ele>
        <time>2023-09-24T13:05:47Z</time>
      </trkpt>
      <trkpt lat="45.95546" lon="4.93086">
        <ele>291</ele>
        <time>2023-09-24T13:05:48Z</time>
      </trkpt>
      <trkpt lat="45.95547" lon="4.93082">
        <ele>291</ele>
        <time>2023-09-24T13:05:49Z</time>
      </trkpt>
      <trkpt lat="45.95548" lon="4.93077">
        <ele>291.2</ele>
        <time>2023-09-24T13:05:50Z</time>
      </trkpt>
      <trkpt lat="45.9555" lon="4.93071">
        <ele>291.4</ele>
        <time>2023-09-24T13:05:51Z</time>
      </trkpt>
      <trkpt lat="45.95551" lon="4.93066">
        <ele>291.5</ele>
        <time>2023-09-24T13:05:52Z</time>
      </trkpt>
      <trkpt lat="45.95551" lon="4.93061">
        <ele>291.7</ele>
        <time>2023-09-24T13:05:53Z</time>
      </trkpt>
      <trkpt lat="45.95552" lon="4.93056">
        <ele>291.9</ele>
        <time>2023-09-24T13:05:54Z</time>
      </trkpt>
      <trkpt lat="45.95552" lon="4.9305">
        <ele>291.9</ele>
        <time>2023-09-24T13:05:55Z</time>
      </trkpt>
      <trkpt lat="45.95552" lon="4.93045">
        <ele>291.9</ele>
        <time>2023-09-24T13:05:56Z</time>
      </trkpt>
      <trkpt lat="45.95553" lon="4.93039">
        <ele>291.9</ele>
        <time>2023-09-24T13:05:57Z</time>
      </trkpt>
      <trkpt lat="45.95553" lon="4.93035">
        <ele>291.9</ele>
        <time>2023-09-24T13:05:58Z</time>
      </trkpt>
      <trkpt lat="45.95554" lon="4.93029">
        <ele>291.9</ele>
        <time>2023-09-24T13:05:59Z</time>
      </trkpt>
      <trkpt lat="45.95554" lon="4.93023">
        <ele>292</ele>
        <time>2023-09-24T13:06:00Z</time>
      </trkpt>
      <trkpt lat="45.95554" lon="4.93018">
        <ele>292</ele>
        <time>2023-09-24T13:06:01Z</time>
      </trkpt>
      <trkpt lat="45.95555" lon="4.93013">
        <ele>292</ele>
        <time>2023-09-24T13:06:02Z</time>
      </trkpt>
      <trkpt lat="45.95555" lon="4.93007">
        <ele>292</ele>
        <time>2023-09-24T13:06:03Z</time>
      </trkpt>
      <trkpt lat="45.95556" lon="4.93002">
        <ele>292</ele>
        <time>2023-09-24T13:06:04Z</time>
      </trkpt>
      <trkpt lat="45.95557" lon="4.92997">
        <ele>292</ele>
        <time>2023-09-24T13:06:05Z</time>
      </trkpt>
      <trkpt lat="45.95557" lon="4.92992">
        <ele>292</ele>
        <time>2023-09-24T13:06:06Z</time>
      </trkpt>
      <trkpt lat="45.95558" lon="4.92987">
        <ele>292</ele>
        <time>2023-09-24T13:06:07Z</time>
      </trkpt>
      <trkpt lat="45.95559" lon="4.92981">
        <ele>292.1</ele>
        <time>2023-09-24T13:06:08Z</time>
      </trkpt>
      <trkpt lat="45.9556" lon="4.92976">
        <ele>292.1</ele>
        <time>2023-09-24T13:06:09Z</time>
      </trkpt>
      <trkpt lat="45.9556" lon="4.9297">
        <ele>292.3</ele>
        <time>2023-09-24T13:06:10Z</time>
      </trkpt>
      <trkpt lat="45.95561" lon="4.92965">
        <ele>292.5</ele>
        <time>2023-09-24T13:06:11Z</time>
      </trkpt>
      <trkpt lat="45.95561" lon="4.9296">
        <ele>292.7</ele>
        <time>2023-09-24T13:06:12Z</time>
      </trkpt>
      <trkpt lat="45.95562" lon="4.92954">
        <ele>293</ele>
        <time>2023-09-24T13:06:13Z</time>
      </trkpt>
      <trkpt lat="45.95563" lon="4.9295">
        <ele>293.3</ele>
        <time>2023-09-24T13:06:14Z</time>
      </trkpt>
      <trkpt lat="45.95564" lon="4.92944">
        <ele>293.6</ele>
        <time>2023-09-24T13:06:15Z</time>
      </trkpt>
      <trkpt lat="45.95565" lon="4.92939">
        <ele>293.5</ele>
        <time>2023-09-24T13:06:16Z</time>
      </trkpt>
      <trkpt lat="45.95566" lon="4.92934">
        <ele>293.5</ele>
        <time>2023-09-24T13:06:17Z</time>
      </trkpt>
      <trkpt lat="45.95566" lon="4.92928">
        <ele>293.3</ele>
        <time>2023-09-24T13:06:18Z</time>
      </trkpt>
      <trkpt lat="45.95567" lon="4.92923">
        <ele>293.2</ele>
        <time>2023-09-24T13:06:19Z</time>
      </trkpt>
      <trkpt lat="45.95568" lon="4.92918">
        <ele>293</ele>
        <time>2023-09-24T13:06:20Z</time>
      </trkpt>
      <trkpt lat="45.95569" lon="4.92913">
        <ele>293.1</ele>
        <time>2023-09-24T13:06:21Z</time>
      </trkpt>
      <trkpt lat="45.9557" lon="4.92908">
        <ele>293.2</ele>
        <time>2023-09-24T13:06:22Z</time>
      </trkpt>
      <trkpt lat="45.95571" lon="4.92903">
        <ele>293.3</ele>
        <time>2023-09-24T13:06:23Z</time>
      </trkpt>
      <trkpt lat="45.95572" lon="4.92898">
        <ele>293.4</ele>
        <time>2023-09-24T13:06:24Z</time>
      </trkpt>
      <trkpt lat="45.95573" lon="4.92892">
        <ele>293.6</ele>
        <time>2023-09-24T13:06:25Z</time>
      </trkpt>
      <trkpt lat="45.95573" lon="4.92887">
        <ele>293.7</ele>
        <time>2023-09-24T13:06:26Z</time>
      </trkpt>
      <trkpt lat="45.95574" lon="4.92882">
        <ele>293.7</ele>
        <time>2023-09-24T13:06:27Z</time>
      </trkpt>
      <trkpt lat="45.95575" lon="4.92877">
        <ele>293.8</ele>
        <time>2023-09-24T13:06:28Z</time>
      </trkpt>
      <trkpt lat="45.95576" lon="4.92872">
        <ele>293.9</ele>
        <time>2023-09-24T13:06:29Z</time>
      </trkpt>
      <trkpt lat="45.95577" lon="4.92867">
        <ele>294</ele>
        <time>2023-09-24T13:06:30Z</time>
      </trkpt>
      <trkpt lat="45.95578" lon="4.92862">
        <ele>294</ele>
        <time>2023-09-24T13:06:31Z</time>
      </trkpt>
      <trkpt lat="45.95579" lon="4.92856">
        <ele>294</ele>
        <time>2023-09-24T13:06:32Z</time>
      </trkpt>
      <trkpt lat="45.9558" lon="4.92851">
        <ele>294</ele>
        <time>2023-09-24T13:06:33Z</time>
      </trkpt>
      <trkpt lat="45.9558" lon="4.92846">
        <ele>294</ele>
        <time>2023-09-24T13:06:34Z</time>
      </trkpt>
      <trkpt lat="45.95581" lon="4.9284">
        <ele>294</ele>
        <time>2023-09-24T13:06:35Z</time>
      </trkpt>
      <trkpt lat="45.95582" lon="4.92836">
        <ele>294</ele>
        <time>2023-09-24T13:06:36Z</time>
      </trkpt>
      <trkpt lat="45.95582" lon="4.92831">
        <ele>294</ele>
        <time>2023-09-24T13:06:37Z</time>
      </trkpt>
      <trkpt lat="45.95584" lon="4.92826">
        <ele>294</ele>
        <time>2023-09-24T13:06:38Z</time>
      </trkpt>
      <trkpt lat="45.95585" lon="4.9282">
        <ele>294.1</ele>
        <time>2023-09-24T13:06:39Z</time>
      </trkpt>
      <trkpt lat="45.95586" lon="4.92815">
        <ele>294.2</ele>
        <time>2023-09-24T13:06:40Z</time>
      </trkpt>
      <trkpt lat="45.95586" lon="4.92811">
        <ele>294.2</ele>
        <time>2023-09-24T13:06:41Z</time>
      </trkpt>
      <trkpt lat="45.95587" lon="4.92805">
        <ele>294.3</ele>
        <time>2023-09-24T13:06:42Z</time>
      </trkpt>
      <trkpt lat="45.95588" lon="4.92801">
        <ele>294.4</ele>
        <time>2023-09-24T13:06:43Z</time>
      </trkpt>
      <trkpt lat="45.95589" lon="4.92795">
        <ele>294.6</ele>
        <time>2023-09-24T13:06:44Z</time>
      </trkpt>
      <trkpt lat="45.95589" lon="4.92791">
        <ele>294.7</ele>
        <time>2023-09-24T13:06:45Z</time>
      </trkpt>
      <trkpt lat="45.9559" lon="4.92786">
        <ele>294.8</ele>
        <time>2023-09-24T13:06:46Z</time>
      </trkpt>
      <trkpt lat="45.95591" lon="4.92781">
        <ele>294.9</ele>
        <time>2023-09-24T13:06:47Z</time>
      </trkpt>
      <trkpt lat="45.95592" lon="4.92775">
        <ele>295</ele>
        <time>2023-09-24T13:06:48Z</time>
      </trkpt>
      <trkpt lat="45.95593" lon="4.92771">
        <ele>295</ele>
        <time>2023-09-24T13:06:49Z</time>
      </trkpt>
      <trkpt lat="45.95593" lon="4.92765">
        <ele>295</ele>
        <time>2023-09-24T13:06:50Z</time>
      </trkpt>
      <trkpt lat="45.95594" lon="4.9276">
        <ele>295</ele>
        <time>2023-09-24T13:06:51Z</time>
      </trkpt>
      <trkpt lat="45.95596" lon="4.92749">
        <ele>295</ele>
      </trkpt>
      <trkpt lat="45.95598" lon="4.92738">
        <ele>294.6</ele>
      </trkpt>
      <trkpt lat="45.956" lon="4.92727">
        <ele>294.2</ele>
      </trkpt>
      <trkpt lat="45.95602" lon="4.92717">
        <ele>293.9</ele>
      </trkpt>
      <trkpt lat="45.95603" lon="4.92706">
        <ele>293.6</ele>
      </trkpt>
      <trkpt lat="45.95605" lon="4.92695">
        <ele>293.2</ele>
      </trkpt>
      <trkpt lat="45.95607" lon="4.92684">
        <ele>293.1</ele>
      </trkpt>
      <trkpt lat="45.95609" lon="4.92673">
        <ele>293</ele>
        <time>2023-09-24T13:09:22Z</time>
      </trkpt>
      <trkpt lat="45.95611" lon="4.92668">
        <ele>293</ele>
        <time>2023-09-24T13:09:23Z</time>
      </trkpt>
      <trkpt lat="45.95611" lon="4.92662">
        <ele>293</ele>
        <time>2023-09-24T13:09:24Z</time>
      </trkpt>
      <trkpt lat="45.95613" lon="4.92658">
        <ele>292.9</ele>
        <time>2023-09-24T13:09:25Z</time>
      </trkpt>
      <trkpt lat="45.95614" lon="4.92652">
        <ele>292.9</ele>
        <time>2023-09-24T13:09:26Z</time>
      </trkpt>
      <trkpt lat="45.95615" lon="4.92647">
        <ele>292.9</ele>
        <time>2023-09-24T13:09:27Z</time>
      </trkpt>
      <trkpt lat="45.95616" lon="4.9264">
        <ele>292.8</ele>
        <time>2023-09-24T13:09:28Z</time>
      </trkpt>
      <trkpt lat="45.95617" lon="4.92634">
        <ele>292.8</ele>
        <time>2023-09-24T13:09:29Z</time>
      </trkpt>
      <trkpt lat="45.95618" lon="4.92628">
        <ele>292.8</ele>
        <time>2023-09-24T13:09:30Z</time>
      </trkpt>
      <trkpt lat="45.95619" lon="4.92622">
        <ele>292.7</ele>
        <time>2023-09-24T13:09:31Z</time>
      </trkpt>
      <trkpt lat="45.9562" lon="4.92617">
        <ele>292.7</ele>
        <time>2023-09-24T13:09:32Z</time>
      </trkpt>
      <trkpt lat="45.9562" lon="4.92611">
        <ele>292.7</ele>
        <time>2023-09-24T13:09:33Z</time>
      </trkpt>
      <trkpt lat="45.95622" lon="4.92605">
        <ele>292.6</ele>
        <time>2023-09-24T13:09:34Z</time>
      </trkpt>
      <trkpt lat="45.95623" lon="4.92597">
        <ele>292.6</ele>
        <time>2023-09-24T13:09:35Z</time>
      </trkpt>
      <trkpt lat="45.95624" lon="4.92592">
        <ele>292.5</ele>
        <time>2023-09-24T13:09:36Z</time>
      </trkpt>
      <trkpt lat="45.95625" lon="4.92586">
        <ele>292.5</ele>
        <time>2023-09-24T13:09:37Z</time>
      </trkpt>
      <trkpt lat="45.95625" lon="4.92579">
        <ele>292.4</ele>
        <time>2023-09-24T13:09:38Z</time>
      </trkpt>
      <trkpt lat="45.95626" lon="4.92572">
        <ele>292.3</ele>
        <time>2023-09-24T13:09:39Z</time>
      </trkpt>
      <trkpt lat="45.95627" lon="4.92566">
        <ele>292.2</ele>
        <time>2023-09-24T13:09:40Z</time>
      </trkpt>
      <trkpt lat="45.95628" lon="4.92559">
        <ele>292</ele>
        <time>2023-09-24T13:09:41Z</time>
      </trkpt>
      <trkpt lat="45.95629" lon="4.92552">
        <ele>292</ele>
        <time>2023-09-24T13:09:42Z</time>
      </trkpt>
      <trkpt lat="45.95629" lon="4.92546">
        <ele>292</ele>
        <time>2023-09-24T13:09:43Z</time>
      </trkpt>
      <trkpt lat="45.9563" lon="4.92539">
        <ele>292</ele>
        <time>2023-09-24T13:09:44Z</time>
      </trkpt>
      <trkpt lat="45.95631" lon="4.92533">
        <ele>292</ele>
        <time>2023-09-24T13:09:45Z</time>
      </trkpt>
      <trkpt lat="45.95631" lon="4.92527">
        <ele>292</ele>
        <time>2023-09-24T13:09:46Z</time>
      </trkpt>
      <trkpt lat="45.95632" lon="4.92521">
        <ele>292</ele>
        <time>2023-09-24T13:09:47Z</time>
      </trkpt>
      <trkpt lat="45.95633" lon="4.92514">
        <ele>292</ele>
        <time>2023-09-24T13:09:48Z</time>
      </trkpt>
      <trkpt lat="45.95634" lon="4.92508">
        <ele>292</ele>
        <time>2023-09-24T13:09:49Z</time>
      </trkpt>
      <trkpt lat="45.95635" lon="4.92502">
        <ele>292</ele>
        <time>2023-09-24T13:09:50Z</time>
      </trkpt>
      <trkpt lat="45.95636" lon="4.92495">
        <ele>292</ele>
        <time>2023-09-24T13:09:51Z</time>
      </trkpt>
      <trkpt lat="45.95636" lon="4.92489">
        <ele>292</ele>
        <time>2023-09-24T13:09:52Z</time>
      </trkpt>
      <trkpt lat="45.95637" lon="4.92483">
        <ele>292</ele>
        <time>2023-09-24T13:09:53Z</time>
      </trkpt>
      <trkpt lat="45.95638" lon="4.92476">
        <ele>292</ele>
        <time>2023-09-24T13:09:54Z</time>
      </trkpt>
      <trkpt lat="45.95639" lon="4.9247">
        <ele>292.1</ele>
        <time>2023-09-24T13:09:55Z</time>
      </trkpt>
      <trkpt lat="45.9564" lon="4.92464">
        <ele>292.3</ele>
        <time>2023-09-24T13:09:56Z</time>
      </trkpt>
      <trkpt lat="45.95642" lon="4.92459">
        <ele>292.5</ele>
        <time>2023-09-24T13:09:57Z</time>
      </trkpt>
      <trkpt lat="45.95645" lon="4.92456">
        <ele>292.7</ele>
        <time>2023-09-24T13:09:58Z</time>
      </trkpt>
      <trkpt lat="45.95649" lon="4.92455">
        <ele>292.8</ele>
        <time>2023-09-24T13:09:59Z</time>
      </trkpt>
      <trkpt lat="45.95653" lon="4.92457">
        <ele>292.8</ele>
        <time>2023-09-24T13:10:00Z</time>
      </trkpt>
      <trkpt lat="45.95658" lon="4.92458">
        <ele>292.8</ele>
        <time>2023-09-24T13:10:01Z</time>
      </trkpt>
      <trkpt lat="45.95662" lon="4.92458">
        <ele>292.9</ele>
        <time>2023-09-24T13:10:02Z</time>
      </trkpt>
      <trkpt lat="45.95666" lon="4.92458">
        <ele>293</ele>
        <time>2023-09-24T13:10:03Z</time>
      </trkpt>
      <trkpt lat="45.9567" lon="4.92458">
        <ele>293</ele>
        <time>2023-09-24T13:10:04Z</time>
      </trkpt>
      <trkpt lat="45.95675" lon="4.92457">
        <ele>293</ele>
        <time>2023-09-24T13:10:05Z</time>
      </trkpt>
      <trkpt lat="45.95677" lon="4.92455">
        <ele>293</ele>
        <time>2023-09-24T13:10:06Z</time>
      </trkpt>
      <trkpt lat="45.95683" lon="4.92456">
        <ele>293</ele>
        <time>2023-09-24T13:10:07Z</time>
      </trkpt>
      <trkpt lat="45.95686" lon="4.92456">
        <ele>293</ele>
        <time>2023-09-24T13:10:08Z</time>
      </trkpt>
      <trkpt lat="45.95691" lon="4.92454">
        <ele>293</ele>
        <time>2023-09-24T13:10:09Z</time>
      </trkpt>
      <trkpt lat="45.95695" lon="4.92455">
        <ele>293</ele>
        <time>2023-09-24T13:10:10Z</time>
      </trkpt>
      <trkpt lat="45.957" lon="4.92455">
        <ele>293</ele>
        <time>2023-09-24T13:10:11Z</time>
      </trkpt>
      <trkpt lat="45.95705" lon="4.92455">
        <ele>293</ele>
        <time>2023-09-24T13:10:12Z</time>
      </trkpt>
      <trkpt lat="45.95709" lon="4.92455">
        <ele>293</ele>
        <time>2023-09-24T13:10:13Z</time>
      </trkpt>
      <trkpt lat="45.95714" lon="4.92454">
        <ele>293</ele>
        <time>2023-09-24T13:10:14Z</time>
      </trkpt>
      <trkpt lat="45.95718" lon="4.92455">
        <ele>293</ele>
        <time>2023-09-24T13:10:15Z</time>
      </trkpt>
      <trkpt lat="45.95723" lon="4.92454">
        <ele>293</ele>
        <time>2023-09-24T13:10:16Z</time>
      </trkpt>
      <trkpt lat="45.95727" lon="4.92453">
        <ele>293</ele>
        <time>2023-09-24T13:10:17Z</time>
      </trkpt>
      <trkpt lat="45.95731" lon="4.92453">
        <ele>293</ele>
        <time>2023-09-24T13:10:18Z</time>
      </trkpt>
      <trkpt lat="45.95736" lon="4.92454">
        <ele>293</ele>
        <time>2023-09-24T13:10:19Z</time>
      </trkpt>
      <trkpt lat="45.9574" lon="4.92454">
        <ele>293</ele>
        <time>2023-09-24T13:10:20Z</time>
      </trkpt>
      <trkpt lat="45.95744" lon="4.92454">
        <ele>293</ele>
        <time>2023-09-24T13:10:21Z</time>
      </trkpt>
      <trkpt lat="45.95748" lon="4.92454">
        <ele>293</ele>
        <time>2023-09-24T13:10:22Z</time>
      </trkpt>
      <trkpt lat="45.95752" lon="4.92453">
        <ele>293</ele>
        <time>2023-09-24T13:10:23Z</time>
      </trkpt>
      <trkpt lat="45.95757" lon="4.92453">
        <ele>293</ele>
        <time>2023-09-24T13:10:24Z</time>
      </trkpt>
      <trkpt lat="45.95761" lon="4.92452">
        <ele>293</ele>
        <time>2023-09-24T13:10:25Z</time>
      </trkpt>
      <trkpt lat="45.95765" lon="4.92452">
        <ele>293</ele>
        <time>2023-09-24T13:10:26Z</time>
      </trkpt>
      <trkpt lat="45.95769" lon="4.92451">
        <ele>293</ele>
        <time>2023-09-24T13:10:27Z</time>
      </trkpt>
      <trkpt lat="45.95774" lon="4.9245">
        <ele>293</ele>
        <time>2023-09-24T13:10:28Z</time>
      </trkpt>
      <trkpt lat="45.95778" lon="4.92449">
        <ele>293</ele>
        <time>2023-09-24T13:10:29Z</time>
      </trkpt>
      <trkpt lat="45.95782" lon="4.92449">
        <ele>293</ele>
        <time>2023-09-24T13:10:30Z</time>
      </trkpt>
      <trkpt lat="45.95786" lon="4.92448">
        <ele>293</ele>
        <time>2023-09-24T13:10:31Z</time>
      </trkpt>
      <trkpt lat="45.9579" lon="4.92447">
        <ele>293</ele>
        <time>2023-09-24T13:10:32Z</time>
      </trkpt>
      <trkpt lat="45.95793" lon="4.92445">
        <ele>293</ele>
        <time>2023-09-24T13:10:33Z</time>
      </trkpt>
      <trkpt lat="45.95797" lon="4.92443">
        <ele>293</ele>
        <time>2023-09-24T13:10:34Z</time>
      </trkpt>
      <trkpt lat="45.95801" lon="4.92441">
        <ele>293</ele>
        <time>2023-09-24T13:10:35Z</time>
      </trkpt>
      <trkpt lat="45.95804" lon="4.92439">
        <ele>293</ele>
        <time>2023-09-24T13:10:36Z</time>
      </trkpt>
      <trkpt lat="45.95808" lon="4.92436">
        <ele>293</ele>
        <time>2023-09-24T13:10:37Z</time>
      </trkpt>
      <trkpt lat="45.95812" lon="4.92432">
        <ele>293</ele>
        <time>2023-09-24T13:10:38Z</time>
      </trkpt>
      <trkpt lat="45.95814" lon="4.92428">
        <ele>293</ele>
        <time>2023-09-24T13:10:39Z</time>
      </trkpt>
      <trkpt lat="45.95817" lon="4.92425">
        <ele>293</ele>
        <time>2023-09-24T13:10:40Z</time>
      </trkpt>
      <trkpt lat="45.9582" lon="4.92421">
        <ele>293</ele>
        <time>2023-09-24T13:10:41Z</time>
      </trkpt>
      <trkpt lat="45.95822" lon="4.92416">
        <ele>293</ele>
        <time>2023-09-24T13:10:42Z</time>
      </trkpt>
      <trkpt lat="45.95825" lon="4.92413">
        <ele>293</ele>
        <time>2023-09-24T13:10:43Z</time>
      </trkpt>
      <trkpt lat="45.95828" lon="4.92409">
        <ele>293</ele>
        <time>2023-09-24T13:10:44Z</time>
      </trkpt>
      <trkpt lat="45.95831" lon="4.92406">
        <ele>293</ele>
        <time>2023-09-24T13:10:45Z</time>
      </trkpt>
      <trkpt lat="45.95834" lon="4.92404">
        <ele>293</ele>
        <time>2023-09-24T13:10:46Z</time>
      </trkpt>
      <trkpt lat="45.95838" lon="4.92402">
        <ele>293</ele>
        <time>2023-09-24T13:10:47Z</time>
      </trkpt>
      <trkpt lat="45.95842" lon="4.924">
        <ele>293</ele>
        <time>2023-09-24T13:10:48Z</time>
      </trkpt>
      <trkpt lat="45.95845" lon="4.92398">
        <ele>293</ele>
        <time>2023-09-24T13:10:49Z</time>
      </trkpt>
      <trkpt lat="45.95849" lon="4.92396">
        <ele>293</ele>
        <time>2023-09-24T13:10:50Z</time>
      </trkpt>
      <trkpt lat="45.95852" lon="4.92394">
        <ele>293</ele>
        <time>2023-09-24T13:10:51Z</time>
      </trkpt>
      <trkpt lat="45.95856" lon="4.92392">
        <ele>293</ele>
        <time>2023-09-24T13:10:52Z</time>
      </trkpt>
      <trkpt lat="45.9586" lon="4.9239">
        <ele>293</ele>
        <time>2023-09-24T13:10:53Z</time>
      </trkpt>
      <trkpt lat="45.95863" lon="4.92388">
        <ele>293</ele>
        <time>2023-09-24T13:10:54Z</time>
      </trkpt>
      <trkpt lat="45.95867" lon="4.92386">
        <ele>293.1</ele>
        <time>2023-09-24T13:10:55Z</time>
      </trkpt>
      <trkpt lat="45.95871" lon="4.92384">
        <ele>293.1</ele>
        <time>2023-09-24T13:10:56Z</time>
      </trkpt>
      <trkpt lat="45.95875" lon="4.92381">
        <ele>293.1</ele>
        <time>2023-09-24T13:10:57Z</time>
      </trkpt>
      <trkpt lat="45.95878" lon="4.92379">
        <ele>293.1</ele>
        <time>2023-09-24T13:10:58Z</time>
      </trkpt>
      <trkpt lat="45.95882" lon="4.92376">
        <ele>293.1</ele>
        <time>2023-09-24T13:10:59Z</time>
      </trkpt>
      <trkpt lat="45.95885" lon="4.92373">
        <ele>293.1</ele>
        <time>2023-09-24T13:11:00Z</time>
      </trkpt>
      <trkpt lat="45.95888" lon="4.9237">
        <ele>293</ele>
        <time>2023-09-24T13:11:01Z</time>
      </trkpt>
      <trkpt lat="45.95892" lon="4.92368">
        <ele>293.1</ele>
        <time>2023-09-24T13:11:02Z</time>
      </trkpt>
      <trkpt lat="45.95895" lon="4.92365">
        <ele>293.2</ele>
        <time>2023-09-24T13:11:03Z</time>
      </trkpt>
      <trkpt lat="45.95899" lon="4.92365">
        <ele>293.3</ele>
        <time>2023-09-24T13:11:04Z</time>
      </trkpt>
      <trkpt lat="45.95902" lon="4.92364">
        <ele>293.4</ele>
        <time>2023-09-24T13:11:05Z</time>
      </trkpt>
      <trkpt lat="45.95907" lon="4.92366">
        <ele>293.5</ele>
        <time>2023-09-24T13:11:06Z</time>
      </trkpt>
      <trkpt lat="45.95911" lon="4.9237">
        <ele>293.5</ele>
        <time>2023-09-24T13:11:07Z</time>
      </trkpt>
      <trkpt lat="45.95914" lon="4.92373">
        <ele>293.5</ele>
        <time>2023-09-24T13:11:08Z</time>
      </trkpt>
      <trkpt lat="45.95918" lon="4.92376">
        <ele>293.5</ele>
        <time>2023-09-24T13:11:09Z</time>
      </trkpt>
      <trkpt lat="45.95921" lon="4.9238">
        <ele>293.3</ele>
        <time>2023-09-24T13:11:10Z</time>
      </trkpt>
      <trkpt lat="45.95924" lon="4.92383">
        <ele>293.2</ele>
        <time>2023-09-24T13:11:11Z</time>
      </trkpt>
      <trkpt lat="45.95927" lon="4.92385">
        <ele>293.1</ele>
        <time>2023-09-24T13:11:12Z</time>
      </trkpt>
      <trkpt lat="45.95931" lon="4.92388">
        <ele>293</ele>
        <time>2023-09-24T13:11:13Z</time>
      </trkpt>
      <trkpt lat="45.95935" lon="4.92389">
        <ele>293</ele>
        <time>2023-09-24T13:11:14Z</time>
      </trkpt>
      <trkpt lat="45.95938" lon="4.92392">
        <ele>293</ele>
        <time>2023-09-24T13:11:15Z</time>
      </trkpt>
      <trkpt lat="45.95941" lon="4.92394">
        <ele>293</ele>
        <time>2023-09-24T13:11:16Z</time>
      </trkpt>
      <trkpt lat="45.95943" lon="4.92395">
        <ele>293</ele>
        <time>2023-09-24T13:11:17Z</time>
      </trkpt>
      <trkpt lat="45.95947" lon="4.92396">
        <ele>293</ele>
        <time>2023-09-24T13:11:18Z</time>
      </trkpt>
      <trkpt lat="45.9595" lon="4.92397">
        <ele>293</ele>
        <time>2023-09-24T13:11:19Z</time>
      </trkpt>
      <trkpt lat="45.95951" lon="4.92397">
        <ele>293</ele>
        <time>2023-09-24T13:11:20Z</time>
      </trkpt>
      <trkpt lat="45.95954" lon="4.92397">
        <ele>293</ele>
        <time>2023-09-24T13:11:21Z</time>
      </trkpt>
      <trkpt lat="45.95954" lon="4.92396">
        <ele>293</ele>
        <time>2023-09-24T13:11:22Z</time>
      </trkpt>
      <trkpt lat="45.95956" lon="4.92395">
        <ele>293</ele>
        <time>2023-09-24T13:11:23Z</time>
      </trkpt>
      <trkpt lat="45.95958" lon="4.92393">
        <ele>293</ele>
        <time>2023-09-24T13:11:24Z</time>
      </trkpt>
      <trkpt lat="45.95958" lon="4.92389">
        <ele>293</ele>
        <time>2023-09-24T13:11:25Z</time>
      </trkpt>
      <trkpt lat="45.95958" lon="4.92384">
        <ele>293.1</ele>
        <time>2023-09-24T13:11:26Z</time>
      </trkpt>
      <trkpt lat="45.95957" lon="4.9238">
        <ele>293.2</ele>
        <time>2023-09-24T13:11:27Z</time>
      </trkpt>
      <trkpt lat="45.95956" lon="4.92375">
        <ele>293.3</ele>
        <time>2023-09-24T13:11:28Z</time>
      </trkpt>
      <trkpt lat="45.95956" lon="4.92369">
        <ele>293.4</ele>
        <time>2023-09-24T13:11:29Z</time>
      </trkpt>
      <trkpt lat="45.95955" lon="4.92364">
        <ele>293.6</ele>
        <time>2023-09-24T13:11:30Z</time>
      </trkpt>
      <trkpt lat="45.95954" lon="4.92359">
        <ele>293.7</ele>
        <time>2023-09-24T13:11:31Z</time>
      </trkpt>
      <trkpt lat="45.95953" lon="4.92353">
        <ele>293.8</ele>
        <time>2023-09-24T13:11:32Z</time>
      </trkpt>
      <trkpt lat="45.95952" lon="4.92348">
        <ele>293.9</ele>
        <time>2023-09-24T13:11:33Z</time>
      </trkpt>
      <trkpt lat="45.95951" lon="4.92343">
        <ele>293.9</ele>
        <time>2023-09-24T13:11:34Z</time>
      </trkpt>
      <trkpt lat="45.9595" lon="4.92337">
        <ele>294</ele>
        <time>2023-09-24T13:11:35Z</time>
      </trkpt>
      <trkpt lat="45.95949" lon="4.92332">
        <ele>294</ele>
        <time>2023-09-24T13:11:36Z</time>
      </trkpt>
      <trkpt lat="45.95948" lon="4.92326">
        <ele>294</ele>
        <time>2023-09-24T13:11:37Z</time>
      </trkpt>
      <trkpt lat="45.95947" lon="4.92321">
        <ele>294</ele>
        <time>2023-09-24T13:11:38Z</time>
      </trkpt>
      <trkpt lat="45.95946" lon="4.92315">
        <ele>294</ele>
        <time>2023-09-24T13:11:39Z</time>
      </trkpt>
      <trkpt lat="45.95945" lon="4.92309">
        <ele>294</ele>
        <time>2023-09-24T13:11:40Z</time>
      </trkpt>
      <trkpt lat="45.95944" lon="4.92304">
        <ele>294</ele>
        <time>2023-09-24T13:11:41Z</time>
      </trkpt>
      <trkpt lat="45.95943" lon="4.92298">
        <ele>294</ele>
        <time>2023-09-24T13:11:42Z</time>
      </trkpt>
      <trkpt lat="45.95942" lon="4.92293">
        <ele>294</ele>
        <time>2023-09-24T13:11:43Z</time>
      </trkpt>
      <trkpt lat="45.95941" lon="4.92287">
        <ele>294</ele>
        <time>2023-09-24T13:11:44Z</time>
      </trkpt>
      <trkpt lat="45.95941" lon="4.92282">
        <ele>294</ele>
        <time>2023-09-24T13:11:45Z</time>
      </trkpt>
      <trkpt lat="45.95939" lon="4.92277">
        <ele>294</ele>
        <time>2023-09-24T13:11:46Z</time>
      </trkpt>
      <trkpt lat="45.95938" lon="4.9227">
        <ele>294</ele>
        <time>2023-09-24T13:11:47Z</time>
      </trkpt>
      <trkpt lat="45.95937" lon="4.92265">
        <ele>294</ele>
        <time>2023-09-24T13:11:48Z</time>
      </trkpt>
      <trkpt lat="45.95936" lon="4.92259">
        <ele>294</ele>
        <time>2023-09-24T13:11:50Z</time>
      </trkpt>
      <trkpt lat="45.95935" lon="4.92254">
        <ele>294</ele>
        <time>2023-09-24T13:11:51Z</time>
      </trkpt>
      <trkpt lat="45.95934" lon="4.92248">
        <ele>294</ele>
        <time>2023-09-24T13:11:52Z</time>
      </trkpt>
      <trkpt lat="45.95933" lon="4.92242">
        <ele>294</ele>
        <time>2023-09-24T13:11:53Z</time>
      </trkpt>
      <trkpt lat="45.95933" lon="4.92236">
        <ele>294</ele>
        <time>2023-09-24T13:11:54Z</time>
      </trkpt>
      <trkpt lat="45.95932" lon="4.9223">
        <ele>294</ele>
        <time>2023-09-24T13:11:55Z</time>
      </trkpt>
      <trkpt lat="45.9593" lon="4.92223">
        <ele>294</ele>
        <time>2023-09-24T13:11:56Z</time>
      </trkpt>
      <trkpt lat="45.95929" lon="4.92218">
        <ele>294</ele>
        <time>2023-09-24T13:11:57Z</time>
      </trkpt>
      <trkpt lat="45.95928" lon="4.92212">
        <ele>294</ele>
        <time>2023-09-24T13:11:58Z</time>
      </trkpt>
      <trkpt lat="45.95927" lon="4.92207">
        <ele>294</ele>
        <time>2023-09-24T13:11:59Z</time>
      </trkpt>
      <trkpt lat="45.95926" lon="4.92202">
        <ele>294</ele>
        <time>2023-09-24T13:12:00Z</time>
      </trkpt>
      <trkpt lat="45.95925" lon="4.92197">
        <ele>294</ele>
        <time>2023-09-24T13:12:01Z</time>
      </trkpt>
      <trkpt lat="45.95924" lon="4.92192">
        <ele>294</ele>
        <time>2023-09-24T13:12:02Z</time>
      </trkpt>
      <trkpt lat="45.95924" lon="4.92187">
        <ele>294</ele>
        <time>2023-09-24T13:12:03Z</time>
      </trkpt>
      <trkpt lat="45.95926" lon="4.92182">
        <ele>294</ele>
        <time>2023-09-24T13:12:04Z</time>
      </trkpt>
      <trkpt lat="45.95926" lon="4.9218">
        <ele>294</ele>
        <time>2023-09-24T13:12:05Z</time>
      </trkpt>
      <trkpt lat="45.9593" lon="4.92178">
        <ele>294</ele>
        <time>2023-09-24T13:12:06Z</time>
      </trkpt>
      <trkpt lat="45.95931" lon="4.92178">
        <ele>294</ele>
        <time>2023-09-24T13:12:07Z</time>
      </trkpt>
      <trkpt lat="45.95934" lon="4.92179">
        <ele>294</ele>
        <time>2023-09-24T13:12:08Z</time>
      </trkpt>
      <trkpt lat="45.95935" lon="4.92179">
        <ele>294</ele>
        <time>2023-09-24T13:12:09Z</time>
      </trkpt>
      <trkpt lat="45.95938" lon="4.9218">
        <ele>294</ele>
        <time>2023-09-24T13:12:10Z</time>
      </trkpt>
      <trkpt lat="45.95939" lon="4.9218">
        <ele>294</ele>
        <time>2023-09-24T13:12:11Z</time>
      </trkpt>
      <trkpt lat="45.95943" lon="4.92183">
        <ele>294</ele>
        <time>2023-09-24T13:12:12Z</time>
      </trkpt>
      <trkpt lat="45.95944" lon="4.92184">
        <ele>294</ele>
        <time>2023-09-24T13:12:13Z</time>
      </trkpt>
      <trkpt lat="45.95948" lon="4.92185">
        <ele>294</ele>
        <time>2023-09-24T13:12:14Z</time>
      </trkpt>
      <trkpt lat="45.95951" lon="4.92188">
        <ele>294</ele>
        <time>2023-09-24T13:12:15Z</time>
      </trkpt>
      <trkpt lat="45.95952" lon="4.92189">
        <ele>294</ele>
        <time>2023-09-24T13:12:16Z</time>
      </trkpt>
      <trkpt lat="45.95956" lon="4.92192">
        <ele>294</ele>
        <time>2023-09-24T13:12:17Z</time>
      </trkpt>
      <trkpt lat="45.95957" lon="4.92193">
        <ele>294</ele>
        <time>2023-09-24T13:12:18Z</time>
      </trkpt>
      <trkpt lat="45.9596" lon="4.92196">
        <ele>294</ele>
        <time>2023-09-24T13:12:19Z</time>
      </trkpt>
      <trkpt lat="45.95963" lon="4.92198">
        <ele>294</ele>
        <time>2023-09-24T13:12:20Z</time>
      </trkpt>
      <trkpt lat="45.95966" lon="4.92202">
        <ele>294</ele>
        <time>2023-09-24T13:12:21Z</time>
      </trkpt>
      <trkpt lat="45.9597" lon="4.92204">
        <ele>294</ele>
        <time>2023-09-24T13:12:22Z</time>
      </trkpt>
      <trkpt lat="45.95971" lon="4.92205">
        <ele>294</ele>
        <time>2023-09-24T13:12:23Z</time>
      </trkpt>
      <trkpt lat="45.95975" lon="4.92209">
        <ele>294</ele>
        <time>2023-09-24T13:12:24Z</time>
      </trkpt>
      <trkpt lat="45.95977" lon="4.9221">
        <ele>293.9</ele>
        <time>2023-09-24T13:12:25Z</time>
      </trkpt>
      <trkpt lat="45.9598" lon="4.92212">
        <ele>293.9</ele>
        <time>2023-09-24T13:12:26Z</time>
      </trkpt>
      <trkpt lat="45.95983" lon="4.92214">
        <ele>293.9</ele>
        <time>2023-09-24T13:12:27Z</time>
      </trkpt>
      <trkpt lat="45.95986" lon="4.92216">
        <ele>293.9</ele>
        <time>2023-09-24T13:12:28Z</time>
      </trkpt>
      <trkpt lat="45.95988" lon="4.92218">
        <ele>293.9</ele>
        <time>2023-09-24T13:12:29Z</time>
      </trkpt>
      <trkpt lat="45.9599" lon="4.92221">
        <ele>294</ele>
        <time>2023-09-24T13:12:30Z</time>
      </trkpt>
      <trkpt lat="45.95993" lon="4.92223">
        <ele>294</ele>
        <time>2023-09-24T13:12:31Z</time>
      </trkpt>
      <trkpt lat="45.95996" lon="4.92226">
        <ele>293.9</ele>
        <time>2023-09-24T13:12:32Z</time>
      </trkpt>
      <trkpt lat="45.95999" lon="4.92228">
        <ele>293.8</ele>
        <time>2023-09-24T13:12:33Z</time>
      </trkpt>
      <trkpt lat="45.96002" lon="4.92231">
        <ele>293.7</ele>
        <time>2023-09-24T13:12:34Z</time>
      </trkpt>
      <trkpt lat="45.96005" lon="4.92233">
        <ele>293.6</ele>
        <time>2023-09-24T13:12:35Z</time>
      </trkpt>
      <trkpt lat="45.96008" lon="4.92235">
        <ele>293.5</ele>
        <time>2023-09-24T13:12:36Z</time>
      </trkpt>
      <trkpt lat="45.96011" lon="4.92238">
        <ele>293.5</ele>
        <time>2023-09-24T13:12:37Z</time>
      </trkpt>
      <trkpt lat="45.96014" lon="4.92239">
        <ele>293.5</ele>
        <time>2023-09-24T13:12:38Z</time>
      </trkpt>
      <trkpt lat="45.96017" lon="4.92241">
        <ele>293.5</ele>
        <time>2023-09-24T13:12:39Z</time>
      </trkpt>
      <trkpt lat="45.9602" lon="4.92243">
        <ele>293.6</ele>
        <time>2023-09-24T13:12:40Z</time>
      </trkpt>
      <trkpt lat="45.96027" lon="4.92245">
        <ele>293.8</ele>
        <time>2023-09-24T13:12:41Z</time>
      </trkpt>
      <trkpt lat="45.9603" lon="4.92245">
        <ele>293.8</ele>
        <time>2023-09-24T13:12:42Z</time>
      </trkpt>
      <trkpt lat="45.96034" lon="4.92244">
        <ele>293.8</ele>
        <time>2023-09-24T13:12:43Z</time>
      </trkpt>
      <trkpt lat="45.96038" lon="4.92241">
        <ele>293.8</ele>
        <time>2023-09-24T13:12:44Z</time>
      </trkpt>
      <trkpt lat="45.96041" lon="4.92239">
        <ele>293.8</ele>
        <time>2023-09-24T13:12:45Z</time>
      </trkpt>
      <trkpt lat="45.96043" lon="4.92236">
        <ele>293.8</ele>
        <time>2023-09-24T13:12:46Z</time>
      </trkpt>
      <trkpt lat="45.96047" lon="4.92234">
        <ele>293.8</ele>
        <time>2023-09-24T13:12:47Z</time>
      </trkpt>
      <trkpt lat="45.9605" lon="4.92232">
        <ele>293.9</ele>
        <time>2023-09-24T13:12:48Z</time>
      </trkpt>
      <trkpt lat="45.96052" lon="4.92229">
        <ele>293.9</ele>
        <time>2023-09-24T13:12:49Z</time>
      </trkpt>
      <trkpt lat="45.96055" lon="4.92226">
        <ele>294</ele>
        <time>2023-09-24T13:12:50Z</time>
      </trkpt>
      <trkpt lat="45.96057" lon="4.92223">
        <ele>294</ele>
        <time>2023-09-24T13:12:51Z</time>
      </trkpt>
      <trkpt lat="45.9606" lon="4.9222">
        <ele>293.9</ele>
        <time>2023-09-24T13:12:52Z</time>
      </trkpt>
      <trkpt lat="45.96063" lon="4.92217">
        <ele>293.9</ele>
        <time>2023-09-24T13:12:53Z</time>
      </trkpt>
      <trkpt lat="45.96066" lon="4.92214">
        <ele>293.8</ele>
        <time>2023-09-24T13:12:54Z</time>
      </trkpt>
      <trkpt lat="45.96068" lon="4.92212">
        <ele>293.8</ele>
        <time>2023-09-24T13:12:55Z</time>
      </trkpt>
      <trkpt lat="45.96071" lon="4.92209">
        <ele>293.8</ele>
        <time>2023-09-24T13:12:56Z</time>
      </trkpt>
      <trkpt lat="45.96073" lon="4.92205">
        <ele>293.8</ele>
        <time>2023-09-24T13:12:57Z</time>
      </trkpt>
      <trkpt lat="45.96076" lon="4.92203">
        <ele>293.8</ele>
        <time>2023-09-24T13:12:58Z</time>
      </trkpt>
      <trkpt lat="45.96079" lon="4.922">
        <ele>293.9</ele>
        <time>2023-09-24T13:12:59Z</time>
      </trkpt>
      <trkpt lat="45.96082" lon="4.92198">
        <ele>294</ele>
        <time>2023-09-24T13:13:00Z</time>
      </trkpt>
      <trkpt lat="45.96085" lon="4.92196">
        <ele>294</ele>
        <time>2023-09-24T13:13:01Z</time>
      </trkpt>
      <trkpt lat="45.96087" lon="4.92193">
        <ele>294</ele>
        <time>2023-09-24T13:13:02Z</time>
      </trkpt>
      <trkpt lat="45.9609" lon="4.9219">
        <ele>294</ele>
        <time>2023-09-24T13:13:03Z</time>
      </trkpt>
      <trkpt lat="45.96092" lon="4.92187">
        <ele>294</ele>
        <time>2023-09-24T13:13:04Z</time>
      </trkpt>
      <trkpt lat="45.96095" lon="4.92184">
        <ele>294</ele>
        <time>2023-09-24T13:13:05Z</time>
      </trkpt>
      <trkpt lat="45.96098" lon="4.92182">
        <ele>294</ele>
        <time>2023-09-24T13:13:06Z</time>
      </trkpt>
      <trkpt lat="45.96101" lon="4.92179">
        <ele>294</ele>
        <time>2023-09-24T13:13:07Z</time>
      </trkpt>
      <trkpt lat="45.96104" lon="4.92176">
        <ele>294</ele>
        <time>2023-09-24T13:13:08Z</time>
      </trkpt>
      <trkpt lat="45.96107" lon="4.92173">
        <ele>294</ele>
        <time>2023-09-24T13:13:09Z</time>
      </trkpt>
      <trkpt lat="45.9611" lon="4.9217">
        <ele>294</ele>
        <time>2023-09-24T13:13:10Z</time>
      </trkpt>
      <trkpt lat="45.96112" lon="4.92167">
        <ele>294</ele>
        <time>2023-09-24T13:13:11Z</time>
      </trkpt>
      <trkpt lat="45.96115" lon="4.92164">
        <ele>294</ele>
        <time>2023-09-24T13:13:12Z</time>
      </trkpt>
      <trkpt lat="45.96118" lon="4.92162">
        <ele>294</ele>
        <time>2023-09-24T13:13:13Z</time>
      </trkpt>
      <trkpt lat="45.96121" lon="4.92159">
        <ele>294</ele>
        <time>2023-09-24T13:13:14Z</time>
      </trkpt>
      <trkpt lat="45.96124" lon="4.92156">
        <ele>294</ele>
        <time>2023-09-24T13:13:15Z</time>
      </trkpt>
      <trkpt lat="45.96126" lon="4.92153">
        <ele>294</ele>
        <time>2023-09-24T13:13:16Z</time>
      </trkpt>
      <trkpt lat="45.96129" lon="4.9215">
        <ele>294</ele>
        <time>2023-09-24T13:13:17Z</time>
      </trkpt>
      <trkpt lat="45.96132" lon="4.92147">
        <ele>294</ele>
        <time>2023-09-24T13:13:18Z</time>
      </trkpt>
      <trkpt lat="45.96134" lon="4.92144">
        <ele>294</ele>
        <time>2023-09-24T13:13:19Z</time>
      </trkpt>
      <trkpt lat="45.96137" lon="4.92141">
        <ele>294</ele>
        <time>2023-09-24T13:13:20Z</time>
      </trkpt>
      <trkpt lat="45.9614" lon="4.92139">
        <ele>294</ele>
        <time>2023-09-24T13:13:21Z</time>
      </trkpt>
      <trkpt lat="45.96143" lon="4.92136">
        <ele>293.9</ele>
        <time>2023-09-24T13:13:22Z</time>
      </trkpt>
      <trkpt lat="45.96146" lon="4.92133">
        <ele>293.8</ele>
        <time>2023-09-24T13:13:23Z</time>
      </trkpt>
      <trkpt lat="45.96149" lon="4.92131">
        <ele>293.8</ele>
        <time>2023-09-24T13:13:24Z</time>
      </trkpt>
      <trkpt lat="45.96152" lon="4.9213">
        <ele>293.8</ele>
        <time>2023-09-24T13:13:25Z</time>
      </trkpt>
      <trkpt lat="45.96155" lon="4.92128">
        <ele>293.8</ele>
        <time>2023-09-24T13:13:26Z</time>
      </trkpt>
      <trkpt lat="45.96159" lon="4.92128">
        <ele>293.9</ele>
        <time>2023-09-24T13:13:27Z</time>
      </trkpt>
      <trkpt lat="45.96162" lon="4.92128">
        <ele>293.9</ele>
        <time>2023-09-24T13:13:28Z</time>
      </trkpt>
      <trkpt lat="45.96165" lon="4.92128">
        <ele>294</ele>
        <time>2023-09-24T13:13:29Z</time>
      </trkpt>
      <trkpt lat="45.96168" lon="4.92129">
        <ele>294</ele>
        <time>2023-09-24T13:13:30Z</time>
      </trkpt>
      <trkpt lat="45.96171" lon="4.92129">
        <ele>294</ele>
        <time>2023-09-24T13:13:31Z</time>
      </trkpt>
      <trkpt lat="45.96175" lon="4.92129">
        <ele>294</ele>
        <time>2023-09-24T13:13:32Z</time>
      </trkpt>
      <trkpt lat="45.96178" lon="4.92129">
        <ele>294</ele>
        <time>2023-09-24T13:13:33Z</time>
      </trkpt>
      <trkpt lat="45.96182" lon="4.92129">
        <ele>294</ele>
        <time>2023-09-24T13:13:34Z</time>
      </trkpt>
      <trkpt lat="45.96186" lon="4.9213">
        <ele>294</ele>
        <time>2023-09-24T13:13:35Z</time>
      </trkpt>
      <trkpt lat="45.96189" lon="4.9213">
        <ele>294</ele>
        <time>2023-09-24T13:13:36Z</time>
      </trkpt>
      <trkpt lat="45.96193" lon="4.9213">
        <ele>294</ele>
        <time>2023-09-24T13:13:37Z</time>
      </trkpt>
      <trkpt lat="45.96196" lon="4.92131">
        <ele>294</ele>
        <time>2023-09-24T13:13:38Z</time>
      </trkpt>
      <trkpt lat="45.962" lon="4.92131">
        <ele>294</ele>
        <time>2023-09-24T13:13:39Z</time>
      </trkpt>
      <trkpt lat="45.96203" lon="4.92132">
        <ele>294</ele>
        <time>2023-09-24T13:13:40Z</time>
      </trkpt>
      <trkpt lat="45.96206" lon="4.92133">
        <ele>294</ele>
        <time>2023-09-24T13:13:41Z</time>
      </trkpt>
      <trkpt lat="45.9621" lon="4.92133">
        <ele>294</ele>
        <time>2023-09-24T13:13:42Z</time>
      </trkpt>
      <trkpt lat="45.96213" lon="4.92134">
        <ele>294</ele>
        <time>2023-09-24T13:13:43Z</time>
      </trkpt>
      <trkpt lat="45.96216" lon="4.92134">
        <ele>294</ele>
        <time>2023-09-24T13:13:44Z</time>
      </trkpt>
      <trkpt lat="45.9622" lon="4.92135">
        <ele>294</ele>
        <time>2023-09-24T13:13:45Z</time>
      </trkpt>
      <trkpt lat="45.96223" lon="4.92135">
        <ele>294</ele>
        <time>2023-09-24T13:13:46Z</time>
      </trkpt>
      <trkpt lat="45.96226" lon="4.92136">
        <ele>294</ele>
        <time>2023-09-24T13:13:47Z</time>
      </trkpt>
      <trkpt lat="45.9623" lon="4.92136">
        <ele>294</ele>
        <time>2023-09-24T13:13:49Z</time>
      </trkpt>
      <trkpt lat="45.96233" lon="4.92137">
        <ele>294</ele>
        <time>2023-09-24T13:13:50Z</time>
      </trkpt>
      <trkpt lat="45.96237" lon="4.92137">
        <ele>294</ele>
        <time>2023-09-24T13:13:51Z</time>
      </trkpt>
      <trkpt lat="45.9624" lon="4.92138">
        <ele>294</ele>
        <time>2023-09-24T13:13:52Z</time>
      </trkpt>
      <trkpt lat="45.96244" lon="4.92138">
        <ele>294</ele>
        <time>2023-09-24T13:13:53Z</time>
      </trkpt>
      <trkpt lat="45.96247" lon="4.92139">
        <ele>294</ele>
        <time>2023-09-24T13:13:54Z</time>
      </trkpt>
      <trkpt lat="45.96251" lon="4.92139">
        <ele>294</ele>
        <time>2023-09-24T13:13:55Z</time>
      </trkpt>
      <trkpt lat="45.96254" lon="4.9214">
        <ele>294</ele>
        <time>2023-09-24T13:13:56Z</time>
      </trkpt>
      <trkpt lat="45.96258" lon="4.9214">
        <ele>294</ele>
        <time>2023-09-24T13:13:57Z</time>
      </trkpt>
      <trkpt lat="45.96261" lon="4.9214">
        <ele>294</ele>
        <time>2023-09-24T13:13:58Z</time>
      </trkpt>
      <trkpt lat="45.96264" lon="4.92139">
        <ele>294</ele>
        <time>2023-09-24T13:13:59Z</time>
      </trkpt>
      <trkpt lat="45.96268" lon="4.92137">
        <ele>294</ele>
        <time>2023-09-24T13:14:00Z</time>
      </trkpt>
      <trkpt lat="45.96271" lon="4.92135">
        <ele>294</ele>
        <time>2023-09-24T13:14:01Z</time>
      </trkpt>
      <trkpt lat="45.96274" lon="4.92132">
        <ele>294</ele>
        <time>2023-09-24T13:14:02Z</time>
      </trkpt>
      <trkpt lat="45.96276" lon="4.92129">
        <ele>294</ele>
        <time>2023-09-24T13:14:03Z</time>
      </trkpt>
      <trkpt lat="45.96278" lon="4.92125">
        <ele>294</ele>
        <time>2023-09-24T13:14:04Z</time>
      </trkpt>
      <trkpt lat="45.9628" lon="4.9212">
        <ele>294</ele>
        <time>2023-09-24T13:14:05Z</time>
      </trkpt>
      <trkpt lat="45.96281" lon="4.92116">
        <ele>294</ele>
        <time>2023-09-24T13:14:06Z</time>
      </trkpt>
      <trkpt lat="45.96282" lon="4.92111">
        <ele>294</ele>
        <time>2023-09-24T13:14:07Z</time>
      </trkpt>
      <trkpt lat="45.96283" lon="4.92107">
        <ele>294</ele>
        <time>2023-09-24T13:14:08Z</time>
      </trkpt>
      <trkpt lat="45.96284" lon="4.92102">
        <ele>294</ele>
        <time>2023-09-24T13:14:09Z</time>
      </trkpt>
      <trkpt lat="45.96285" lon="4.92097">
        <ele>294</ele>
        <time>2023-09-24T13:14:10Z</time>
      </trkpt>
      <trkpt lat="45.96286" lon="4.92092">
        <ele>294</ele>
        <time>2023-09-24T13:14:11Z</time>
      </trkpt>
      <trkpt lat="45.96287" lon="4.92087">
        <ele>294</ele>
        <time>2023-09-24T13:14:12Z</time>
      </trkpt>
      <trkpt lat="45.96288" lon="4.92083">
        <ele>294</ele>
        <time>2023-09-24T13:14:13Z</time>
      </trkpt>
      <trkpt lat="45.96289" lon="4.92078">
        <ele>294.2</ele>
        <time>2023-09-24T13:14:14Z</time>
      </trkpt>
      <trkpt lat="45.9629" lon="4.92074">
        <ele>294.3</ele>
        <time>2023-09-24T13:14:15Z</time>
      </trkpt>
      <trkpt lat="45.96291" lon="4.92069">
        <ele>294.5</ele>
        <time>2023-09-24T13:14:16Z</time>
      </trkpt>
      <trkpt lat="45.96292" lon="4.92064">
        <ele>294.7</ele>
        <time>2023-09-24T13:14:17Z</time>
      </trkpt>
      <trkpt lat="45.96293" lon="4.9206">
        <ele>294.8</ele>
        <time>2023-09-24T13:14:18Z</time>
      </trkpt>
      <trkpt lat="45.96294" lon="4.92055">
        <ele>295</ele>
        <time>2023-09-24T13:14:19Z</time>
      </trkpt>
      <trkpt lat="45.96295" lon="4.92051">
        <ele>295</ele>
        <time>2023-09-24T13:14:20Z</time>
      </trkpt>
      <trkpt lat="45.96297" lon="4.92047">
        <ele>295</ele>
        <time>2023-09-24T13:14:21Z</time>
      </trkpt>
      <trkpt lat="45.96298" lon="4.92043">
        <ele>295</ele>
        <time>2023-09-24T13:14:22Z</time>
      </trkpt>
      <trkpt lat="45.963" lon="4.92039">
        <ele>295</ele>
        <time>2023-09-24T13:14:23Z</time>
      </trkpt>
      <trkpt lat="45.96302" lon="4.92035">
        <ele>295</ele>
        <time>2023-09-24T13:14:24Z</time>
      </trkpt>
      <trkpt lat="45.96305" lon="4.92032">
        <ele>295</ele>
        <time>2023-09-24T13:14:25Z</time>
      </trkpt>
      <trkpt lat="45.96307" lon="4.92029">
        <ele>295</ele>
        <time>2023-09-24T13:14:26Z</time>
      </trkpt>
      <trkpt lat="45.96309" lon="4.92027">
        <ele>295.1</ele>
        <time>2023-09-24T13:14:27Z</time>
      </trkpt>
      <trkpt lat="45.96312" lon="4.92024">
        <ele>295.3</ele>
        <time>2023-09-24T13:14:28Z</time>
      </trkpt>
      <trkpt lat="45.96315" lon="4.92022">
        <ele>295.5</ele>
        <time>2023-09-24T13:14:29Z</time>
      </trkpt>
      <trkpt lat="45.96318" lon="4.9202">
        <ele>295.6</ele>
        <time>2023-09-24T13:14:30Z</time>
      </trkpt>
      <trkpt lat="45.96321" lon="4.92019">
        <ele>295.7</ele>
        <time>2023-09-24T13:14:31Z</time>
      </trkpt>
      <trkpt lat="45.96324" lon="4.92019">
        <ele>295.8</ele>
        <time>2023-09-24T13:14:32Z</time>
      </trkpt>
      <trkpt lat="45.96327" lon="4.92018">
        <ele>295.9</ele>
        <time>2023-09-24T13:14:33Z</time>
      </trkpt>
      <trkpt lat="45.9633" lon="4.92017">
        <ele>295.9</ele>
        <time>2023-09-24T13:14:34Z</time>
      </trkpt>
      <trkpt lat="45.96334" lon="4.92017">
        <ele>296</ele>
        <time>2023-09-24T13:14:35Z</time>
      </trkpt>
      <trkpt lat="45.96336" lon="4.92019">
        <ele>296.1</ele>
        <time>2023-09-24T13:14:36Z</time>
      </trkpt>
      <trkpt lat="45.9634" lon="4.92017">
        <ele>296.2</ele>
        <time>2023-09-24T13:14:37Z</time>
      </trkpt>
      <trkpt lat="45.96343" lon="4.92017">
        <ele>296.3</ele>
        <time>2023-09-24T13:14:38Z</time>
      </trkpt>
      <trkpt lat="45.96346" lon="4.92017">
        <ele>296.5</ele>
        <time>2023-09-24T13:14:39Z</time>
      </trkpt>
      <trkpt lat="45.96349" lon="4.92017">
        <ele>296.6</ele>
        <time>2023-09-24T13:14:40Z</time>
      </trkpt>
      <trkpt lat="45.96353" lon="4.92017">
        <ele>296.7</ele>
        <time>2023-09-24T13:14:41Z</time>
      </trkpt>
      <trkpt lat="45.96356" lon="4.92016">
        <ele>296.8</ele>
        <time>2023-09-24T13:14:42Z</time>
      </trkpt>
      <trkpt lat="45.96359" lon="4.92016">
        <ele>296.9</ele>
        <time>2023-09-24T13:14:43Z</time>
      </trkpt>
      <trkpt lat="45.96362" lon="4.92015">
        <ele>297</ele>
        <time>2023-09-24T13:14:44Z</time>
      </trkpt>
      <trkpt lat="45.96366" lon="4.92015">
        <ele>297.1</ele>
        <time>2023-09-24T13:14:45Z</time>
      </trkpt>
      <trkpt lat="45.96369" lon="4.92014">
        <ele>297.1</ele>
        <time>2023-09-24T13:14:46Z</time>
      </trkpt>
      <trkpt lat="45.96376" lon="4.92012">
        <ele>297.3</ele>
        <time>2023-09-24T13:14:47Z</time>
      </trkpt>
      <trkpt lat="45.96379" lon="4.92011">
        <ele>297.4</ele>
        <time>2023-09-24T13:14:48Z</time>
      </trkpt>
      <trkpt lat="45.96382" lon="4.9201">
        <ele>297.5</ele>
        <time>2023-09-24T13:14:49Z</time>
      </trkpt>
      <trkpt lat="45.96385" lon="4.9201">
        <ele>297.6</ele>
        <time>2023-09-24T13:14:50Z</time>
      </trkpt>
      <trkpt lat="45.96388" lon="4.92009">
        <ele>297.7</ele>
        <time>2023-09-24T13:14:51Z</time>
      </trkpt>
      <trkpt lat="45.96391" lon="4.92008">
        <ele>297.7</ele>
        <time>2023-09-24T13:14:52Z</time>
      </trkpt>
      <trkpt lat="45.96394" lon="4.92007">
        <ele>297.7</ele>
        <time>2023-09-24T13:14:53Z</time>
      </trkpt>
      <trkpt lat="45.96398" lon="4.92006">
        <ele>297.8</ele>
        <time>2023-09-24T13:14:54Z</time>
      </trkpt>
      <trkpt lat="45.96401" lon="4.92006">
        <ele>297.8</ele>
        <time>2023-09-24T13:14:55Z</time>
      </trkpt>
      <trkpt lat="45.96405" lon="4.92005">
        <ele>297.8</ele>
        <time>2023-09-24T13:14:56Z</time>
      </trkpt>
      <trkpt lat="45.96407" lon="4.92005">
        <ele>297.8</ele>
        <time>2023-09-24T13:14:57Z</time>
      </trkpt>
      <trkpt lat="45.9641" lon="4.92004">
        <ele>297.9</ele>
        <time>2023-09-24T13:14:58Z</time>
      </trkpt>
      <trkpt lat="45.96413" lon="4.92003">
        <ele>297.9</ele>
        <time>2023-09-24T13:14:59Z</time>
      </trkpt>
      <trkpt lat="45.96416" lon="4.92003">
        <ele>297.9</ele>
        <time>2023-09-24T13:15:00Z</time>
      </trkpt>
      <trkpt lat="45.96419" lon="4.92002">
        <ele>297.9</ele>
        <time>2023-09-24T13:15:01Z</time>
      </trkpt>
      <trkpt lat="45.96422" lon="4.92002">
        <ele>297.9</ele>
        <time>2023-09-24T13:15:02Z</time>
      </trkpt>
      <trkpt lat="45.96426" lon="4.92002">
        <ele>297.9</ele>
        <time>2023-09-24T13:15:03Z</time>
      </trkpt>
      <trkpt lat="45.96429" lon="4.92002">
        <ele>297.9</ele>
        <time>2023-09-24T13:15:04Z</time>
      </trkpt>
      <trkpt lat="45.96432" lon="4.92003">
        <ele>297.9</ele>
        <time>2023-09-24T13:15:05Z</time>
      </trkpt>
      <trkpt lat="45.96436" lon="4.92003">
        <ele>297.9</ele>
        <time>2023-09-24T13:15:06Z</time>
      </trkpt>
      <trkpt lat="45.96439" lon="4.92003">
        <ele>297.9</ele>
        <time>2023-09-24T13:15:07Z</time>
      </trkpt>
      <trkpt lat="45.96443" lon="4.92003">
        <ele>297.9</ele>
        <time>2023-09-24T13:15:08Z</time>
      </trkpt>
      <trkpt lat="45.96446" lon="4.92001">
        <ele>297.9</ele>
        <time>2023-09-24T13:15:09Z</time>
      </trkpt>
      <trkpt lat="45.9645" lon="4.92001">
        <ele>297.8</ele>
        <time>2023-09-24T13:15:10Z</time>
      </trkpt>
      <trkpt lat="45.96454" lon="4.92001">
        <ele>297.6</ele>
        <time>2023-09-24T13:15:11Z</time>
      </trkpt>
      <trkpt lat="45.96458" lon="4.92002">
        <ele>297.4</ele>
        <time>2023-09-24T13:15:12Z</time>
      </trkpt>
      <trkpt lat="45.96462" lon="4.92003">
        <ele>297.3</ele>
        <time>2023-09-24T13:15:13Z</time>
      </trkpt>
      <trkpt lat="45.96466" lon="4.92003">
        <ele>297.1</ele>
        <time>2023-09-24T13:15:14Z</time>
      </trkpt>
      <trkpt lat="45.96471" lon="4.92004">
        <ele>296.9</ele>
        <time>2023-09-24T13:15:15Z</time>
      </trkpt>
      <trkpt lat="45.96475" lon="4.92004">
        <ele>296.8</ele>
        <time>2023-09-24T13:15:16Z</time>
      </trkpt>
      <trkpt lat="45.9648" lon="4.92005">
        <ele>296.6</ele>
        <time>2023-09-24T13:15:17Z</time>
      </trkpt>
      <trkpt lat="45.96484" lon="4.92005">
        <ele>296.5</ele>
        <time>2023-09-24T13:15:18Z</time>
      </trkpt>
      <trkpt lat="45.96489" lon="4.92006">
        <ele>296.3</ele>
        <time>2023-09-24T13:15:19Z</time>
      </trkpt>
      <trkpt lat="45.96493" lon="4.92006">
        <ele>296.2</ele>
        <time>2023-09-24T13:15:20Z</time>
      </trkpt>
      <trkpt lat="45.96497" lon="4.92007">
        <ele>296.1</ele>
        <time>2023-09-24T13:15:21Z</time>
      </trkpt>
      <trkpt lat="45.96502" lon="4.92007">
        <ele>296</ele>
        <time>2023-09-24T13:15:22Z</time>
      </trkpt>
      <trkpt lat="45.96506" lon="4.92008">
        <ele>295.9</ele>
        <time>2023-09-24T13:15:23Z</time>
      </trkpt>
      <trkpt lat="45.96511" lon="4.92008">
        <ele>295.9</ele>
        <time>2023-09-24T13:15:24Z</time>
      </trkpt>
      <trkpt lat="45.96515" lon="4.92008">
        <ele>295.8</ele>
        <time>2023-09-24T13:15:25Z</time>
      </trkpt>
      <trkpt lat="45.96519" lon="4.92009">
        <ele>295.8</ele>
        <time>2023-09-24T13:15:27Z</time>
      </trkpt>
      <trkpt lat="45.96523" lon="4.92009">
        <ele>295.7</ele>
        <time>2023-09-24T13:15:28Z</time>
      </trkpt>
      <trkpt lat="45.96528" lon="4.9201">
        <ele>295.6</ele>
        <time>2023-09-24T13:15:29Z</time>
      </trkpt>
      <trkpt lat="45.96532" lon="4.9201">
        <ele>295.6</ele>
        <time>2023-09-24T13:15:30Z</time>
      </trkpt>
      <trkpt lat="45.96536" lon="4.92011">
        <ele>295.6</ele>
        <time>2023-09-24T13:15:31Z</time>
      </trkpt>
      <trkpt lat="45.9654" lon="4.92011">
        <ele>295.6</ele>
        <time>2023-09-24T13:15:32Z</time>
      </trkpt>
      <trkpt lat="45.96544" lon="4.92011">
        <ele>295.6</ele>
        <time>2023-09-24T13:15:33Z</time>
      </trkpt>
      <trkpt lat="45.96547" lon="4.92012">
        <ele>295.6</ele>
        <time>2023-09-24T13:15:34Z</time>
      </trkpt>
      <trkpt lat="45.96551" lon="4.92012">
        <ele>295.6</ele>
        <time>2023-09-24T13:15:35Z</time>
      </trkpt>
      <trkpt lat="45.96555" lon="4.92013">
        <ele>295.5</ele>
        <time>2023-09-24T13:15:36Z</time>
      </trkpt>
      <trkpt lat="45.96559" lon="4.92013">
        <ele>295.5</ele>
        <time>2023-09-24T13:15:37Z</time>
      </trkpt>
      <trkpt lat="45.96563" lon="4.92014">
        <ele>295.4</ele>
        <time>2023-09-24T13:15:38Z</time>
      </trkpt>
      <trkpt lat="45.96567" lon="4.92014">
        <ele>295.3</ele>
        <time>2023-09-24T13:15:39Z</time>
      </trkpt>
      <trkpt lat="45.96571" lon="4.92015">
        <ele>295.2</ele>
        <time>2023-09-24T13:15:40Z</time>
      </trkpt>
      <trkpt lat="45.96575" lon="4.92016">
        <ele>295.1</ele>
        <time>2023-09-24T13:15:41Z</time>
      </trkpt>
      <trkpt lat="45.96579" lon="4.92016">
        <ele>295.1</ele>
        <time>2023-09-24T13:15:42Z</time>
      </trkpt>
      <trkpt lat="45.96583" lon="4.92017">
        <ele>295</ele>
        <time>2023-09-24T13:15:43Z</time>
      </trkpt>
      <trkpt lat="45.96587" lon="4.92017">
        <ele>295</ele>
        <time>2023-09-24T13:15:44Z</time>
      </trkpt>
      <trkpt lat="45.96591" lon="4.92018">
        <ele>295</ele>
        <time>2023-09-24T13:15:45Z</time>
      </trkpt>
      <trkpt lat="45.96595" lon="4.92018">
        <ele>295</ele>
        <time>2023-09-24T13:15:46Z</time>
      </trkpt>
      <trkpt lat="45.96599" lon="4.92019">
        <ele>295</ele>
        <time>2023-09-24T13:15:47Z</time>
      </trkpt>
      <trkpt lat="45.96603" lon="4.92019">
        <ele>295</ele>
        <time>2023-09-24T13:15:48Z</time>
      </trkpt>
      <trkpt lat="45.96607" lon="4.9202">
        <ele>295</ele>
        <time>2023-09-24T13:15:49Z</time>
      </trkpt>
      <trkpt lat="45.9661" lon="4.9202">
        <ele>295</ele>
        <time>2023-09-24T13:15:50Z</time>
      </trkpt>
      <trkpt lat="45.96614" lon="4.92021">
        <ele>295</ele>
        <time>2023-09-24T13:15:51Z</time>
      </trkpt>
      <trkpt lat="45.96618" lon="4.92021">
        <ele>295</ele>
        <time>2023-09-24T13:15:52Z</time>
      </trkpt>
      <trkpt lat="45.96622" lon="4.92021">
        <ele>295</ele>
        <time>2023-09-24T13:15:53Z</time>
      </trkpt>
      <trkpt lat="45.96626" lon="4.92022">
        <ele>295</ele>
        <time>2023-09-24T13:15:54Z</time>
      </trkpt>
      <trkpt lat="45.9663" lon="4.92023">
        <ele>295</ele>
        <time>2023-09-24T13:15:55Z</time>
      </trkpt>
      <trkpt lat="45.96634" lon="4.92023">
        <ele>295</ele>
        <time>2023-09-24T13:15:56Z</time>
      </trkpt>
      <trkpt lat="45.96637" lon="4.92024">
        <ele>295</ele>
        <time>2023-09-24T13:15:57Z</time>
      </trkpt>
      <trkpt lat="45.96642" lon="4.92025">
        <ele>295</ele>
        <time>2023-09-24T13:15:58Z</time>
      </trkpt>
      <trkpt lat="45.96646" lon="4.92025">
        <ele>295</ele>
        <time>2023-09-24T13:15:59Z</time>
      </trkpt>
      <trkpt lat="45.96649" lon="4.92026">
        <ele>295</ele>
        <time>2023-09-24T13:16:00Z</time>
      </trkpt>
      <trkpt lat="45.96653" lon="4.92027">
        <ele>295</ele>
        <time>2023-09-24T13:16:01Z</time>
      </trkpt>
      <trkpt lat="45.96657" lon="4.92027">
        <ele>295</ele>
        <time>2023-09-24T13:16:02Z</time>
      </trkpt>
      <trkpt lat="45.96661" lon="4.92028">
        <ele>295</ele>
        <time>2023-09-24T13:16:03Z</time>
      </trkpt>
      <trkpt lat="45.96665" lon="4.92028">
        <ele>295</ele>
        <time>2023-09-24T13:16:04Z</time>
      </trkpt>
      <trkpt lat="45.96668" lon="4.92029">
        <ele>295</ele>
        <time>2023-09-24T13:16:05Z</time>
      </trkpt>
      <trkpt lat="45.96672" lon="4.92029">
        <ele>295.2</ele>
        <time>2023-09-24T13:16:06Z</time>
      </trkpt>
      <trkpt lat="45.96676" lon="4.9203">
        <ele>295.3</ele>
        <time>2023-09-24T13:16:07Z</time>
      </trkpt>
      <trkpt lat="45.9668" lon="4.9203">
        <ele>295.4</ele>
        <time>2023-09-24T13:16:08Z</time>
      </trkpt>
      <trkpt lat="45.96684" lon="4.92031">
        <ele>295.6</ele>
        <time>2023-09-24T13:16:09Z</time>
      </trkpt>
      <trkpt lat="45.96688" lon="4.92032">
        <ele>295.7</ele>
        <time>2023-09-24T13:16:10Z</time>
      </trkpt>
      <trkpt lat="45.96692" lon="4.92032">
        <ele>295.8</ele>
        <time>2023-09-24T13:16:11Z</time>
      </trkpt>
      <trkpt lat="45.96696" lon="4.92032">
        <ele>295.8</ele>
        <time>2023-09-24T13:16:12Z</time>
      </trkpt>
      <trkpt lat="45.967" lon="4.92032">
        <ele>295.7</ele>
        <time>2023-09-24T13:16:13Z</time>
      </trkpt>
      <trkpt lat="45.96704" lon="4.92033">
        <ele>295.5</ele>
        <time>2023-09-24T13:16:14Z</time>
      </trkpt>
      <trkpt lat="45.96707" lon="4.92034">
        <ele>295.4</ele>
        <time>2023-09-24T13:16:15Z</time>
      </trkpt>
      <trkpt lat="45.96711" lon="4.92034">
        <ele>295.3</ele>
        <time>2023-09-24T13:16:16Z</time>
      </trkpt>
      <trkpt lat="45.96715" lon="4.92035">
        <ele>295.2</ele>
        <time>2023-09-24T13:16:17Z</time>
      </trkpt>
      <trkpt lat="45.9672" lon="4.92035">
        <ele>295.1</ele>
        <time>2023-09-24T13:16:18Z</time>
      </trkpt>
      <trkpt lat="45.96724" lon="4.92036">
        <ele>295</ele>
        <time>2023-09-24T13:16:19Z</time>
      </trkpt>
      <trkpt lat="45.96728" lon="4.92036">
        <ele>295.1</ele>
        <time>2023-09-24T13:16:20Z</time>
      </trkpt>
      <trkpt lat="45.96732" lon="4.92036">
        <ele>295.1</ele>
        <time>2023-09-24T13:16:21Z</time>
      </trkpt>
      <trkpt lat="45.96736" lon="4.92037">
        <ele>295.2</ele>
        <time>2023-09-24T13:16:22Z</time>
      </trkpt>
      <trkpt lat="45.9674" lon="4.92038">
        <ele>295.2</ele>
        <time>2023-09-24T13:16:23Z</time>
      </trkpt>
      <trkpt lat="45.96744" lon="4.92038">
        <ele>295.3</ele>
        <time>2023-09-24T13:16:24Z</time>
      </trkpt>
      <trkpt lat="45.96748" lon="4.92039">
        <ele>295.4</ele>
        <time>2023-09-24T13:16:25Z</time>
      </trkpt>
      <trkpt lat="45.96752" lon="4.9204">
        <ele>295.4</ele>
        <time>2023-09-24T13:16:26Z</time>
      </trkpt>
      <trkpt lat="45.96756" lon="4.9204">
        <ele>295.4</ele>
        <time>2023-09-24T13:16:27Z</time>
      </trkpt>
      <trkpt lat="45.9676" lon="4.9204">
        <ele>295.4</ele>
        <time>2023-09-24T13:16:28Z</time>
      </trkpt>
      <trkpt lat="45.96764" lon="4.9204">
        <ele>295.4</ele>
        <time>2023-09-24T13:16:29Z</time>
      </trkpt>
      <trkpt lat="45.96768" lon="4.92041">
        <ele>295.5</ele>
        <time>2023-09-24T13:16:30Z</time>
      </trkpt>
      <trkpt lat="45.96773" lon="4.92041">
        <ele>295.5</ele>
        <time>2023-09-24T13:16:31Z</time>
      </trkpt>
      <trkpt lat="45.96777" lon="4.92041">
        <ele>295.5</ele>
        <time>2023-09-24T13:16:32Z</time>
      </trkpt>
      <trkpt lat="45.96781" lon="4.92042">
        <ele>295.5</ele>
        <time>2023-09-24T13:16:33Z</time>
      </trkpt>
      <trkpt lat="45.96785" lon="4.92043">
        <ele>295.4</ele>
        <time>2023-09-24T13:16:34Z</time>
      </trkpt>
      <trkpt lat="45.96789" lon="4.92043">
        <ele>295.3</ele>
        <time>2023-09-24T13:16:35Z</time>
      </trkpt>
      <trkpt lat="45.96794" lon="4.92043">
        <ele>295.2</ele>
        <time>2023-09-24T13:16:36Z</time>
      </trkpt>
      <trkpt lat="45.96798" lon="4.92044">
        <ele>295.2</ele>
        <time>2023-09-24T13:16:37Z</time>
      </trkpt>
      <trkpt lat="45.96802" lon="4.92045">
        <ele>295.1</ele>
        <time>2023-09-24T13:16:38Z</time>
      </trkpt>
      <trkpt lat="45.96807" lon="4.92045">
        <ele>295</ele>
        <time>2023-09-24T13:16:39Z</time>
      </trkpt>
      <trkpt lat="45.96811" lon="4.92046">
        <ele>294.9</ele>
        <time>2023-09-24T13:16:40Z</time>
      </trkpt>
      <trkpt lat="45.96815" lon="4.92047">
        <ele>294.9</ele>
        <time>2023-09-24T13:16:41Z</time>
      </trkpt>
      <trkpt lat="45.9682" lon="4.92047">
        <ele>294.8</ele>
        <time>2023-09-24T13:16:42Z</time>
      </trkpt>
      <trkpt lat="45.96824" lon="4.92048">
        <ele>294.8</ele>
        <time>2023-09-24T13:16:43Z</time>
      </trkpt>
      <trkpt lat="45.96828" lon="4.92048">
        <ele>294.8</ele>
        <time>2023-09-24T13:16:44Z</time>
      </trkpt>
      <trkpt lat="45.96831" lon="4.92046">
        <ele>294.7</ele>
        <time>2023-09-24T13:16:45Z</time>
      </trkpt>
      <trkpt lat="45.96833" lon="4.92041">
        <ele>294.5</ele>
        <time>2023-09-24T13:16:46Z</time>
      </trkpt>
      <trkpt lat="45.96833" lon="4.92035">
        <ele>294.3</ele>
        <time>2023-09-24T13:16:47Z</time>
      </trkpt>
      <trkpt lat="45.96833" lon="4.92029">
        <ele>294.1</ele>
        <time>2023-09-24T13:16:48Z</time>
      </trkpt>
      <trkpt lat="45.96834" lon="4.92023">
        <ele>293.8</ele>
        <time>2023-09-24T13:16:49Z</time>
      </trkpt>
      <trkpt lat="45.96835" lon="4.92017">
        <ele>293.6</ele>
        <time>2023-09-24T13:16:50Z</time>
      </trkpt>
      <trkpt lat="45.96837" lon="4.92011">
        <ele>293.5</ele>
        <time>2023-09-24T13:16:51Z</time>
      </trkpt>
      <trkpt lat="45.96838" lon="4.92005">
        <ele>293.3</ele>
        <time>2023-09-24T13:16:52Z</time>
      </trkpt>
      <trkpt lat="45.9684" lon="4.91999">
        <ele>293.2</ele>
      </trkpt>
      <trkpt lat="45.96842" lon="4.91992">
        <ele>293.2</ele>
        <time>2023-09-24T13:16:53Z</time>
      </trkpt>
      <trkpt lat="45.96844" lon="4.91986">
        <ele>293.2</ele>
        <time>2023-09-24T13:16:54Z</time>
      </trkpt>
      <trkpt lat="45.96846" lon="4.91979">
        <ele>293.1</ele>
        <time>2023-09-24T13:16:55Z</time>
      </trkpt>
      <trkpt lat="45.96848" lon="4.91973">
        <ele>293</ele>
        <time>2023-09-24T13:16:56Z</time>
      </trkpt>
      <trkpt lat="45.96852" lon="4.91967">
        <ele>292.9</ele>
        <time>2023-09-24T13:16:57Z</time>
      </trkpt>
      <trkpt lat="45.96856" lon="4.91962">
        <ele>292.7</ele>
        <time>2023-09-24T13:16:58Z</time>
      </trkpt>
      <trkpt lat="45.9686" lon="4.91957">
        <ele>292.5</ele>
        <time>2023-09-24T13:16:59Z</time>
      </trkpt>
      <trkpt lat="45.96865" lon="4.91953">
        <ele>292.3</ele>
        <time>2023-09-24T13:17:00Z</time>
      </trkpt>
      <trkpt lat="45.96869" lon="4.9195">
        <ele>292.2</ele>
        <time>2023-09-24T13:17:01Z</time>
      </trkpt>
      <trkpt lat="45.96874" lon="4.91947">
        <ele>292.1</ele>
        <time>2023-09-24T13:17:02Z</time>
      </trkpt>
      <trkpt lat="45.9688" lon="4.91945">
        <ele>292</ele>
        <time>2023-09-24T13:17:03Z</time>
      </trkpt>
      <trkpt lat="45.96884" lon="4.91943">
        <ele>292</ele>
        <time>2023-09-24T13:17:04Z</time>
      </trkpt>
      <trkpt lat="45.9689" lon="4.91941">
        <ele>291.9</ele>
        <time>2023-09-24T13:17:05Z</time>
      </trkpt>
      <trkpt lat="45.96895" lon="4.9194">
        <ele>291.8</ele>
        <time>2023-09-24T13:17:06Z</time>
      </trkpt>
      <trkpt lat="45.969" lon="4.9194">
        <ele>291.8</ele>
        <time>2023-09-24T13:17:07Z</time>
      </trkpt>
      <trkpt lat="45.96905" lon="4.91939">
        <ele>291.8</ele>
        <time>2023-09-24T13:17:08Z</time>
      </trkpt>
      <trkpt lat="45.96909" lon="4.91939">
        <ele>291.8</ele>
        <time>2023-09-24T13:17:09Z</time>
      </trkpt>
      <trkpt lat="45.96914" lon="4.91939">
        <ele>291.8</ele>
        <time>2023-09-24T13:17:10Z</time>
      </trkpt>
      <trkpt lat="45.96919" lon="4.91938">
        <ele>291.8</ele>
        <time>2023-09-24T13:17:11Z</time>
      </trkpt>
      <trkpt lat="45.96923" lon="4.91937">
        <ele>291.7</ele>
        <time>2023-09-24T13:17:12Z</time>
      </trkpt>
      <trkpt lat="45.96928" lon="4.91937">
        <ele>291.7</ele>
        <time>2023-09-24T13:17:13Z</time>
      </trkpt>
      <trkpt lat="45.96932" lon="4.91937">
        <ele>291.7</ele>
        <time>2023-09-24T13:17:14Z</time>
      </trkpt>
      <trkpt lat="45.96936" lon="4.91936">
        <ele>291.7</ele>
        <time>2023-09-24T13:17:15Z</time>
      </trkpt>
      <trkpt lat="45.96941" lon="4.91935">
        <ele>291.7</ele>
        <time>2023-09-24T13:17:16Z</time>
      </trkpt>
      <trkpt lat="45.96945" lon="4.91934">
        <ele>291.6</ele>
        <time>2023-09-24T13:17:17Z</time>
      </trkpt>
      <trkpt lat="45.96949" lon="4.91933">
        <ele>291.5</ele>
        <time>2023-09-24T13:17:18Z</time>
      </trkpt>
      <trkpt lat="45.96952" lon="4.91931">
        <ele>291.4</ele>
        <time>2023-09-24T13:17:19Z</time>
      </trkpt>
      <trkpt lat="45.96956" lon="4.91927">
        <ele>291.2</ele>
        <time>2023-09-24T13:17:20Z</time>
      </trkpt>
      <trkpt lat="45.96958" lon="4.91923">
        <ele>291.1</ele>
        <time>2023-09-24T13:17:21Z</time>
      </trkpt>
      <trkpt lat="45.9696" lon="4.91917">
        <ele>291</ele>
        <time>2023-09-24T13:17:23Z</time>
      </trkpt>
      <trkpt lat="45.9696" lon="4.9191">
        <ele>290.8</ele>
        <time>2023-09-24T13:17:24Z</time>
      </trkpt>
      <trkpt lat="45.96961" lon="4.91904">
        <ele>290.5</ele>
        <time>2023-09-24T13:17:25Z</time>
      </trkpt>
      <trkpt lat="45.96959" lon="4.91897">
        <ele>290.3</ele>
        <time>2023-09-24T13:17:26Z</time>
      </trkpt>
      <trkpt lat="45.96958" lon="4.91891">
        <ele>290.1</ele>
        <time>2023-09-24T13:17:27Z</time>
      </trkpt>
      <trkpt lat="45.96957" lon="4.91885">
        <ele>290</ele>
        <time>2023-09-24T13:17:28Z</time>
      </trkpt>
      <trkpt lat="45.96956" lon="4.91878">
        <ele>290</ele>
        <time>2023-09-24T13:17:29Z</time>
      </trkpt>
      <trkpt lat="45.96956" lon="4.91872">
        <ele>290</ele>
        <time>2023-09-24T13:17:30Z</time>
      </trkpt>
      <trkpt lat="45.96955" lon="4.91866">
        <ele>290</ele>
        <time>2023-09-24T13:17:31Z</time>
      </trkpt>
      <trkpt lat="45.96954" lon="4.9186">
        <ele>290</ele>
        <time>2023-09-24T13:17:32Z</time>
      </trkpt>
      <trkpt lat="45.96954" lon="4.91853">
        <ele>290</ele>
        <time>2023-09-24T13:17:33Z</time>
      </trkpt>
      <trkpt lat="45.96954" lon="4.91847">
        <ele>290</ele>
        <time>2023-09-24T13:17:34Z</time>
      </trkpt>
      <trkpt lat="45.96954" lon="4.91841">
        <ele>290</ele>
        <time>2023-09-24T13:17:35Z</time>
      </trkpt>
      <trkpt lat="45.96954" lon="4.91835">
        <ele>290</ele>
        <time>2023-09-24T13:17:36Z</time>
      </trkpt>
      <trkpt lat="45.96954" lon="4.91829">
        <ele>290</ele>
        <time>2023-09-24T13:17:37Z</time>
      </trkpt>
      <trkpt lat="45.96955" lon="4.91824">
        <ele>290</ele>
        <time>2023-09-24T13:17:38Z</time>
      </trkpt>
      <trkpt lat="45.96955" lon="4.91818">
        <ele>290</ele>
        <time>2023-09-24T13:17:39Z</time>
      </trkpt>
      <trkpt lat="45.96956" lon="4.91812">
        <ele>290</ele>
        <time>2023-09-24T13:17:40Z</time>
      </trkpt>
      <trkpt lat="45.96955" lon="4.91807">
        <ele>290</ele>
        <time>2023-09-24T13:17:41Z</time>
      </trkpt>
      <trkpt lat="45.96956" lon="4.91802">
        <ele>290</ele>
        <time>2023-09-24T13:17:42Z</time>
      </trkpt>
      <trkpt lat="45.96958" lon="4.91797">
        <ele>290</ele>
        <time>2023-09-24T13:17:43Z</time>
      </trkpt>
      <trkpt lat="45.96961" lon="4.91793">
        <ele>290</ele>
        <time>2023-09-24T13:17:44Z</time>
      </trkpt>
      <trkpt lat="45.96965" lon="4.91792">
        <ele>290</ele>
        <time>2023-09-24T13:17:45Z</time>
      </trkpt>
      <trkpt lat="45.96968" lon="4.91791">
        <ele>290</ele>
        <time>2023-09-24T13:17:46Z</time>
      </trkpt>
      <trkpt lat="45.96973" lon="4.91791">
        <ele>290</ele>
        <time>2023-09-24T13:17:47Z</time>
      </trkpt>
      <trkpt lat="45.96977" lon="4.9179">
        <ele>290</ele>
        <time>2023-09-24T13:17:48Z</time>
      </trkpt>
      <trkpt lat="45.96981" lon="4.91789">
        <ele>290</ele>
        <time>2023-09-24T13:17:49Z</time>
      </trkpt>
      <trkpt lat="45.96985" lon="4.91789">
        <ele>290</ele>
        <time>2023-09-24T13:17:50Z</time>
      </trkpt>
      <trkpt lat="45.96989" lon="4.91787">
        <ele>290</ele>
        <time>2023-09-24T13:17:51Z</time>
      </trkpt>
      <trkpt lat="45.96993" lon="4.91787">
        <ele>290</ele>
        <time>2023-09-24T13:17:52Z</time>
      </trkpt>
      <trkpt lat="45.96997" lon="4.91786">
        <ele>290</ele>
        <time>2023-09-24T13:17:53Z</time>
      </trkpt>
      <trkpt lat="45.97001" lon="4.91785">
        <ele>290</ele>
        <time>2023-09-24T13:17:54Z</time>
      </trkpt>
      <trkpt lat="45.97005" lon="4.91783">
        <ele>290</ele>
        <time>2023-09-24T13:17:55Z</time>
      </trkpt>
      <trkpt lat="45.97009" lon="4.91783">
        <ele>290</ele>
        <time>2023-09-24T13:17:56Z</time>
      </trkpt>
      <trkpt lat="45.97013" lon="4.91784">
        <ele>290</ele>
        <time>2023-09-24T13:17:57Z</time>
      </trkpt>
      <trkpt lat="45.97017" lon="4.91784">
        <ele>290</ele>
        <time>2023-09-24T13:17:58Z</time>
      </trkpt>
      <trkpt lat="45.97022" lon="4.91783">
        <ele>290</ele>
        <time>2023-09-24T13:17:59Z</time>
      </trkpt>
      <trkpt lat="45.97026" lon="4.91783">
        <ele>290</ele>
        <time>2023-09-24T13:18:00Z</time>
      </trkpt>
      <trkpt lat="45.97029" lon="4.91783">
        <ele>290</ele>
        <time>2023-09-24T13:18:01Z</time>
      </trkpt>
      <trkpt lat="45.97034" lon="4.91784">
        <ele>290.1</ele>
        <time>2023-09-24T13:18:02Z</time>
      </trkpt>
      <trkpt lat="45.97037" lon="4.91785">
        <ele>290.1</ele>
        <time>2023-09-24T13:18:03Z</time>
      </trkpt>
      <trkpt lat="45.97041" lon="4.91786">
        <ele>290.1</ele>
        <time>2023-09-24T13:18:04Z</time>
      </trkpt>
      <trkpt lat="45.97045" lon="4.91787">
        <ele>290.2</ele>
        <time>2023-09-24T13:18:05Z</time>
      </trkpt>
      <trkpt lat="45.97049" lon="4.91786">
        <ele>290.2</ele>
        <time>2023-09-24T13:18:06Z</time>
      </trkpt>
      <trkpt lat="45.97053" lon="4.91787">
        <ele>290.3</ele>
        <time>2023-09-24T13:18:07Z</time>
      </trkpt>
      <trkpt lat="45.97057" lon="4.91787">
        <ele>290.4</ele>
        <time>2023-09-24T13:18:08Z</time>
      </trkpt>
      <trkpt lat="45.9706" lon="4.91788">
        <ele>290.5</ele>
        <time>2023-09-24T13:18:09Z</time>
      </trkpt>
      <trkpt lat="45.97064" lon="4.91788">
        <ele>290.6</ele>
        <time>2023-09-24T13:18:10Z</time>
      </trkpt>
      <trkpt lat="45.97068" lon="4.91788">
        <ele>290.7</ele>
        <time>2023-09-24T13:18:11Z</time>
      </trkpt>
      <trkpt lat="45.97072" lon="4.91788">
        <ele>290.7</ele>
        <time>2023-09-24T13:18:12Z</time>
      </trkpt>
      <trkpt lat="45.97075" lon="4.91788">
        <ele>290.8</ele>
        <time>2023-09-24T13:18:13Z</time>
      </trkpt>
      <trkpt lat="45.97078" lon="4.91789">
        <ele>290.9</ele>
        <time>2023-09-24T13:18:14Z</time>
      </trkpt>
      <trkpt lat="45.97082" lon="4.91788">
        <ele>291</ele>
        <time>2023-09-24T13:18:15Z</time>
      </trkpt>
      <trkpt lat="45.97086" lon="4.91789">
        <ele>291</ele>
        <time>2023-09-24T13:18:16Z</time>
      </trkpt>
      <trkpt lat="45.97089" lon="4.91789">
        <ele>291</ele>
        <time>2023-09-24T13:18:17Z</time>
      </trkpt>
      <trkpt lat="45.97093" lon="4.91789">
        <ele>291</ele>
        <time>2023-09-24T13:18:18Z</time>
      </trkpt>
      <trkpt lat="45.97096" lon="4.91788">
        <ele>291</ele>
        <time>2023-09-24T13:18:19Z</time>
      </trkpt>
      <trkpt lat="45.971" lon="4.91787">
        <ele>291</ele>
        <time>2023-09-24T13:18:20Z</time>
      </trkpt>
      <trkpt lat="45.97103" lon="4.91786">
        <ele>291</ele>
        <time>2023-09-24T13:18:21Z</time>
      </trkpt>
      <trkpt lat="45.97106" lon="4.91785">
        <ele>291</ele>
        <time>2023-09-24T13:18:22Z</time>
      </trkpt>
      <trkpt lat="45.9711" lon="4.91785">
        <ele>291</ele>
        <time>2023-09-24T13:18:23Z</time>
      </trkpt>
      <trkpt lat="45.97114" lon="4.91785">
        <ele>291</ele>
        <time>2023-09-24T13:18:24Z</time>
      </trkpt>
      <trkpt lat="45.97117" lon="4.91785">
        <ele>291.1</ele>
        <time>2023-09-24T13:18:25Z</time>
      </trkpt>
      <trkpt lat="45.97121" lon="4.91783">
        <ele>291.1</ele>
        <time>2023-09-24T13:18:26Z</time>
      </trkpt>
      <trkpt lat="45.97124" lon="4.91784">
        <ele>291.1</ele>
        <time>2023-09-24T13:18:27Z</time>
      </trkpt>
      <trkpt lat="45.97128" lon="4.91786">
        <ele>291.2</ele>
        <time>2023-09-24T13:18:28Z</time>
      </trkpt>
      <trkpt lat="45.97132" lon="4.91787">
        <ele>291.2</ele>
        <time>2023-09-24T13:18:29Z</time>
      </trkpt>
      <trkpt lat="45.97135" lon="4.91788">
        <ele>291.3</ele>
        <time>2023-09-24T13:18:30Z</time>
      </trkpt>
      <trkpt lat="45.97139" lon="4.91789">
        <ele>291.4</ele>
        <time>2023-09-24T13:18:31Z</time>
      </trkpt>
      <trkpt lat="45.97143" lon="4.9179">
        <ele>291.4</ele>
        <time>2023-09-24T13:18:32Z</time>
      </trkpt>
      <trkpt lat="45.97146" lon="4.91791">
        <ele>291.5</ele>
        <time>2023-09-24T13:18:33Z</time>
      </trkpt>
      <trkpt lat="45.97149" lon="4.91792">
        <ele>291.5</ele>
        <time>2023-09-24T13:18:34Z</time>
      </trkpt>
      <trkpt lat="45.97153" lon="4.91793">
        <ele>291.5</ele>
        <time>2023-09-24T13:18:35Z</time>
      </trkpt>
      <trkpt lat="45.97156" lon="4.91794">
        <ele>291.6</ele>
        <time>2023-09-24T13:18:36Z</time>
      </trkpt>
      <trkpt lat="45.9716" lon="4.91794">
        <ele>291.6</ele>
        <time>2023-09-24T13:18:37Z</time>
      </trkpt>
      <trkpt lat="45.97164" lon="4.91794">
        <ele>291.6</ele>
        <time>2023-09-24T13:18:38Z</time>
      </trkpt>
      <trkpt lat="45.97167" lon="4.91794">
        <ele>291.6</ele>
        <time>2023-09-24T13:18:39Z</time>
      </trkpt>
      <trkpt lat="45.97171" lon="4.91793">
        <ele>291.6</ele>
        <time>2023-09-24T13:18:40Z</time>
      </trkpt>
      <trkpt lat="45.97175" lon="4.91792">
        <ele>291.7</ele>
        <time>2023-09-24T13:18:41Z</time>
      </trkpt>
      <trkpt lat="45.97178" lon="4.91791">
        <ele>291.7</ele>
        <time>2023-09-24T13:18:42Z</time>
      </trkpt>
      <trkpt lat="45.97182" lon="4.91791">
        <ele>291.8</ele>
        <time>2023-09-24T13:18:43Z</time>
      </trkpt>
      <trkpt lat="45.97186" lon="4.91791">
        <ele>291.8</ele>
        <time>2023-09-24T13:18:44Z</time>
      </trkpt>
      <trkpt lat="45.97189" lon="4.9179">
        <ele>291.9</ele>
        <time>2023-09-24T13:18:45Z</time>
      </trkpt>
      <trkpt lat="45.97193" lon="4.91788">
        <ele>292</ele>
        <time>2023-09-24T13:18:46Z</time>
      </trkpt>
      <trkpt lat="45.97197" lon="4.91787">
        <ele>292</ele>
        <time>2023-09-24T13:18:47Z</time>
      </trkpt>
      <trkpt lat="45.97201" lon="4.91787">
        <ele>292</ele>
        <time>2023-09-24T13:18:48Z</time>
      </trkpt>
      <trkpt lat="45.97205" lon="4.91788">
        <ele>292</ele>
        <time>2023-09-24T13:18:49Z</time>
      </trkpt>
      <trkpt lat="45.97209" lon="4.9179">
        <ele>292</ele>
        <time>2023-09-24T13:18:50Z</time>
      </trkpt>
      <trkpt lat="45.97213" lon="4.91792">
        <ele>292</ele>
        <time>2023-09-24T13:18:51Z</time>
      </trkpt>
      <trkpt lat="45.97216" lon="4.91795">
        <ele>292</ele>
        <time>2023-09-24T13:18:52Z</time>
      </trkpt>
      <trkpt lat="45.97219" lon="4.91797">
        <ele>292</ele>
        <time>2023-09-24T13:18:53Z</time>
      </trkpt>
      <trkpt lat="45.97222" lon="4.91798">
        <ele>292</ele>
        <time>2023-09-24T13:18:54Z</time>
      </trkpt>
      <trkpt lat="45.97226" lon="4.91801">
        <ele>292</ele>
        <time>2023-09-24T13:18:55Z</time>
      </trkpt>
      <trkpt lat="45.97229" lon="4.91803">
        <ele>292</ele>
        <time>2023-09-24T13:18:56Z</time>
      </trkpt>
      <trkpt lat="45.97232" lon="4.91805">
        <ele>292</ele>
        <time>2023-09-24T13:18:57Z</time>
      </trkpt>
      <trkpt lat="45.97236" lon="4.91808">
        <ele>292</ele>
        <time>2023-09-24T13:18:58Z</time>
      </trkpt>
      <trkpt lat="45.97241" lon="4.91815">
        <ele>292</ele>
        <time>2023-09-24T13:18:59Z</time>
      </trkpt>
      <trkpt lat="45.97244" lon="4.91818">
        <ele>292</ele>
        <time>2023-09-24T13:19:00Z</time>
      </trkpt>
      <trkpt lat="45.97247" lon="4.91821">
        <ele>292</ele>
        <time>2023-09-24T13:19:01Z</time>
      </trkpt>
      <trkpt lat="45.9725" lon="4.91824">
        <ele>292</ele>
        <time>2023-09-24T13:19:02Z</time>
      </trkpt>
      <trkpt lat="45.97253" lon="4.91827">
        <ele>292.1</ele>
        <time>2023-09-24T13:19:03Z</time>
      </trkpt>
      <trkpt lat="45.97256" lon="4.9183">
        <ele>292.2</ele>
        <time>2023-09-24T13:19:04Z</time>
      </trkpt>
      <trkpt lat="45.97259" lon="4.91833">
        <ele>292.3</ele>
        <time>2023-09-24T13:19:05Z</time>
      </trkpt>
      <trkpt lat="45.97263" lon="4.91836">
        <ele>292.4</ele>
        <time>2023-09-24T13:19:06Z</time>
      </trkpt>
      <trkpt lat="45.97266" lon="4.91838">
        <ele>292.5</ele>
        <time>2023-09-24T13:19:07Z</time>
      </trkpt>
      <trkpt lat="45.97269" lon="4.91841">
        <ele>292.5</ele>
        <time>2023-09-24T13:19:08Z</time>
      </trkpt>
      <trkpt lat="45.97272" lon="4.91844">
        <ele>292.5</ele>
        <time>2023-09-24T13:19:09Z</time>
      </trkpt>
      <trkpt lat="45.97276" lon="4.91847">
        <ele>292.5</ele>
        <time>2023-09-24T13:19:10Z</time>
      </trkpt>
      <trkpt lat="45.97279" lon="4.91849">
        <ele>292.5</ele>
        <time>2023-09-24T13:19:11Z</time>
      </trkpt>
      <trkpt lat="45.97283" lon="4.91852">
        <ele>292.5</ele>
        <time>2023-09-24T13:19:12Z</time>
      </trkpt>
      <trkpt lat="45.97286" lon="4.91855">
        <ele>292.5</ele>
        <time>2023-09-24T13:19:13Z</time>
      </trkpt>
      <trkpt lat="45.97289" lon="4.91857">
        <ele>292.5</ele>
        <time>2023-09-24T13:19:14Z</time>
      </trkpt>
      <trkpt lat="45.97292" lon="4.91859">
        <ele>292.5</ele>
        <time>2023-09-24T13:19:15Z</time>
      </trkpt>
      <trkpt lat="45.97296" lon="4.91862">
        <ele>292.7</ele>
        <time>2023-09-24T13:19:16Z</time>
      </trkpt>
      <trkpt lat="45.97299" lon="4.91864">
        <ele>292.8</ele>
        <time>2023-09-24T13:19:17Z</time>
      </trkpt>
      <trkpt lat="45.97302" lon="4.91865">
        <ele>292.9</ele>
        <time>2023-09-24T13:19:19Z</time>
      </trkpt>
      <trkpt lat="45.97306" lon="4.91866">
        <ele>293</ele>
        <time>2023-09-24T13:19:20Z</time>
      </trkpt>
      <trkpt lat="45.9731" lon="4.91868">
        <ele>293</ele>
        <time>2023-09-24T13:19:21Z</time>
      </trkpt>
      <trkpt lat="45.97313" lon="4.9187">
        <ele>293</ele>
        <time>2023-09-24T13:19:22Z</time>
      </trkpt>
      <trkpt lat="45.97316" lon="4.91871">
        <ele>293</ele>
        <time>2023-09-24T13:19:23Z</time>
      </trkpt>
      <trkpt lat="45.9732" lon="4.91874">
        <ele>293</ele>
        <time>2023-09-24T13:19:24Z</time>
      </trkpt>
      <trkpt lat="45.97323" lon="4.91875">
        <ele>293</ele>
        <time>2023-09-24T13:19:25Z</time>
      </trkpt>
      <trkpt lat="45.97326" lon="4.91876">
        <ele>293</ele>
        <time>2023-09-24T13:19:26Z</time>
      </trkpt>
      <trkpt lat="45.9733" lon="4.91879">
        <ele>293</ele>
        <time>2023-09-24T13:19:27Z</time>
      </trkpt>
      <trkpt lat="45.97333" lon="4.9188">
        <ele>293</ele>
        <time>2023-09-24T13:19:28Z</time>
      </trkpt>
      <trkpt lat="45.97336" lon="4.91882">
        <ele>293</ele>
        <time>2023-09-24T13:19:29Z</time>
      </trkpt>
      <trkpt lat="45.9734" lon="4.91884">
        <ele>293</ele>
        <time>2023-09-24T13:19:30Z</time>
      </trkpt>
      <trkpt lat="45.97344" lon="4.91886">
        <ele>293</ele>
        <time>2023-09-24T13:19:31Z</time>
      </trkpt>
      <trkpt lat="45.97347" lon="4.91888">
        <ele>293</ele>
        <time>2023-09-24T13:19:32Z</time>
      </trkpt>
      <trkpt lat="45.97351" lon="4.91889">
        <ele>293</ele>
        <time>2023-09-24T13:19:33Z</time>
      </trkpt>
      <trkpt lat="45.97354" lon="4.91891">
        <ele>293</ele>
        <time>2023-09-24T13:19:34Z</time>
      </trkpt>
      <trkpt lat="45.97358" lon="4.91893">
        <ele>293</ele>
        <time>2023-09-24T13:19:35Z</time>
      </trkpt>
      <trkpt lat="45.97361" lon="4.91896">
        <ele>293</ele>
        <time>2023-09-24T13:19:36Z</time>
      </trkpt>
      <trkpt lat="45.97364" lon="4.91897">
        <ele>293.1</ele>
        <time>2023-09-24T13:19:37Z</time>
      </trkpt>
      <trkpt lat="45.97368" lon="4.91899">
        <ele>293.2</ele>
        <time>2023-09-24T13:19:38Z</time>
      </trkpt>
      <trkpt lat="45.97372" lon="4.91901">
        <ele>293.2</ele>
        <time>2023-09-24T13:19:39Z</time>
      </trkpt>
      <trkpt lat="45.97375" lon="4.91903">
        <ele>293.2</ele>
        <time>2023-09-24T13:19:40Z</time>
      </trkpt>
      <trkpt lat="45.97378" lon="4.91905">
        <ele>293.3</ele>
        <time>2023-09-24T13:19:41Z</time>
      </trkpt>
      <trkpt lat="45.97382" lon="4.91908">
        <ele>293.2</ele>
        <time>2023-09-24T13:19:42Z</time>
      </trkpt>
      <trkpt lat="45.97385" lon="4.9191">
        <ele>293.2</ele>
        <time>2023-09-24T13:19:43Z</time>
      </trkpt>
      <trkpt lat="45.97388" lon="4.91911">
        <ele>293.2</ele>
        <time>2023-09-24T13:19:44Z</time>
      </trkpt>
      <trkpt lat="45.97392" lon="4.91914">
        <ele>293.2</ele>
        <time>2023-09-24T13:19:45Z</time>
      </trkpt>
      <trkpt lat="45.97396" lon="4.91916">
        <ele>293.3</ele>
        <time>2023-09-24T13:19:46Z</time>
      </trkpt>
      <trkpt lat="45.97399" lon="4.91918">
        <ele>293.4</ele>
        <time>2023-09-24T13:19:47Z</time>
      </trkpt>
      <trkpt lat="45.97403" lon="4.91919">
        <ele>293.5</ele>
        <time>2023-09-24T13:19:48Z</time>
      </trkpt>
      <trkpt lat="45.97407" lon="4.9192">
        <ele>293.7</ele>
        <time>2023-09-24T13:19:49Z</time>
      </trkpt>
      <trkpt lat="45.97411" lon="4.91922">
        <ele>293.8</ele>
        <time>2023-09-24T13:19:50Z</time>
      </trkpt>
      <trkpt lat="45.97414" lon="4.91923">
        <ele>293.9</ele>
        <time>2023-09-24T13:19:51Z</time>
      </trkpt>
      <trkpt lat="45.97418" lon="4.91923">
        <ele>294</ele>
        <time>2023-09-24T13:19:52Z</time>
      </trkpt>
      <trkpt lat="45.97423" lon="4.91924">
        <ele>294</ele>
        <time>2023-09-24T13:19:53Z</time>
      </trkpt>
      <trkpt lat="45.97427" lon="4.91923">
        <ele>294</ele>
        <time>2023-09-24T13:19:54Z</time>
      </trkpt>
      <trkpt lat="45.9743" lon="4.91923">
        <ele>294</ele>
        <time>2023-09-24T13:19:55Z</time>
      </trkpt>
      <trkpt lat="45.97434" lon="4.91922">
        <ele>294</ele>
        <time>2023-09-24T13:19:56Z</time>
      </trkpt>
      <trkpt lat="45.97438" lon="4.91922">
        <ele>294</ele>
        <time>2023-09-24T13:19:57Z</time>
      </trkpt>
      <trkpt lat="45.97441" lon="4.91923">
        <ele>294</ele>
        <time>2023-09-24T13:19:58Z</time>
      </trkpt>
      <trkpt lat="45.97445" lon="4.91925">
        <ele>294</ele>
        <time>2023-09-24T13:19:59Z</time>
      </trkpt>
      <trkpt lat="45.97448" lon="4.91925">
        <ele>294</ele>
        <time>2023-09-24T13:20:00Z</time>
      </trkpt>
      <trkpt lat="45.97452" lon="4.91925">
        <ele>294</ele>
        <time>2023-09-24T13:20:01Z</time>
      </trkpt>
      <trkpt lat="45.97456" lon="4.91925">
        <ele>294</ele>
        <time>2023-09-24T13:20:02Z</time>
      </trkpt>
      <trkpt lat="45.9746" lon="4.91928">
        <ele>294</ele>
        <time>2023-09-24T13:20:03Z</time>
      </trkpt>
      <trkpt lat="45.97463" lon="4.9193">
        <ele>294</ele>
        <time>2023-09-24T13:20:04Z</time>
      </trkpt>
      <trkpt lat="45.97467" lon="4.91932">
        <ele>294</ele>
        <time>2023-09-24T13:20:05Z</time>
      </trkpt>
      <trkpt lat="45.9747" lon="4.91934">
        <ele>294</ele>
        <time>2023-09-24T13:20:06Z</time>
      </trkpt>
      <trkpt lat="45.97473" lon="4.91937">
        <ele>294</ele>
        <time>2023-09-24T13:20:07Z</time>
      </trkpt>
      <trkpt lat="45.97476" lon="4.9194">
        <ele>294.1</ele>
        <time>2023-09-24T13:20:08Z</time>
      </trkpt>
      <trkpt lat="45.9748" lon="4.91941">
        <ele>294.3</ele>
        <time>2023-09-24T13:20:09Z</time>
      </trkpt>
      <trkpt lat="45.97484" lon="4.91942">
        <ele>294.4</ele>
        <time>2023-09-24T13:20:10Z</time>
      </trkpt>
      <trkpt lat="45.97487" lon="4.91942">
        <ele>294.5</ele>
        <time>2023-09-24T13:20:11Z</time>
      </trkpt>
      <trkpt lat="45.9749" lon="4.91942">
        <ele>294.6</ele>
        <time>2023-09-24T13:20:12Z</time>
      </trkpt>
      <trkpt lat="45.97494" lon="4.91943">
        <ele>294.8</ele>
        <time>2023-09-24T13:20:13Z</time>
      </trkpt>
      <trkpt lat="45.97498" lon="4.91942">
        <ele>294.9</ele>
        <time>2023-09-24T13:20:14Z</time>
      </trkpt>
      <trkpt lat="45.97502" lon="4.91941">
        <ele>295.1</ele>
        <time>2023-09-24T13:20:15Z</time>
      </trkpt>
      <trkpt lat="45.97506" lon="4.91939">
        <ele>295.2</ele>
        <time>2023-09-24T13:20:16Z</time>
      </trkpt>
      <trkpt lat="45.9751" lon="4.91937">
        <ele>295.3</ele>
        <time>2023-09-24T13:20:17Z</time>
      </trkpt>
      <trkpt lat="45.97514" lon="4.91934">
        <ele>295.3</ele>
        <time>2023-09-24T13:20:18Z</time>
      </trkpt>
      <trkpt lat="45.97517" lon="4.91932">
        <ele>295.3</ele>
        <time>2023-09-24T13:20:19Z</time>
      </trkpt>
      <trkpt lat="45.97521" lon="4.9193">
        <ele>295.4</ele>
        <time>2023-09-24T13:20:20Z</time>
      </trkpt>
      <trkpt lat="45.97525" lon="4.91927">
        <ele>295.3</ele>
        <time>2023-09-24T13:20:21Z</time>
      </trkpt>
      <trkpt lat="45.97529" lon="4.91924">
        <ele>295.3</ele>
        <time>2023-09-24T13:20:22Z</time>
      </trkpt>
      <trkpt lat="45.97532" lon="4.91922">
        <ele>295.3</ele>
        <time>2023-09-24T13:20:23Z</time>
      </trkpt>
      <trkpt lat="45.97536" lon="4.91919">
        <ele>295.4</ele>
        <time>2023-09-24T13:20:24Z</time>
      </trkpt>
      <trkpt lat="45.9754" lon="4.91917">
        <ele>295.4</ele>
        <time>2023-09-24T13:20:25Z</time>
      </trkpt>
      <trkpt lat="45.97544" lon="4.91914">
        <ele>295.6</ele>
        <time>2023-09-24T13:20:26Z</time>
      </trkpt>
      <trkpt lat="45.97547" lon="4.91912">
        <ele>295.7</ele>
        <time>2023-09-24T13:20:27Z</time>
      </trkpt>
      <trkpt lat="45.97551" lon="4.9191">
        <ele>295.8</ele>
        <time>2023-09-24T13:20:28Z</time>
      </trkpt>
      <trkpt lat="45.97554" lon="4.91907">
        <ele>295.9</ele>
        <time>2023-09-24T13:20:29Z</time>
      </trkpt>
      <trkpt lat="45.97558" lon="4.91905">
        <ele>296.1</ele>
        <time>2023-09-24T13:20:30Z</time>
      </trkpt>
      <trkpt lat="45.97561" lon="4.91903">
        <ele>296.2</ele>
        <time>2023-09-24T13:20:31Z</time>
      </trkpt>
      <trkpt lat="45.97565" lon="4.91901">
        <ele>296.3</ele>
        <time>2023-09-24T13:20:32Z</time>
      </trkpt>
      <trkpt lat="45.97569" lon="4.91901">
        <ele>296.5</ele>
        <time>2023-09-24T13:20:33Z</time>
      </trkpt>
      <trkpt lat="45.97573" lon="4.91901">
        <ele>296.6</ele>
        <time>2023-09-24T13:20:34Z</time>
      </trkpt>
      <trkpt lat="45.97576" lon="4.91901">
        <ele>296.7</ele>
        <time>2023-09-24T13:20:35Z</time>
      </trkpt>
      <trkpt lat="45.9758" lon="4.91901">
        <ele>296.9</ele>
        <time>2023-09-24T13:20:36Z</time>
      </trkpt>
      <trkpt lat="45.97581" lon="4.919">
        <ele>296.9</ele>
        <time>2023-09-24T13:20:37Z</time>
      </trkpt>
      <trkpt lat="45.97584" lon="4.91896">
        <ele>297</ele>
        <time>2023-09-24T13:20:38Z</time>
      </trkpt>
      <trkpt lat="45.97585" lon="4.91894">
        <ele>297</ele>
        <time>2023-09-24T13:20:39Z</time>
      </trkpt>
      <trkpt lat="45.97586" lon="4.9189">
        <ele>297</ele>
        <time>2023-09-24T13:20:40Z</time>
      </trkpt>
      <trkpt lat="45.97588" lon="4.91887">
        <ele>296.9</ele>
        <time>2023-09-24T13:20:41Z</time>
      </trkpt>
      <trkpt lat="45.9759" lon="4.91883">
        <ele>296.8</ele>
        <time>2023-09-24T13:20:42Z</time>
      </trkpt>
      <trkpt lat="45.97592" lon="4.91879">
        <ele>296.8</ele>
        <time>2023-09-24T13:20:43Z</time>
      </trkpt>
      <trkpt lat="45.97593" lon="4.91875">
        <ele>296.7</ele>
        <time>2023-09-24T13:20:44Z</time>
      </trkpt>
      <trkpt lat="45.97594" lon="4.9187">
        <ele>296.6</ele>
        <time>2023-09-24T13:20:45Z</time>
      </trkpt>
      <trkpt lat="45.97595" lon="4.91866">
        <ele>296.5</ele>
        <time>2023-09-24T13:20:46Z</time>
      </trkpt>
      <trkpt lat="45.97596" lon="4.91862">
        <ele>296.5</ele>
        <time>2023-09-24T13:20:47Z</time>
      </trkpt>
      <trkpt lat="45.97597" lon="4.91858">
        <ele>296.5</ele>
        <time>2023-09-24T13:20:48Z</time>
      </trkpt>
      <trkpt lat="45.97599" lon="4.91853">
        <ele>296.6</ele>
        <time>2023-09-24T13:20:49Z</time>
      </trkpt>
      <trkpt lat="45.97602" lon="4.9185">
        <ele>296.7</ele>
        <time>2023-09-24T13:20:50Z</time>
      </trkpt>
      <trkpt lat="45.97604" lon="4.91846">
        <ele>296.7</ele>
        <time>2023-09-24T13:20:51Z</time>
      </trkpt>
      <trkpt lat="45.97606" lon="4.91842">
        <ele>296.8</ele>
        <time>2023-09-24T13:20:52Z</time>
      </trkpt>
      <trkpt lat="45.97609" lon="4.91839">
        <ele>296.9</ele>
        <time>2023-09-24T13:20:53Z</time>
      </trkpt>
      <trkpt lat="45.97611" lon="4.91835">
        <ele>297</ele>
        <time>2023-09-24T13:20:54Z</time>
      </trkpt>
      <trkpt lat="45.97613" lon="4.91831">
        <ele>296.9</ele>
        <time>2023-09-24T13:20:55Z</time>
      </trkpt>
      <trkpt lat="45.97615" lon="4.91829">
        <ele>296.9</ele>
        <time>2023-09-24T13:20:56Z</time>
      </trkpt>
      <trkpt lat="45.97618" lon="4.91825">
        <ele>296.8</ele>
        <time>2023-09-24T13:20:57Z</time>
      </trkpt>
      <trkpt lat="45.9762" lon="4.91821">
        <ele>296.7</ele>
        <time>2023-09-24T13:20:58Z</time>
      </trkpt>
      <trkpt lat="45.97623" lon="4.91818">
        <ele>296.7</ele>
        <time>2023-09-24T13:20:59Z</time>
      </trkpt>
      <trkpt lat="45.97624" lon="4.91814">
        <ele>296.6</ele>
        <time>2023-09-24T13:21:00Z</time>
      </trkpt>
      <trkpt lat="45.97627" lon="4.91811">
        <ele>296.7</ele>
        <time>2023-09-24T13:21:01Z</time>
      </trkpt>
      <trkpt lat="45.97628" lon="4.91808">
        <ele>296.6</ele>
        <time>2023-09-24T13:21:02Z</time>
      </trkpt>
      <trkpt lat="45.97632" lon="4.91803">
        <ele>296.7</ele>
        <time>2023-09-24T13:21:03Z</time>
      </trkpt>
      <trkpt lat="45.97635" lon="4.91799">
        <ele>296.7</ele>
        <time>2023-09-24T13:21:04Z</time>
      </trkpt>
      <trkpt lat="45.97638" lon="4.91795">
        <ele>296.6</ele>
        <time>2023-09-24T13:21:05Z</time>
      </trkpt>
      <trkpt lat="45.97641" lon="4.91791">
        <ele>296.5</ele>
        <time>2023-09-24T13:21:06Z</time>
      </trkpt>
      <trkpt lat="45.97643" lon="4.91787">
        <ele>296.4</ele>
        <time>2023-09-24T13:21:07Z</time>
      </trkpt>
      <trkpt lat="45.97646" lon="4.91782">
        <ele>296.4</ele>
        <time>2023-09-24T13:21:08Z</time>
      </trkpt>
      <trkpt lat="45.97649" lon="4.91778">
        <ele>296.4</ele>
        <time>2023-09-24T13:21:09Z</time>
      </trkpt>
      <trkpt lat="45.97651" lon="4.91774">
        <ele>296.4</ele>
        <time>2023-09-24T13:21:10Z</time>
      </trkpt>
      <trkpt lat="45.97653" lon="4.9177">
        <ele>296.4</ele>
        <time>2023-09-24T13:21:11Z</time>
      </trkpt>
      <trkpt lat="45.97653" lon="4.91765">
        <ele>296.3</ele>
        <time>2023-09-24T13:21:12Z</time>
      </trkpt>
      <trkpt lat="45.97657" lon="4.9176">
        <ele>296.2</ele>
        <time>2023-09-24T13:21:13Z</time>
      </trkpt>
      <trkpt lat="45.9766" lon="4.91757">
        <ele>296.2</ele>
        <time>2023-09-24T13:21:14Z</time>
      </trkpt>
      <trkpt lat="45.97662" lon="4.91753">
        <ele>296.1</ele>
        <time>2023-09-24T13:21:15Z</time>
      </trkpt>
      <trkpt lat="45.97664" lon="4.91749">
        <ele>296</ele>
        <time>2023-09-24T13:21:16Z</time>
      </trkpt>
      <trkpt lat="45.97666" lon="4.91744">
        <ele>296</ele>
        <time>2023-09-24T13:21:17Z</time>
      </trkpt>
      <trkpt lat="45.97668" lon="4.91741">
        <ele>296</ele>
        <time>2023-09-24T13:21:18Z</time>
      </trkpt>
      <trkpt lat="45.9767" lon="4.91737">
        <ele>296.1</ele>
        <time>2023-09-24T13:21:19Z</time>
      </trkpt>
      <trkpt lat="45.97673" lon="4.91733">
        <ele>296.1</ele>
        <time>2023-09-24T13:21:20Z</time>
      </trkpt>
      <trkpt lat="45.97676" lon="4.9173">
        <ele>296.1</ele>
        <time>2023-09-24T13:21:21Z</time>
      </trkpt>
      <trkpt lat="45.97679" lon="4.91726">
        <ele>296.1</ele>
        <time>2023-09-24T13:21:22Z</time>
      </trkpt>
      <trkpt lat="45.97682" lon="4.91722">
        <ele>296</ele>
        <time>2023-09-24T13:21:23Z</time>
      </trkpt>
      <trkpt lat="45.97685" lon="4.91718">
        <ele>296</ele>
        <time>2023-09-24T13:21:24Z</time>
      </trkpt>
      <trkpt lat="45.97687" lon="4.91715">
        <ele>296</ele>
        <time>2023-09-24T13:21:25Z</time>
      </trkpt>
      <trkpt lat="45.9769" lon="4.91711">
        <ele>296</ele>
        <time>2023-09-24T13:21:26Z</time>
      </trkpt>
      <trkpt lat="45.97693" lon="4.91707">
        <ele>296</ele>
        <time>2023-09-24T13:21:27Z</time>
      </trkpt>
      <trkpt lat="45.97696" lon="4.91704">
        <ele>296</ele>
        <time>2023-09-24T13:21:28Z</time>
      </trkpt>
      <trkpt lat="45.97698" lon="4.917">
        <ele>296</ele>
        <time>2023-09-24T13:21:29Z</time>
      </trkpt>
      <trkpt lat="45.97701" lon="4.91696">
        <ele>296</ele>
        <time>2023-09-24T13:21:30Z</time>
      </trkpt>
      <trkpt lat="45.97704" lon="4.91692">
        <ele>296</ele>
        <time>2023-09-24T13:21:31Z</time>
      </trkpt>
      <trkpt lat="45.97706" lon="4.91689">
        <ele>296</ele>
        <time>2023-09-24T13:21:32Z</time>
      </trkpt>
      <trkpt lat="45.97709" lon="4.91685">
        <ele>296</ele>
        <time>2023-09-24T13:21:33Z</time>
      </trkpt>
      <trkpt lat="45.97712" lon="4.91681">
        <ele>296</ele>
        <time>2023-09-24T13:21:34Z</time>
      </trkpt>
      <trkpt lat="45.97714" lon="4.91677">
        <ele>296</ele>
        <time>2023-09-24T13:21:35Z</time>
      </trkpt>
      <trkpt lat="45.97717" lon="4.91673">
        <ele>296</ele>
        <time>2023-09-24T13:21:36Z</time>
      </trkpt>
      <trkpt lat="45.9772" lon="4.91669">
        <ele>296</ele>
        <time>2023-09-24T13:21:37Z</time>
      </trkpt>
      <trkpt lat="45.97722" lon="4.91665">
        <ele>296</ele>
        <time>2023-09-24T13:21:38Z</time>
      </trkpt>
      <trkpt lat="45.97725" lon="4.91659">
        <ele>296</ele>
        <time>2023-09-24T13:21:39Z</time>
      </trkpt>
      <trkpt lat="45.97727" lon="4.91656">
        <ele>296</ele>
        <time>2023-09-24T13:21:40Z</time>
      </trkpt>
      <trkpt lat="45.9773" lon="4.91652">
        <ele>296</ele>
        <time>2023-09-24T13:21:41Z</time>
      </trkpt>
      <trkpt lat="45.97732" lon="4.91648">
        <ele>296</ele>
        <time>2023-09-24T13:21:42Z</time>
      </trkpt>
      <trkpt lat="45.97735" lon="4.91643">
        <ele>296</ele>
        <time>2023-09-24T13:21:43Z</time>
      </trkpt>
      <trkpt lat="45.97737" lon="4.91639">
        <ele>296</ele>
        <time>2023-09-24T13:21:44Z</time>
      </trkpt>
      <trkpt lat="45.9774" lon="4.91635">
        <ele>295.9</ele>
        <time>2023-09-24T13:21:45Z</time>
      </trkpt>
      <trkpt lat="45.97742" lon="4.9163">
        <ele>295.9</ele>
        <time>2023-09-24T13:21:46Z</time>
      </trkpt>
      <trkpt lat="45.97745" lon="4.91626">
        <ele>295.9</ele>
        <time>2023-09-24T13:21:47Z</time>
      </trkpt>
      <trkpt lat="45.97747" lon="4.91621">
        <ele>295.9</ele>
        <time>2023-09-24T13:21:48Z</time>
      </trkpt>
      <trkpt lat="45.97749" lon="4.91617">
        <ele>296</ele>
        <time>2023-09-24T13:21:49Z</time>
      </trkpt>
      <trkpt lat="45.97752" lon="4.91612">
        <ele>296</ele>
        <time>2023-09-24T13:21:50Z</time>
      </trkpt>
      <trkpt lat="45.97754" lon="4.91608">
        <ele>295.9</ele>
        <time>2023-09-24T13:21:51Z</time>
      </trkpt>
      <trkpt lat="45.97757" lon="4.91604">
        <ele>295.8</ele>
        <time>2023-09-24T13:21:52Z</time>
      </trkpt>
      <trkpt lat="45.97759" lon="4.91599">
        <ele>295.7</ele>
        <time>2023-09-24T13:21:53Z</time>
      </trkpt>
      <trkpt lat="45.97761" lon="4.91595">
        <ele>295.6</ele>
        <time>2023-09-24T13:21:54Z</time>
      </trkpt>
      <trkpt lat="45.97763" lon="4.91591">
        <ele>295.6</ele>
        <time>2023-09-24T13:21:55Z</time>
      </trkpt>
      <trkpt lat="45.97766" lon="4.91587">
        <ele>295.6</ele>
        <time>2023-09-24T13:21:56Z</time>
      </trkpt>
      <trkpt lat="45.97768" lon="4.91583">
        <ele>295.6</ele>
        <time>2023-09-24T13:21:57Z</time>
      </trkpt>
      <trkpt lat="45.9777" lon="4.91579">
        <ele>295.6</ele>
        <time>2023-09-24T13:21:58Z</time>
      </trkpt>
      <trkpt lat="45.97773" lon="4.91574">
        <ele>295.5</ele>
        <time>2023-09-24T13:21:59Z</time>
      </trkpt>
      <trkpt lat="45.97775" lon="4.91569">
        <ele>295.4</ele>
        <time>2023-09-24T13:22:00Z</time>
      </trkpt>
      <trkpt lat="45.97778" lon="4.91565">
        <ele>295.3</ele>
        <time>2023-09-24T13:22:01Z</time>
      </trkpt>
      <trkpt lat="45.9778" lon="4.91561">
        <ele>295.2</ele>
        <time>2023-09-24T13:22:02Z</time>
      </trkpt>
      <trkpt lat="45.97782" lon="4.91556">
        <ele>295</ele>
        <time>2023-09-24T13:22:03Z</time>
      </trkpt>
      <trkpt lat="45.97784" lon="4.91552">
        <ele>295</ele>
        <time>2023-09-24T13:22:04Z</time>
      </trkpt>
      <trkpt lat="45.97787" lon="4.91547">
        <ele>295</ele>
        <time>2023-09-24T13:22:05Z</time>
      </trkpt>
      <trkpt lat="45.97789" lon="4.91543">
        <ele>295</ele>
        <time>2023-09-24T13:22:06Z</time>
      </trkpt>
      <trkpt lat="45.97792" lon="4.91539">
        <ele>295</ele>
        <time>2023-09-24T13:22:07Z</time>
      </trkpt>
      <trkpt lat="45.97794" lon="4.91535">
        <ele>295</ele>
        <time>2023-09-24T13:22:08Z</time>
      </trkpt>
      <trkpt lat="45.97796" lon="4.91531">
        <ele>295</ele>
        <time>2023-09-24T13:22:09Z</time>
      </trkpt>
      <trkpt lat="45.97799" lon="4.91527">
        <ele>295</ele>
        <time>2023-09-24T13:22:10Z</time>
      </trkpt>
      <trkpt lat="45.97801" lon="4.91523">
        <ele>295</ele>
        <time>2023-09-24T13:22:11Z</time>
      </trkpt>
      <trkpt lat="45.97803" lon="4.91518">
        <ele>295</ele>
        <time>2023-09-24T13:22:12Z</time>
      </trkpt>
      <trkpt lat="45.97805" lon="4.91514">
        <ele>295</ele>
        <time>2023-09-24T13:22:13Z</time>
      </trkpt>
      <trkpt lat="45.97807" lon="4.9151">
        <ele>295</ele>
        <time>2023-09-24T13:22:14Z</time>
      </trkpt>
      <trkpt lat="45.9781" lon="4.91508">
        <ele>295</ele>
        <time>2023-09-24T13:22:15Z</time>
      </trkpt>
      <trkpt lat="45.97812" lon="4.91503">
        <ele>295</ele>
        <time>2023-09-24T13:22:16Z</time>
      </trkpt>
      <trkpt lat="45.97814" lon="4.91499">
        <ele>295</ele>
        <time>2023-09-24T13:22:17Z</time>
      </trkpt>
      <trkpt lat="45.97816" lon="4.91495">
        <ele>295</ele>
        <time>2023-09-24T13:22:18Z</time>
      </trkpt>
      <trkpt lat="45.97819" lon="4.91491">
        <ele>295</ele>
        <time>2023-09-24T13:22:19Z</time>
      </trkpt>
      <trkpt lat="45.97821" lon="4.91487">
        <ele>295</ele>
        <time>2023-09-24T13:22:20Z</time>
      </trkpt>
      <trkpt lat="45.97822" lon="4.91483">
        <ele>295</ele>
        <time>2023-09-24T13:22:21Z</time>
      </trkpt>
      <trkpt lat="45.97824" lon="4.91478">
        <ele>295</ele>
        <time>2023-09-24T13:22:22Z</time>
      </trkpt>
      <trkpt lat="45.97826" lon="4.91474">
        <ele>295</ele>
        <time>2023-09-24T13:22:23Z</time>
      </trkpt>
      <trkpt lat="45.97828" lon="4.91471">
        <ele>295</ele>
        <time>2023-09-24T13:22:24Z</time>
      </trkpt>
      <trkpt lat="45.97831" lon="4.91467">
        <ele>295</ele>
        <time>2023-09-24T13:22:25Z</time>
      </trkpt>
      <trkpt lat="45.97833" lon="4.91463">
        <ele>295</ele>
        <time>2023-09-24T13:22:26Z</time>
      </trkpt>
      <trkpt lat="45.97836" lon="4.91459">
        <ele>295.1</ele>
        <time>2023-09-24T13:22:27Z</time>
      </trkpt>
      <trkpt lat="45.97838" lon="4.91455">
        <ele>295.1</ele>
        <time>2023-09-24T13:22:28Z</time>
      </trkpt>
      <trkpt lat="45.9784" lon="4.91451">
        <ele>295.1</ele>
        <time>2023-09-24T13:22:29Z</time>
      </trkpt>
      <trkpt lat="45.97842" lon="4.91447">
        <ele>295</ele>
        <time>2023-09-24T13:22:30Z</time>
      </trkpt>
      <trkpt lat="45.97845" lon="4.91443">
        <ele>295</ele>
        <time>2023-09-24T13:22:31Z</time>
      </trkpt>
      <trkpt lat="45.97847" lon="4.91439">
        <ele>295</ele>
        <time>2023-09-24T13:22:32Z</time>
      </trkpt>
      <trkpt lat="45.97849" lon="4.91435">
        <ele>295</ele>
        <time>2023-09-24T13:22:33Z</time>
      </trkpt>
      <trkpt lat="45.97852" lon="4.91431">
        <ele>295</ele>
        <time>2023-09-24T13:22:34Z</time>
      </trkpt>
      <trkpt lat="45.97855" lon="4.91428">
        <ele>295</ele>
        <time>2023-09-24T13:22:35Z</time>
      </trkpt>
      <trkpt lat="45.97858" lon="4.91424">
        <ele>295</ele>
        <time>2023-09-24T13:22:36Z</time>
      </trkpt>
      <trkpt lat="45.9786" lon="4.91421">
        <ele>295</ele>
        <time>2023-09-24T13:22:37Z</time>
      </trkpt>
      <trkpt lat="45.97863" lon="4.91418">
        <ele>295</ele>
        <time>2023-09-24T13:22:38Z</time>
      </trkpt>
      <trkpt lat="45.97866" lon="4.91416">
        <ele>295</ele>
        <time>2023-09-24T13:22:39Z</time>
      </trkpt>
      <trkpt lat="45.9787" lon="4.91413">
        <ele>295</ele>
        <time>2023-09-24T13:22:40Z</time>
      </trkpt>
      <trkpt lat="45.97873" lon="4.91412">
        <ele>295</ele>
        <time>2023-09-24T13:22:41Z</time>
      </trkpt>
      <trkpt lat="45.97876" lon="4.9141">
        <ele>295</ele>
        <time>2023-09-24T13:22:42Z</time>
      </trkpt>
      <trkpt lat="45.97879" lon="4.91407">
        <ele>295</ele>
        <time>2023-09-24T13:22:43Z</time>
      </trkpt>
      <trkpt lat="45.97881" lon="4.91405">
        <ele>295</ele>
        <time>2023-09-24T13:22:44Z</time>
      </trkpt>
      <trkpt lat="45.97885" lon="4.91403">
        <ele>295</ele>
        <time>2023-09-24T13:22:45Z</time>
      </trkpt>
      <trkpt lat="45.97888" lon="4.91401">
        <ele>295</ele>
        <time>2023-09-24T13:22:46Z</time>
      </trkpt>
      <trkpt lat="45.97891" lon="4.91399">
        <ele>295</ele>
        <time>2023-09-24T13:22:47Z</time>
      </trkpt>
      <trkpt lat="45.97894" lon="4.91398">
        <ele>295.1</ele>
        <time>2023-09-24T13:22:48Z</time>
      </trkpt>
      <trkpt lat="45.97897" lon="4.91396">
        <ele>295.1</ele>
        <time>2023-09-24T13:22:49Z</time>
      </trkpt>
      <trkpt lat="45.97901" lon="4.91394">
        <ele>295.1</ele>
        <time>2023-09-24T13:22:50Z</time>
      </trkpt>
      <trkpt lat="45.97904" lon="4.91392">
        <ele>295.1</ele>
        <time>2023-09-24T13:22:51Z</time>
      </trkpt>
      <trkpt lat="45.97906" lon="4.9139">
        <ele>295</ele>
        <time>2023-09-24T13:22:52Z</time>
      </trkpt>
      <trkpt lat="45.9791" lon="4.91389">
        <ele>295</ele>
        <time>2023-09-24T13:22:53Z</time>
      </trkpt>
      <trkpt lat="45.97914" lon="4.91386">
        <ele>295</ele>
        <time>2023-09-24T13:22:54Z</time>
      </trkpt>
      <trkpt lat="45.97916" lon="4.91385">
        <ele>295</ele>
        <time>2023-09-24T13:22:55Z</time>
      </trkpt>
      <trkpt lat="45.97919" lon="4.91383">
        <ele>295.1</ele>
        <time>2023-09-24T13:22:56Z</time>
      </trkpt>
      <trkpt lat="45.97923" lon="4.91381">
        <ele>295.2</ele>
        <time>2023-09-24T13:22:57Z</time>
      </trkpt>
      <trkpt lat="45.97927" lon="4.91379">
        <ele>295.2</ele>
        <time>2023-09-24T13:22:58Z</time>
      </trkpt>
      <trkpt lat="45.9793" lon="4.91378">
        <ele>295.3</ele>
        <time>2023-09-24T13:22:59Z</time>
      </trkpt>
      <trkpt lat="45.97933" lon="4.91376">
        <ele>295.3</ele>
        <time>2023-09-24T13:23:00Z</time>
      </trkpt>
      <trkpt lat="45.97937" lon="4.91374">
        <ele>295.3</ele>
        <time>2023-09-24T13:23:01Z</time>
      </trkpt>
      <trkpt lat="45.97939" lon="4.91372">
        <ele>295.3</ele>
        <time>2023-09-24T13:23:02Z</time>
      </trkpt>
      <trkpt lat="45.97943" lon="4.9137">
        <ele>295.3</ele>
        <time>2023-09-24T13:23:03Z</time>
      </trkpt>
      <trkpt lat="45.97946" lon="4.91368">
        <ele>295.3</ele>
        <time>2023-09-24T13:23:04Z</time>
      </trkpt>
      <trkpt lat="45.97949" lon="4.91366">
        <ele>295.3</ele>
        <time>2023-09-24T13:23:05Z</time>
      </trkpt>
      <trkpt lat="45.97953" lon="4.91365">
        <ele>295.4</ele>
        <time>2023-09-24T13:23:06Z</time>
      </trkpt>
      <trkpt lat="45.97958" lon="4.91365">
        <ele>295.6</ele>
        <time>2023-09-24T13:23:07Z</time>
      </trkpt>
      <trkpt lat="45.97962" lon="4.91361">
        <ele>295.6</ele>
        <time>2023-09-24T13:23:08Z</time>
      </trkpt>
      <trkpt lat="45.97964" lon="4.91359">
        <ele>295.7</ele>
        <time>2023-09-24T13:23:09Z</time>
      </trkpt>
      <trkpt lat="45.9797" lon="4.91357">
        <ele>295.9</ele>
        <time>2023-09-24T13:23:10Z</time>
      </trkpt>
      <trkpt lat="45.97973" lon="4.91356">
        <ele>296</ele>
        <time>2023-09-24T13:23:11Z</time>
      </trkpt>
      <trkpt lat="45.97977" lon="4.91354">
        <ele>296</ele>
        <time>2023-09-24T13:23:12Z</time>
      </trkpt>
      <trkpt lat="45.97981" lon="4.91352">
        <ele>296</ele>
        <time>2023-09-24T13:23:13Z</time>
      </trkpt>
      <trkpt lat="45.97984" lon="4.9135">
        <ele>296</ele>
        <time>2023-09-24T13:23:14Z</time>
      </trkpt>
      <trkpt lat="45.97987" lon="4.91347">
        <ele>296</ele>
        <time>2023-09-24T13:23:15Z</time>
      </trkpt>
      <trkpt lat="45.9799" lon="4.91346">
        <ele>296</ele>
        <time>2023-09-24T13:23:16Z</time>
      </trkpt>
      <trkpt lat="45.97993" lon="4.91344">
        <ele>296</ele>
        <time>2023-09-24T13:23:17Z</time>
      </trkpt>
      <trkpt lat="45.97997" lon="4.91342">
        <ele>296</ele>
        <time>2023-09-24T13:23:18Z</time>
      </trkpt>
      <trkpt lat="45.98" lon="4.9134">
        <ele>296</ele>
        <time>2023-09-24T13:23:19Z</time>
      </trkpt>
      <trkpt lat="45.98003" lon="4.91337">
        <ele>296</ele>
        <time>2023-09-24T13:23:20Z</time>
      </trkpt>
      <trkpt lat="45.98006" lon="4.91335">
        <ele>296</ele>
        <time>2023-09-24T13:23:21Z</time>
      </trkpt>
      <trkpt lat="45.9801" lon="4.91332">
        <ele>296</ele>
        <time>2023-09-24T13:23:22Z</time>
      </trkpt>
      <trkpt lat="45.98013" lon="4.9133">
        <ele>295.9</ele>
        <time>2023-09-24T13:23:23Z</time>
      </trkpt>
      <trkpt lat="45.98016" lon="4.91327">
        <ele>295.9</ele>
        <time>2023-09-24T13:23:24Z</time>
      </trkpt>
      <trkpt lat="45.9802" lon="4.91326">
        <ele>295.9</ele>
        <time>2023-09-24T13:23:25Z</time>
      </trkpt>
      <trkpt lat="45.98023" lon="4.91324">
        <ele>295.9</ele>
        <time>2023-09-24T13:23:26Z</time>
      </trkpt>
      <trkpt lat="45.98027" lon="4.91322">
        <ele>296</ele>
        <time>2023-09-24T13:23:27Z</time>
      </trkpt>
      <trkpt lat="45.9803" lon="4.9132">
        <ele>296</ele>
        <time>2023-09-24T13:23:28Z</time>
      </trkpt>
      <trkpt lat="45.98034" lon="4.91317">
        <ele>296</ele>
        <time>2023-09-24T13:23:29Z</time>
      </trkpt>
      <trkpt lat="45.98037" lon="4.91315">
        <ele>296</ele>
        <time>2023-09-24T13:23:30Z</time>
      </trkpt>
      <trkpt lat="45.9804" lon="4.91313">
        <ele>296</ele>
        <time>2023-09-24T13:23:31Z</time>
      </trkpt>
      <trkpt lat="45.98044" lon="4.91311">
        <ele>296</ele>
        <time>2023-09-24T13:23:32Z</time>
      </trkpt>
      <trkpt lat="45.98048" lon="4.91309">
        <ele>296</ele>
        <time>2023-09-24T13:23:33Z</time>
      </trkpt>
      <trkpt lat="45.98051" lon="4.91309">
        <ele>296</ele>
        <time>2023-09-24T13:23:34Z</time>
      </trkpt>
      <trkpt lat="45.98055" lon="4.91308">
        <ele>296</ele>
        <time>2023-09-24T13:23:35Z</time>
      </trkpt>
      <trkpt lat="45.98058" lon="4.91305">
        <ele>296</ele>
        <time>2023-09-24T13:23:36Z</time>
      </trkpt>
      <trkpt lat="45.98062" lon="4.91303">
        <ele>296</ele>
        <time>2023-09-24T13:23:37Z</time>
      </trkpt>
      <trkpt lat="45.98065" lon="4.91301">
        <ele>296</ele>
        <time>2023-09-24T13:23:38Z</time>
      </trkpt>
      <trkpt lat="45.98069" lon="4.91299">
        <ele>296</ele>
        <time>2023-09-24T13:23:40Z</time>
      </trkpt>
      <trkpt lat="45.98072" lon="4.91297">
        <ele>296</ele>
        <time>2023-09-24T13:23:41Z</time>
      </trkpt>
      <trkpt lat="45.98075" lon="4.91295">
        <ele>296</ele>
        <time>2023-09-24T13:23:42Z</time>
      </trkpt>
      <trkpt lat="45.98078" lon="4.91293">
        <ele>296</ele>
        <time>2023-09-24T13:23:43Z</time>
      </trkpt>
      <trkpt lat="45.98082" lon="4.91291">
        <ele>296</ele>
        <time>2023-09-24T13:23:44Z</time>
      </trkpt>
      <trkpt lat="45.98085" lon="4.91289">
        <ele>296</ele>
        <time>2023-09-24T13:23:45Z</time>
      </trkpt>
      <trkpt lat="45.98089" lon="4.91287">
        <ele>296</ele>
        <time>2023-09-24T13:23:46Z</time>
      </trkpt>
      <trkpt lat="45.98092" lon="4.91285">
        <ele>296</ele>
        <time>2023-09-24T13:23:47Z</time>
      </trkpt>
      <trkpt lat="45.98096" lon="4.91284">
        <ele>296</ele>
        <time>2023-09-24T13:23:48Z</time>
      </trkpt>
      <trkpt lat="45.98099" lon="4.91282">
        <ele>296</ele>
        <time>2023-09-24T13:23:49Z</time>
      </trkpt>
      <trkpt lat="45.98103" lon="4.9128">
        <ele>296</ele>
        <time>2023-09-24T13:23:50Z</time>
      </trkpt>
      <trkpt lat="45.98106" lon="4.91278">
        <ele>296</ele>
        <time>2023-09-24T13:23:51Z</time>
      </trkpt>
      <trkpt lat="45.9811" lon="4.91277">
        <ele>296</ele>
        <time>2023-09-24T13:23:52Z</time>
      </trkpt>
      <trkpt lat="45.98113" lon="4.91274">
        <ele>296</ele>
        <time>2023-09-24T13:23:53Z</time>
      </trkpt>
      <trkpt lat="45.98117" lon="4.91272">
        <ele>296</ele>
        <time>2023-09-24T13:23:54Z</time>
      </trkpt>
      <trkpt lat="45.98121" lon="4.91271">
        <ele>296</ele>
        <time>2023-09-24T13:23:55Z</time>
      </trkpt>
      <trkpt lat="45.98125" lon="4.91269">
        <ele>296</ele>
        <time>2023-09-24T13:23:56Z</time>
      </trkpt>
      <trkpt lat="45.98128" lon="4.91268">
        <ele>296</ele>
        <time>2023-09-24T13:23:57Z</time>
      </trkpt>
      <trkpt lat="45.98132" lon="4.91266">
        <ele>296</ele>
        <time>2023-09-24T13:23:58Z</time>
      </trkpt>
      <trkpt lat="45.98136" lon="4.91264">
        <ele>296</ele>
        <time>2023-09-24T13:23:59Z</time>
      </trkpt>
      <trkpt lat="45.9814" lon="4.91263">
        <ele>296</ele>
        <time>2023-09-24T13:24:00Z</time>
      </trkpt>
      <trkpt lat="45.98143" lon="4.91261">
        <ele>296.1</ele>
        <time>2023-09-24T13:24:01Z</time>
      </trkpt>
      <trkpt lat="45.98146" lon="4.91259">
        <ele>296.2</ele>
        <time>2023-09-24T13:24:02Z</time>
      </trkpt>
      <trkpt lat="45.98148" lon="4.91257">
        <ele>296.2</ele>
        <time>2023-09-24T13:24:03Z</time>
      </trkpt>
      <trkpt lat="45.98151" lon="4.91255">
        <ele>296.4</ele>
        <time>2023-09-24T13:24:04Z</time>
      </trkpt>
      <trkpt lat="45.98154" lon="4.91252">
        <ele>296.5</ele>
        <time>2023-09-24T13:24:05Z</time>
      </trkpt>
      <trkpt lat="45.98155" lon="4.91251">
        <ele>296.6</ele>
        <time>2023-09-24T13:24:06Z</time>
      </trkpt>
      <trkpt lat="45.98156" lon="4.91247">
        <ele>296.5</ele>
        <time>2023-09-24T13:24:07Z</time>
      </trkpt>
      <trkpt lat="45.98156" lon="4.91243">
        <ele>296.5</ele>
        <time>2023-09-24T13:24:08Z</time>
      </trkpt>
      <trkpt lat="45.98157" lon="4.91238">
        <ele>296.4</ele>
        <time>2023-09-24T13:24:09Z</time>
      </trkpt>
      <trkpt lat="45.98157" lon="4.91232">
        <ele>296.2</ele>
        <time>2023-09-24T13:24:10Z</time>
      </trkpt>
      <trkpt lat="45.98158" lon="4.91228">
        <ele>296.1</ele>
        <time>2023-09-24T13:24:11Z</time>
      </trkpt>
      <trkpt lat="45.98159" lon="4.91222">
        <ele>296</ele>
        <time>2023-09-24T13:24:12Z</time>
      </trkpt>
      <trkpt lat="45.9816" lon="4.91217">
        <ele>296</ele>
        <time>2023-09-24T13:24:13Z</time>
      </trkpt>
      <trkpt lat="45.9816" lon="4.91211">
        <ele>296</ele>
        <time>2023-09-24T13:24:14Z</time>
      </trkpt>
      <trkpt lat="45.9816" lon="4.91205">
        <ele>296</ele>
        <time>2023-09-24T13:24:15Z</time>
      </trkpt>
      <trkpt lat="45.9816" lon="4.91198">
        <ele>296</ele>
        <time>2023-09-24T13:24:16Z</time>
      </trkpt>
      <trkpt lat="45.9816" lon="4.91192">
        <ele>296</ele>
        <time>2023-09-24T13:24:17Z</time>
      </trkpt>
      <trkpt lat="45.98161" lon="4.91186">
        <ele>296</ele>
        <time>2023-09-24T13:24:18Z</time>
      </trkpt>
      <trkpt lat="45.98161" lon="4.91181">
        <ele>296</ele>
        <time>2023-09-24T13:24:19Z</time>
      </trkpt>
      <trkpt lat="45.98162" lon="4.91175">
        <ele>296</ele>
        <time>2023-09-24T13:24:20Z</time>
      </trkpt>
      <trkpt lat="45.98164" lon="4.9117">
        <ele>296</ele>
        <time>2023-09-24T13:24:21Z</time>
      </trkpt>
      <trkpt lat="45.98166" lon="4.91167">
        <ele>296</ele>
        <time>2023-09-24T13:24:22Z</time>
      </trkpt>
      <trkpt lat="45.98169" lon="4.91164">
        <ele>296</ele>
        <time>2023-09-24T13:24:23Z</time>
      </trkpt>
      <trkpt lat="45.98172" lon="4.91163">
        <ele>296</ele>
        <time>2023-09-24T13:24:24Z</time>
      </trkpt>
      <trkpt lat="45.98176" lon="4.91162">
        <ele>296</ele>
        <time>2023-09-24T13:24:25Z</time>
      </trkpt>
      <trkpt lat="45.98178" lon="4.91163">
        <ele>296</ele>
        <time>2023-09-24T13:24:26Z</time>
      </trkpt>
      <trkpt lat="45.98181" lon="4.91163">
        <ele>296</ele>
        <time>2023-09-24T13:24:27Z</time>
      </trkpt>
      <trkpt lat="45.98185" lon="4.91163">
        <ele>296</ele>
        <time>2023-09-24T13:24:28Z</time>
      </trkpt>
      <trkpt lat="45.98188" lon="4.91162">
        <ele>296</ele>
        <time>2023-09-24T13:24:29Z</time>
      </trkpt>
      <trkpt lat="45.98192" lon="4.91162">
        <ele>296</ele>
        <time>2023-09-24T13:24:30Z</time>
      </trkpt>
      <trkpt lat="45.98194" lon="4.91162">
        <ele>296</ele>
        <time>2023-09-24T13:24:31Z</time>
      </trkpt>
      <trkpt lat="45.98198" lon="4.91162">
        <ele>296</ele>
        <time>2023-09-24T13:24:32Z</time>
      </trkpt>
      <trkpt lat="45.98201" lon="4.91161">
        <ele>296</ele>
        <time>2023-09-24T13:24:33Z</time>
      </trkpt>
      <trkpt lat="45.98204" lon="4.91161">
        <ele>296</ele>
        <time>2023-09-24T13:24:34Z</time>
      </trkpt>
      <trkpt lat="45.98207" lon="4.91158">
        <ele>296</ele>
        <time>2023-09-24T13:24:35Z</time>
      </trkpt>
      <trkpt lat="45.98208" lon="4.91158">
        <ele>296</ele>
        <time>2023-09-24T13:24:36Z</time>
      </trkpt>
      <trkpt lat="45.9821" lon="4.91158">
        <ele>296</ele>
        <time>2023-09-24T13:24:37Z</time>
      </trkpt>
      <trkpt lat="45.9821" lon="4.91158">
        <ele>296</ele>
        <time>2023-09-24T13:24:38Z</time>
      </trkpt>
      <trkpt lat="45.9821" lon="4.91158">
        <ele>296</ele>
        <time>2023-09-24T13:24:39Z</time>
      </trkpt>
      <trkpt lat="45.98211" lon="4.91157">
        <ele>296</ele>
        <time>2023-09-24T13:24:40Z</time>
      </trkpt>
      <trkpt lat="45.98211" lon="4.91157">
        <ele>296</ele>
        <time>2023-09-24T13:24:41Z</time>
      </trkpt>
      <trkpt lat="45.98211" lon="4.91157">
        <ele>296</ele>
        <time>2023-09-24T13:24:42Z</time>
      </trkpt>
      <trkpt lat="45.98212" lon="4.91157">
        <ele>296</ele>
        <time>2023-09-24T13:24:43Z</time>
      </trkpt>
      <trkpt lat="45.98212" lon="4.91157">
        <ele>296</ele>
        <time>2023-09-24T13:24:44Z</time>
      </trkpt>
      <trkpt lat="45.98213" lon="4.91157">
        <ele>296</ele>
        <time>2023-09-24T13:24:45Z</time>
      </trkpt>
      <trkpt lat="45.98213" lon="4.91156">
        <ele>296</ele>
        <time>2023-09-24T13:24:46Z</time>
      </trkpt>
      <trkpt lat="45.98214" lon="4.91156">
        <ele>296</ele>
        <time>2023-09-24T13:26:13Z</time>
      </trkpt>
      <trkpt lat="45.98214" lon="4.91156">
        <ele>296</ele>
        <time>2023-09-24T13:26:14Z</time>
      </trkpt>
      <trkpt lat="45.98215" lon="4.91156">
        <ele>296</ele>
        <time>2023-09-24T13:26:15Z</time>
      </trkpt>
      <trkpt lat="45.98218" lon="4.91156">
        <ele>296</ele>
        <time>2023-09-24T13:26:16Z</time>
      </trkpt>
      <trkpt lat="45.98221" lon="4.91156">
        <ele>296</ele>
        <time>2023-09-24T13:26:17Z</time>
      </trkpt>
      <trkpt lat="45.98224" lon="4.91156">
        <ele>296</ele>
        <time>2023-09-24T13:26:18Z</time>
      </trkpt>
      <trkpt lat="45.98227" lon="4.91156">
        <ele>296.1</ele>
        <time>2023-09-24T13:26:19Z</time>
      </trkpt>
      <trkpt lat="45.9823" lon="4.91156">
        <ele>296.1</ele>
        <time>2023-09-24T13:26:20Z</time>
      </trkpt>
      <trkpt lat="45.98233" lon="4.91155">
        <ele>296.2</ele>
        <time>2023-09-24T13:26:21Z</time>
      </trkpt>
      <trkpt lat="45.98237" lon="4.91155">
        <ele>296.2</ele>
        <time>2023-09-24T13:26:22Z</time>
      </trkpt>
      <trkpt lat="45.9824" lon="4.91155">
        <ele>296.3</ele>
        <time>2023-09-24T13:26:23Z</time>
      </trkpt>
      <trkpt lat="45.98244" lon="4.91155">
        <ele>296.3</ele>
        <time>2023-09-24T13:26:24Z</time>
      </trkpt>
      <trkpt lat="45.98247" lon="4.91155">
        <ele>296.4</ele>
        <time>2023-09-24T13:26:25Z</time>
      </trkpt>
      <trkpt lat="45.98251" lon="4.91155">
        <ele>296.4</ele>
        <time>2023-09-24T13:26:26Z</time>
      </trkpt>
      <trkpt lat="45.98254" lon="4.91155">
        <ele>296.5</ele>
        <time>2023-09-24T13:26:27Z</time>
      </trkpt>
      <trkpt lat="45.98258" lon="4.91155">
        <ele>296.6</ele>
        <time>2023-09-24T13:26:28Z</time>
      </trkpt>
      <trkpt lat="45.98262" lon="4.91154">
        <ele>296.7</ele>
        <time>2023-09-24T13:26:29Z</time>
      </trkpt>
      <trkpt lat="45.98265" lon="4.91154">
        <ele>296.7</ele>
        <time>2023-09-24T13:26:30Z</time>
      </trkpt>
      <trkpt lat="45.98269" lon="4.91154">
        <ele>296.8</ele>
        <time>2023-09-24T13:26:31Z</time>
      </trkpt>
      <trkpt lat="45.98273" lon="4.91154">
        <ele>296.9</ele>
        <time>2023-09-24T13:26:32Z</time>
      </trkpt>
      <trkpt lat="45.98277" lon="4.91154">
        <ele>297</ele>
        <time>2023-09-24T13:26:33Z</time>
      </trkpt>
      <trkpt lat="45.9828" lon="4.91154">
        <ele>297</ele>
        <time>2023-09-24T13:26:34Z</time>
      </trkpt>
      <trkpt lat="45.98284" lon="4.91153">
        <ele>297</ele>
        <time>2023-09-24T13:26:35Z</time>
      </trkpt>
      <trkpt lat="45.98288" lon="4.91153">
        <ele>297</ele>
        <time>2023-09-24T13:26:36Z</time>
      </trkpt>
      <trkpt lat="45.98291" lon="4.91152">
        <ele>297</ele>
        <time>2023-09-24T13:26:37Z</time>
      </trkpt>
      <trkpt lat="45.98295" lon="4.91152">
        <ele>297</ele>
        <time>2023-09-24T13:26:38Z</time>
      </trkpt>
      <trkpt lat="45.98298" lon="4.91151">
        <ele>297</ele>
        <time>2023-09-24T13:26:39Z</time>
      </trkpt>
      <trkpt lat="45.98302" lon="4.91151">
        <ele>297</ele>
        <time>2023-09-24T13:26:40Z</time>
      </trkpt>
      <trkpt lat="45.98306" lon="4.9115">
        <ele>297</ele>
        <time>2023-09-24T13:26:41Z</time>
      </trkpt>
      <trkpt lat="45.98309" lon="4.9115">
        <ele>297</ele>
        <time>2023-09-24T13:26:42Z</time>
      </trkpt>
      <trkpt lat="45.98313" lon="4.91149">
        <ele>297</ele>
        <time>2023-09-24T13:26:43Z</time>
      </trkpt>
      <trkpt lat="45.98316" lon="4.91149">
        <ele>297</ele>
        <time>2023-09-24T13:26:44Z</time>
      </trkpt>
      <trkpt lat="45.9832" lon="4.91148">
        <ele>297</ele>
        <time>2023-09-24T13:26:45Z</time>
      </trkpt>
      <trkpt lat="45.98323" lon="4.91148">
        <ele>297</ele>
        <time>2023-09-24T13:26:46Z</time>
      </trkpt>
      <trkpt lat="45.98327" lon="4.91147">
        <ele>297</ele>
        <time>2023-09-24T13:26:47Z</time>
      </trkpt>
      <trkpt lat="45.98331" lon="4.91146">
        <ele>297</ele>
        <time>2023-09-24T13:26:48Z</time>
      </trkpt>
      <trkpt lat="45.98334" lon="4.91144">
        <ele>297</ele>
        <time>2023-09-24T13:26:49Z</time>
      </trkpt>
      <trkpt lat="45.98338" lon="4.91143">
        <ele>297</ele>
        <time>2023-09-24T13:26:50Z</time>
      </trkpt>
      <trkpt lat="45.98341" lon="4.91142">
        <ele>297</ele>
        <time>2023-09-24T13:26:51Z</time>
      </trkpt>
      <trkpt lat="45.98344" lon="4.91141">
        <ele>297</ele>
        <time>2023-09-24T13:26:52Z</time>
      </trkpt>
      <trkpt lat="45.98348" lon="4.9114">
        <ele>297</ele>
        <time>2023-09-24T13:26:53Z</time>
      </trkpt>
      <trkpt lat="45.98352" lon="4.91139">
        <ele>297</ele>
        <time>2023-09-24T13:26:54Z</time>
      </trkpt>
      <trkpt lat="45.98355" lon="4.91138">
        <ele>297</ele>
        <time>2023-09-24T13:26:55Z</time>
      </trkpt>
      <trkpt lat="45.98358" lon="4.91137">
        <ele>297</ele>
        <time>2023-09-24T13:26:56Z</time>
      </trkpt>
      <trkpt lat="45.98362" lon="4.91136">
        <ele>297</ele>
        <time>2023-09-24T13:26:57Z</time>
      </trkpt>
      <trkpt lat="45.98365" lon="4.91135">
        <ele>297.1</ele>
        <time>2023-09-24T13:26:58Z</time>
      </trkpt>
      <trkpt lat="45.98369" lon="4.91135">
        <ele>297.2</ele>
        <time>2023-09-24T13:26:59Z</time>
      </trkpt>
      <trkpt lat="45.98372" lon="4.91134">
        <ele>297.3</ele>
        <time>2023-09-24T13:27:00Z</time>
      </trkpt>
      <trkpt lat="45.98376" lon="4.91133">
        <ele>297.4</ele>
        <time>2023-09-24T13:27:01Z</time>
      </trkpt>
      <trkpt lat="45.98379" lon="4.91132">
        <ele>297.5</ele>
        <time>2023-09-24T13:27:02Z</time>
      </trkpt>
      <trkpt lat="45.98383" lon="4.91131">
        <ele>297.6</ele>
        <time>2023-09-24T13:27:03Z</time>
      </trkpt>
      <trkpt lat="45.98386" lon="4.9113">
        <ele>297.6</ele>
        <time>2023-09-24T13:27:04Z</time>
      </trkpt>
      <trkpt lat="45.9839" lon="4.91129">
        <ele>297.6</ele>
        <time>2023-09-24T13:27:05Z</time>
      </trkpt>
      <trkpt lat="45.98393" lon="4.91129">
        <ele>297.6</ele>
        <time>2023-09-24T13:27:06Z</time>
      </trkpt>
      <trkpt lat="45.98396" lon="4.91128">
        <ele>297.6</ele>
        <time>2023-09-24T13:27:07Z</time>
      </trkpt>
      <trkpt lat="45.98399" lon="4.91127">
        <ele>297.6</ele>
        <time>2023-09-24T13:27:08Z</time>
      </trkpt>
      <trkpt lat="45.984" lon="4.91127">
        <ele>297.6</ele>
        <time>2023-09-24T13:27:09Z</time>
      </trkpt>
      <trkpt lat="45.98404" lon="4.91126">
        <ele>297.5</ele>
        <time>2023-09-24T13:27:10Z</time>
      </trkpt>
      <trkpt lat="45.98405" lon="4.91125">
        <ele>297.5</ele>
        <time>2023-09-24T13:27:11Z</time>
      </trkpt>
      <trkpt lat="45.98406" lon="4.91125">
        <ele>297.5</ele>
        <time>2023-09-24T13:27:12Z</time>
      </trkpt>
      <trkpt lat="45.98408" lon="4.91124">
        <ele>297.5</ele>
        <time>2023-09-24T13:27:13Z</time>
      </trkpt>
      <trkpt lat="45.98409" lon="4.91124">
        <ele>297.5</ele>
        <time>2023-09-24T13:27:14Z</time>
      </trkpt>
      <trkpt lat="45.98411" lon="4.91123">
        <ele>297.4</ele>
        <time>2023-09-24T13:27:15Z</time>
      </trkpt>
      <trkpt lat="45.98412" lon="4.91123">
        <ele>297.4</ele>
        <time>2023-09-24T13:27:16Z</time>
      </trkpt>
      <trkpt lat="45.98413" lon="4.91123">
        <ele>297.4</ele>
        <time>2023-09-24T13:27:17Z</time>
      </trkpt>
      <trkpt lat="45.98414" lon="4.91123">
        <ele>297.4</ele>
        <time>2023-09-24T13:27:18Z</time>
      </trkpt>
      <trkpt lat="45.98415" lon="4.91123">
        <ele>297.4</ele>
        <time>2023-09-24T13:27:19Z</time>
      </trkpt>
      <trkpt lat="45.98417" lon="4.91123">
        <ele>297.4</ele>
        <time>2023-09-24T13:27:20Z</time>
      </trkpt>
      <trkpt lat="45.98419" lon="4.91121">
        <ele>297.4</ele>
        <time>2023-09-24T13:27:21Z</time>
      </trkpt>
      <trkpt lat="45.9842" lon="4.9112">
        <ele>297.4</ele>
        <time>2023-09-24T13:27:22Z</time>
      </trkpt>
      <trkpt lat="45.98422" lon="4.91119">
        <ele>297.4</ele>
        <time>2023-09-24T13:27:23Z</time>
      </trkpt>
      <trkpt lat="45.98423" lon="4.91119">
        <ele>297.4</ele>
        <time>2023-09-24T13:27:24Z</time>
      </trkpt>
      <trkpt lat="45.98424" lon="4.91119">
        <ele>297.5</ele>
        <time>2023-09-24T13:27:25Z</time>
      </trkpt>
      <trkpt lat="45.98426" lon="4.91118">
        <ele>297.5</ele>
        <time>2023-09-24T13:27:26Z</time>
      </trkpt>
      <trkpt lat="45.98427" lon="4.91118">
        <ele>297.5</ele>
        <time>2023-09-24T13:27:27Z</time>
      </trkpt>
      <trkpt lat="45.98428" lon="4.91118">
        <ele>297.6</ele>
        <time>2023-09-24T13:27:28Z</time>
      </trkpt>
      <trkpt lat="45.98429" lon="4.91118">
        <ele>297.6</ele>
        <time>2023-09-24T13:27:29Z</time>
      </trkpt>
      <trkpt lat="45.9843" lon="4.91119">
        <ele>297.6</ele>
        <time>2023-09-24T13:27:30Z</time>
      </trkpt>
      <trkpt lat="45.98433" lon="4.91119">
        <ele>297.7</ele>
        <time>2023-09-24T13:27:31Z</time>
      </trkpt>
      <trkpt lat="45.98434" lon="4.91118">
        <ele>297.7</ele>
        <time>2023-09-24T13:27:32Z</time>
      </trkpt>
      <trkpt lat="45.98437" lon="4.91116">
        <ele>297.8</ele>
        <time>2023-09-24T13:27:33Z</time>
      </trkpt>
      <trkpt lat="45.98438" lon="4.91116">
        <ele>297.8</ele>
        <time>2023-09-24T13:27:34Z</time>
      </trkpt>
      <trkpt lat="45.98441" lon="4.91115">
        <ele>297.9</ele>
        <time>2023-09-24T13:27:35Z</time>
      </trkpt>
      <trkpt lat="45.98442" lon="4.91115">
        <ele>297.9</ele>
        <time>2023-09-24T13:27:36Z</time>
      </trkpt>
      <trkpt lat="45.98444" lon="4.91115">
        <ele>298</ele>
        <time>2023-09-24T13:27:37Z</time>
      </trkpt>
      <trkpt lat="45.98445" lon="4.91115">
        <ele>298</ele>
        <time>2023-09-24T13:27:38Z</time>
      </trkpt>
      <trkpt lat="45.98447" lon="4.91114">
        <ele>298</ele>
        <time>2023-09-24T13:27:39Z</time>
      </trkpt>
      <trkpt lat="45.98449" lon="4.91113">
        <ele>298</ele>
        <time>2023-09-24T13:27:40Z</time>
      </trkpt>
      <trkpt lat="45.98453" lon="4.91112">
        <ele>298</ele>
        <time>2023-09-24T13:27:41Z</time>
      </trkpt>
      <trkpt lat="45.98454" lon="4.91112">
        <ele>298</ele>
        <time>2023-09-24T13:27:42Z</time>
      </trkpt>
      <trkpt lat="45.98457" lon="4.91111">
        <ele>298</ele>
        <time>2023-09-24T13:27:43Z</time>
      </trkpt>
      <trkpt lat="45.9846" lon="4.91111">
        <ele>298</ele>
        <time>2023-09-24T13:27:44Z</time>
      </trkpt>
      <trkpt lat="45.98463" lon="4.9111">
        <ele>298</ele>
        <time>2023-09-24T13:27:46Z</time>
      </trkpt>
      <trkpt lat="45.98467" lon="4.91109">
        <ele>297.9</ele>
        <time>2023-09-24T13:27:47Z</time>
      </trkpt>
      <trkpt lat="45.9847" lon="4.91108">
        <ele>297.9</ele>
        <time>2023-09-24T13:27:48Z</time>
      </trkpt>
      <trkpt lat="45.98473" lon="4.91107">
        <ele>297.9</ele>
        <time>2023-09-24T13:27:49Z</time>
      </trkpt>
      <trkpt lat="45.98477" lon="4.91106">
        <ele>297.8</ele>
        <time>2023-09-24T13:27:50Z</time>
      </trkpt>
      <trkpt lat="45.98481" lon="4.91106">
        <ele>297.8</ele>
        <time>2023-09-24T13:27:51Z</time>
      </trkpt>
      <trkpt lat="45.98484" lon="4.91105">
        <ele>297.8</ele>
        <time>2023-09-24T13:27:52Z</time>
      </trkpt>
      <trkpt lat="45.98487" lon="4.91104">
        <ele>297.7</ele>
        <time>2023-09-24T13:27:53Z</time>
      </trkpt>
      <trkpt lat="45.98491" lon="4.91103">
        <ele>297.7</ele>
        <time>2023-09-24T13:27:54Z</time>
      </trkpt>
      <trkpt lat="45.98494" lon="4.91102">
        <ele>297.7</ele>
        <time>2023-09-24T13:27:55Z</time>
      </trkpt>
      <trkpt lat="45.98497" lon="4.91101">
        <ele>297.6</ele>
        <time>2023-09-24T13:27:56Z</time>
      </trkpt>
      <trkpt lat="45.98501" lon="4.91101">
        <ele>297.6</ele>
        <time>2023-09-24T13:27:57Z</time>
      </trkpt>
      <trkpt lat="45.98504" lon="4.911">
        <ele>297.6</ele>
        <time>2023-09-24T13:27:58Z</time>
      </trkpt>
      <trkpt lat="45.98508" lon="4.91099">
        <ele>297.6</ele>
        <time>2023-09-24T13:27:59Z</time>
      </trkpt>
      <trkpt lat="45.98511" lon="4.91098">
        <ele>297.5</ele>
        <time>2023-09-24T13:28:00Z</time>
      </trkpt>
      <trkpt lat="45.98515" lon="4.91097">
        <ele>297.5</ele>
        <time>2023-09-24T13:28:01Z</time>
      </trkpt>
      <trkpt lat="45.98518" lon="4.91096">
        <ele>297.5</ele>
        <time>2023-09-24T13:28:02Z</time>
      </trkpt>
      <trkpt lat="45.98522" lon="4.91095">
        <ele>297.4</ele>
        <time>2023-09-24T13:28:03Z</time>
      </trkpt>
      <trkpt lat="45.98525" lon="4.91094">
        <ele>297.4</ele>
        <time>2023-09-24T13:28:04Z</time>
      </trkpt>
      <trkpt lat="45.98529" lon="4.91094">
        <ele>297.4</ele>
        <time>2023-09-24T13:28:05Z</time>
      </trkpt>
      <trkpt lat="45.98532" lon="4.91093">
        <ele>297.3</ele>
        <time>2023-09-24T13:28:06Z</time>
      </trkpt>
      <trkpt lat="45.98536" lon="4.91092">
        <ele>297.3</ele>
        <time>2023-09-24T13:28:07Z</time>
      </trkpt>
      <trkpt lat="45.9854" lon="4.91091">
        <ele>297.3</ele>
        <time>2023-09-24T13:28:08Z</time>
      </trkpt>
      <trkpt lat="45.98543" lon="4.9109">
        <ele>297.2</ele>
        <time>2023-09-24T13:28:09Z</time>
      </trkpt>
      <trkpt lat="45.98547" lon="4.91089">
        <ele>297.2</ele>
        <time>2023-09-24T13:28:10Z</time>
      </trkpt>
      <trkpt lat="45.98551" lon="4.91088">
        <ele>297.2</ele>
        <time>2023-09-24T13:28:11Z</time>
      </trkpt>
      <trkpt lat="45.98555" lon="4.91087">
        <ele>297.1</ele>
        <time>2023-09-24T13:28:12Z</time>
      </trkpt>
      <trkpt lat="45.98558" lon="4.91086">
        <ele>297.2</ele>
        <time>2023-09-24T13:28:13Z</time>
      </trkpt>
      <trkpt lat="45.98562" lon="4.91084">
        <ele>297.3</ele>
        <time>2023-09-24T13:28:14Z</time>
      </trkpt>
      <trkpt lat="45.98565" lon="4.91083">
        <ele>297.3</ele>
        <time>2023-09-24T13:28:15Z</time>
      </trkpt>
      <trkpt lat="45.98569" lon="4.91081">
        <ele>297.5</ele>
        <time>2023-09-24T13:28:16Z</time>
      </trkpt>
      <trkpt lat="45.98572" lon="4.91079">
        <ele>297.6</ele>
        <time>2023-09-24T13:28:17Z</time>
      </trkpt>
      <trkpt lat="45.98575" lon="4.91076">
        <ele>297.7</ele>
        <time>2023-09-24T13:28:18Z</time>
      </trkpt>
      <trkpt lat="45.98578" lon="4.91073">
        <ele>297.8</ele>
        <time>2023-09-24T13:28:19Z</time>
      </trkpt>
      <trkpt lat="45.98581" lon="4.91069">
        <ele>297.9</ele>
        <time>2023-09-24T13:28:20Z</time>
      </trkpt>
      <trkpt lat="45.98584" lon="4.91066">
        <ele>298</ele>
        <time>2023-09-24T13:28:21Z</time>
      </trkpt>
      <trkpt lat="45.98587" lon="4.91062">
        <ele>298</ele>
        <time>2023-09-24T13:28:22Z</time>
      </trkpt>
      <trkpt lat="45.98589" lon="4.91058">
        <ele>298</ele>
        <time>2023-09-24T13:28:23Z</time>
      </trkpt>
      <trkpt lat="45.98592" lon="4.91053">
        <ele>298</ele>
        <time>2023-09-24T13:28:24Z</time>
      </trkpt>
      <trkpt lat="45.98595" lon="4.91049">
        <ele>298</ele>
        <time>2023-09-24T13:28:25Z</time>
      </trkpt>
      <trkpt lat="45.98597" lon="4.91044">
        <ele>298</ele>
        <time>2023-09-24T13:28:26Z</time>
      </trkpt>
      <trkpt lat="45.98599" lon="4.9104">
        <ele>298</ele>
        <time>2023-09-24T13:28:27Z</time>
      </trkpt>
      <trkpt lat="45.98601" lon="4.91035">
        <ele>298</ele>
        <time>2023-09-24T13:28:28Z</time>
      </trkpt>
      <trkpt lat="45.98603" lon="4.9103">
        <ele>298</ele>
        <time>2023-09-24T13:28:29Z</time>
      </trkpt>
      <trkpt lat="45.98605" lon="4.91026">
        <ele>298</ele>
        <time>2023-09-24T13:28:30Z</time>
      </trkpt>
      <trkpt lat="45.98608" lon="4.91021">
        <ele>298</ele>
        <time>2023-09-24T13:28:31Z</time>
      </trkpt>
      <trkpt lat="45.98611" lon="4.91017">
        <ele>298</ele>
        <time>2023-09-24T13:28:32Z</time>
      </trkpt>
      <trkpt lat="45.98613" lon="4.91013">
        <ele>298</ele>
        <time>2023-09-24T13:28:33Z</time>
      </trkpt>
      <trkpt lat="45.98616" lon="4.91009">
        <ele>298</ele>
        <time>2023-09-24T13:28:34Z</time>
      </trkpt>
      <trkpt lat="45.98619" lon="4.91005">
        <ele>298</ele>
        <time>2023-09-24T13:28:35Z</time>
      </trkpt>
      <trkpt lat="45.98621" lon="4.91001">
        <ele>298</ele>
        <time>2023-09-24T13:28:36Z</time>
      </trkpt>
      <trkpt lat="45.98624" lon="4.90997">
        <ele>298</ele>
        <time>2023-09-24T13:28:37Z</time>
      </trkpt>
      <trkpt lat="45.98626" lon="4.90992">
        <ele>298</ele>
        <time>2023-09-24T13:28:38Z</time>
      </trkpt>
      <trkpt lat="45.98629" lon="4.90988">
        <ele>298</ele>
        <time>2023-09-24T13:28:39Z</time>
      </trkpt>
      <trkpt lat="45.98632" lon="4.90984">
        <ele>298</ele>
        <time>2023-09-24T13:28:40Z</time>
      </trkpt>
      <trkpt lat="45.98635" lon="4.9098">
        <ele>298</ele>
        <time>2023-09-24T13:28:41Z</time>
      </trkpt>
      <trkpt lat="45.98637" lon="4.90977">
        <ele>298</ele>
        <time>2023-09-24T13:28:42Z</time>
      </trkpt>
      <trkpt lat="45.9864" lon="4.90973">
        <ele>298</ele>
        <time>2023-09-24T13:28:43Z</time>
      </trkpt>
      <trkpt lat="45.98644" lon="4.9097">
        <ele>298.2</ele>
        <time>2023-09-24T13:28:44Z</time>
      </trkpt>
      <trkpt lat="45.98647" lon="4.90967">
        <ele>298.3</ele>
        <time>2023-09-24T13:28:45Z</time>
      </trkpt>
      <trkpt lat="45.98651" lon="4.90965">
        <ele>298.4</ele>
        <time>2023-09-24T13:28:46Z</time>
      </trkpt>
      <trkpt lat="45.98654" lon="4.90963">
        <ele>298.5</ele>
        <time>2023-09-24T13:28:47Z</time>
      </trkpt>
      <trkpt lat="45.98658" lon="4.90962">
        <ele>298.7</ele>
        <time>2023-09-24T13:28:48Z</time>
      </trkpt>
      <trkpt lat="45.98662" lon="4.90961">
        <ele>298.8</ele>
        <time>2023-09-24T13:28:49Z</time>
      </trkpt>
      <trkpt lat="45.98666" lon="4.9096">
        <ele>299</ele>
        <time>2023-09-24T13:28:50Z</time>
      </trkpt>
      <trkpt lat="45.98669" lon="4.9096">
        <ele>299</ele>
        <time>2023-09-24T13:28:51Z</time>
      </trkpt>
      <trkpt lat="45.98673" lon="4.9096">
        <ele>299</ele>
        <time>2023-09-24T13:28:52Z</time>
      </trkpt>
      <trkpt lat="45.98677" lon="4.90961">
        <ele>299</ele>
        <time>2023-09-24T13:28:53Z</time>
      </trkpt>
      <trkpt lat="45.98681" lon="4.90961">
        <ele>299</ele>
        <time>2023-09-24T13:28:54Z</time>
      </trkpt>
      <trkpt lat="45.98684" lon="4.90961">
        <ele>299</ele>
        <time>2023-09-24T13:28:55Z</time>
      </trkpt>
      <trkpt lat="45.98688" lon="4.90961">
        <ele>299</ele>
        <time>2023-09-24T13:28:56Z</time>
      </trkpt>
      <trkpt lat="45.98692" lon="4.90961">
        <ele>299</ele>
        <time>2023-09-24T13:28:57Z</time>
      </trkpt>
      <trkpt lat="45.98696" lon="4.90961">
        <ele>299</ele>
        <time>2023-09-24T13:28:58Z</time>
      </trkpt>
      <trkpt lat="45.987" lon="4.90961">
        <ele>299</ele>
        <time>2023-09-24T13:28:59Z</time>
      </trkpt>
      <trkpt lat="45.98704" lon="4.90961">
        <ele>299</ele>
        <time>2023-09-24T13:29:00Z</time>
      </trkpt>
      <trkpt lat="45.98708" lon="4.90961">
        <ele>299</ele>
        <time>2023-09-24T13:29:01Z</time>
      </trkpt>
      <trkpt lat="45.98712" lon="4.90961">
        <ele>299</ele>
        <time>2023-09-24T13:29:02Z</time>
      </trkpt>
      <trkpt lat="45.98716" lon="4.90961">
        <ele>299</ele>
        <time>2023-09-24T13:29:03Z</time>
      </trkpt>
      <trkpt lat="45.9872" lon="4.90961">
        <ele>299</ele>
        <time>2023-09-24T13:29:04Z</time>
      </trkpt>
      <trkpt lat="45.98724" lon="4.90962">
        <ele>299</ele>
        <time>2023-09-24T13:29:05Z</time>
      </trkpt>
      <trkpt lat="45.98728" lon="4.90962">
        <ele>299</ele>
        <time>2023-09-24T13:29:06Z</time>
      </trkpt>
      <trkpt lat="45.98732" lon="4.90962">
        <ele>299</ele>
        <time>2023-09-24T13:29:07Z</time>
      </trkpt>
      <trkpt lat="45.98736" lon="4.90962">
        <ele>299</ele>
        <time>2023-09-24T13:29:08Z</time>
      </trkpt>
      <trkpt lat="45.98739" lon="4.90962">
        <ele>299</ele>
        <time>2023-09-24T13:29:09Z</time>
      </trkpt>
      <trkpt lat="45.98743" lon="4.90962">
        <ele>299</ele>
        <time>2023-09-24T13:29:10Z</time>
      </trkpt>
      <trkpt lat="45.98747" lon="4.90962">
        <ele>299</ele>
        <time>2023-09-24T13:29:11Z</time>
      </trkpt>
      <trkpt lat="45.98751" lon="4.90962">
        <ele>299</ele>
        <time>2023-09-24T13:29:12Z</time>
      </trkpt>
      <trkpt lat="45.98755" lon="4.90962">
        <ele>299</ele>
        <time>2023-09-24T13:29:13Z</time>
      </trkpt>
      <trkpt lat="45.98759" lon="4.90962">
        <ele>299</ele>
        <time>2023-09-24T13:29:14Z</time>
      </trkpt>
      <trkpt lat="45.98763" lon="4.90962">
        <ele>299</ele>
        <time>2023-09-24T13:29:15Z</time>
      </trkpt>
      <trkpt lat="45.98767" lon="4.90962">
        <ele>299</ele>
        <time>2023-09-24T13:29:16Z</time>
      </trkpt>
      <trkpt lat="45.98771" lon="4.90962">
        <ele>299</ele>
        <time>2023-09-24T13:29:17Z</time>
      </trkpt>
      <trkpt lat="45.98775" lon="4.90962">
        <ele>299</ele>
        <time>2023-09-24T13:29:18Z</time>
      </trkpt>
      <trkpt lat="45.98779" lon="4.90962">
        <ele>299</ele>
        <time>2023-09-24T13:29:19Z</time>
      </trkpt>
      <trkpt lat="45.98783" lon="4.90962">
        <ele>299</ele>
        <time>2023-09-24T13:29:20Z</time>
      </trkpt>
      <trkpt lat="45.98787" lon="4.90962">
        <ele>299</ele>
        <time>2023-09-24T13:29:21Z</time>
      </trkpt>
      <trkpt lat="45.98791" lon="4.90962">
        <ele>299</ele>
        <time>2023-09-24T13:29:22Z</time>
      </trkpt>
      <trkpt lat="45.98796" lon="4.90962">
        <ele>299</ele>
        <time>2023-09-24T13:29:23Z</time>
      </trkpt>
      <trkpt lat="45.988" lon="4.90962">
        <ele>299</ele>
        <time>2023-09-24T13:29:24Z</time>
      </trkpt>
      <trkpt lat="45.98803" lon="4.90962">
        <ele>299</ele>
        <time>2023-09-24T13:29:25Z</time>
      </trkpt>
      <trkpt lat="45.98808" lon="4.90962">
        <ele>298.9</ele>
        <time>2023-09-24T13:29:26Z</time>
      </trkpt>
      <trkpt lat="45.98812" lon="4.90962">
        <ele>298.8</ele>
        <time>2023-09-24T13:29:27Z</time>
      </trkpt>
      <trkpt lat="45.98816" lon="4.90963">
        <ele>298.6</ele>
        <time>2023-09-24T13:29:28Z</time>
      </trkpt>
      <trkpt lat="45.9882" lon="4.90963">
        <ele>298.5</ele>
        <time>2023-09-24T13:29:29Z</time>
      </trkpt>
      <trkpt lat="45.98824" lon="4.90963">
        <ele>298.3</ele>
        <time>2023-09-24T13:29:30Z</time>
      </trkpt>
      <trkpt lat="45.98828" lon="4.90963">
        <ele>298.2</ele>
        <time>2023-09-24T13:29:31Z</time>
      </trkpt>
      <trkpt lat="45.98832" lon="4.90964">
        <ele>298</ele>
        <time>2023-09-24T13:29:32Z</time>
      </trkpt>
      <trkpt lat="45.98836" lon="4.90964">
        <ele>298</ele>
        <time>2023-09-24T13:29:33Z</time>
      </trkpt>
      <trkpt lat="45.98841" lon="4.90964">
        <ele>298</ele>
        <time>2023-09-24T13:29:34Z</time>
      </trkpt>
      <trkpt lat="45.98845" lon="4.90964">
        <ele>298</ele>
        <time>2023-09-24T13:29:35Z</time>
      </trkpt>
      <trkpt lat="45.9885" lon="4.90965">
        <ele>298</ele>
        <time>2023-09-24T13:29:36Z</time>
      </trkpt>
      <trkpt lat="45.98854" lon="4.90965">
        <ele>298</ele>
        <time>2023-09-24T13:29:37Z</time>
      </trkpt>
      <trkpt lat="45.98858" lon="4.90966">
        <ele>298</ele>
        <time>2023-09-24T13:29:38Z</time>
      </trkpt>
      <trkpt lat="45.98863" lon="4.90966">
        <ele>298</ele>
        <time>2023-09-24T13:29:39Z</time>
      </trkpt>
      <trkpt lat="45.98867" lon="4.90967">
        <ele>298</ele>
        <time>2023-09-24T13:29:40Z</time>
      </trkpt>
      <trkpt lat="45.98871" lon="4.90967">
        <ele>298</ele>
        <time>2023-09-24T13:29:41Z</time>
      </trkpt>
      <trkpt lat="45.98876" lon="4.90967">
        <ele>298</ele>
        <time>2023-09-24T13:29:42Z</time>
      </trkpt>
      <trkpt lat="45.98881" lon="4.90967">
        <ele>298</ele>
        <time>2023-09-24T13:29:43Z</time>
      </trkpt>
      <trkpt lat="45.98885" lon="4.90967">
        <ele>298</ele>
        <time>2023-09-24T13:29:44Z</time>
      </trkpt>
      <trkpt lat="45.98889" lon="4.90968">
        <ele>298</ele>
        <time>2023-09-24T13:29:45Z</time>
      </trkpt>
      <trkpt lat="45.98894" lon="4.90968">
        <ele>298</ele>
        <time>2023-09-24T13:29:46Z</time>
      </trkpt>
      <trkpt lat="45.98898" lon="4.90968">
        <ele>298</ele>
        <time>2023-09-24T13:29:47Z</time>
      </trkpt>
      <trkpt lat="45.98902" lon="4.90968">
        <ele>298</ele>
        <time>2023-09-24T13:29:48Z</time>
      </trkpt>
      <trkpt lat="45.98907" lon="4.90968">
        <ele>298</ele>
        <time>2023-09-24T13:29:49Z</time>
      </trkpt>
      <trkpt lat="45.98911" lon="4.90968">
        <ele>298</ele>
        <time>2023-09-24T13:29:50Z</time>
      </trkpt>
      <trkpt lat="45.98915" lon="4.90968">
        <ele>298</ele>
        <time>2023-09-24T13:29:51Z</time>
      </trkpt>
      <trkpt lat="45.98919" lon="4.90968">
        <ele>298</ele>
        <time>2023-09-24T13:29:52Z</time>
      </trkpt>
      <trkpt lat="45.98924" lon="4.90968">
        <ele>298</ele>
        <time>2023-09-24T13:29:53Z</time>
      </trkpt>
      <trkpt lat="45.98928" lon="4.90967">
        <ele>298</ele>
        <time>2023-09-24T13:29:54Z</time>
      </trkpt>
      <trkpt lat="45.98932" lon="4.90967">
        <ele>298</ele>
        <time>2023-09-24T13:29:55Z</time>
      </trkpt>
      <trkpt lat="45.98936" lon="4.90967">
        <ele>298</ele>
        <time>2023-09-24T13:29:56Z</time>
      </trkpt>
      <trkpt lat="45.98941" lon="4.90966">
        <ele>298</ele>
        <time>2023-09-24T13:29:57Z</time>
      </trkpt>
      <trkpt lat="45.98945" lon="4.90966">
        <ele>298</ele>
        <time>2023-09-24T13:29:58Z</time>
      </trkpt>
      <trkpt lat="45.98948" lon="4.90965">
        <ele>298.1</ele>
        <time>2023-09-24T13:29:59Z</time>
      </trkpt>
      <trkpt lat="45.98954" lon="4.90964">
        <ele>298.2</ele>
        <time>2023-09-24T13:30:00Z</time>
      </trkpt>
      <trkpt lat="45.98958" lon="4.90964">
        <ele>298.3</ele>
        <time>2023-09-24T13:30:01Z</time>
      </trkpt>
      <trkpt lat="45.98962" lon="4.90963">
        <ele>298.4</ele>
        <time>2023-09-24T13:30:02Z</time>
      </trkpt>
      <trkpt lat="45.98966" lon="4.90963">
        <ele>298.5</ele>
        <time>2023-09-24T13:30:03Z</time>
      </trkpt>
      <trkpt lat="45.98971" lon="4.90962">
        <ele>298.6</ele>
        <time>2023-09-24T13:30:04Z</time>
      </trkpt>
      <trkpt lat="45.98975" lon="4.90962">
        <ele>298.6</ele>
        <time>2023-09-24T13:30:05Z</time>
      </trkpt>
      <trkpt lat="45.98979" lon="4.90961">
        <ele>298.5</ele>
        <time>2023-09-24T13:30:06Z</time>
      </trkpt>
      <trkpt lat="45.98984" lon="4.90961">
        <ele>298.3</ele>
        <time>2023-09-24T13:30:07Z</time>
      </trkpt>
      <trkpt lat="45.98988" lon="4.9096">
        <ele>298.2</ele>
        <time>2023-09-24T13:30:08Z</time>
      </trkpt>
      <trkpt lat="45.98992" lon="4.9096">
        <ele>298.2</ele>
        <time>2023-09-24T13:30:09Z</time>
      </trkpt>
      <trkpt lat="45.98997" lon="4.90959">
        <ele>298.1</ele>
        <time>2023-09-24T13:30:10Z</time>
      </trkpt>
      <trkpt lat="45.99001" lon="4.90959">
        <ele>298</ele>
        <time>2023-09-24T13:30:11Z</time>
      </trkpt>
      <trkpt lat="45.99005" lon="4.90959">
        <ele>298.1</ele>
        <time>2023-09-24T13:30:12Z</time>
      </trkpt>
      <trkpt lat="45.9901" lon="4.90958">
        <ele>298.2</ele>
        <time>2023-09-24T13:30:13Z</time>
      </trkpt>
      <trkpt lat="45.99014" lon="4.90957">
        <ele>298.2</ele>
        <time>2023-09-24T13:30:14Z</time>
      </trkpt>
      <trkpt lat="45.99018" lon="4.90957">
        <ele>298.3</ele>
        <time>2023-09-24T13:30:15Z</time>
      </trkpt>
      <trkpt lat="45.99023" lon="4.90957">
        <ele>298.4</ele>
        <time>2023-09-24T13:30:16Z</time>
      </trkpt>
      <trkpt lat="45.99027" lon="4.90956">
        <ele>298.4</ele>
        <time>2023-09-24T13:30:17Z</time>
      </trkpt>
      <trkpt lat="45.99032" lon="4.90955">
        <ele>298.5</ele>
        <time>2023-09-24T13:30:18Z</time>
      </trkpt>
      <trkpt lat="45.99036" lon="4.90955">
        <ele>298.6</ele>
        <time>2023-09-24T13:30:19Z</time>
      </trkpt>
      <trkpt lat="45.9904" lon="4.90955">
        <ele>298.7</ele>
        <time>2023-09-24T13:30:20Z</time>
      </trkpt>
      <trkpt lat="45.99045" lon="4.90955">
        <ele>298.8</ele>
        <time>2023-09-24T13:30:21Z</time>
      </trkpt>
      <trkpt lat="45.99049" lon="4.90956">
        <ele>298.9</ele>
        <time>2023-09-24T13:30:22Z</time>
      </trkpt>
      <trkpt lat="45.99053" lon="4.90959">
        <ele>299</ele>
        <time>2023-09-24T13:30:23Z</time>
      </trkpt>
      <trkpt lat="45.99056" lon="4.90964">
        <ele>299</ele>
        <time>2023-09-24T13:30:24Z</time>
      </trkpt>
      <trkpt lat="45.99057" lon="4.9097">
        <ele>299</ele>
        <time>2023-09-24T13:30:25Z</time>
      </trkpt>
      <trkpt lat="45.99056" lon="4.90977">
        <ele>299</ele>
        <time>2023-09-24T13:30:26Z</time>
      </trkpt>
      <trkpt lat="45.99056" lon="4.90984">
        <ele>299</ele>
        <time>2023-09-24T13:30:27Z</time>
      </trkpt>
      <trkpt lat="45.99054" lon="4.90989">
        <ele>299</ele>
        <time>2023-09-24T13:30:28Z</time>
      </trkpt>
      <trkpt lat="45.99054" lon="4.90995">
        <ele>299</ele>
        <time>2023-09-24T13:30:29Z</time>
      </trkpt>
      <trkpt lat="45.99053" lon="4.91001">
        <ele>299</ele>
        <time>2023-09-24T13:30:30Z</time>
      </trkpt>
      <trkpt lat="45.99052" lon="4.91007">
        <ele>299</ele>
        <time>2023-09-24T13:30:31Z</time>
      </trkpt>
      <trkpt lat="45.99051" lon="4.91013">
        <ele>299</ele>
        <time>2023-09-24T13:30:32Z</time>
      </trkpt>
      <trkpt lat="45.9905" lon="4.91019">
        <ele>299</ele>
        <time>2023-09-24T13:30:33Z</time>
      </trkpt>
      <trkpt lat="45.99048" lon="4.91026">
        <ele>299</ele>
        <time>2023-09-24T13:30:34Z</time>
      </trkpt>
      <trkpt lat="45.99047" lon="4.91032">
        <ele>299</ele>
        <time>2023-09-24T13:30:35Z</time>
      </trkpt>
      <trkpt lat="45.99046" lon="4.91039">
        <ele>299</ele>
        <time>2023-09-24T13:30:36Z</time>
      </trkpt>
      <trkpt lat="45.99045" lon="4.91045">
        <ele>299</ele>
        <time>2023-09-24T13:30:37Z</time>
      </trkpt>
      <trkpt lat="45.99044" lon="4.91052">
        <ele>299</ele>
        <time>2023-09-24T13:30:38Z</time>
      </trkpt>
      <trkpt lat="45.99043" lon="4.91058">
        <ele>299</ele>
        <time>2023-09-24T13:30:39Z</time>
      </trkpt>
      <trkpt lat="45.99042" lon="4.91064">
        <ele>299.2</ele>
        <time>2023-09-24T13:30:40Z</time>
      </trkpt>
      <trkpt lat="45.99041" lon="4.9107">
        <ele>299.2</ele>
        <time>2023-09-24T13:30:41Z</time>
      </trkpt>
      <trkpt lat="45.9904" lon="4.91075">
        <ele>299.3</ele>
        <time>2023-09-24T13:30:42Z</time>
      </trkpt>
      <trkpt lat="45.99039" lon="4.91081">
        <ele>299.4</ele>
        <time>2023-09-24T13:30:43Z</time>
      </trkpt>
      <trkpt lat="45.99037" lon="4.91086">
        <ele>299.3</ele>
        <time>2023-09-24T13:30:44Z</time>
      </trkpt>
      <trkpt lat="45.99036" lon="4.91091">
        <ele>299.3</ele>
        <time>2023-09-24T13:30:45Z</time>
      </trkpt>
      <trkpt lat="45.99034" lon="4.91095">
        <ele>299.2</ele>
        <time>2023-09-24T13:30:46Z</time>
      </trkpt>
      <trkpt lat="45.99033" lon="4.91099">
        <ele>299.2</ele>
        <time>2023-09-24T13:30:47Z</time>
      </trkpt>
      <trkpt lat="45.99032" lon="4.91102">
        <ele>299.2</ele>
        <time>2023-09-24T13:30:48Z</time>
      </trkpt>
      <trkpt lat="45.99032" lon="4.91103">
        <ele>299.2</ele>
        <time>2023-09-24T13:30:49Z</time>
      </trkpt>
      <trkpt lat="45.99032" lon="4.91103">
        <ele>299.2</ele>
        <time>2023-09-24T13:30:50Z</time>
      </trkpt>
      <trkpt lat="45.99032" lon="4.91104">
        <ele>299.2</ele>
        <time>2023-09-24T13:30:51Z</time>
      </trkpt>
      <trkpt lat="45.99032" lon="4.91104">
        <ele>299.2</ele>
        <time>2023-09-24T13:30:52Z</time>
      </trkpt>
      <trkpt lat="45.99033" lon="4.91105">
        <ele>299.2</ele>
        <time>2023-09-24T13:30:53Z</time>
      </trkpt>
      <trkpt lat="45.99033" lon="4.91106">
        <ele>299.2</ele>
        <time>2023-09-24T13:30:54Z</time>
      </trkpt>
      <trkpt lat="45.99033" lon="4.91106">
        <ele>299.2</ele>
        <time>2023-09-24T13:30:55Z</time>
      </trkpt>
      <trkpt lat="45.99033" lon="4.91107">
        <ele>299.2</ele>
        <time>2023-09-24T13:30:56Z</time>
      </trkpt>
      <trkpt lat="45.99033" lon="4.91107">
        <ele>299.2</ele>
        <time>2023-09-24T13:30:57Z</time>
      </trkpt>
      <trkpt lat="45.99033" lon="4.91108">
        <ele>299.2</ele>
        <time>2023-09-24T13:33:21Z</time>
      </trkpt>
      <trkpt lat="45.99033" lon="4.91108">
        <ele>299.2</ele>
        <time>2023-09-24T13:33:22Z</time>
      </trkpt>
      <trkpt lat="45.99033" lon="4.91109">
        <ele>299.2</ele>
        <time>2023-09-24T13:33:23Z</time>
      </trkpt>
      <trkpt lat="45.99034" lon="4.91113">
        <ele>299.3</ele>
        <time>2023-09-24T13:33:24Z</time>
      </trkpt>
      <trkpt lat="45.99034" lon="4.91115">
        <ele>299.3</ele>
        <time>2023-09-24T13:33:25Z</time>
      </trkpt>
      <trkpt lat="45.99035" lon="4.91119">
        <ele>299.5</ele>
        <time>2023-09-24T13:33:26Z</time>
      </trkpt>
      <trkpt lat="45.99035" lon="4.9112">
        <ele>299.5</ele>
        <time>2023-09-24T13:33:27Z</time>
      </trkpt>
      <trkpt lat="45.99034" lon="4.91122">
        <ele>299.5</ele>
        <time>2023-09-24T13:33:28Z</time>
      </trkpt>
      <trkpt lat="45.99035" lon="4.91121">
        <ele>299.5</ele>
        <time>2023-09-24T13:33:29Z</time>
      </trkpt>
      <trkpt lat="45.99035" lon="4.91121">
        <ele>299.5</ele>
        <time>2023-09-24T13:33:30Z</time>
      </trkpt>
      <trkpt lat="45.99035" lon="4.91121">
        <ele>299.5</ele>
        <time>2023-09-24T13:33:31Z</time>
      </trkpt>
      <trkpt lat="45.99035" lon="4.91121">
        <ele>299.5</ele>
        <time>2023-09-24T13:33:32Z</time>
      </trkpt>
      <trkpt lat="45.99035" lon="4.91121">
        <ele>299.5</ele>
        <time>2023-09-24T13:33:33Z</time>
      </trkpt>
      <trkpt lat="45.99034" lon="4.91124">
        <ele>299.6</ele>
        <time>2023-09-24T13:33:34Z</time>
      </trkpt>
      <trkpt lat="45.99034" lon="4.91128">
        <ele>299.7</ele>
        <time>2023-09-24T13:33:35Z</time>
      </trkpt>
      <trkpt lat="45.99034" lon="4.91131">
        <ele>299.8</ele>
        <time>2023-09-24T13:33:36Z</time>
      </trkpt>
      <trkpt lat="45.99033" lon="4.91135">
        <ele>299.9</ele>
        <time>2023-09-24T13:33:37Z</time>
      </trkpt>
      <trkpt lat="45.99033" lon="4.9114">
        <ele>300</ele>
        <time>2023-09-24T13:33:38Z</time>
      </trkpt>
      <trkpt lat="45.99032" lon="4.91145">
        <ele>299.8</ele>
        <time>2023-09-24T13:33:39Z</time>
      </trkpt>
      <trkpt lat="45.99032" lon="4.9115">
        <ele>299.6</ele>
        <time>2023-09-24T13:33:40Z</time>
      </trkpt>
      <trkpt lat="45.99031" lon="4.91156">
        <ele>299.4</ele>
        <time>2023-09-24T13:33:41Z</time>
      </trkpt>
      <trkpt lat="45.99031" lon="4.9116">
        <ele>299.2</ele>
        <time>2023-09-24T13:33:42Z</time>
      </trkpt>
      <trkpt lat="45.9903" lon="4.91166">
        <ele>299</ele>
        <time>2023-09-24T13:33:43Z</time>
      </trkpt>
      <trkpt lat="45.9903" lon="4.9117">
        <ele>299</ele>
        <time>2023-09-24T13:33:44Z</time>
      </trkpt>
      <trkpt lat="45.9903" lon="4.91175">
        <ele>299</ele>
        <time>2023-09-24T13:33:45Z</time>
      </trkpt>
      <trkpt lat="45.99029" lon="4.91179">
        <ele>299</ele>
        <time>2023-09-24T13:33:46Z</time>
      </trkpt>
      <trkpt lat="45.99029" lon="4.91183">
        <ele>299</ele>
        <time>2023-09-24T13:33:47Z</time>
      </trkpt>
      <trkpt lat="45.99029" lon="4.91188">
        <ele>299</ele>
        <time>2023-09-24T13:33:48Z</time>
      </trkpt>
      <trkpt lat="45.99029" lon="4.91192">
        <ele>299</ele>
        <time>2023-09-24T13:33:49Z</time>
      </trkpt>
      <trkpt lat="45.99029" lon="4.91197">
        <ele>299</ele>
        <time>2023-09-24T13:33:50Z</time>
      </trkpt>
      <trkpt lat="45.99029" lon="4.91201">
        <ele>299</ele>
        <time>2023-09-24T13:33:51Z</time>
      </trkpt>
      <trkpt lat="45.99029" lon="4.91205">
        <ele>299</ele>
        <time>2023-09-24T13:33:52Z</time>
      </trkpt>
      <trkpt lat="45.99029" lon="4.9121">
        <ele>299</ele>
        <time>2023-09-24T13:33:53Z</time>
      </trkpt>
      <trkpt lat="45.99029" lon="4.91214">
        <ele>299</ele>
        <time>2023-09-24T13:33:54Z</time>
      </trkpt>
      <trkpt lat="45.99029" lon="4.91219">
        <ele>299</ele>
        <time>2023-09-24T13:33:55Z</time>
      </trkpt>
      <trkpt lat="45.99029" lon="4.91224">
        <ele>299</ele>
        <time>2023-09-24T13:33:56Z</time>
      </trkpt>
      <trkpt lat="45.99029" lon="4.91228">
        <ele>299</ele>
        <time>2023-09-24T13:33:57Z</time>
      </trkpt>
      <trkpt lat="45.99029" lon="4.91233">
        <ele>299</ele>
        <time>2023-09-24T13:33:58Z</time>
      </trkpt>
      <trkpt lat="45.9903" lon="4.91238">
        <ele>299.1</ele>
        <time>2023-09-24T13:33:59Z</time>
      </trkpt>
      <trkpt lat="45.9903" lon="4.91243">
        <ele>299.1</ele>
        <time>2023-09-24T13:34:00Z</time>
      </trkpt>
      <trkpt lat="45.9903" lon="4.91248">
        <ele>299.1</ele>
        <time>2023-09-24T13:34:01Z</time>
      </trkpt>
      <trkpt lat="45.9903" lon="4.91253">
        <ele>299.2</ele>
        <time>2023-09-24T13:34:02Z</time>
      </trkpt>
      <trkpt lat="45.9903" lon="4.91258">
        <ele>299.3</ele>
        <time>2023-09-24T13:34:03Z</time>
      </trkpt>
      <trkpt lat="45.9903" lon="4.91263">
        <ele>299.5</ele>
        <time>2023-09-24T13:34:04Z</time>
      </trkpt>
      <trkpt lat="45.9903" lon="4.91268">
        <ele>299.7</ele>
        <time>2023-09-24T13:34:05Z</time>
      </trkpt>
      <trkpt lat="45.99031" lon="4.91272">
        <ele>299.8</ele>
        <time>2023-09-24T13:34:06Z</time>
      </trkpt>
      <trkpt lat="45.99031" lon="4.91278">
        <ele>300</ele>
        <time>2023-09-24T13:34:07Z</time>
      </trkpt>
      <trkpt lat="45.99031" lon="4.91283">
        <ele>300</ele>
        <time>2023-09-24T13:34:08Z</time>
      </trkpt>
      <trkpt lat="45.99031" lon="4.91288">
        <ele>300</ele>
        <time>2023-09-24T13:34:09Z</time>
      </trkpt>
      <trkpt lat="45.99032" lon="4.91293">
        <ele>300</ele>
        <time>2023-09-24T13:34:10Z</time>
      </trkpt>
      <trkpt lat="45.99032" lon="4.91298">
        <ele>300</ele>
        <time>2023-09-24T13:34:11Z</time>
      </trkpt>
      <trkpt lat="45.99032" lon="4.91304">
        <ele>300</ele>
        <time>2023-09-24T13:34:12Z</time>
      </trkpt>
      <trkpt lat="45.99033" lon="4.91309">
        <ele>300</ele>
        <time>2023-09-24T13:34:13Z</time>
      </trkpt>
      <trkpt lat="45.99033" lon="4.91314">
        <ele>300</ele>
        <time>2023-09-24T13:34:14Z</time>
      </trkpt>
      <trkpt lat="45.99033" lon="4.91319">
        <ele>300</ele>
        <time>2023-09-24T13:34:15Z</time>
      </trkpt>
      <trkpt lat="45.99033" lon="4.91325">
        <ele>300</ele>
        <time>2023-09-24T13:34:16Z</time>
      </trkpt>
      <trkpt lat="45.99034" lon="4.91331">
        <ele>300</ele>
        <time>2023-09-24T13:34:17Z</time>
      </trkpt>
      <trkpt lat="45.99034" lon="4.91337">
        <ele>300</ele>
        <time>2023-09-24T13:34:18Z</time>
      </trkpt>
      <trkpt lat="45.99035" lon="4.91342">
        <ele>300</ele>
        <time>2023-09-24T13:34:19Z</time>
      </trkpt>
      <trkpt lat="45.99035" lon="4.91348">
        <ele>300</ele>
        <time>2023-09-24T13:34:20Z</time>
      </trkpt>
      <trkpt lat="45.99035" lon="4.91354">
        <ele>300</ele>
        <time>2023-09-24T13:34:21Z</time>
      </trkpt>
      <trkpt lat="45.99036" lon="4.9136">
        <ele>300</ele>
        <time>2023-09-24T13:34:22Z</time>
      </trkpt>
      <trkpt lat="45.99037" lon="4.91366">
        <ele>300</ele>
        <time>2023-09-24T13:34:23Z</time>
      </trkpt>
      <trkpt lat="45.99037" lon="4.91372">
        <ele>300</ele>
        <time>2023-09-24T13:34:24Z</time>
      </trkpt>
      <trkpt lat="45.99038" lon="4.91377">
        <ele>300</ele>
        <time>2023-09-24T13:34:25Z</time>
      </trkpt>
      <trkpt lat="45.99038" lon="4.91383">
        <ele>300</ele>
        <time>2023-09-24T13:34:26Z</time>
      </trkpt>
      <trkpt lat="45.99039" lon="4.91389">
        <ele>300</ele>
        <time>2023-09-24T13:34:27Z</time>
      </trkpt>
      <trkpt lat="45.9904" lon="4.91395">
        <ele>299.9</ele>
        <time>2023-09-24T13:34:28Z</time>
      </trkpt>
      <trkpt lat="45.9904" lon="4.91401">
        <ele>299.8</ele>
        <time>2023-09-24T13:34:29Z</time>
      </trkpt>
      <trkpt lat="45.99041" lon="4.91407">
        <ele>299.7</ele>
        <time>2023-09-24T13:34:30Z</time>
      </trkpt>
      <trkpt lat="45.99042" lon="4.91413">
        <ele>299.6</ele>
        <time>2023-09-24T13:34:31Z</time>
      </trkpt>
      <trkpt lat="45.99043" lon="4.91419">
        <ele>299.5</ele>
        <time>2023-09-24T13:34:32Z</time>
      </trkpt>
      <trkpt lat="45.99044" lon="4.91425">
        <ele>299.6</ele>
        <time>2023-09-24T13:34:33Z</time>
      </trkpt>
      <trkpt lat="45.99045" lon="4.91431">
        <ele>299.6</ele>
        <time>2023-09-24T13:34:34Z</time>
      </trkpt>
      <trkpt lat="45.99046" lon="4.91437">
        <ele>299.7</ele>
        <time>2023-09-24T13:34:35Z</time>
      </trkpt>
      <trkpt lat="45.99046" lon="4.91443">
        <ele>299.7</ele>
        <time>2023-09-24T13:34:36Z</time>
      </trkpt>
      <trkpt lat="45.99048" lon="4.91449">
        <ele>299.7</ele>
        <time>2023-09-24T13:34:37Z</time>
      </trkpt>
      <trkpt lat="45.99049" lon="4.91456">
        <ele>299.5</ele>
        <time>2023-09-24T13:34:38Z</time>
      </trkpt>
      <trkpt lat="45.9905" lon="4.91462">
        <ele>299.4</ele>
        <time>2023-09-24T13:34:39Z</time>
      </trkpt>
      <trkpt lat="45.99051" lon="4.91468">
        <ele>299.3</ele>
        <time>2023-09-24T13:34:40Z</time>
      </trkpt>
      <trkpt lat="45.99052" lon="4.91474">
        <ele>299.1</ele>
        <time>2023-09-24T13:34:41Z</time>
      </trkpt>
      <trkpt lat="45.99053" lon="4.9148">
        <ele>299.1</ele>
        <time>2023-09-24T13:34:42Z</time>
      </trkpt>
      <trkpt lat="45.99054" lon="4.91486">
        <ele>299</ele>
        <time>2023-09-24T13:34:43Z</time>
      </trkpt>
      <trkpt lat="45.99054" lon="4.91493">
        <ele>299</ele>
        <time>2023-09-24T13:34:44Z</time>
      </trkpt>
      <trkpt lat="45.99055" lon="4.91499">
        <ele>299</ele>
        <time>2023-09-24T13:34:45Z</time>
      </trkpt>
      <trkpt lat="45.99055" lon="4.91505">
        <ele>299</ele>
        <time>2023-09-24T13:34:46Z</time>
      </trkpt>
      <trkpt lat="45.99056" lon="4.9151">
        <ele>299</ele>
        <time>2023-09-24T13:34:47Z</time>
      </trkpt>
      <trkpt lat="45.99056" lon="4.91516">
        <ele>299</ele>
        <time>2023-09-24T13:34:48Z</time>
      </trkpt>
      <trkpt lat="45.99056" lon="4.91522">
        <ele>299</ele>
        <time>2023-09-24T13:34:49Z</time>
      </trkpt>
      <trkpt lat="45.99056" lon="4.91527">
        <ele>299</ele>
        <time>2023-09-24T13:34:50Z</time>
      </trkpt>
      <trkpt lat="45.99056" lon="4.91534">
        <ele>299</ele>
        <time>2023-09-24T13:34:51Z</time>
      </trkpt>
      <trkpt lat="45.99056" lon="4.9154">
        <ele>299</ele>
        <time>2023-09-24T13:34:52Z</time>
      </trkpt>
      <trkpt lat="45.99056" lon="4.91546">
        <ele>299</ele>
        <time>2023-09-24T13:34:53Z</time>
      </trkpt>
      <trkpt lat="45.99057" lon="4.91552">
        <ele>299</ele>
        <time>2023-09-24T13:34:54Z</time>
      </trkpt>
      <trkpt lat="45.99057" lon="4.91559">
        <ele>299</ele>
        <time>2023-09-24T13:34:55Z</time>
      </trkpt>
      <trkpt lat="45.99058" lon="4.91565">
        <ele>299</ele>
        <time>2023-09-24T13:34:56Z</time>
      </trkpt>
      <trkpt lat="45.99059" lon="4.91571">
        <ele>299</ele>
        <time>2023-09-24T13:34:57Z</time>
      </trkpt>
      <trkpt lat="45.9906" lon="4.91578">
        <ele>299</ele>
        <time>2023-09-24T13:34:58Z</time>
      </trkpt>
      <trkpt lat="45.99061" lon="4.91585">
        <ele>299</ele>
        <time>2023-09-24T13:34:59Z</time>
      </trkpt>
      <trkpt lat="45.99061" lon="4.91592">
        <ele>299</ele>
        <time>2023-09-24T13:35:00Z</time>
      </trkpt>
      <trkpt lat="45.99061" lon="4.91599">
        <ele>299</ele>
        <time>2023-09-24T13:35:01Z</time>
      </trkpt>
      <trkpt lat="45.99061" lon="4.91606">
        <ele>299</ele>
        <time>2023-09-24T13:35:02Z</time>
      </trkpt>
      <trkpt lat="45.99061" lon="4.91613">
        <ele>299</ele>
        <time>2023-09-24T13:35:03Z</time>
      </trkpt>
      <trkpt lat="45.99061" lon="4.9162">
        <ele>299</ele>
        <time>2023-09-24T13:35:04Z</time>
      </trkpt>
      <trkpt lat="45.99062" lon="4.91626">
        <ele>299</ele>
        <time>2023-09-24T13:35:05Z</time>
      </trkpt>
      <trkpt lat="45.99062" lon="4.91633">
        <ele>299</ele>
        <time>2023-09-24T13:35:06Z</time>
      </trkpt>
      <trkpt lat="45.99063" lon="4.9164">
        <ele>299</ele>
        <time>2023-09-24T13:35:07Z</time>
      </trkpt>
      <trkpt lat="45.99062" lon="4.91647">
        <ele>299</ele>
        <time>2023-09-24T13:35:08Z</time>
      </trkpt>
      <trkpt lat="45.99063" lon="4.91654">
        <ele>299</ele>
        <time>2023-09-24T13:35:09Z</time>
      </trkpt>
      <trkpt lat="45.99063" lon="4.91661">
        <ele>299</ele>
        <time>2023-09-24T13:35:10Z</time>
      </trkpt>
      <trkpt lat="45.99064" lon="4.91668">
        <ele>299</ele>
        <time>2023-09-24T13:35:11Z</time>
      </trkpt>
      <trkpt lat="45.99064" lon="4.91675">
        <ele>299</ele>
        <time>2023-09-24T13:35:12Z</time>
      </trkpt>
      <trkpt lat="45.99065" lon="4.91681">
        <ele>299</ele>
        <time>2023-09-24T13:35:13Z</time>
      </trkpt>
      <trkpt lat="45.99065" lon="4.91688">
        <ele>299</ele>
        <time>2023-09-24T13:35:14Z</time>
      </trkpt>
      <trkpt lat="45.99065" lon="4.91695">
        <ele>299</ele>
        <time>2023-09-24T13:35:15Z</time>
      </trkpt>
      <trkpt lat="45.99065" lon="4.91702">
        <ele>299</ele>
        <time>2023-09-24T13:35:16Z</time>
      </trkpt>
      <trkpt lat="45.99066" lon="4.91709">
        <ele>299</ele>
        <time>2023-09-24T13:35:17Z</time>
      </trkpt>
      <trkpt lat="45.99066" lon="4.91716">
        <ele>299</ele>
        <time>2023-09-24T13:35:18Z</time>
      </trkpt>
      <trkpt lat="45.99066" lon="4.91722">
        <ele>299</ele>
        <time>2023-09-24T13:35:19Z</time>
      </trkpt>
      <trkpt lat="45.99067" lon="4.91729">
        <ele>298.9</ele>
        <time>2023-09-24T13:35:20Z</time>
      </trkpt>
      <trkpt lat="45.99067" lon="4.91736">
        <ele>298.8</ele>
        <time>2023-09-24T13:35:21Z</time>
      </trkpt>
      <trkpt lat="45.99067" lon="4.91743">
        <ele>298.7</ele>
        <time>2023-09-24T13:35:22Z</time>
      </trkpt>
      <trkpt lat="45.99067" lon="4.91749">
        <ele>298.6</ele>
        <time>2023-09-24T13:35:23Z</time>
      </trkpt>
      <trkpt lat="45.99068" lon="4.91756">
        <ele>298.6</ele>
        <time>2023-09-24T13:35:24Z</time>
      </trkpt>
      <trkpt lat="45.99068" lon="4.91762">
        <ele>298.6</ele>
        <time>2023-09-24T13:35:25Z</time>
      </trkpt>
      <trkpt lat="45.99068" lon="4.91769">
        <ele>298.6</ele>
        <time>2023-09-24T13:35:26Z</time>
      </trkpt>
      <trkpt lat="45.99069" lon="4.91775">
        <ele>298.5</ele>
        <time>2023-09-24T13:35:27Z</time>
      </trkpt>
      <trkpt lat="45.99069" lon="4.91782">
        <ele>298.4</ele>
        <time>2023-09-24T13:35:28Z</time>
      </trkpt>
      <trkpt lat="45.99069" lon="4.91789">
        <ele>298.3</ele>
        <time>2023-09-24T13:35:29Z</time>
      </trkpt>
      <trkpt lat="45.99069" lon="4.91795">
        <ele>298.2</ele>
        <time>2023-09-24T13:35:30Z</time>
      </trkpt>
      <trkpt lat="45.99069" lon="4.91802">
        <ele>298.1</ele>
        <time>2023-09-24T13:35:31Z</time>
      </trkpt>
      <trkpt lat="45.9907" lon="4.91808">
        <ele>298</ele>
        <time>2023-09-24T13:35:32Z</time>
      </trkpt>
      <trkpt lat="45.9907" lon="4.91815">
        <ele>298</ele>
        <time>2023-09-24T13:35:33Z</time>
      </trkpt>
      <trkpt lat="45.99071" lon="4.91822">
        <ele>298</ele>
        <time>2023-09-24T13:35:34Z</time>
      </trkpt>
      <trkpt lat="45.99071" lon="4.91828">
        <ele>298</ele>
        <time>2023-09-24T13:35:35Z</time>
      </trkpt>
      <trkpt lat="45.99071" lon="4.91835">
        <ele>298</ele>
        <time>2023-09-24T13:35:36Z</time>
      </trkpt>
      <trkpt lat="45.99071" lon="4.91842">
        <ele>298</ele>
        <time>2023-09-24T13:35:37Z</time>
      </trkpt>
      <trkpt lat="45.99072" lon="4.91848">
        <ele>298</ele>
        <time>2023-09-24T13:35:38Z</time>
      </trkpt>
      <trkpt lat="45.99072" lon="4.91855">
        <ele>298</ele>
        <time>2023-09-24T13:35:39Z</time>
      </trkpt>
      <trkpt lat="45.99073" lon="4.91862">
        <ele>298</ele>
        <time>2023-09-24T13:35:40Z</time>
      </trkpt>
      <trkpt lat="45.99073" lon="4.91869">
        <ele>298</ele>
        <time>2023-09-24T13:35:41Z</time>
      </trkpt>
      <trkpt lat="45.99073" lon="4.91876">
        <ele>298</ele>
        <time>2023-09-24T13:35:42Z</time>
      </trkpt>
      <trkpt lat="45.99074" lon="4.91883">
        <ele>298</ele>
        <time>2023-09-24T13:35:43Z</time>
      </trkpt>
      <trkpt lat="45.99074" lon="4.91889">
        <ele>298</ele>
        <time>2023-09-24T13:35:44Z</time>
      </trkpt>
      <trkpt lat="45.99075" lon="4.91896">
        <ele>297.8</ele>
        <time>2023-09-24T13:35:45Z</time>
      </trkpt>
      <trkpt lat="45.99076" lon="4.91903">
        <ele>297.6</ele>
        <time>2023-09-24T13:35:46Z</time>
      </trkpt>
      <trkpt lat="45.99076" lon="4.9191">
        <ele>297.4</ele>
        <time>2023-09-24T13:35:47Z</time>
      </trkpt>
      <trkpt lat="45.99077" lon="4.91916">
        <ele>297.2</ele>
        <time>2023-09-24T13:35:48Z</time>
      </trkpt>
      <trkpt lat="45.99079" lon="4.91923">
        <ele>297.2</ele>
        <time>2023-09-24T13:35:49Z</time>
      </trkpt>
      <trkpt lat="45.99079" lon="4.91929">
        <ele>297.2</ele>
        <time>2023-09-24T13:35:50Z</time>
      </trkpt>
      <trkpt lat="45.9908" lon="4.91935">
        <ele>297.1</ele>
        <time>2023-09-24T13:35:51Z</time>
      </trkpt>
      <trkpt lat="45.99081" lon="4.91942">
        <ele>297.1</ele>
        <time>2023-09-24T13:35:52Z</time>
      </trkpt>
      <trkpt lat="45.99082" lon="4.91949">
        <ele>297</ele>
        <time>2023-09-24T13:35:53Z</time>
      </trkpt>
      <trkpt lat="45.99083" lon="4.91955">
        <ele>297</ele>
        <time>2023-09-24T13:35:54Z</time>
      </trkpt>
      <trkpt lat="45.99084" lon="4.91961">
        <ele>297</ele>
        <time>2023-09-24T13:35:55Z</time>
      </trkpt>
      <trkpt lat="45.99085" lon="4.91968">
        <ele>297</ele>
        <time>2023-09-24T13:35:56Z</time>
      </trkpt>
      <trkpt lat="45.99087" lon="4.91974">
        <ele>297</ele>
        <time>2023-09-24T13:35:57Z</time>
      </trkpt>
      <trkpt lat="45.99088" lon="4.9198">
        <ele>297</ele>
        <time>2023-09-24T13:35:58Z</time>
      </trkpt>
      <trkpt lat="45.99089" lon="4.91987">
        <ele>297</ele>
        <time>2023-09-24T13:35:59Z</time>
      </trkpt>
      <trkpt lat="45.99091" lon="4.91993">
        <ele>297</ele>
        <time>2023-09-24T13:36:00Z</time>
      </trkpt>
      <trkpt lat="45.99093" lon="4.92">
        <ele>297</ele>
        <time>2023-09-24T13:36:01Z</time>
      </trkpt>
      <trkpt lat="45.99094" lon="4.92005">
        <ele>297</ele>
        <time>2023-09-24T13:36:02Z</time>
      </trkpt>
      <trkpt lat="45.99096" lon="4.92012">
        <ele>297</ele>
        <time>2023-09-24T13:36:03Z</time>
      </trkpt>
      <trkpt lat="45.99097" lon="4.92018">
        <ele>297</ele>
        <time>2023-09-24T13:36:04Z</time>
      </trkpt>
      <trkpt lat="45.99099" lon="4.92024">
        <ele>297</ele>
        <time>2023-09-24T13:36:05Z</time>
      </trkpt>
      <trkpt lat="45.99101" lon="4.9203">
        <ele>297</ele>
        <time>2023-09-24T13:36:06Z</time>
      </trkpt>
      <trkpt lat="45.99103" lon="4.92036">
        <ele>297</ele>
        <time>2023-09-24T13:36:07Z</time>
      </trkpt>
      <trkpt lat="45.99105" lon="4.92042">
        <ele>297</ele>
        <time>2023-09-24T13:36:08Z</time>
      </trkpt>
      <trkpt lat="45.99106" lon="4.92048">
        <ele>297</ele>
        <time>2023-09-24T13:36:09Z</time>
      </trkpt>
      <trkpt lat="45.99108" lon="4.92055">
        <ele>297</ele>
        <time>2023-09-24T13:36:10Z</time>
      </trkpt>
      <trkpt lat="45.99111" lon="4.9206">
        <ele>297</ele>
        <time>2023-09-24T13:36:11Z</time>
      </trkpt>
      <trkpt lat="45.99112" lon="4.92067">
        <ele>297</ele>
        <time>2023-09-24T13:36:12Z</time>
      </trkpt>
      <trkpt lat="45.99114" lon="4.92073">
        <ele>297</ele>
        <time>2023-09-24T13:36:13Z</time>
      </trkpt>
      <trkpt lat="45.99115" lon="4.92079">
        <ele>297</ele>
        <time>2023-09-24T13:36:14Z</time>
      </trkpt>
      <trkpt lat="45.99117" lon="4.92086">
        <ele>297</ele>
        <time>2023-09-24T13:36:15Z</time>
      </trkpt>
      <trkpt lat="45.99119" lon="4.92092">
        <ele>297</ele>
        <time>2023-09-24T13:36:16Z</time>
      </trkpt>
      <trkpt lat="45.99121" lon="4.92098">
        <ele>297</ele>
        <time>2023-09-24T13:36:17Z</time>
      </trkpt>
      <trkpt lat="45.99122" lon="4.92104">
        <ele>297</ele>
        <time>2023-09-24T13:36:18Z</time>
      </trkpt>
      <trkpt lat="45.99124" lon="4.9211">
        <ele>297</ele>
        <time>2023-09-24T13:36:19Z</time>
      </trkpt>
      <trkpt lat="45.99126" lon="4.92117">
        <ele>297</ele>
        <time>2023-09-24T13:36:20Z</time>
      </trkpt>
      <trkpt lat="45.99127" lon="4.92123">
        <ele>297</ele>
        <time>2023-09-24T13:36:21Z</time>
      </trkpt>
      <trkpt lat="45.99129" lon="4.9213">
        <ele>297</ele>
        <time>2023-09-24T13:36:22Z</time>
      </trkpt>
      <trkpt lat="45.9913" lon="4.92136">
        <ele>297</ele>
        <time>2023-09-24T13:36:23Z</time>
      </trkpt>
      <trkpt lat="45.99132" lon="4.92143">
        <ele>296.9</ele>
        <time>2023-09-24T13:36:24Z</time>
      </trkpt>
      <trkpt lat="45.99133" lon="4.92149">
        <ele>296.7</ele>
        <time>2023-09-24T13:36:25Z</time>
      </trkpt>
      <trkpt lat="45.99134" lon="4.92156">
        <ele>296.5</ele>
        <time>2023-09-24T13:36:26Z</time>
      </trkpt>
      <trkpt lat="45.99137" lon="4.92162">
        <ele>296.2</ele>
        <time>2023-09-24T13:36:27Z</time>
      </trkpt>
      <trkpt lat="45.99139" lon="4.92168">
        <ele>296</ele>
        <time>2023-09-24T13:36:28Z</time>
      </trkpt>
      <trkpt lat="45.9914" lon="4.92174">
        <ele>296.3</ele>
        <time>2023-09-24T13:36:29Z</time>
      </trkpt>
      <trkpt lat="45.99142" lon="4.9218">
        <ele>296.4</ele>
        <time>2023-09-24T13:36:30Z</time>
      </trkpt>
      <trkpt lat="45.99143" lon="4.92185">
        <ele>296.6</ele>
        <time>2023-09-24T13:36:31Z</time>
      </trkpt>
      <trkpt lat="45.99144" lon="4.92192">
        <ele>296.7</ele>
        <time>2023-09-24T13:36:32Z</time>
      </trkpt>
      <trkpt lat="45.99146" lon="4.92197">
        <ele>296.7</ele>
        <time>2023-09-24T13:36:33Z</time>
      </trkpt>
      <trkpt lat="45.99148" lon="4.92203">
        <ele>296.7</ele>
        <time>2023-09-24T13:36:34Z</time>
      </trkpt>
      <trkpt lat="45.9915" lon="4.92208">
        <ele>296.6</ele>
        <time>2023-09-24T13:36:35Z</time>
      </trkpt>
      <trkpt lat="45.99152" lon="4.92213">
        <ele>296.5</ele>
        <time>2023-09-24T13:36:36Z</time>
      </trkpt>
      <trkpt lat="45.99154" lon="4.92218">
        <ele>296.5</ele>
        <time>2023-09-24T13:36:37Z</time>
      </trkpt>
      <trkpt lat="45.99157" lon="4.92222">
        <ele>296.3</ele>
        <time>2023-09-24T13:36:38Z</time>
      </trkpt>
      <trkpt lat="45.99159" lon="4.92227">
        <ele>296.3</ele>
        <time>2023-09-24T13:36:39Z</time>
      </trkpt>
      <trkpt lat="45.99162" lon="4.92232">
        <ele>296.2</ele>
        <time>2023-09-24T13:36:40Z</time>
      </trkpt>
      <trkpt lat="45.99165" lon="4.92237">
        <ele>296.1</ele>
        <time>2023-09-24T13:36:41Z</time>
      </trkpt>
      <trkpt lat="45.99167" lon="4.92242">
        <ele>296</ele>
        <time>2023-09-24T13:36:42Z</time>
      </trkpt>
      <trkpt lat="45.99169" lon="4.92246">
        <ele>295.9</ele>
        <time>2023-09-24T13:36:43Z</time>
      </trkpt>
      <trkpt lat="45.99172" lon="4.92251">
        <ele>295.8</ele>
        <time>2023-09-24T13:36:44Z</time>
      </trkpt>
      <trkpt lat="45.99175" lon="4.92256">
        <ele>295.7</ele>
        <time>2023-09-24T13:36:45Z</time>
      </trkpt>
      <trkpt lat="45.99177" lon="4.92261">
        <ele>295.6</ele>
        <time>2023-09-24T13:36:46Z</time>
      </trkpt>
      <trkpt lat="45.9918" lon="4.92265">
        <ele>295.5</ele>
        <time>2023-09-24T13:36:47Z</time>
      </trkpt>
      <trkpt lat="45.99182" lon="4.9227">
        <ele>295.4</ele>
        <time>2023-09-24T13:36:48Z</time>
      </trkpt>
      <trkpt lat="45.99186" lon="4.92274">
        <ele>295.3</ele>
        <time>2023-09-24T13:36:49Z</time>
      </trkpt>
      <trkpt lat="45.99188" lon="4.92279">
        <ele>295.2</ele>
        <time>2023-09-24T13:36:50Z</time>
      </trkpt>
      <trkpt lat="45.99191" lon="4.92284">
        <ele>295.1</ele>
        <time>2023-09-24T13:36:51Z</time>
      </trkpt>
      <trkpt lat="45.99194" lon="4.92289">
        <ele>295</ele>
        <time>2023-09-24T13:36:52Z</time>
      </trkpt>
      <trkpt lat="45.99196" lon="4.92293">
        <ele>295</ele>
        <time>2023-09-24T13:36:53Z</time>
      </trkpt>
      <trkpt lat="45.99199" lon="4.92298">
        <ele>295</ele>
        <time>2023-09-24T13:36:54Z</time>
      </trkpt>
      <trkpt lat="45.99201" lon="4.92303">
        <ele>295</ele>
        <time>2023-09-24T13:36:55Z</time>
      </trkpt>
      <trkpt lat="45.99202" lon="4.92308">
        <ele>295</ele>
        <time>2023-09-24T13:36:56Z</time>
      </trkpt>
      <trkpt lat="45.99202" lon="4.92313">
        <ele>295</ele>
        <time>2023-09-24T13:36:57Z</time>
      </trkpt>
      <trkpt lat="45.99202" lon="4.92315">
        <ele>295</ele>
        <time>2023-09-24T13:36:58Z</time>
      </trkpt>
      <trkpt lat="45.99202" lon="4.92316">
        <ele>295</ele>
        <time>2023-09-24T13:36:59Z</time>
      </trkpt>
      <trkpt lat="45.99202" lon="4.92315">
        <ele>295</ele>
        <time>2023-09-24T13:37:00Z</time>
      </trkpt>
      <trkpt lat="45.99202" lon="4.92315">
        <ele>295</ele>
        <time>2023-09-24T13:37:01Z</time>
      </trkpt>
      <trkpt lat="45.99202" lon="4.92315">
        <ele>295</ele>
        <time>2023-09-24T13:37:02Z</time>
      </trkpt>
      <trkpt lat="45.99202" lon="4.92315">
        <ele>295</ele>
        <time>2023-09-24T13:37:03Z</time>
      </trkpt>
      <trkpt lat="45.99201" lon="4.92315">
        <ele>295</ele>
        <time>2023-09-24T13:37:04Z</time>
      </trkpt>
      <trkpt lat="45.99201" lon="4.92315">
        <ele>295</ele>
        <time>2023-09-24T13:37:05Z</time>
      </trkpt>
      <trkpt lat="45.99201" lon="4.92315">
        <ele>295</ele>
        <time>2023-09-24T13:37:06Z</time>
      </trkpt>
      <trkpt lat="45.99201" lon="4.92316">
        <ele>295</ele>
        <time>2023-09-24T13:37:07Z</time>
      </trkpt>
      <trkpt lat="45.99201" lon="4.92316">
        <ele>295</ele>
        <time>2023-09-24T13:37:08Z</time>
      </trkpt>
      <trkpt lat="45.99201" lon="4.9232">
        <ele>295</ele>
        <time>2023-09-24T13:38:03Z</time>
      </trkpt>
      <trkpt lat="45.99202" lon="4.92322">
        <ele>295</ele>
        <time>2023-09-24T13:38:04Z</time>
      </trkpt>
      <trkpt lat="45.99204" lon="4.92323">
        <ele>295</ele>
        <time>2023-09-24T13:38:05Z</time>
      </trkpt>
      <trkpt lat="45.99208" lon="4.92324">
        <ele>295</ele>
        <time>2023-09-24T13:38:06Z</time>
      </trkpt>
      <trkpt lat="45.99212" lon="4.92324">
        <ele>295</ele>
        <time>2023-09-24T13:38:07Z</time>
      </trkpt>
      <trkpt lat="45.99215" lon="4.92326">
        <ele>295</ele>
        <time>2023-09-24T13:38:08Z</time>
      </trkpt>
      <trkpt lat="45.99219" lon="4.92327">
        <ele>295</ele>
        <time>2023-09-24T13:38:09Z</time>
      </trkpt>
      <trkpt lat="45.99223" lon="4.92328">
        <ele>295</ele>
        <time>2023-09-24T13:38:10Z</time>
      </trkpt>
      <trkpt lat="45.99227" lon="4.9233">
        <ele>295</ele>
        <time>2023-09-24T13:38:11Z</time>
      </trkpt>
      <trkpt lat="45.99232" lon="4.92331">
        <ele>295</ele>
        <time>2023-09-24T13:38:12Z</time>
      </trkpt>
      <trkpt lat="45.99236" lon="4.92333">
        <ele>295</ele>
        <time>2023-09-24T13:38:13Z</time>
      </trkpt>
      <trkpt lat="45.9924" lon="4.92334">
        <ele>295</ele>
        <time>2023-09-24T13:38:14Z</time>
      </trkpt>
      <trkpt lat="45.99245" lon="4.92336">
        <ele>295</ele>
        <time>2023-09-24T13:38:15Z</time>
      </trkpt>
      <trkpt lat="45.9925" lon="4.92337">
        <ele>295</ele>
        <time>2023-09-24T13:38:16Z</time>
      </trkpt>
      <trkpt lat="45.99255" lon="4.92338">
        <ele>295</ele>
        <time>2023-09-24T13:38:17Z</time>
      </trkpt>
      <trkpt lat="45.99259" lon="4.92341">
        <ele>295</ele>
        <time>2023-09-24T13:38:18Z</time>
      </trkpt>
      <trkpt lat="45.99263" lon="4.92343">
        <ele>295</ele>
        <time>2023-09-24T13:38:19Z</time>
      </trkpt>
      <trkpt lat="45.99268" lon="4.92344">
        <ele>295</ele>
        <time>2023-09-24T13:38:20Z</time>
      </trkpt>
      <trkpt lat="45.99273" lon="4.92346">
        <ele>295</ele>
        <time>2023-09-24T13:38:21Z</time>
      </trkpt>
      <trkpt lat="45.99277" lon="4.92348">
        <ele>295</ele>
        <time>2023-09-24T13:38:22Z</time>
      </trkpt>
      <trkpt lat="45.99281" lon="4.92351">
        <ele>295</ele>
        <time>2023-09-24T13:38:23Z</time>
      </trkpt>
      <trkpt lat="45.99285" lon="4.92353">
        <ele>295</ele>
        <time>2023-09-24T13:38:24Z</time>
      </trkpt>
      <trkpt lat="45.9929" lon="4.92354">
        <ele>295</ele>
        <time>2023-09-24T13:38:25Z</time>
      </trkpt>
      <trkpt lat="45.99293" lon="4.92355">
        <ele>295</ele>
        <time>2023-09-24T13:38:26Z</time>
      </trkpt>
      <trkpt lat="45.99296" lon="4.92357">
        <ele>295</ele>
        <time>2023-09-24T13:38:27Z</time>
      </trkpt>
      <trkpt lat="45.99299" lon="4.92358">
        <ele>295</ele>
        <time>2023-09-24T13:38:28Z</time>
      </trkpt>
      <trkpt lat="45.993" lon="4.92363">
        <ele>295</ele>
        <time>2023-09-24T13:38:29Z</time>
      </trkpt>
      <trkpt lat="45.99301" lon="4.92364">
        <ele>295</ele>
        <time>2023-09-24T13:38:30Z</time>
      </trkpt>
      <trkpt lat="45.99302" lon="4.92369">
        <ele>295</ele>
        <time>2023-09-24T13:38:31Z</time>
      </trkpt>
      <trkpt lat="45.99302" lon="4.92373">
        <ele>295</ele>
        <time>2023-09-24T13:38:32Z</time>
      </trkpt>
      <trkpt lat="45.99303" lon="4.92378">
        <ele>295</ele>
        <time>2023-09-24T13:38:33Z</time>
      </trkpt>
      <trkpt lat="45.99304" lon="4.92383">
        <ele>295</ele>
        <time>2023-09-24T13:38:34Z</time>
      </trkpt>
      <trkpt lat="45.99305" lon="4.92388">
        <ele>295</ele>
        <time>2023-09-24T13:38:35Z</time>
      </trkpt>
      <trkpt lat="45.99306" lon="4.92394">
        <ele>295</ele>
        <time>2023-09-24T13:38:36Z</time>
      </trkpt>
      <trkpt lat="45.99308" lon="4.92399">
        <ele>295</ele>
        <time>2023-09-24T13:38:37Z</time>
      </trkpt>
      <trkpt lat="45.99311" lon="4.92404">
        <ele>295</ele>
        <time>2023-09-24T13:38:38Z</time>
      </trkpt>
      <trkpt lat="45.99312" lon="4.92409">
        <ele>295</ele>
        <time>2023-09-24T13:38:39Z</time>
      </trkpt>
      <trkpt lat="45.99313" lon="4.92416">
        <ele>295</ele>
        <time>2023-09-24T13:38:40Z</time>
      </trkpt>
      <trkpt lat="45.99314" lon="4.92421">
        <ele>295.1</ele>
        <time>2023-09-24T13:38:41Z</time>
      </trkpt>
      <trkpt lat="45.99315" lon="4.92426">
        <ele>295.2</ele>
        <time>2023-09-24T13:38:42Z</time>
      </trkpt>
      <trkpt lat="45.99316" lon="4.92432">
        <ele>295.3</ele>
        <time>2023-09-24T13:38:43Z</time>
      </trkpt>
      <trkpt lat="45.99318" lon="4.92437">
        <ele>295.4</ele>
        <time>2023-09-24T13:38:44Z</time>
      </trkpt>
      <trkpt lat="45.99319" lon="4.92442">
        <ele>295.5</ele>
        <time>2023-09-24T13:38:45Z</time>
      </trkpt>
      <trkpt lat="45.9932" lon="4.92447">
        <ele>295.5</ele>
        <time>2023-09-24T13:38:46Z</time>
      </trkpt>
      <trkpt lat="45.99321" lon="4.92451">
        <ele>295.6</ele>
        <time>2023-09-24T13:38:47Z</time>
      </trkpt>
      <trkpt lat="45.99322" lon="4.92457">
        <ele>295.7</ele>
        <time>2023-09-24T13:38:48Z</time>
      </trkpt>
      <trkpt lat="45.99324" lon="4.92462">
        <ele>295.8</ele>
        <time>2023-09-24T13:38:49Z</time>
      </trkpt>
      <trkpt lat="45.99326" lon="4.92465">
        <ele>295.8</ele>
        <time>2023-09-24T13:38:50Z</time>
      </trkpt>
      <trkpt lat="45.99327" lon="4.92471">
        <ele>296</ele>
        <time>2023-09-24T13:38:51Z</time>
      </trkpt>
      <trkpt lat="45.99328" lon="4.92478">
        <ele>296</ele>
        <time>2023-09-24T13:38:52Z</time>
      </trkpt>
      <trkpt lat="45.99329" lon="4.92483">
        <ele>296</ele>
        <time>2023-09-24T13:38:53Z</time>
      </trkpt>
      <trkpt lat="45.9933" lon="4.92488">
        <ele>296</ele>
        <time>2023-09-24T13:38:54Z</time>
      </trkpt>
      <trkpt lat="45.99332" lon="4.92493">
        <ele>296</ele>
        <time>2023-09-24T13:38:55Z</time>
      </trkpt>
      <trkpt lat="45.99333" lon="4.92499">
        <ele>296</ele>
        <time>2023-09-24T13:38:56Z</time>
      </trkpt>
      <trkpt lat="45.99334" lon="4.92504">
        <ele>295.9</ele>
        <time>2023-09-24T13:38:57Z</time>
      </trkpt>
      <trkpt lat="45.99336" lon="4.9251">
        <ele>295.6</ele>
        <time>2023-09-24T13:38:58Z</time>
      </trkpt>
      <trkpt lat="45.99336" lon="4.92513">
        <ele>295.5</ele>
        <time>2023-09-24T13:38:59Z</time>
      </trkpt>
      <trkpt lat="45.99338" lon="4.92518">
        <ele>295.4</ele>
        <time>2023-09-24T13:39:00Z</time>
      </trkpt>
      <trkpt lat="45.99338" lon="4.92523">
        <ele>295.2</ele>
        <time>2023-09-24T13:39:01Z</time>
      </trkpt>
      <trkpt lat="45.9934" lon="4.92528">
        <ele>295</ele>
        <time>2023-09-24T13:39:02Z</time>
      </trkpt>
      <trkpt lat="45.99341" lon="4.92533">
        <ele>295</ele>
        <time>2023-09-24T13:39:03Z</time>
      </trkpt>
      <trkpt lat="45.99342" lon="4.92539">
        <ele>295</ele>
        <time>2023-09-24T13:39:04Z</time>
      </trkpt>
      <trkpt lat="45.99344" lon="4.92545">
        <ele>295</ele>
        <time>2023-09-24T13:39:05Z</time>
      </trkpt>
      <trkpt lat="45.99345" lon="4.92551">
        <ele>295</ele>
        <time>2023-09-24T13:39:06Z</time>
      </trkpt>
      <trkpt lat="45.99346" lon="4.92555">
        <ele>295</ele>
        <time>2023-09-24T13:39:07Z</time>
      </trkpt>
      <trkpt lat="45.99347" lon="4.92561">
        <ele>295</ele>
        <time>2023-09-24T13:39:08Z</time>
      </trkpt>
      <trkpt lat="45.99349" lon="4.92566">
        <ele>295</ele>
        <time>2023-09-24T13:39:09Z</time>
      </trkpt>
      <trkpt lat="45.99351" lon="4.92571">
        <ele>295</ele>
        <time>2023-09-24T13:39:10Z</time>
      </trkpt>
      <trkpt lat="45.99352" lon="4.92577">
        <ele>295</ele>
        <time>2023-09-24T13:39:11Z</time>
      </trkpt>
      <trkpt lat="45.99353" lon="4.92582">
        <ele>295</ele>
        <time>2023-09-24T13:39:12Z</time>
      </trkpt>
      <trkpt lat="45.99355" lon="4.92588">
        <ele>295</ele>
        <time>2023-09-24T13:39:13Z</time>
      </trkpt>
      <trkpt lat="45.99356" lon="4.92594">
        <ele>295</ele>
        <time>2023-09-24T13:39:14Z</time>
      </trkpt>
      <trkpt lat="45.99358" lon="4.92599">
        <ele>295</ele>
        <time>2023-09-24T13:39:15Z</time>
      </trkpt>
      <trkpt lat="45.9936" lon="4.92604">
        <ele>295</ele>
        <time>2023-09-24T13:39:16Z</time>
      </trkpt>
      <trkpt lat="45.99361" lon="4.92611">
        <ele>295</ele>
        <time>2023-09-24T13:39:17Z</time>
      </trkpt>
      <trkpt lat="45.99363" lon="4.92616">
        <ele>295</ele>
        <time>2023-09-24T13:39:18Z</time>
      </trkpt>
      <trkpt lat="45.99364" lon="4.92622">
        <ele>295</ele>
        <time>2023-09-24T13:39:19Z</time>
      </trkpt>
      <trkpt lat="45.99365" lon="4.92627">
        <ele>295</ele>
        <time>2023-09-24T13:39:20Z</time>
      </trkpt>
      <trkpt lat="45.99366" lon="4.92634">
        <ele>295</ele>
        <time>2023-09-24T13:39:21Z</time>
      </trkpt>
      <trkpt lat="45.99367" lon="4.9264">
        <ele>295</ele>
        <time>2023-09-24T13:39:22Z</time>
      </trkpt>
      <trkpt lat="45.99369" lon="4.92645">
        <ele>295</ele>
        <time>2023-09-24T13:39:23Z</time>
      </trkpt>
      <trkpt lat="45.99371" lon="4.9265">
        <ele>295</ele>
        <time>2023-09-24T13:39:24Z</time>
      </trkpt>
      <trkpt lat="45.99373" lon="4.92656">
        <ele>295</ele>
        <time>2023-09-24T13:39:25Z</time>
      </trkpt>
      <trkpt lat="45.99374" lon="4.92662">
        <ele>295</ele>
        <time>2023-09-24T13:39:26Z</time>
      </trkpt>
      <trkpt lat="45.99376" lon="4.92667">
        <ele>295</ele>
        <time>2023-09-24T13:39:27Z</time>
      </trkpt>
      <trkpt lat="45.99377" lon="4.92674">
        <ele>295</ele>
        <time>2023-09-24T13:39:28Z</time>
      </trkpt>
      <trkpt lat="45.99379" lon="4.92679">
        <ele>295</ele>
        <time>2023-09-24T13:39:29Z</time>
      </trkpt>
      <trkpt lat="45.99381" lon="4.92684">
        <ele>295</ele>
        <time>2023-09-24T13:39:30Z</time>
      </trkpt>
      <trkpt lat="45.99382" lon="4.9269">
        <ele>295</ele>
        <time>2023-09-24T13:39:31Z</time>
      </trkpt>
      <trkpt lat="45.99383" lon="4.92696">
        <ele>295</ele>
        <time>2023-09-24T13:39:32Z</time>
      </trkpt>
      <trkpt lat="45.99385" lon="4.92701">
        <ele>294.8</ele>
        <time>2023-09-24T13:39:33Z</time>
      </trkpt>
      <trkpt lat="45.99387" lon="4.92706">
        <ele>294.6</ele>
        <time>2023-09-24T13:39:34Z</time>
      </trkpt>
      <trkpt lat="45.99389" lon="4.92712">
        <ele>294.4</ele>
        <time>2023-09-24T13:39:35Z</time>
      </trkpt>
      <trkpt lat="45.99391" lon="4.92718">
        <ele>294.1</ele>
        <time>2023-09-24T13:39:36Z</time>
      </trkpt>
      <trkpt lat="45.99393" lon="4.92724">
        <ele>294</ele>
        <time>2023-09-24T13:39:37Z</time>
      </trkpt>
      <trkpt lat="45.99394" lon="4.92729">
        <ele>294</ele>
        <time>2023-09-24T13:39:38Z</time>
      </trkpt>
      <trkpt lat="45.99396" lon="4.92734">
        <ele>294</ele>
        <time>2023-09-24T13:39:39Z</time>
      </trkpt>
      <trkpt lat="45.99395" lon="4.92739">
        <ele>294</ele>
        <time>2023-09-24T13:39:40Z</time>
      </trkpt>
      <trkpt lat="45.99397" lon="4.92744">
        <ele>294</ele>
        <time>2023-09-24T13:39:41Z</time>
      </trkpt>
      <trkpt lat="45.99397" lon="4.9275">
        <ele>294</ele>
        <time>2023-09-24T13:39:42Z</time>
      </trkpt>
      <trkpt lat="45.99398" lon="4.92755">
        <ele>294</ele>
        <time>2023-09-24T13:39:43Z</time>
      </trkpt>
      <trkpt lat="45.99399" lon="4.9276">
        <ele>294</ele>
        <time>2023-09-24T13:39:44Z</time>
      </trkpt>
      <trkpt lat="45.994" lon="4.92766">
        <ele>294</ele>
        <time>2023-09-24T13:39:45Z</time>
      </trkpt>
      <trkpt lat="45.99401" lon="4.92772">
        <ele>294</ele>
        <time>2023-09-24T13:39:46Z</time>
      </trkpt>
      <trkpt lat="45.99402" lon="4.92779">
        <ele>294</ele>
        <time>2023-09-24T13:39:47Z</time>
      </trkpt>
      <trkpt lat="45.99402" lon="4.92784">
        <ele>294</ele>
        <time>2023-09-24T13:39:48Z</time>
      </trkpt>
      <trkpt lat="45.99402" lon="4.92789">
        <ele>294</ele>
        <time>2023-09-24T13:39:49Z</time>
      </trkpt>
      <trkpt lat="45.99402" lon="4.92795">
        <ele>294</ele>
        <time>2023-09-24T13:39:50Z</time>
      </trkpt>
      <trkpt lat="45.99402" lon="4.92799">
        <ele>294</ele>
        <time>2023-09-24T13:39:51Z</time>
      </trkpt>
      <trkpt lat="45.99403" lon="4.92805">
        <ele>294</ele>
        <time>2023-09-24T13:39:52Z</time>
      </trkpt>
      <trkpt lat="45.99403" lon="4.9281">
        <ele>294</ele>
        <time>2023-09-24T13:39:53Z</time>
      </trkpt>
      <trkpt lat="45.99404" lon="4.92815">
        <ele>294</ele>
        <time>2023-09-24T13:39:54Z</time>
      </trkpt>
      <trkpt lat="45.99404" lon="4.92821">
        <ele>294</ele>
        <time>2023-09-24T13:39:55Z</time>
      </trkpt>
      <trkpt lat="45.99405" lon="4.92826">
        <ele>294</ele>
        <time>2023-09-24T13:39:56Z</time>
      </trkpt>
      <trkpt lat="45.99405" lon="4.92832">
        <ele>294</ele>
        <time>2023-09-24T13:39:57Z</time>
      </trkpt>
      <trkpt lat="45.99405" lon="4.92838">
        <ele>294</ele>
        <time>2023-09-24T13:39:58Z</time>
      </trkpt>
      <trkpt lat="45.99406" lon="4.92844">
        <ele>294</ele>
        <time>2023-09-24T13:39:59Z</time>
      </trkpt>
      <trkpt lat="45.99406" lon="4.92849">
        <ele>294</ele>
        <time>2023-09-24T13:40:00Z</time>
      </trkpt>
      <trkpt lat="45.99407" lon="4.92855">
        <ele>294</ele>
        <time>2023-09-24T13:40:01Z</time>
      </trkpt>
      <trkpt lat="45.99407" lon="4.92861">
        <ele>294</ele>
        <time>2023-09-24T13:40:02Z</time>
      </trkpt>
      <trkpt lat="45.99407" lon="4.92867">
        <ele>294</ele>
        <time>2023-09-24T13:40:03Z</time>
      </trkpt>
      <trkpt lat="45.99407" lon="4.92874">
        <ele>294</ele>
        <time>2023-09-24T13:40:04Z</time>
      </trkpt>
      <trkpt lat="45.99407" lon="4.92879">
        <ele>294</ele>
        <time>2023-09-24T13:40:05Z</time>
      </trkpt>
      <trkpt lat="45.99407" lon="4.92884">
        <ele>294</ele>
        <time>2023-09-24T13:40:06Z</time>
      </trkpt>
      <trkpt lat="45.99407" lon="4.9289">
        <ele>294</ele>
        <time>2023-09-24T13:40:07Z</time>
      </trkpt>
      <trkpt lat="45.99407" lon="4.92896">
        <ele>293.8</ele>
        <time>2023-09-24T13:40:08Z</time>
      </trkpt>
      <trkpt lat="45.99408" lon="4.92902">
        <ele>293.7</ele>
        <time>2023-09-24T13:40:09Z</time>
      </trkpt>
      <trkpt lat="45.99408" lon="4.92908">
        <ele>293.5</ele>
        <time>2023-09-24T13:40:10Z</time>
      </trkpt>
      <trkpt lat="45.99409" lon="4.92912">
        <ele>293.4</ele>
        <time>2023-09-24T13:40:11Z</time>
      </trkpt>
      <trkpt lat="45.99409" lon="4.92919">
        <ele>293.3</ele>
        <time>2023-09-24T13:40:12Z</time>
      </trkpt>
      <trkpt lat="45.99409" lon="4.92925">
        <ele>293.2</ele>
        <time>2023-09-24T13:40:13Z</time>
      </trkpt>
      <trkpt lat="45.9941" lon="4.92932">
        <ele>293.1</ele>
        <time>2023-09-24T13:40:14Z</time>
      </trkpt>
      <trkpt lat="45.9941" lon="4.92937">
        <ele>293.1</ele>
        <time>2023-09-24T13:40:15Z</time>
      </trkpt>
      <trkpt lat="45.99411" lon="4.92943">
        <ele>293</ele>
        <time>2023-09-24T13:40:16Z</time>
      </trkpt>
      <trkpt lat="45.99411" lon="4.92949">
        <ele>293</ele>
        <time>2023-09-24T13:40:17Z</time>
      </trkpt>
      <trkpt lat="45.99412" lon="4.92954">
        <ele>293</ele>
        <time>2023-09-24T13:40:18Z</time>
      </trkpt>
      <trkpt lat="45.99413" lon="4.92961">
        <ele>293</ele>
        <time>2023-09-24T13:40:19Z</time>
      </trkpt>
      <trkpt lat="45.99414" lon="4.92966">
        <ele>293</ele>
        <time>2023-09-24T13:40:20Z</time>
      </trkpt>
      <trkpt lat="45.99415" lon="4.92972">
        <ele>293</ele>
        <time>2023-09-24T13:40:21Z</time>
      </trkpt>
      <trkpt lat="45.99415" lon="4.92978">
        <ele>293</ele>
        <time>2023-09-24T13:40:22Z</time>
      </trkpt>
      <trkpt lat="45.99415" lon="4.92984">
        <ele>293</ele>
        <time>2023-09-24T13:40:23Z</time>
      </trkpt>
      <trkpt lat="45.99415" lon="4.9299">
        <ele>293</ele>
        <time>2023-09-24T13:40:24Z</time>
      </trkpt>
      <trkpt lat="45.99416" lon="4.92996">
        <ele>293</ele>
        <time>2023-09-24T13:40:25Z</time>
      </trkpt>
      <trkpt lat="45.99416" lon="4.93003">
        <ele>293</ele>
        <time>2023-09-24T13:40:26Z</time>
      </trkpt>
      <trkpt lat="45.99416" lon="4.93009">
        <ele>293</ele>
        <time>2023-09-24T13:40:27Z</time>
      </trkpt>
      <trkpt lat="45.99416" lon="4.93015">
        <ele>293</ele>
        <time>2023-09-24T13:40:28Z</time>
      </trkpt>
      <trkpt lat="45.99417" lon="4.93021">
        <ele>293</ele>
        <time>2023-09-24T13:40:29Z</time>
      </trkpt>
      <trkpt lat="45.99417" lon="4.93027">
        <ele>293</ele>
        <time>2023-09-24T13:40:30Z</time>
      </trkpt>
      <trkpt lat="45.99417" lon="4.93034">
        <ele>293</ele>
        <time>2023-09-24T13:40:31Z</time>
      </trkpt>
      <trkpt lat="45.99418" lon="4.9304">
        <ele>293</ele>
        <time>2023-09-24T13:40:32Z</time>
      </trkpt>
      <trkpt lat="45.99418" lon="4.93046">
        <ele>293</ele>
        <time>2023-09-24T13:40:33Z</time>
      </trkpt>
      <trkpt lat="45.99418" lon="4.93051">
        <ele>293</ele>
        <time>2023-09-24T13:40:34Z</time>
      </trkpt>
      <trkpt lat="45.99419" lon="4.93058">
        <ele>292.8</ele>
        <time>2023-09-24T13:40:35Z</time>
      </trkpt>
      <trkpt lat="45.99419" lon="4.93064">
        <ele>292.6</ele>
        <time>2023-09-24T13:40:36Z</time>
      </trkpt>
      <trkpt lat="45.99419" lon="4.93069">
        <ele>292.5</ele>
        <time>2023-09-24T13:40:37Z</time>
      </trkpt>
      <trkpt lat="45.9942" lon="4.93075">
        <ele>292.3</ele>
        <time>2023-09-24T13:40:38Z</time>
      </trkpt>
      <trkpt lat="45.9942" lon="4.93081">
        <ele>292.1</ele>
        <time>2023-09-24T13:40:39Z</time>
      </trkpt>
      <trkpt lat="45.9942" lon="4.93087">
        <ele>292</ele>
        <time>2023-09-24T13:40:40Z</time>
      </trkpt>
      <trkpt lat="45.9942" lon="4.93093">
        <ele>292</ele>
        <time>2023-09-24T13:40:41Z</time>
      </trkpt>
      <trkpt lat="45.99421" lon="4.931">
        <ele>292</ele>
        <time>2023-09-24T13:40:42Z</time>
      </trkpt>
      <trkpt lat="45.99421" lon="4.93106">
        <ele>292</ele>
        <time>2023-09-24T13:40:43Z</time>
      </trkpt>
      <trkpt lat="45.99421" lon="4.93112">
        <ele>292</ele>
        <time>2023-09-24T13:40:44Z</time>
      </trkpt>
      <trkpt lat="45.99422" lon="4.93118">
        <ele>292</ele>
        <time>2023-09-24T13:40:45Z</time>
      </trkpt>
      <trkpt lat="45.99422" lon="4.93124">
        <ele>291.9</ele>
        <time>2023-09-24T13:40:46Z</time>
      </trkpt>
      <trkpt lat="45.99422" lon="4.9313">
        <ele>291.9</ele>
        <time>2023-09-24T13:40:47Z</time>
      </trkpt>
      <trkpt lat="45.99423" lon="4.93136">
        <ele>291.8</ele>
        <time>2023-09-24T13:40:48Z</time>
      </trkpt>
      <trkpt lat="45.99423" lon="4.93143">
        <ele>291.8</ele>
        <time>2023-09-24T13:40:49Z</time>
      </trkpt>
      <trkpt lat="45.99423" lon="4.93149">
        <ele>291.8</ele>
        <time>2023-09-24T13:40:50Z</time>
      </trkpt>
      <trkpt lat="45.99422" lon="4.93155">
        <ele>291.8</ele>
        <time>2023-09-24T13:40:51Z</time>
      </trkpt>
      <trkpt lat="45.99422" lon="4.93159">
        <ele>291.8</ele>
        <time>2023-09-24T13:40:52Z</time>
      </trkpt>
      <trkpt lat="45.99422" lon="4.93165">
        <ele>291.8</ele>
        <time>2023-09-24T13:40:53Z</time>
      </trkpt>
      <trkpt lat="45.99421" lon="4.93168">
        <ele>291.9</ele>
        <time>2023-09-24T13:40:54Z</time>
      </trkpt>
      <trkpt lat="45.9942" lon="4.93172">
        <ele>292</ele>
        <time>2023-09-24T13:40:55Z</time>
      </trkpt>
      <trkpt lat="45.9942" lon="4.93174">
        <ele>292.1</ele>
        <time>2023-09-24T13:40:56Z</time>
      </trkpt>
      <trkpt lat="45.9942" lon="4.93177">
        <ele>292.2</ele>
        <time>2023-09-24T13:40:57Z</time>
      </trkpt>
      <trkpt lat="45.9942" lon="4.93178">
        <ele>292.2</ele>
        <time>2023-09-24T13:40:58Z</time>
      </trkpt>
      <trkpt lat="45.9942" lon="4.93179">
        <ele>292.3</ele>
        <time>2023-09-24T13:40:59Z</time>
      </trkpt>
      <trkpt lat="45.99418" lon="4.93182">
        <ele>292.5</ele>
        <time>2023-09-24T13:41:00Z</time>
      </trkpt>
      <trkpt lat="45.99417" lon="4.93183">
        <ele>292.6</ele>
        <time>2023-09-24T13:41:01Z</time>
      </trkpt>
      <trkpt lat="45.99417" lon="4.93183">
        <ele>292.6</ele>
        <time>2023-09-24T13:41:02Z</time>
      </trkpt>
      <trkpt lat="45.99416" lon="4.93185">
        <ele>292.7</ele>
        <time>2023-09-24T13:41:03Z</time>
      </trkpt>
      <trkpt lat="45.99417" lon="4.93186">
        <ele>292.7</ele>
        <time>2023-09-24T13:41:04Z</time>
      </trkpt>
      <trkpt lat="45.99418" lon="4.93188">
        <ele>292.7</ele>
        <time>2023-09-24T13:41:05Z</time>
      </trkpt>
      <trkpt lat="45.9942" lon="4.93186">
        <ele>292.5</ele>
        <time>2023-09-24T13:41:06Z</time>
      </trkpt>
      <trkpt lat="45.99421" lon="4.93185">
        <ele>292.4</ele>
        <time>2023-09-24T13:41:07Z</time>
      </trkpt>
      <trkpt lat="45.99422" lon="4.93184">
        <ele>292.3</ele>
        <time>2023-09-24T13:41:08Z</time>
      </trkpt>
      <trkpt lat="45.99422" lon="4.93182">
        <ele>292.3</ele>
        <time>2023-09-24T13:41:09Z</time>
      </trkpt>
      <trkpt lat="45.99421" lon="4.9318">
        <ele>292.2</ele>
        <time>2023-09-24T13:41:10Z</time>
      </trkpt>
      <trkpt lat="45.99421" lon="4.9318">
        <ele>292.2</ele>
        <time>2023-09-24T13:41:11Z</time>
      </trkpt>
      <trkpt lat="45.99421" lon="4.9318">
        <ele>292.2</ele>
        <time>2023-09-24T13:41:12Z</time>
      </trkpt>
      <trkpt lat="45.99421" lon="4.9318">
        <ele>292.2</ele>
        <time>2023-09-24T13:41:13Z</time>
      </trkpt>
      <trkpt lat="45.99421" lon="4.9318">
        <ele>292.2</ele>
        <time>2023-09-24T13:41:14Z</time>
      </trkpt>
      <trkpt lat="45.99421" lon="4.9318">
        <ele>292.2</ele>
        <time>2023-09-24T13:41:15Z</time>
      </trkpt>
      <trkpt lat="45.99421" lon="4.9318">
        <ele>292.2</ele>
        <time>2023-09-24T13:41:16Z</time>
      </trkpt>
      <trkpt lat="45.99421" lon="4.9318">
        <ele>292.2</ele>
        <time>2023-09-24T13:41:17Z</time>
      </trkpt>
      <trkpt lat="45.99421" lon="4.9318">
        <ele>292.2</ele>
        <time>2023-09-24T13:41:18Z</time>
      </trkpt>
      <trkpt lat="45.99421" lon="4.9318">
        <ele>292.2</ele>
        <time>2023-09-24T13:41:19Z</time>
      </trkpt>
      <trkpt lat="45.99417" lon="4.9318">
        <ele>292.5</ele>
        <time>2023-09-24T13:41:46Z</time>
      </trkpt>
      <trkpt lat="45.99417" lon="4.93181">
        <ele>292.5</ele>
        <time>2023-09-24T13:41:47Z</time>
      </trkpt>
      <trkpt lat="45.99417" lon="4.93183">
        <ele>292.6</ele>
        <time>2023-09-24T13:41:48Z</time>
      </trkpt>
      <trkpt lat="45.99417" lon="4.93184">
        <ele>292.6</ele>
        <time>2023-09-24T13:41:49Z</time>
      </trkpt>
      <trkpt lat="45.99419" lon="4.93189">
        <ele>292.7</ele>
        <time>2023-09-24T13:41:50Z</time>
      </trkpt>
      <trkpt lat="45.99419" lon="4.93191">
        <ele>292.7</ele>
        <time>2023-09-24T13:41:51Z</time>
      </trkpt>
      <trkpt lat="45.9942" lon="4.93196">
        <ele>292.8</ele>
        <time>2023-09-24T13:41:52Z</time>
      </trkpt>
      <trkpt lat="45.9942" lon="4.932">
        <ele>292.8</ele>
        <time>2023-09-24T13:41:53Z</time>
      </trkpt>
      <trkpt lat="45.99421" lon="4.93204">
        <ele>292.7</ele>
        <time>2023-09-24T13:41:54Z</time>
      </trkpt>
      <trkpt lat="45.99421" lon="4.93208">
        <ele>292.7</ele>
        <time>2023-09-24T13:41:55Z</time>
      </trkpt>
      <trkpt lat="45.99421" lon="4.93213">
        <ele>292.7</ele>
        <time>2023-09-24T13:41:56Z</time>
      </trkpt>
      <trkpt lat="45.99422" lon="4.93217">
        <ele>292.6</ele>
        <time>2023-09-24T13:41:57Z</time>
      </trkpt>
      <trkpt lat="45.99422" lon="4.93223">
        <ele>292.6</ele>
        <time>2023-09-24T13:41:58Z</time>
      </trkpt>
      <trkpt lat="45.99422" lon="4.93228">
        <ele>292.4</ele>
        <time>2023-09-24T13:41:59Z</time>
      </trkpt>
      <trkpt lat="45.99422" lon="4.93233">
        <ele>292.2</ele>
        <time>2023-09-24T13:42:00Z</time>
      </trkpt>
      <trkpt lat="45.99423" lon="4.93238">
        <ele>292</ele>
        <time>2023-09-24T13:42:01Z</time>
      </trkpt>
      <trkpt lat="45.99422" lon="4.93242">
        <ele>291.9</ele>
        <time>2023-09-24T13:42:02Z</time>
      </trkpt>
      <trkpt lat="45.99423" lon="4.93246">
        <ele>291.7</ele>
        <time>2023-09-24T13:42:03Z</time>
      </trkpt>
      <trkpt lat="45.99423" lon="4.93252">
        <ele>291.5</ele>
        <time>2023-09-24T13:42:04Z</time>
      </trkpt>
      <trkpt lat="45.99423" lon="4.93254">
        <ele>291.5</ele>
        <time>2023-09-24T13:42:05Z</time>
      </trkpt>
      <trkpt lat="45.99424" lon="4.93259">
        <ele>291.5</ele>
        <time>2023-09-24T13:42:06Z</time>
      </trkpt>
      <trkpt lat="45.99424" lon="4.93264">
        <ele>291.5</ele>
        <time>2023-09-24T13:42:07Z</time>
      </trkpt>
      <trkpt lat="45.99424" lon="4.93269">
        <ele>291.5</ele>
        <time>2023-09-24T13:42:08Z</time>
      </trkpt>
      <trkpt lat="45.99424" lon="4.93274">
        <ele>291.5</ele>
        <time>2023-09-24T13:42:09Z</time>
      </trkpt>
      <trkpt lat="45.99425" lon="4.93278">
        <ele>291.4</ele>
        <time>2023-09-24T13:42:10Z</time>
      </trkpt>
      <trkpt lat="45.99426" lon="4.93284">
        <ele>291.3</ele>
        <time>2023-09-24T13:42:11Z</time>
      </trkpt>
      <trkpt lat="45.99426" lon="4.93288">
        <ele>291.3</ele>
        <time>2023-09-24T13:42:12Z</time>
      </trkpt>
      <trkpt lat="45.99427" lon="4.93294">
        <ele>291.3</ele>
        <time>2023-09-24T13:42:13Z</time>
      </trkpt>
      <trkpt lat="45.99428" lon="4.93299">
        <ele>291.2</ele>
        <time>2023-09-24T13:42:14Z</time>
      </trkpt>
      <trkpt lat="45.99428" lon="4.93304">
        <ele>291.2</ele>
        <time>2023-09-24T13:42:15Z</time>
      </trkpt>
      <trkpt lat="45.99428" lon="4.9331">
        <ele>291.2</ele>
        <time>2023-09-24T13:42:16Z</time>
      </trkpt>
      <trkpt lat="45.99429" lon="4.93314">
        <ele>291.1</ele>
        <time>2023-09-24T13:42:17Z</time>
      </trkpt>
      <trkpt lat="45.99429" lon="4.93319">
        <ele>291.1</ele>
        <time>2023-09-24T13:42:18Z</time>
      </trkpt>
      <trkpt lat="45.9943" lon="4.93324">
        <ele>291</ele>
        <time>2023-09-24T13:42:19Z</time>
      </trkpt>
      <trkpt lat="45.9943" lon="4.93329">
        <ele>291</ele>
        <time>2023-09-24T13:42:20Z</time>
      </trkpt>
      <trkpt lat="45.9943" lon="4.93331">
        <ele>291</ele>
        <time>2023-09-24T13:42:21Z</time>
      </trkpt>
      <trkpt lat="45.99431" lon="4.93336">
        <ele>291</ele>
        <time>2023-09-24T13:42:22Z</time>
      </trkpt>
      <trkpt lat="45.99431" lon="4.9334">
        <ele>291</ele>
        <time>2023-09-24T13:42:23Z</time>
      </trkpt>
      <trkpt lat="45.99431" lon="4.93344">
        <ele>291</ele>
        <time>2023-09-24T13:42:24Z</time>
      </trkpt>
      <trkpt lat="45.99432" lon="4.93349">
        <ele>290.9</ele>
        <time>2023-09-24T13:42:25Z</time>
      </trkpt>
      <trkpt lat="45.99432" lon="4.9335">
        <ele>290.9</ele>
        <time>2023-09-24T13:42:26Z</time>
      </trkpt>
      <trkpt lat="45.99433" lon="4.93352">
        <ele>290.8</ele>
        <time>2023-09-24T13:42:27Z</time>
      </trkpt>
      <trkpt lat="45.99434" lon="4.93354">
        <ele>290.8</ele>
        <time>2023-09-24T13:42:28Z</time>
      </trkpt>
      <trkpt lat="45.99435" lon="4.93355">
        <ele>290.7</ele>
        <time>2023-09-24T13:42:29Z</time>
      </trkpt>
      <trkpt lat="45.99437" lon="4.93357">
        <ele>290.5</ele>
        <time>2023-09-24T13:42:30Z</time>
      </trkpt>
      <trkpt lat="45.9944" lon="4.93359">
        <ele>290.3</ele>
        <time>2023-09-24T13:42:31Z</time>
      </trkpt>
      <trkpt lat="45.99442" lon="4.93359">
        <ele>290.2</ele>
        <time>2023-09-24T13:42:32Z</time>
      </trkpt>
      <trkpt lat="45.99444" lon="4.9336">
        <ele>290</ele>
        <time>2023-09-24T13:42:33Z</time>
      </trkpt>
      <trkpt lat="45.99447" lon="4.93362">
        <ele>290</ele>
        <time>2023-09-24T13:42:34Z</time>
      </trkpt>
      <trkpt lat="45.99448" lon="4.93363">
        <ele>290</ele>
        <time>2023-09-24T13:42:35Z</time>
      </trkpt>
      <trkpt lat="45.9945" lon="4.93363">
        <ele>290</ele>
        <time>2023-09-24T13:42:36Z</time>
      </trkpt>
      <trkpt lat="45.99451" lon="4.93363">
        <ele>290</ele>
        <time>2023-09-24T13:42:37Z</time>
      </trkpt>
      <trkpt lat="45.99452" lon="4.93363">
        <ele>290</ele>
        <time>2023-09-24T13:42:38Z</time>
      </trkpt>
      <trkpt lat="45.99456" lon="4.93359">
        <ele>290</ele>
        <time>2023-09-24T13:42:39Z</time>
      </trkpt>
      <trkpt lat="45.99457" lon="4.93357">
        <ele>290</ele>
        <time>2023-09-24T13:42:40Z</time>
      </trkpt>
      <trkpt lat="45.9946" lon="4.93352">
        <ele>290</ele>
        <time>2023-09-24T13:42:41Z</time>
      </trkpt>
      <trkpt lat="45.99462" lon="4.93346">
        <ele>290</ele>
        <time>2023-09-24T13:42:42Z</time>
      </trkpt>
      <trkpt lat="45.99464" lon="4.93339">
        <ele>290</ele>
        <time>2023-09-24T13:42:43Z</time>
      </trkpt>
      <trkpt lat="45.99466" lon="4.93332">
        <ele>290</ele>
        <time>2023-09-24T13:42:44Z</time>
      </trkpt>
      <trkpt lat="45.99469" lon="4.93326">
        <ele>290</ele>
        <time>2023-09-24T13:42:45Z</time>
      </trkpt>
      <trkpt lat="45.99472" lon="4.93319">
        <ele>290</ele>
        <time>2023-09-24T13:42:46Z</time>
      </trkpt>
      <trkpt lat="45.99476" lon="4.93314">
        <ele>290</ele>
        <time>2023-09-24T13:42:47Z</time>
      </trkpt>
      <trkpt lat="45.99479" lon="4.93309">
        <ele>290</ele>
        <time>2023-09-24T13:42:48Z</time>
      </trkpt>
      <trkpt lat="45.99482" lon="4.93303">
        <ele>290</ele>
        <time>2023-09-24T13:42:49Z</time>
      </trkpt>
      <trkpt lat="45.99485" lon="4.93298">
        <ele>290</ele>
        <time>2023-09-24T13:42:50Z</time>
      </trkpt>
      <trkpt lat="45.99488" lon="4.93292">
        <ele>290</ele>
        <time>2023-09-24T13:42:51Z</time>
      </trkpt>
      <trkpt lat="45.9949" lon="4.93287">
        <ele>290</ele>
        <time>2023-09-24T13:42:52Z</time>
      </trkpt>
      <trkpt lat="45.99493" lon="4.93283">
        <ele>290</ele>
        <time>2023-09-24T13:42:53Z</time>
      </trkpt>
      <trkpt lat="45.99495" lon="4.93279">
        <ele>290</ele>
        <time>2023-09-24T13:42:54Z</time>
      </trkpt>
      <trkpt lat="45.99499" lon="4.93274">
        <ele>290</ele>
        <time>2023-09-24T13:42:55Z</time>
      </trkpt>
      <trkpt lat="45.99501" lon="4.93268">
        <ele>290</ele>
        <time>2023-09-24T13:42:56Z</time>
      </trkpt>
      <trkpt lat="45.99504" lon="4.93263">
        <ele>290</ele>
        <time>2023-09-24T13:42:57Z</time>
      </trkpt>
      <trkpt lat="45.99507" lon="4.93257">
        <ele>290</ele>
        <time>2023-09-24T13:42:58Z</time>
      </trkpt>
      <trkpt lat="45.9951" lon="4.93253">
        <ele>290</ele>
        <time>2023-09-24T13:42:59Z</time>
      </trkpt>
      <trkpt lat="45.99513" lon="4.93247">
        <ele>290</ele>
        <time>2023-09-24T13:43:00Z</time>
      </trkpt>
      <trkpt lat="45.99516" lon="4.9324">
        <ele>290</ele>
        <time>2023-09-24T13:43:01Z</time>
      </trkpt>
      <trkpt lat="45.99519" lon="4.93234">
        <ele>290</ele>
        <time>2023-09-24T13:43:02Z</time>
      </trkpt>
      <trkpt lat="45.99522" lon="4.93228">
        <ele>290</ele>
        <time>2023-09-24T13:43:03Z</time>
      </trkpt>
      <trkpt lat="45.99525" lon="4.93223">
        <ele>290</ele>
        <time>2023-09-24T13:43:04Z</time>
      </trkpt>
      <trkpt lat="45.99528" lon="4.93217">
        <ele>290</ele>
        <time>2023-09-24T13:43:05Z</time>
      </trkpt>
      <trkpt lat="45.9953" lon="4.93213">
        <ele>290</ele>
        <time>2023-09-24T13:43:06Z</time>
      </trkpt>
      <trkpt lat="45.99533" lon="4.93209">
        <ele>290</ele>
        <time>2023-09-24T13:43:07Z</time>
      </trkpt>
      <trkpt lat="45.99535" lon="4.93206">
        <ele>290</ele>
        <time>2023-09-24T13:43:08Z</time>
      </trkpt>
      <trkpt lat="45.99538" lon="4.93203">
        <ele>290</ele>
        <time>2023-09-24T13:43:09Z</time>
      </trkpt>
      <trkpt lat="45.99541" lon="4.93201">
        <ele>290</ele>
        <time>2023-09-24T13:43:10Z</time>
      </trkpt>
      <trkpt lat="45.99544" lon="4.93197">
        <ele>290</ele>
        <time>2023-09-24T13:43:11Z</time>
      </trkpt>
      <trkpt lat="45.99545" lon="4.93195">
        <ele>290</ele>
        <time>2023-09-24T13:43:12Z</time>
      </trkpt>
      <trkpt lat="45.99546" lon="4.93191">
        <ele>290</ele>
        <time>2023-09-24T13:43:13Z</time>
      </trkpt>
      <trkpt lat="45.99548" lon="4.93187">
        <ele>290</ele>
        <time>2023-09-24T13:43:14Z</time>
      </trkpt>
      <trkpt lat="45.99549" lon="4.93183">
        <ele>290</ele>
        <time>2023-09-24T13:43:15Z</time>
      </trkpt>
      <trkpt lat="45.9955" lon="4.93178">
        <ele>290</ele>
        <time>2023-09-24T13:43:16Z</time>
      </trkpt>
      <trkpt lat="45.99553" lon="4.93173">
        <ele>290</ele>
        <time>2023-09-24T13:43:17Z</time>
      </trkpt>
      <trkpt lat="45.99556" lon="4.93168">
        <ele>290</ele>
        <time>2023-09-24T13:43:18Z</time>
      </trkpt>
      <trkpt lat="45.99558" lon="4.93163">
        <ele>290</ele>
        <time>2023-09-24T13:43:19Z</time>
      </trkpt>
      <trkpt lat="45.99561" lon="4.93158">
        <ele>290</ele>
        <time>2023-09-24T13:43:20Z</time>
      </trkpt>
      <trkpt lat="45.99563" lon="4.93153">
        <ele>290</ele>
        <time>2023-09-24T13:43:21Z</time>
      </trkpt>
      <trkpt lat="45.99565" lon="4.93147">
        <ele>290</ele>
        <time>2023-09-24T13:43:22Z</time>
      </trkpt>
      <trkpt lat="45.99568" lon="4.93141">
        <ele>290</ele>
        <time>2023-09-24T13:43:23Z</time>
      </trkpt>
      <trkpt lat="45.9957" lon="4.93136">
        <ele>290</ele>
        <time>2023-09-24T13:43:24Z</time>
      </trkpt>
      <trkpt lat="45.99573" lon="4.93132">
        <ele>290</ele>
        <time>2023-09-24T13:43:25Z</time>
      </trkpt>
      <trkpt lat="45.99576" lon="4.93127">
        <ele>290</ele>
        <time>2023-09-24T13:43:26Z</time>
      </trkpt>
      <trkpt lat="45.99579" lon="4.93121">
        <ele>290</ele>
        <time>2023-09-24T13:43:27Z</time>
      </trkpt>
      <trkpt lat="45.99581" lon="4.93117">
        <ele>290</ele>
        <time>2023-09-24T13:43:28Z</time>
      </trkpt>
      <trkpt lat="45.99584" lon="4.93112">
        <ele>290</ele>
        <time>2023-09-24T13:43:29Z</time>
      </trkpt>
      <trkpt lat="45.99587" lon="4.93107">
        <ele>290</ele>
        <time>2023-09-24T13:43:30Z</time>
      </trkpt>
      <trkpt lat="45.9959" lon="4.93101">
        <ele>290</ele>
        <time>2023-09-24T13:43:31Z</time>
      </trkpt>
      <trkpt lat="45.99593" lon="4.93096">
        <ele>290</ele>
        <time>2023-09-24T13:43:32Z</time>
      </trkpt>
      <trkpt lat="45.99596" lon="4.93091">
        <ele>290</ele>
        <time>2023-09-24T13:43:33Z</time>
      </trkpt>
      <trkpt lat="45.99598" lon="4.93085">
        <ele>290</ele>
        <time>2023-09-24T13:43:34Z</time>
      </trkpt>
      <trkpt lat="45.99601" lon="4.93079">
        <ele>290</ele>
        <time>2023-09-24T13:43:35Z</time>
      </trkpt>
      <trkpt lat="45.99604" lon="4.93074">
        <ele>290</ele>
        <time>2023-09-24T13:43:36Z</time>
      </trkpt>
      <trkpt lat="45.99607" lon="4.93068">
        <ele>290</ele>
        <time>2023-09-24T13:43:37Z</time>
      </trkpt>
      <trkpt lat="45.9961" lon="4.93063">
        <ele>290</ele>
        <time>2023-09-24T13:43:38Z</time>
      </trkpt>
      <trkpt lat="45.99613" lon="4.93058">
        <ele>290</ele>
        <time>2023-09-24T13:43:39Z</time>
      </trkpt>
      <trkpt lat="45.99616" lon="4.93052">
        <ele>290</ele>
        <time>2023-09-24T13:43:40Z</time>
      </trkpt>
      <trkpt lat="45.99619" lon="4.93047">
        <ele>290</ele>
        <time>2023-09-24T13:43:41Z</time>
      </trkpt>
      <trkpt lat="45.99622" lon="4.93041">
        <ele>290</ele>
        <time>2023-09-24T13:43:42Z</time>
      </trkpt>
      <trkpt lat="45.99625" lon="4.93035">
        <ele>290</ele>
        <time>2023-09-24T13:43:43Z</time>
      </trkpt>
      <trkpt lat="45.99627" lon="4.9303">
        <ele>290</ele>
        <time>2023-09-24T13:43:44Z</time>
      </trkpt>
      <trkpt lat="45.9963" lon="4.93024">
        <ele>290</ele>
        <time>2023-09-24T13:43:45Z</time>
      </trkpt>
      <trkpt lat="45.99633" lon="4.93018">
        <ele>290</ele>
        <time>2023-09-24T13:43:46Z</time>
      </trkpt>
      <trkpt lat="45.99636" lon="4.93013">
        <ele>290</ele>
        <time>2023-09-24T13:43:47Z</time>
      </trkpt>
      <trkpt lat="45.9964" lon="4.93007">
        <ele>290</ele>
        <time>2023-09-24T13:43:48Z</time>
      </trkpt>
      <trkpt lat="45.99643" lon="4.93">
        <ele>290</ele>
        <time>2023-09-24T13:43:49Z</time>
      </trkpt>
      <trkpt lat="45.99646" lon="4.92994">
        <ele>290</ele>
        <time>2023-09-24T13:43:50Z</time>
      </trkpt>
      <trkpt lat="45.99649" lon="4.92988">
        <ele>290</ele>
        <time>2023-09-24T13:43:51Z</time>
      </trkpt>
      <trkpt lat="45.99652" lon="4.92982">
        <ele>290</ele>
        <time>2023-09-24T13:43:52Z</time>
      </trkpt>
      <trkpt lat="45.99655" lon="4.92976">
        <ele>290</ele>
        <time>2023-09-24T13:43:53Z</time>
      </trkpt>
      <trkpt lat="45.99659" lon="4.9297">
        <ele>290</ele>
        <time>2023-09-24T13:43:54Z</time>
      </trkpt>
      <trkpt lat="45.99662" lon="4.92963">
        <ele>290</ele>
        <time>2023-09-24T13:43:55Z</time>
      </trkpt>
      <trkpt lat="45.99666" lon="4.92957">
        <ele>290</ele>
        <time>2023-09-24T13:43:56Z</time>
      </trkpt>
      <trkpt lat="45.99669" lon="4.92951">
        <ele>290</ele>
        <time>2023-09-24T13:43:57Z</time>
      </trkpt>
      <trkpt lat="45.99672" lon="4.92945">
        <ele>290</ele>
        <time>2023-09-24T13:43:58Z</time>
      </trkpt>
      <trkpt lat="45.99676" lon="4.92939">
        <ele>290</ele>
        <time>2023-09-24T13:43:59Z</time>
      </trkpt>
      <trkpt lat="45.99679" lon="4.92933">
        <ele>290</ele>
        <time>2023-09-24T13:44:00Z</time>
      </trkpt>
      <trkpt lat="45.99682" lon="4.92926">
        <ele>290</ele>
        <time>2023-09-24T13:44:01Z</time>
      </trkpt>
      <trkpt lat="45.99685" lon="4.9292">
        <ele>290</ele>
        <time>2023-09-24T13:44:02Z</time>
      </trkpt>
      <trkpt lat="45.99689" lon="4.92914">
        <ele>290</ele>
        <time>2023-09-24T13:44:03Z</time>
      </trkpt>
      <trkpt lat="45.99692" lon="4.92908">
        <ele>290</ele>
        <time>2023-09-24T13:44:04Z</time>
      </trkpt>
      <trkpt lat="45.99695" lon="4.92903">
        <ele>290</ele>
        <time>2023-09-24T13:44:05Z</time>
      </trkpt>
      <trkpt lat="45.99698" lon="4.92897">
        <ele>290</ele>
        <time>2023-09-24T13:44:06Z</time>
      </trkpt>
      <trkpt lat="45.99701" lon="4.92893">
        <ele>290</ele>
        <time>2023-09-24T13:44:07Z</time>
      </trkpt>
      <trkpt lat="45.99704" lon="4.92889">
        <ele>290</ele>
        <time>2023-09-24T13:44:08Z</time>
      </trkpt>
      <trkpt lat="45.99708" lon="4.92886">
        <ele>290</ele>
        <time>2023-09-24T13:44:09Z</time>
      </trkpt>
      <trkpt lat="45.99711" lon="4.92884">
        <ele>290</ele>
        <time>2023-09-24T13:44:10Z</time>
      </trkpt>
      <trkpt lat="45.99716" lon="4.92884">
        <ele>290</ele>
        <time>2023-09-24T13:44:11Z</time>
      </trkpt>
      <trkpt lat="45.99721" lon="4.92884">
        <ele>290</ele>
        <time>2023-09-24T13:44:12Z</time>
      </trkpt>
      <trkpt lat="45.99725" lon="4.92886">
        <ele>290</ele>
        <time>2023-09-24T13:44:13Z</time>
      </trkpt>
      <trkpt lat="45.9973" lon="4.92888">
        <ele>290</ele>
        <time>2023-09-24T13:44:14Z</time>
      </trkpt>
      <trkpt lat="45.99735" lon="4.9289">
        <ele>290</ele>
        <time>2023-09-24T13:44:15Z</time>
      </trkpt>
      <trkpt lat="45.99739" lon="4.92894">
        <ele>290</ele>
        <time>2023-09-24T13:44:16Z</time>
      </trkpt>
      <trkpt lat="45.99743" lon="4.92896">
        <ele>290</ele>
        <time>2023-09-24T13:44:17Z</time>
      </trkpt>
      <trkpt lat="45.99747" lon="4.92896">
        <ele>290</ele>
        <time>2023-09-24T13:44:18Z</time>
      </trkpt>
      <trkpt lat="45.99752" lon="4.92896">
        <ele>290</ele>
        <time>2023-09-24T13:44:19Z</time>
      </trkpt>
      <trkpt lat="45.99757" lon="4.92895">
        <ele>290</ele>
        <time>2023-09-24T13:44:20Z</time>
      </trkpt>
      <trkpt lat="45.9976" lon="4.92894">
        <ele>290</ele>
        <time>2023-09-24T13:44:21Z</time>
      </trkpt>
      <trkpt lat="45.99765" lon="4.92893">
        <ele>290</ele>
        <time>2023-09-24T13:44:22Z</time>
      </trkpt>
      <trkpt lat="45.99769" lon="4.92893">
        <ele>290</ele>
        <time>2023-09-24T13:44:23Z</time>
      </trkpt>
      <trkpt lat="45.99773" lon="4.92892">
        <ele>290</ele>
        <time>2023-09-24T13:44:24Z</time>
      </trkpt>
      <trkpt lat="45.99779" lon="4.92892">
        <ele>290</ele>
        <time>2023-09-24T13:44:25Z</time>
      </trkpt>
      <trkpt lat="45.99784" lon="4.92892">
        <ele>290.2</ele>
        <time>2023-09-24T13:44:26Z</time>
      </trkpt>
      <trkpt lat="45.99789" lon="4.92892">
        <ele>290.4</ele>
        <time>2023-09-24T13:44:27Z</time>
      </trkpt>
      <trkpt lat="45.99794" lon="4.92891">
        <ele>290.6</ele>
        <time>2023-09-24T13:44:28Z</time>
      </trkpt>
      <trkpt lat="45.99799" lon="4.92891">
        <ele>290.8</ele>
        <time>2023-09-24T13:44:29Z</time>
      </trkpt>
      <trkpt lat="45.99804" lon="4.92891">
        <ele>290.9</ele>
        <time>2023-09-24T13:44:30Z</time>
      </trkpt>
      <trkpt lat="45.99808" lon="4.9289">
        <ele>291</ele>
        <time>2023-09-24T13:44:31Z</time>
      </trkpt>
      <trkpt lat="45.99812" lon="4.9289">
        <ele>291</ele>
        <time>2023-09-24T13:44:32Z</time>
      </trkpt>
      <trkpt lat="45.99815" lon="4.92889">
        <ele>291</ele>
        <time>2023-09-24T13:44:33Z</time>
      </trkpt>
      <trkpt lat="45.99818" lon="4.92888">
        <ele>291</ele>
        <time>2023-09-24T13:44:34Z</time>
      </trkpt>
      <trkpt lat="45.99821" lon="4.92887">
        <ele>291</ele>
        <time>2023-09-24T13:44:35Z</time>
      </trkpt>
      <trkpt lat="45.99824" lon="4.92887">
        <ele>291</ele>
        <time>2023-09-24T13:44:36Z</time>
      </trkpt>
      <trkpt lat="45.99825" lon="4.92888">
        <ele>291</ele>
        <time>2023-09-24T13:44:37Z</time>
      </trkpt>
      <trkpt lat="45.99826" lon="4.92893">
        <ele>291</ele>
        <time>2023-09-24T13:44:38Z</time>
      </trkpt>
      <trkpt lat="45.99825" lon="4.92896">
        <ele>291</ele>
        <time>2023-09-24T13:44:39Z</time>
      </trkpt>
      <trkpt lat="45.99825" lon="4.92901">
        <ele>291</ele>
        <time>2023-09-24T13:44:40Z</time>
      </trkpt>
      <trkpt lat="45.99825" lon="4.92906">
        <ele>291</ele>
        <time>2023-09-24T13:44:41Z</time>
      </trkpt>
      <trkpt lat="45.99825" lon="4.9291">
        <ele>291</ele>
        <time>2023-09-24T13:44:42Z</time>
      </trkpt>
      <trkpt lat="45.99825" lon="4.92915">
        <ele>291</ele>
        <time>2023-09-24T13:44:43Z</time>
      </trkpt>
      <trkpt lat="45.99825" lon="4.92919">
        <ele>291</ele>
        <time>2023-09-24T13:44:44Z</time>
      </trkpt>
      <trkpt lat="45.99825" lon="4.92923">
        <ele>291</ele>
        <time>2023-09-24T13:44:45Z</time>
      </trkpt>
      <trkpt lat="45.99825" lon="4.92928">
        <ele>291</ele>
        <time>2023-09-24T13:44:46Z</time>
      </trkpt>
      <trkpt lat="45.99825" lon="4.9293">
        <ele>291</ele>
        <time>2023-09-24T13:44:47Z</time>
      </trkpt>
      <trkpt lat="45.99825" lon="4.92936">
        <ele>291</ele>
        <time>2023-09-24T13:44:48Z</time>
      </trkpt>
      <trkpt lat="45.99825" lon="4.92938">
        <ele>291</ele>
        <time>2023-09-24T13:44:49Z</time>
      </trkpt>
      <trkpt lat="45.99825" lon="4.92945">
        <ele>291</ele>
        <time>2023-09-24T13:44:50Z</time>
      </trkpt>
      <trkpt lat="45.99825" lon="4.9295">
        <ele>290.9</ele>
        <time>2023-09-24T13:44:51Z</time>
      </trkpt>
      <trkpt lat="45.99825" lon="4.92953">
        <ele>290.8</ele>
        <time>2023-09-24T13:44:52Z</time>
      </trkpt>
      <trkpt lat="45.99825" lon="4.92957">
        <ele>290.7</ele>
        <time>2023-09-24T13:44:53Z</time>
      </trkpt>
      <trkpt lat="45.99825" lon="4.92962">
        <ele>290.6</ele>
        <time>2023-09-24T13:44:54Z</time>
      </trkpt>
      <trkpt lat="45.99825" lon="4.92968">
        <ele>290.4</ele>
        <time>2023-09-24T13:44:55Z</time>
      </trkpt>
      <trkpt lat="45.99825" lon="4.92973">
        <ele>290.3</ele>
        <time>2023-09-24T13:44:56Z</time>
      </trkpt>
      <trkpt lat="45.99825" lon="4.92979">
        <ele>290.3</ele>
        <time>2023-09-24T13:44:57Z</time>
      </trkpt>
      <trkpt lat="45.99825" lon="4.92984">
        <ele>290.3</ele>
        <time>2023-09-24T13:44:58Z</time>
      </trkpt>
      <trkpt lat="45.99825" lon="4.9299">
        <ele>290.3</ele>
        <time>2023-09-24T13:44:59Z</time>
      </trkpt>
      <trkpt lat="45.99825" lon="4.92996">
        <ele>290.3</ele>
        <time>2023-09-24T13:45:00Z</time>
      </trkpt>
      <trkpt lat="45.99825" lon="4.93002">
        <ele>290.3</ele>
        <time>2023-09-24T13:45:01Z</time>
      </trkpt>
      <trkpt lat="45.99825" lon="4.93008">
        <ele>290.3</ele>
        <time>2023-09-24T13:45:02Z</time>
      </trkpt>
      <trkpt lat="45.99825" lon="4.93014">
        <ele>290.3</ele>
        <time>2023-09-24T13:45:03Z</time>
      </trkpt>
      <trkpt lat="45.99825" lon="4.93019">
        <ele>290.3</ele>
        <time>2023-09-24T13:45:04Z</time>
      </trkpt>
      <trkpt lat="45.99825" lon="4.93026">
        <ele>290.3</ele>
        <time>2023-09-24T13:45:05Z</time>
      </trkpt>
      <trkpt lat="45.99825" lon="4.93031">
        <ele>290.3</ele>
        <time>2023-09-24T13:45:06Z</time>
      </trkpt>
      <trkpt lat="45.99825" lon="4.93037">
        <ele>290.3</ele>
        <time>2023-09-24T13:45:07Z</time>
      </trkpt>
      <trkpt lat="45.99826" lon="4.93042">
        <ele>290.3</ele>
        <time>2023-09-24T13:45:08Z</time>
      </trkpt>
      <trkpt lat="45.99825" lon="4.93048">
        <ele>290.3</ele>
        <time>2023-09-24T13:45:09Z</time>
      </trkpt>
      <trkpt lat="45.99825" lon="4.93054">
        <ele>290.3</ele>
        <time>2023-09-24T13:45:10Z</time>
      </trkpt>
      <trkpt lat="45.99825" lon="4.93059">
        <ele>290.3</ele>
        <time>2023-09-24T13:45:11Z</time>
      </trkpt>
      <trkpt lat="45.99825" lon="4.93065">
        <ele>290.2</ele>
        <time>2023-09-24T13:45:12Z</time>
      </trkpt>
      <trkpt lat="45.99825" lon="4.93071">
        <ele>290.1</ele>
        <time>2023-09-24T13:45:13Z</time>
      </trkpt>
      <trkpt lat="45.99825" lon="4.93078">
        <ele>290.1</ele>
        <time>2023-09-24T13:45:14Z</time>
      </trkpt>
      <trkpt lat="45.99825" lon="4.93084">
        <ele>290</ele>
        <time>2023-09-24T13:45:15Z</time>
      </trkpt>
      <trkpt lat="45.99826" lon="4.9309">
        <ele>290</ele>
        <time>2023-09-24T13:45:16Z</time>
      </trkpt>
      <trkpt lat="45.99825" lon="4.93096">
        <ele>290</ele>
        <time>2023-09-24T13:45:17Z</time>
      </trkpt>
      <trkpt lat="45.99826" lon="4.93102">
        <ele>290</ele>
        <time>2023-09-24T13:45:18Z</time>
      </trkpt>
      <trkpt lat="45.99826" lon="4.93108">
        <ele>290</ele>
        <time>2023-09-24T13:45:19Z</time>
      </trkpt>
      <trkpt lat="45.99826" lon="4.93114">
        <ele>290.1</ele>
        <time>2023-09-24T13:45:20Z</time>
      </trkpt>
      <trkpt lat="45.99826" lon="4.9312">
        <ele>290.2</ele>
        <time>2023-09-24T13:45:21Z</time>
      </trkpt>
      <trkpt lat="45.99826" lon="4.93127">
        <ele>290.4</ele>
        <time>2023-09-24T13:45:22Z</time>
      </trkpt>
      <trkpt lat="45.99826" lon="4.93132">
        <ele>290.6</ele>
        <time>2023-09-24T13:45:23Z</time>
      </trkpt>
      <trkpt lat="45.99826" lon="4.93139">
        <ele>290.7</ele>
        <time>2023-09-24T13:45:24Z</time>
      </trkpt>
      <trkpt lat="45.99826" lon="4.93145">
        <ele>290.6</ele>
        <time>2023-09-24T13:45:25Z</time>
      </trkpt>
      <trkpt lat="45.99826" lon="4.93151">
        <ele>290.4</ele>
        <time>2023-09-24T13:45:26Z</time>
      </trkpt>
      <trkpt lat="45.99826" lon="4.93157">
        <ele>290.3</ele>
        <time>2023-09-24T13:45:27Z</time>
      </trkpt>
      <trkpt lat="45.99826" lon="4.93163">
        <ele>290.1</ele>
        <time>2023-09-24T13:45:28Z</time>
      </trkpt>
      <trkpt lat="45.99826" lon="4.9317">
        <ele>290</ele>
        <time>2023-09-24T13:45:29Z</time>
      </trkpt>
      <trkpt lat="45.99825" lon="4.93175">
        <ele>290</ele>
        <time>2023-09-24T13:45:30Z</time>
      </trkpt>
      <trkpt lat="45.99826" lon="4.93182">
        <ele>290</ele>
        <time>2023-09-24T13:45:31Z</time>
      </trkpt>
      <trkpt lat="45.99826" lon="4.93188">
        <ele>290</ele>
        <time>2023-09-24T13:45:32Z</time>
      </trkpt>
      <trkpt lat="45.99826" lon="4.93195">
        <ele>290</ele>
        <time>2023-09-24T13:45:33Z</time>
      </trkpt>
      <trkpt lat="45.99826" lon="4.93201">
        <ele>290</ele>
        <time>2023-09-24T13:45:34Z</time>
      </trkpt>
      <trkpt lat="45.99826" lon="4.93207">
        <ele>290</ele>
        <time>2023-09-24T13:45:35Z</time>
      </trkpt>
      <trkpt lat="45.99826" lon="4.93213">
        <ele>290</ele>
        <time>2023-09-24T13:45:36Z</time>
      </trkpt>
      <trkpt lat="45.99826" lon="4.93219">
        <ele>290</ele>
        <time>2023-09-24T13:45:37Z</time>
      </trkpt>
      <trkpt lat="45.99826" lon="4.93225">
        <ele>290</ele>
        <time>2023-09-24T13:45:38Z</time>
      </trkpt>
      <trkpt lat="45.99826" lon="4.93232">
        <ele>290</ele>
        <time>2023-09-24T13:45:39Z</time>
      </trkpt>
      <trkpt lat="45.99826" lon="4.93238">
        <ele>290</ele>
        <time>2023-09-24T13:45:40Z</time>
      </trkpt>
      <trkpt lat="45.99826" lon="4.93245">
        <ele>290</ele>
        <time>2023-09-24T13:45:41Z</time>
      </trkpt>
      <trkpt lat="45.99826" lon="4.9325">
        <ele>290</ele>
        <time>2023-09-24T13:45:42Z</time>
      </trkpt>
      <trkpt lat="45.99826" lon="4.93257">
        <ele>290</ele>
        <time>2023-09-24T13:45:43Z</time>
      </trkpt>
      <trkpt lat="45.99826" lon="4.93263">
        <ele>290</ele>
        <time>2023-09-24T13:45:44Z</time>
      </trkpt>
      <trkpt lat="45.99826" lon="4.9327">
        <ele>290</ele>
        <time>2023-09-24T13:45:45Z</time>
      </trkpt>
      <trkpt lat="45.99826" lon="4.93275">
        <ele>290</ele>
        <time>2023-09-24T13:45:46Z</time>
      </trkpt>
      <trkpt lat="45.99826" lon="4.93282">
        <ele>290</ele>
        <time>2023-09-24T13:45:47Z</time>
      </trkpt>
      <trkpt lat="45.99826" lon="4.93287">
        <ele>290</ele>
        <time>2023-09-24T13:45:48Z</time>
      </trkpt>
      <trkpt lat="45.99826" lon="4.93294">
        <ele>290</ele>
        <time>2023-09-24T13:45:49Z</time>
      </trkpt>
      <trkpt lat="45.99826" lon="4.933">
        <ele>290</ele>
        <time>2023-09-24T13:45:50Z</time>
      </trkpt>
      <trkpt lat="45.99828" lon="4.93305">
        <ele>290</ele>
        <time>2023-09-24T13:45:51Z</time>
      </trkpt>
      <trkpt lat="45.99827" lon="4.93312">
        <ele>290</ele>
        <time>2023-09-24T13:45:52Z</time>
      </trkpt>
      <trkpt lat="45.99827" lon="4.93318">
        <ele>290</ele>
        <time>2023-09-24T13:45:53Z</time>
      </trkpt>
      <trkpt lat="45.99826" lon="4.93324">
        <ele>290</ele>
        <time>2023-09-24T13:45:54Z</time>
      </trkpt>
      <trkpt lat="45.99827" lon="4.93331">
        <ele>290</ele>
        <time>2023-09-24T13:45:55Z</time>
      </trkpt>
      <trkpt lat="45.99828" lon="4.93336">
        <ele>290</ele>
        <time>2023-09-24T13:45:56Z</time>
      </trkpt>
      <trkpt lat="45.99827" lon="4.93342">
        <ele>290</ele>
        <time>2023-09-24T13:45:57Z</time>
      </trkpt>
      <trkpt lat="45.99827" lon="4.93349">
        <ele>290</ele>
        <time>2023-09-24T13:45:58Z</time>
      </trkpt>
      <trkpt lat="45.99827" lon="4.93355">
        <ele>290</ele>
        <time>2023-09-24T13:45:59Z</time>
      </trkpt>
      <trkpt lat="45.99827" lon="4.93361">
        <ele>290</ele>
        <time>2023-09-24T13:46:00Z</time>
      </trkpt>
      <trkpt lat="45.99827" lon="4.93367">
        <ele>290.2</ele>
        <time>2023-09-24T13:46:01Z</time>
      </trkpt>
      <trkpt lat="45.99827" lon="4.93373">
        <ele>290.3</ele>
        <time>2023-09-24T13:46:02Z</time>
      </trkpt>
      <trkpt lat="45.99827" lon="4.93379">
        <ele>290.5</ele>
        <time>2023-09-24T13:46:03Z</time>
      </trkpt>
      <trkpt lat="45.99827" lon="4.93386">
        <ele>290.7</ele>
        <time>2023-09-24T13:46:04Z</time>
      </trkpt>
      <trkpt lat="45.99828" lon="4.93392">
        <ele>290.8</ele>
        <time>2023-09-24T13:46:05Z</time>
      </trkpt>
      <trkpt lat="45.99827" lon="4.93398">
        <ele>290.8</ele>
        <time>2023-09-24T13:46:06Z</time>
      </trkpt>
      <trkpt lat="45.99827" lon="4.93405">
        <ele>290.8</ele>
        <time>2023-09-24T13:46:07Z</time>
      </trkpt>
      <trkpt lat="45.99827" lon="4.93411">
        <ele>290.8</ele>
        <time>2023-09-24T13:46:08Z</time>
      </trkpt>
      <trkpt lat="45.99827" lon="4.93417">
        <ele>290.8</ele>
        <time>2023-09-24T13:46:09Z</time>
      </trkpt>
      <trkpt lat="45.99828" lon="4.93423">
        <ele>290.8</ele>
        <time>2023-09-24T13:46:10Z</time>
      </trkpt>
      <trkpt lat="45.99828" lon="4.93429">
        <ele>290.8</ele>
        <time>2023-09-24T13:46:11Z</time>
      </trkpt>
      <trkpt lat="45.99828" lon="4.93435">
        <ele>290.8</ele>
        <time>2023-09-24T13:46:12Z</time>
      </trkpt>
      <trkpt lat="45.99828" lon="4.93442">
        <ele>290.8</ele>
        <time>2023-09-24T13:46:13Z</time>
      </trkpt>
      <trkpt lat="45.99827" lon="4.93447">
        <ele>290.7</ele>
        <time>2023-09-24T13:46:14Z</time>
      </trkpt>
      <trkpt lat="45.99828" lon="4.93454">
        <ele>290.5</ele>
        <time>2023-09-24T13:46:15Z</time>
      </trkpt>
      <trkpt lat="45.99828" lon="4.9346">
        <ele>290.4</ele>
        <time>2023-09-24T13:46:16Z</time>
      </trkpt>
      <trkpt lat="45.99827" lon="4.93466">
        <ele>290.2</ele>
        <time>2023-09-24T13:46:17Z</time>
      </trkpt>
      <trkpt lat="45.99827" lon="4.93472">
        <ele>290</ele>
        <time>2023-09-24T13:46:18Z</time>
      </trkpt>
      <trkpt lat="45.99828" lon="4.93478">
        <ele>290</ele>
        <time>2023-09-24T13:46:20Z</time>
      </trkpt>
      <trkpt lat="45.99827" lon="4.93484">
        <ele>290</ele>
        <time>2023-09-24T13:46:21Z</time>
      </trkpt>
      <trkpt lat="45.99828" lon="4.9349">
        <ele>290</ele>
        <time>2023-09-24T13:46:22Z</time>
      </trkpt>
      <trkpt lat="45.99828" lon="4.93497">
        <ele>290</ele>
        <time>2023-09-24T13:46:23Z</time>
      </trkpt>
      <trkpt lat="45.99828" lon="4.93503">
        <ele>290</ele>
        <time>2023-09-24T13:46:24Z</time>
      </trkpt>
      <trkpt lat="45.99828" lon="4.93509">
        <ele>290</ele>
        <time>2023-09-24T13:46:25Z</time>
      </trkpt>
      <trkpt lat="45.99828" lon="4.93515">
        <ele>290</ele>
        <time>2023-09-24T13:46:26Z</time>
      </trkpt>
      <trkpt lat="45.99828" lon="4.93521">
        <ele>290</ele>
        <time>2023-09-24T13:46:27Z</time>
      </trkpt>
      <trkpt lat="45.99828" lon="4.93526">
        <ele>290</ele>
        <time>2023-09-24T13:46:28Z</time>
      </trkpt>
      <trkpt lat="45.99828" lon="4.93533">
        <ele>290</ele>
        <time>2023-09-24T13:46:29Z</time>
      </trkpt>
      <trkpt lat="45.99828" lon="4.93538">
        <ele>290</ele>
        <time>2023-09-24T13:46:30Z</time>
      </trkpt>
      <trkpt lat="45.99828" lon="4.93544">
        <ele>290</ele>
        <time>2023-09-24T13:46:31Z</time>
      </trkpt>
      <trkpt lat="45.99828" lon="4.9355">
        <ele>290</ele>
        <time>2023-09-24T13:46:32Z</time>
      </trkpt>
      <trkpt lat="45.99829" lon="4.93556">
        <ele>290</ele>
        <time>2023-09-24T13:46:33Z</time>
      </trkpt>
      <trkpt lat="45.99828" lon="4.93562">
        <ele>290</ele>
        <time>2023-09-24T13:46:34Z</time>
      </trkpt>
      <trkpt lat="45.99828" lon="4.93568">
        <ele>290</ele>
        <time>2023-09-24T13:46:35Z</time>
      </trkpt>
      <trkpt lat="45.99828" lon="4.93574">
        <ele>290</ele>
        <time>2023-09-24T13:46:36Z</time>
      </trkpt>
      <trkpt lat="45.99828" lon="4.9358">
        <ele>290</ele>
        <time>2023-09-24T13:46:37Z</time>
      </trkpt>
      <trkpt lat="45.99828" lon="4.93586">
        <ele>290</ele>
        <time>2023-09-24T13:46:38Z</time>
      </trkpt>
      <trkpt lat="45.99828" lon="4.93591">
        <ele>290</ele>
        <time>2023-09-24T13:46:39Z</time>
      </trkpt>
      <trkpt lat="45.99827" lon="4.93598">
        <ele>290</ele>
        <time>2023-09-24T13:46:40Z</time>
      </trkpt>
      <trkpt lat="45.99827" lon="4.93604">
        <ele>290</ele>
        <time>2023-09-24T13:46:41Z</time>
      </trkpt>
      <trkpt lat="45.99826" lon="4.9361">
        <ele>290</ele>
        <time>2023-09-24T13:46:42Z</time>
      </trkpt>
      <trkpt lat="45.99825" lon="4.93616">
        <ele>290</ele>
        <time>2023-09-24T13:46:43Z</time>
      </trkpt>
      <trkpt lat="45.99824" lon="4.93622">
        <ele>290</ele>
        <time>2023-09-24T13:46:44Z</time>
      </trkpt>
      <trkpt lat="45.99824" lon="4.93628">
        <ele>290</ele>
        <time>2023-09-24T13:46:45Z</time>
      </trkpt>
      <trkpt lat="45.99823" lon="4.93634">
        <ele>290</ele>
        <time>2023-09-24T13:46:46Z</time>
      </trkpt>
      <trkpt lat="45.99822" lon="4.9364">
        <ele>290</ele>
        <time>2023-09-24T13:46:47Z</time>
      </trkpt>
      <trkpt lat="45.9982" lon="4.93646">
        <ele>289.9</ele>
        <time>2023-09-24T13:46:48Z</time>
      </trkpt>
      <trkpt lat="45.99819" lon="4.93652">
        <ele>289.8</ele>
        <time>2023-09-24T13:46:49Z</time>
      </trkpt>
      <trkpt lat="45.99818" lon="4.93657">
        <ele>289.7</ele>
        <time>2023-09-24T13:46:50Z</time>
      </trkpt>
      <trkpt lat="45.99817" lon="4.93663">
        <ele>289.6</ele>
        <time>2023-09-24T13:46:51Z</time>
      </trkpt>
      <trkpt lat="45.99816" lon="4.93669">
        <ele>289.6</ele>
        <time>2023-09-24T13:46:52Z</time>
      </trkpt>
      <trkpt lat="45.99815" lon="4.93674">
        <ele>289.5</ele>
        <time>2023-09-24T13:46:53Z</time>
      </trkpt>
      <trkpt lat="45.99813" lon="4.9368">
        <ele>289.4</ele>
        <time>2023-09-24T13:46:54Z</time>
      </trkpt>
      <trkpt lat="45.99812" lon="4.93685">
        <ele>289.3</ele>
        <time>2023-09-24T13:46:55Z</time>
      </trkpt>
      <trkpt lat="45.9981" lon="4.93691">
        <ele>289.1</ele>
        <time>2023-09-24T13:46:56Z</time>
      </trkpt>
      <trkpt lat="45.99809" lon="4.93696">
        <ele>289</ele>
        <time>2023-09-24T13:46:57Z</time>
      </trkpt>
      <trkpt lat="45.99808" lon="4.93702">
        <ele>289</ele>
        <time>2023-09-24T13:46:58Z</time>
      </trkpt>
      <trkpt lat="45.99807" lon="4.93707">
        <ele>289</ele>
        <time>2023-09-24T13:46:59Z</time>
      </trkpt>
      <trkpt lat="45.99805" lon="4.93713">
        <ele>289</ele>
        <time>2023-09-24T13:47:00Z</time>
      </trkpt>
      <trkpt lat="45.99804" lon="4.93718">
        <ele>289</ele>
        <time>2023-09-24T13:47:01Z</time>
      </trkpt>
      <trkpt lat="45.99802" lon="4.93724">
        <ele>289</ele>
        <time>2023-09-24T13:47:02Z</time>
      </trkpt>
      <trkpt lat="45.99801" lon="4.9373">
        <ele>289</ele>
        <time>2023-09-24T13:47:03Z</time>
      </trkpt>
      <trkpt lat="45.998" lon="4.93736">
        <ele>289</ele>
        <time>2023-09-24T13:47:04Z</time>
      </trkpt>
      <trkpt lat="45.99798" lon="4.93741">
        <ele>289</ele>
        <time>2023-09-24T13:47:05Z</time>
      </trkpt>
      <trkpt lat="45.99797" lon="4.93747">
        <ele>289</ele>
        <time>2023-09-24T13:47:06Z</time>
      </trkpt>
      <trkpt lat="45.99795" lon="4.93753">
        <ele>289</ele>
        <time>2023-09-24T13:47:07Z</time>
      </trkpt>
      <trkpt lat="45.99794" lon="4.93759">
        <ele>289</ele>
        <time>2023-09-24T13:47:08Z</time>
      </trkpt>
      <trkpt lat="45.99793" lon="4.93764">
        <ele>289</ele>
        <time>2023-09-24T13:47:09Z</time>
      </trkpt>
      <trkpt lat="45.99791" lon="4.9377">
        <ele>289</ele>
        <time>2023-09-24T13:47:10Z</time>
      </trkpt>
      <trkpt lat="45.9979" lon="4.93776">
        <ele>289</ele>
        <time>2023-09-24T13:47:11Z</time>
      </trkpt>
      <trkpt lat="45.99789" lon="4.93782">
        <ele>289</ele>
        <time>2023-09-24T13:47:12Z</time>
      </trkpt>
      <trkpt lat="45.99787" lon="4.93787">
        <ele>289</ele>
        <time>2023-09-24T13:47:13Z</time>
      </trkpt>
      <trkpt lat="45.99786" lon="4.93792">
        <ele>289</ele>
        <time>2023-09-24T13:47:14Z</time>
      </trkpt>
      <trkpt lat="45.99785" lon="4.93799">
        <ele>289</ele>
        <time>2023-09-24T13:47:15Z</time>
      </trkpt>
      <trkpt lat="45.99783" lon="4.93804">
        <ele>289</ele>
        <time>2023-09-24T13:47:16Z</time>
      </trkpt>
      <trkpt lat="45.99783" lon="4.9381">
        <ele>289</ele>
        <time>2023-09-24T13:47:17Z</time>
      </trkpt>
      <trkpt lat="45.99781" lon="4.93815">
        <ele>289</ele>
        <time>2023-09-24T13:47:18Z</time>
      </trkpt>
      <trkpt lat="45.99779" lon="4.93822">
        <ele>289</ele>
        <time>2023-09-24T13:47:19Z</time>
      </trkpt>
      <trkpt lat="45.99778" lon="4.93827">
        <ele>289</ele>
        <time>2023-09-24T13:47:20Z</time>
      </trkpt>
      <trkpt lat="45.99777" lon="4.93833">
        <ele>289</ele>
        <time>2023-09-24T13:47:21Z</time>
      </trkpt>
      <trkpt lat="45.99775" lon="4.93839">
        <ele>289</ele>
        <time>2023-09-24T13:47:22Z</time>
      </trkpt>
      <trkpt lat="45.99774" lon="4.93844">
        <ele>289</ele>
        <time>2023-09-24T13:47:23Z</time>
      </trkpt>
      <trkpt lat="45.99772" lon="4.9385">
        <ele>289</ele>
        <time>2023-09-24T13:47:24Z</time>
      </trkpt>
      <trkpt lat="45.99771" lon="4.93856">
        <ele>289</ele>
        <time>2023-09-24T13:47:25Z</time>
      </trkpt>
      <trkpt lat="45.9977" lon="4.93862">
        <ele>289</ele>
        <time>2023-09-24T13:47:26Z</time>
      </trkpt>
      <trkpt lat="45.99768" lon="4.93867">
        <ele>289</ele>
        <time>2023-09-24T13:47:27Z</time>
      </trkpt>
      <trkpt lat="45.99767" lon="4.93874">
        <ele>289</ele>
        <time>2023-09-24T13:47:28Z</time>
      </trkpt>
      <trkpt lat="45.99765" lon="4.93879">
        <ele>289</ele>
        <time>2023-09-24T13:47:29Z</time>
      </trkpt>
      <trkpt lat="45.99763" lon="4.93886">
        <ele>289</ele>
        <time>2023-09-24T13:47:30Z</time>
      </trkpt>
      <trkpt lat="45.99762" lon="4.93892">
        <ele>289</ele>
        <time>2023-09-24T13:47:31Z</time>
      </trkpt>
      <trkpt lat="45.9976" lon="4.93898">
        <ele>289</ele>
        <time>2023-09-24T13:47:32Z</time>
      </trkpt>
      <trkpt lat="45.99759" lon="4.93904">
        <ele>289</ele>
        <time>2023-09-24T13:47:33Z</time>
      </trkpt>
      <trkpt lat="45.99758" lon="4.93911">
        <ele>289</ele>
        <time>2023-09-24T13:47:34Z</time>
      </trkpt>
      <trkpt lat="45.99756" lon="4.93917">
        <ele>289</ele>
        <time>2023-09-24T13:47:35Z</time>
      </trkpt>
      <trkpt lat="45.99755" lon="4.93923">
        <ele>289</ele>
        <time>2023-09-24T13:47:36Z</time>
      </trkpt>
      <trkpt lat="45.99753" lon="4.93929">
        <ele>289</ele>
        <time>2023-09-24T13:47:37Z</time>
      </trkpt>
      <trkpt lat="45.99751" lon="4.93936">
        <ele>289</ele>
        <time>2023-09-24T13:47:38Z</time>
      </trkpt>
      <trkpt lat="45.9975" lon="4.93942">
        <ele>289</ele>
        <time>2023-09-24T13:47:39Z</time>
      </trkpt>
      <trkpt lat="45.99749" lon="4.93948">
        <ele>289</ele>
        <time>2023-09-24T13:47:40Z</time>
      </trkpt>
      <trkpt lat="45.99747" lon="4.93955">
        <ele>289</ele>
        <time>2023-09-24T13:47:41Z</time>
      </trkpt>
      <trkpt lat="45.99746" lon="4.93961">
        <ele>289</ele>
        <time>2023-09-24T13:47:42Z</time>
      </trkpt>
      <trkpt lat="45.99744" lon="4.93967">
        <ele>289</ele>
        <time>2023-09-24T13:47:43Z</time>
      </trkpt>
      <trkpt lat="45.99743" lon="4.93974">
        <ele>289</ele>
        <time>2023-09-24T13:47:44Z</time>
      </trkpt>
      <trkpt lat="45.99742" lon="4.93981">
        <ele>289</ele>
        <time>2023-09-24T13:47:45Z</time>
      </trkpt>
      <trkpt lat="45.9974" lon="4.93988">
        <ele>289</ele>
        <time>2023-09-24T13:47:46Z</time>
      </trkpt>
      <trkpt lat="45.99738" lon="4.93994">
        <ele>289</ele>
        <time>2023-09-24T13:47:47Z</time>
      </trkpt>
      <trkpt lat="45.99737" lon="4.94001">
        <ele>289</ele>
        <time>2023-09-24T13:47:48Z</time>
      </trkpt>
      <trkpt lat="45.99736" lon="4.94008">
        <ele>289.1</ele>
        <time>2023-09-24T13:47:49Z</time>
      </trkpt>
      <trkpt lat="45.99734" lon="4.94014">
        <ele>289.2</ele>
        <time>2023-09-24T13:47:50Z</time>
      </trkpt>
      <trkpt lat="45.99732" lon="4.94021">
        <ele>289.3</ele>
        <time>2023-09-24T13:47:51Z</time>
      </trkpt>
      <trkpt lat="45.99731" lon="4.94028">
        <ele>289.3</ele>
        <time>2023-09-24T13:47:52Z</time>
      </trkpt>
      <trkpt lat="45.99729" lon="4.94034">
        <ele>289.2</ele>
        <time>2023-09-24T13:47:53Z</time>
      </trkpt>
      <trkpt lat="45.99728" lon="4.94041">
        <ele>289.2</ele>
        <time>2023-09-24T13:47:54Z</time>
      </trkpt>
      <trkpt lat="45.99726" lon="4.94048">
        <ele>289.1</ele>
        <time>2023-09-24T13:47:55Z</time>
      </trkpt>
      <trkpt lat="45.99724" lon="4.94054">
        <ele>289.1</ele>
        <time>2023-09-24T13:47:56Z</time>
      </trkpt>
      <trkpt lat="45.99723" lon="4.94061">
        <ele>289</ele>
        <time>2023-09-24T13:47:57Z</time>
      </trkpt>
      <trkpt lat="45.99721" lon="4.94068">
        <ele>289</ele>
        <time>2023-09-24T13:47:58Z</time>
      </trkpt>
      <trkpt lat="45.99719" lon="4.94074">
        <ele>289</ele>
        <time>2023-09-24T13:47:59Z</time>
      </trkpt>
      <trkpt lat="45.99718" lon="4.94081">
        <ele>289</ele>
        <time>2023-09-24T13:48:00Z</time>
      </trkpt>
      <trkpt lat="45.99717" lon="4.94088">
        <ele>289</ele>
        <time>2023-09-24T13:48:01Z</time>
      </trkpt>
      <trkpt lat="45.99715" lon="4.94095">
        <ele>289</ele>
        <time>2023-09-24T13:48:02Z</time>
      </trkpt>
      <trkpt lat="45.99713" lon="4.94102">
        <ele>289</ele>
        <time>2023-09-24T13:48:03Z</time>
      </trkpt>
      <trkpt lat="45.99711" lon="4.94108">
        <ele>289</ele>
        <time>2023-09-24T13:48:04Z</time>
      </trkpt>
      <trkpt lat="45.9971" lon="4.94115">
        <ele>289.1</ele>
        <time>2023-09-24T13:48:05Z</time>
      </trkpt>
      <trkpt lat="45.99708" lon="4.94121">
        <ele>289.2</ele>
        <time>2023-09-24T13:48:06Z</time>
      </trkpt>
      <trkpt lat="45.99707" lon="4.94128">
        <ele>289.3</ele>
        <time>2023-09-24T13:48:07Z</time>
      </trkpt>
      <trkpt lat="45.99705" lon="4.94134">
        <ele>289.3</ele>
        <time>2023-09-24T13:48:08Z</time>
      </trkpt>
      <trkpt lat="45.99704" lon="4.9414">
        <ele>289.3</ele>
        <time>2023-09-24T13:48:09Z</time>
      </trkpt>
      <trkpt lat="45.99702" lon="4.94147">
        <ele>289.3</ele>
        <time>2023-09-24T13:48:10Z</time>
      </trkpt>
      <trkpt lat="45.99701" lon="4.94153">
        <ele>289.2</ele>
        <time>2023-09-24T13:48:11Z</time>
      </trkpt>
      <trkpt lat="45.99699" lon="4.94159">
        <ele>289.2</ele>
        <time>2023-09-24T13:48:12Z</time>
      </trkpt>
      <trkpt lat="45.99698" lon="4.94166">
        <ele>289.1</ele>
        <time>2023-09-24T13:48:13Z</time>
      </trkpt>
      <trkpt lat="45.99696" lon="4.94172">
        <ele>289.2</ele>
        <time>2023-09-24T13:48:14Z</time>
      </trkpt>
      <trkpt lat="45.99695" lon="4.94179">
        <ele>289.5</ele>
        <time>2023-09-24T13:48:15Z</time>
      </trkpt>
      <trkpt lat="45.99693" lon="4.94185">
        <ele>289.7</ele>
        <time>2023-09-24T13:48:16Z</time>
      </trkpt>
      <trkpt lat="45.99691" lon="4.94192">
        <ele>289.9</ele>
        <time>2023-09-24T13:48:17Z</time>
      </trkpt>
      <trkpt lat="45.9969" lon="4.94198">
        <ele>290</ele>
        <time>2023-09-24T13:48:18Z</time>
      </trkpt>
      <trkpt lat="45.99688" lon="4.94205">
        <ele>290</ele>
        <time>2023-09-24T13:48:19Z</time>
      </trkpt>
      <trkpt lat="45.99686" lon="4.94212">
        <ele>290</ele>
        <time>2023-09-24T13:48:20Z</time>
      </trkpt>
      <trkpt lat="45.99685" lon="4.94219">
        <ele>290</ele>
        <time>2023-09-24T13:48:21Z</time>
      </trkpt>
      <trkpt lat="45.99684" lon="4.94225">
        <ele>290</ele>
        <time>2023-09-24T13:48:22Z</time>
      </trkpt>
      <trkpt lat="45.99682" lon="4.94231">
        <ele>290</ele>
      </trkpt>
      <trkpt lat="45.9968" lon="4.94237">
        <ele>290</ele>
        <time>2023-09-24T13:48:23Z</time>
      </trkpt>
      <trkpt lat="45.99679" lon="4.94243">
        <ele>290</ele>
        <time>2023-09-24T13:48:24Z</time>
      </trkpt>
      <trkpt lat="45.99678" lon="4.94249">
        <ele>290</ele>
        <time>2023-09-24T13:48:25Z</time>
      </trkpt>
      <trkpt lat="45.99677" lon="4.94254">
        <ele>290.1</ele>
        <time>2023-09-24T13:48:26Z</time>
      </trkpt>
      <trkpt lat="45.99676" lon="4.94259">
        <ele>290.2</ele>
        <time>2023-09-24T13:48:27Z</time>
      </trkpt>
      <trkpt lat="45.99675" lon="4.94263">
        <ele>290.3</ele>
        <time>2023-09-24T13:48:28Z</time>
      </trkpt>
      <trkpt lat="45.99672" lon="4.94265">
        <ele>290.4</ele>
        <time>2023-09-24T13:48:29Z</time>
      </trkpt>
      <trkpt lat="45.99669" lon="4.94266">
        <ele>290.5</ele>
        <time>2023-09-24T13:48:30Z</time>
      </trkpt>
      <trkpt lat="45.99666" lon="4.94265">
        <ele>290.5</ele>
        <time>2023-09-24T13:48:31Z</time>
      </trkpt>
      <trkpt lat="45.99663" lon="4.94263">
        <ele>290.4</ele>
        <time>2023-09-24T13:48:32Z</time>
      </trkpt>
      <trkpt lat="45.9966" lon="4.94261">
        <ele>290.3</ele>
        <time>2023-09-24T13:48:33Z</time>
      </trkpt>
      <trkpt lat="45.99656" lon="4.94259">
        <ele>290.2</ele>
        <time>2023-09-24T13:48:34Z</time>
      </trkpt>
      <trkpt lat="45.99652" lon="4.94258">
        <ele>290.1</ele>
        <time>2023-09-24T13:48:35Z</time>
      </trkpt>
      <trkpt lat="45.99648" lon="4.94257">
        <ele>290.1</ele>
        <time>2023-09-24T13:48:36Z</time>
      </trkpt>
      <trkpt lat="45.99644" lon="4.94255">
        <ele>290</ele>
        <time>2023-09-24T13:48:37Z</time>
      </trkpt>
      <trkpt lat="45.9964" lon="4.94254">
        <ele>290</ele>
        <time>2023-09-24T13:48:38Z</time>
      </trkpt>
      <trkpt lat="45.99636" lon="4.94252">
        <ele>289.9</ele>
        <time>2023-09-24T13:48:39Z</time>
      </trkpt>
      <trkpt lat="45.99633" lon="4.94252">
        <ele>289.8</ele>
        <time>2023-09-24T13:48:40Z</time>
      </trkpt>
      <trkpt lat="45.99629" lon="4.9425">
        <ele>289.6</ele>
        <time>2023-09-24T13:48:41Z</time>
      </trkpt>
      <trkpt lat="45.99626" lon="4.94249">
        <ele>289.6</ele>
        <time>2023-09-24T13:48:42Z</time>
      </trkpt>
      <trkpt lat="45.99622" lon="4.94248">
        <ele>289.4</ele>
        <time>2023-09-24T13:48:43Z</time>
      </trkpt>
      <trkpt lat="45.99618" lon="4.94247">
        <ele>289.3</ele>
        <time>2023-09-24T13:48:44Z</time>
      </trkpt>
      <trkpt lat="45.99614" lon="4.94245">
        <ele>289.3</ele>
        <time>2023-09-24T13:48:45Z</time>
      </trkpt>
      <trkpt lat="45.99611" lon="4.94244">
        <ele>289.2</ele>
        <time>2023-09-24T13:48:46Z</time>
      </trkpt>
      <trkpt lat="45.99607" lon="4.94243">
        <ele>289.3</ele>
        <time>2023-09-24T13:48:47Z</time>
      </trkpt>
      <trkpt lat="45.99604" lon="4.94242">
        <ele>289.3</ele>
        <time>2023-09-24T13:48:48Z</time>
      </trkpt>
      <trkpt lat="45.996" lon="4.94241">
        <ele>289.3</ele>
        <time>2023-09-24T13:48:49Z</time>
      </trkpt>
      <trkpt lat="45.99595" lon="4.94241">
        <ele>289.3</ele>
        <time>2023-09-24T13:48:50Z</time>
      </trkpt>
      <trkpt lat="45.99591" lon="4.9424">
        <ele>289.4</ele>
        <time>2023-09-24T13:48:51Z</time>
      </trkpt>
      <trkpt lat="45.99587" lon="4.94238">
        <ele>289.4</ele>
        <time>2023-09-24T13:48:52Z</time>
      </trkpt>
      <trkpt lat="45.99582" lon="4.94237">
        <ele>289.4</ele>
        <time>2023-09-24T13:48:53Z</time>
      </trkpt>
      <trkpt lat="45.99578" lon="4.94236">
        <ele>289.4</ele>
        <time>2023-09-24T13:48:54Z</time>
      </trkpt>
      <trkpt lat="45.99574" lon="4.94235">
        <ele>289.4</ele>
        <time>2023-09-24T13:48:55Z</time>
      </trkpt>
      <trkpt lat="45.99569" lon="4.94233">
        <ele>289.4</ele>
        <time>2023-09-24T13:48:56Z</time>
      </trkpt>
      <trkpt lat="45.99565" lon="4.94232">
        <ele>289.4</ele>
        <time>2023-09-24T13:48:57Z</time>
      </trkpt>
      <trkpt lat="45.9956" lon="4.94231">
        <ele>289.4</ele>
        <time>2023-09-24T13:48:58Z</time>
      </trkpt>
      <trkpt lat="45.99556" lon="4.94231">
        <ele>289.4</ele>
        <time>2023-09-24T13:48:59Z</time>
      </trkpt>
      <trkpt lat="45.99551" lon="4.9423">
        <ele>289.3</ele>
        <time>2023-09-24T13:49:00Z</time>
      </trkpt>
      <trkpt lat="45.99547" lon="4.94228">
        <ele>289.3</ele>
        <time>2023-09-24T13:49:01Z</time>
      </trkpt>
      <trkpt lat="45.99543" lon="4.94226">
        <ele>289.3</ele>
        <time>2023-09-24T13:49:02Z</time>
      </trkpt>
      <trkpt lat="45.99537" lon="4.94225">
        <ele>289.2</ele>
        <time>2023-09-24T13:49:03Z</time>
      </trkpt>
      <trkpt lat="45.99533" lon="4.94224">
        <ele>289.1</ele>
        <time>2023-09-24T13:49:04Z</time>
      </trkpt>
      <trkpt lat="45.99529" lon="4.94222">
        <ele>289.1</ele>
        <time>2023-09-24T13:49:05Z</time>
      </trkpt>
      <trkpt lat="45.99524" lon="4.94221">
        <ele>289</ele>
        <time>2023-09-24T13:49:06Z</time>
      </trkpt>
      <trkpt lat="45.99519" lon="4.9422">
        <ele>289.1</ele>
        <time>2023-09-24T13:49:07Z</time>
      </trkpt>
      <trkpt lat="45.99515" lon="4.94218">
        <ele>289.2</ele>
        <time>2023-09-24T13:49:08Z</time>
      </trkpt>
      <trkpt lat="45.9951" lon="4.94217">
        <ele>289.2</ele>
        <time>2023-09-24T13:49:09Z</time>
      </trkpt>
      <trkpt lat="45.99505" lon="4.94216">
        <ele>289.2</ele>
        <time>2023-09-24T13:49:10Z</time>
      </trkpt>
      <trkpt lat="45.99501" lon="4.94214">
        <ele>289.3</ele>
        <time>2023-09-24T13:49:11Z</time>
      </trkpt>
      <trkpt lat="45.99496" lon="4.94212">
        <ele>289.3</ele>
        <time>2023-09-24T13:49:12Z</time>
      </trkpt>
      <trkpt lat="45.99491" lon="4.94212">
        <ele>289.2</ele>
        <time>2023-09-24T13:49:13Z</time>
      </trkpt>
      <trkpt lat="45.99487" lon="4.94211">
        <ele>289.1</ele>
        <time>2023-09-24T13:49:14Z</time>
      </trkpt>
      <trkpt lat="45.99482" lon="4.94209">
        <ele>289.1</ele>
        <time>2023-09-24T13:49:15Z</time>
      </trkpt>
      <trkpt lat="45.99477" lon="4.94208">
        <ele>289.1</ele>
        <time>2023-09-24T13:49:16Z</time>
      </trkpt>
      <trkpt lat="45.99473" lon="4.94207">
        <ele>289.1</ele>
        <time>2023-09-24T13:49:17Z</time>
      </trkpt>
      <trkpt lat="45.99468" lon="4.94206">
        <ele>289.1</ele>
        <time>2023-09-24T13:49:18Z</time>
      </trkpt>
      <trkpt lat="45.99463" lon="4.94203">
        <ele>289.2</ele>
        <time>2023-09-24T13:49:19Z</time>
      </trkpt>
      <trkpt lat="45.99459" lon="4.94202">
        <ele>289.1</ele>
        <time>2023-09-24T13:49:20Z</time>
      </trkpt>
      <trkpt lat="45.99453" lon="4.94201">
        <ele>289</ele>
        <time>2023-09-24T13:49:21Z</time>
      </trkpt>
      <trkpt lat="45.99449" lon="4.942">
        <ele>288.9</ele>
        <time>2023-09-24T13:49:22Z</time>
      </trkpt>
      <trkpt lat="45.99444" lon="4.94198">
        <ele>288.9</ele>
        <time>2023-09-24T13:49:23Z</time>
      </trkpt>
      <trkpt lat="45.99439" lon="4.94197">
        <ele>288.9</ele>
        <time>2023-09-24T13:49:24Z</time>
      </trkpt>
      <trkpt lat="45.99435" lon="4.94196">
        <ele>288.9</ele>
        <time>2023-09-24T13:49:25Z</time>
      </trkpt>
      <trkpt lat="45.9943" lon="4.94194">
        <ele>289</ele>
        <time>2023-09-24T13:49:26Z</time>
      </trkpt>
      <trkpt lat="45.99425" lon="4.94193">
        <ele>289.1</ele>
        <time>2023-09-24T13:49:27Z</time>
      </trkpt>
      <trkpt lat="45.99421" lon="4.94191">
        <ele>289.1</ele>
        <time>2023-09-24T13:49:28Z</time>
      </trkpt>
      <trkpt lat="45.99416" lon="4.9419">
        <ele>289.2</ele>
        <time>2023-09-24T13:49:29Z</time>
      </trkpt>
      <trkpt lat="45.99412" lon="4.94188">
        <ele>289.2</ele>
        <time>2023-09-24T13:49:30Z</time>
      </trkpt>
      <trkpt lat="45.99407" lon="4.94186">
        <ele>289.3</ele>
        <time>2023-09-24T13:49:31Z</time>
      </trkpt>
      <trkpt lat="45.99403" lon="4.94185">
        <ele>289.3</ele>
        <time>2023-09-24T13:49:32Z</time>
      </trkpt>
      <trkpt lat="45.99399" lon="4.94184">
        <ele>289.4</ele>
        <time>2023-09-24T13:49:33Z</time>
      </trkpt>
      <trkpt lat="45.99395" lon="4.94183">
        <ele>289.4</ele>
        <time>2023-09-24T13:49:34Z</time>
      </trkpt>
      <trkpt lat="45.99391" lon="4.94181">
        <ele>289.5</ele>
        <time>2023-09-24T13:49:35Z</time>
      </trkpt>
      <trkpt lat="45.99387" lon="4.94181">
        <ele>289.4</ele>
        <time>2023-09-24T13:49:36Z</time>
      </trkpt>
      <trkpt lat="45.99384" lon="4.9418">
        <ele>289.3</ele>
        <time>2023-09-24T13:49:37Z</time>
      </trkpt>
      <trkpt lat="45.9938" lon="4.94179">
        <ele>289.2</ele>
        <time>2023-09-24T13:49:38Z</time>
      </trkpt>
      <trkpt lat="45.99377" lon="4.94178">
        <ele>289.2</ele>
        <time>2023-09-24T13:49:39Z</time>
      </trkpt>
      <trkpt lat="45.99374" lon="4.94177">
        <ele>289.1</ele>
        <time>2023-09-24T13:49:40Z</time>
      </trkpt>
      <trkpt lat="45.9937" lon="4.94175">
        <ele>289</ele>
        <time>2023-09-24T13:49:41Z</time>
      </trkpt>
      <trkpt lat="45.99367" lon="4.94175">
        <ele>288.9</ele>
        <time>2023-09-24T13:49:42Z</time>
      </trkpt>
      <trkpt lat="45.99364" lon="4.94175">
        <ele>288.8</ele>
        <time>2023-09-24T13:49:43Z</time>
      </trkpt>
      <trkpt lat="45.99361" lon="4.94174">
        <ele>288.7</ele>
        <time>2023-09-24T13:49:44Z</time>
      </trkpt>
      <trkpt lat="45.99357" lon="4.94173">
        <ele>288.8</ele>
        <time>2023-09-24T13:49:45Z</time>
      </trkpt>
      <trkpt lat="45.99354" lon="4.94172">
        <ele>288.8</ele>
        <time>2023-09-24T13:49:46Z</time>
      </trkpt>
      <trkpt lat="45.99349" lon="4.94171">
        <ele>288.8</ele>
        <time>2023-09-24T13:49:47Z</time>
      </trkpt>
      <trkpt lat="45.99344" lon="4.9417">
        <ele>288.9</ele>
        <time>2023-09-24T13:49:48Z</time>
      </trkpt>
      <trkpt lat="45.9934" lon="4.94168">
        <ele>289</ele>
        <time>2023-09-24T13:49:49Z</time>
      </trkpt>
      <trkpt lat="45.99334" lon="4.94168">
        <ele>289</ele>
        <time>2023-09-24T13:49:50Z</time>
      </trkpt>
      <trkpt lat="45.99329" lon="4.94168">
        <ele>288.8</ele>
        <time>2023-09-24T13:49:51Z</time>
      </trkpt>
      <trkpt lat="45.99323" lon="4.94167">
        <ele>288.6</ele>
        <time>2023-09-24T13:49:52Z</time>
      </trkpt>
      <trkpt lat="45.99318" lon="4.94167">
        <ele>288.4</ele>
        <time>2023-09-24T13:49:53Z</time>
      </trkpt>
      <trkpt lat="45.99313" lon="4.94168">
        <ele>288.3</ele>
        <time>2023-09-24T13:49:54Z</time>
      </trkpt>
      <trkpt lat="45.99308" lon="4.9417">
        <ele>288.1</ele>
        <time>2023-09-24T13:49:55Z</time>
      </trkpt>
      <trkpt lat="45.99303" lon="4.94172">
        <ele>288</ele>
        <time>2023-09-24T13:49:56Z</time>
      </trkpt>
      <trkpt lat="45.99299" lon="4.94175">
        <ele>288</ele>
        <time>2023-09-24T13:49:57Z</time>
      </trkpt>
      <trkpt lat="45.99295" lon="4.94178">
        <ele>288</ele>
        <time>2023-09-24T13:49:58Z</time>
      </trkpt>
      <trkpt lat="45.9929" lon="4.94181">
        <ele>288</ele>
        <time>2023-09-24T13:49:59Z</time>
      </trkpt>
      <trkpt lat="45.99286" lon="4.94185">
        <ele>288</ele>
        <time>2023-09-24T13:50:00Z</time>
      </trkpt>
      <trkpt lat="45.99282" lon="4.94188">
        <ele>288</ele>
        <time>2023-09-24T13:50:01Z</time>
      </trkpt>
      <trkpt lat="45.99279" lon="4.9419">
        <ele>288</ele>
        <time>2023-09-24T13:50:02Z</time>
      </trkpt>
      <trkpt lat="45.99275" lon="4.94193">
        <ele>288</ele>
        <time>2023-09-24T13:50:03Z</time>
      </trkpt>
      <trkpt lat="45.99271" lon="4.94195">
        <ele>288</ele>
        <time>2023-09-24T13:50:04Z</time>
      </trkpt>
      <trkpt lat="45.99268" lon="4.94198">
        <ele>288</ele>
        <time>2023-09-24T13:50:05Z</time>
      </trkpt>
      <trkpt lat="45.99264" lon="4.942">
        <ele>288</ele>
        <time>2023-09-24T13:50:06Z</time>
      </trkpt>
      <trkpt lat="45.9926" lon="4.94202">
        <ele>288</ele>
        <time>2023-09-24T13:50:07Z</time>
      </trkpt>
      <trkpt lat="45.99257" lon="4.94204">
        <ele>288</ele>
        <time>2023-09-24T13:50:08Z</time>
      </trkpt>
      <trkpt lat="45.99253" lon="4.94206">
        <ele>288</ele>
        <time>2023-09-24T13:50:09Z</time>
      </trkpt>
      <trkpt lat="45.9925" lon="4.94208">
        <ele>288</ele>
        <time>2023-09-24T13:50:10Z</time>
      </trkpt>
      <trkpt lat="45.99247" lon="4.9421">
        <ele>288</ele>
        <time>2023-09-24T13:50:11Z</time>
      </trkpt>
      <trkpt lat="45.99244" lon="4.94211">
        <ele>288</ele>
        <time>2023-09-24T13:50:12Z</time>
      </trkpt>
      <trkpt lat="45.9924" lon="4.94212">
        <ele>288</ele>
        <time>2023-09-24T13:50:13Z</time>
      </trkpt>
      <trkpt lat="45.99236" lon="4.94215">
        <ele>288</ele>
        <time>2023-09-24T13:50:14Z</time>
      </trkpt>
      <trkpt lat="45.99233" lon="4.94215">
        <ele>288</ele>
        <time>2023-09-24T13:50:15Z</time>
      </trkpt>
      <trkpt lat="45.99229" lon="4.94216">
        <ele>288</ele>
        <time>2023-09-24T13:50:16Z</time>
      </trkpt>
      <trkpt lat="45.99225" lon="4.94216">
        <ele>288</ele>
        <time>2023-09-24T13:50:17Z</time>
      </trkpt>
      <trkpt lat="45.99222" lon="4.94217">
        <ele>288</ele>
        <time>2023-09-24T13:50:18Z</time>
      </trkpt>
      <trkpt lat="45.99218" lon="4.94218">
        <ele>288.2</ele>
        <time>2023-09-24T13:50:19Z</time>
      </trkpt>
      <trkpt lat="45.99214" lon="4.94218">
        <ele>288.3</ele>
        <time>2023-09-24T13:50:20Z</time>
      </trkpt>
      <trkpt lat="45.9921" lon="4.94219">
        <ele>288.4</ele>
        <time>2023-09-24T13:50:21Z</time>
      </trkpt>
      <trkpt lat="45.99206" lon="4.94219">
        <ele>288.6</ele>
        <time>2023-09-24T13:50:22Z</time>
      </trkpt>
      <trkpt lat="45.99202" lon="4.9422">
        <ele>288.7</ele>
        <time>2023-09-24T13:50:23Z</time>
      </trkpt>
      <trkpt lat="45.99198" lon="4.94222">
        <ele>288.9</ele>
        <time>2023-09-24T13:50:24Z</time>
      </trkpt>
      <trkpt lat="45.99194" lon="4.94221">
        <ele>289</ele>
        <time>2023-09-24T13:50:25Z</time>
      </trkpt>
      <trkpt lat="45.9919" lon="4.94222">
        <ele>288.8</ele>
        <time>2023-09-24T13:50:26Z</time>
      </trkpt>
      <trkpt lat="45.99186" lon="4.94222">
        <ele>288.7</ele>
        <time>2023-09-24T13:50:27Z</time>
      </trkpt>
      <trkpt lat="45.99182" lon="4.94223">
        <ele>288.6</ele>
        <time>2023-09-24T13:50:28Z</time>
      </trkpt>
      <trkpt lat="45.99179" lon="4.94224">
        <ele>288.4</ele>
        <time>2023-09-24T13:50:29Z</time>
      </trkpt>
      <trkpt lat="45.99174" lon="4.94225">
        <ele>288.3</ele>
        <time>2023-09-24T13:50:30Z</time>
      </trkpt>
      <trkpt lat="45.9917" lon="4.94227">
        <ele>288.1</ele>
        <time>2023-09-24T13:50:31Z</time>
      </trkpt>
      <trkpt lat="45.99166" lon="4.94228">
        <ele>288</ele>
        <time>2023-09-24T13:50:32Z</time>
      </trkpt>
      <trkpt lat="45.99162" lon="4.9423">
        <ele>288</ele>
        <time>2023-09-24T13:50:33Z</time>
      </trkpt>
      <trkpt lat="45.99158" lon="4.94231">
        <ele>288</ele>
        <time>2023-09-24T13:50:34Z</time>
      </trkpt>
      <trkpt lat="45.99154" lon="4.94233">
        <ele>288</ele>
        <time>2023-09-24T13:50:35Z</time>
      </trkpt>
      <trkpt lat="45.9915" lon="4.94235">
        <ele>288</ele>
        <time>2023-09-24T13:50:36Z</time>
      </trkpt>
      <trkpt lat="45.99145" lon="4.94237">
        <ele>288</ele>
        <time>2023-09-24T13:50:37Z</time>
      </trkpt>
      <trkpt lat="45.99141" lon="4.94237">
        <ele>288</ele>
        <time>2023-09-24T13:50:38Z</time>
      </trkpt>
      <trkpt lat="45.99137" lon="4.94237">
        <ele>288</ele>
        <time>2023-09-24T13:50:39Z</time>
      </trkpt>
      <trkpt lat="45.99132" lon="4.94237">
        <ele>288</ele>
        <time>2023-09-24T13:50:40Z</time>
      </trkpt>
      <trkpt lat="45.99128" lon="4.94236">
        <ele>288</ele>
        <time>2023-09-24T13:50:41Z</time>
      </trkpt>
      <trkpt lat="45.99123" lon="4.94235">
        <ele>288</ele>
        <time>2023-09-24T13:50:42Z</time>
      </trkpt>
      <trkpt lat="45.99119" lon="4.94234">
        <ele>288</ele>
        <time>2023-09-24T13:50:43Z</time>
      </trkpt>
      <trkpt lat="45.99115" lon="4.94234">
        <ele>288</ele>
        <time>2023-09-24T13:50:44Z</time>
      </trkpt>
      <trkpt lat="45.9911" lon="4.94233">
        <ele>288</ele>
        <time>2023-09-24T13:50:45Z</time>
      </trkpt>
      <trkpt lat="45.99106" lon="4.94232">
        <ele>288</ele>
        <time>2023-09-24T13:50:46Z</time>
      </trkpt>
      <trkpt lat="45.99102" lon="4.94231">
        <ele>288</ele>
        <time>2023-09-24T13:50:47Z</time>
      </trkpt>
      <trkpt lat="45.99097" lon="4.9423">
        <ele>288</ele>
        <time>2023-09-24T13:50:48Z</time>
      </trkpt>
      <trkpt lat="45.99093" lon="4.9423">
        <ele>288</ele>
        <time>2023-09-24T13:50:49Z</time>
      </trkpt>
      <trkpt lat="45.99089" lon="4.94229">
        <ele>288</ele>
        <time>2023-09-24T13:50:50Z</time>
      </trkpt>
      <trkpt lat="45.99085" lon="4.94229">
        <ele>288</ele>
        <time>2023-09-24T13:50:51Z</time>
      </trkpt>
      <trkpt lat="45.99081" lon="4.94227">
        <ele>288</ele>
        <time>2023-09-24T13:50:52Z</time>
      </trkpt>
      <trkpt lat="45.99076" lon="4.94226">
        <ele>288</ele>
        <time>2023-09-24T13:50:53Z</time>
      </trkpt>
      <trkpt lat="45.99072" lon="4.94225">
        <ele>288</ele>
        <time>2023-09-24T13:50:54Z</time>
      </trkpt>
      <trkpt lat="45.99068" lon="4.94224">
        <ele>288</ele>
        <time>2023-09-24T13:50:55Z</time>
      </trkpt>
      <trkpt lat="45.99064" lon="4.94222">
        <ele>288</ele>
        <time>2023-09-24T13:50:56Z</time>
      </trkpt>
      <trkpt lat="45.99059" lon="4.9422">
        <ele>288</ele>
        <time>2023-09-24T13:50:57Z</time>
      </trkpt>
      <trkpt lat="45.99055" lon="4.94218">
        <ele>288</ele>
        <time>2023-09-24T13:50:58Z</time>
      </trkpt>
      <trkpt lat="45.99051" lon="4.94214">
        <ele>288</ele>
        <time>2023-09-24T13:50:59Z</time>
      </trkpt>
      <trkpt lat="45.99048" lon="4.94211">
        <ele>288</ele>
        <time>2023-09-24T13:51:00Z</time>
      </trkpt>
      <trkpt lat="45.99043" lon="4.94209">
        <ele>288</ele>
        <time>2023-09-24T13:51:01Z</time>
      </trkpt>
      <trkpt lat="45.9904" lon="4.94207">
        <ele>288</ele>
        <time>2023-09-24T13:51:02Z</time>
      </trkpt>
      <trkpt lat="45.99035" lon="4.94204">
        <ele>288</ele>
        <time>2023-09-24T13:51:03Z</time>
      </trkpt>
      <trkpt lat="45.99032" lon="4.94201">
        <ele>288</ele>
        <time>2023-09-24T13:51:04Z</time>
      </trkpt>
      <trkpt lat="45.99028" lon="4.94198">
        <ele>288</ele>
        <time>2023-09-24T13:51:05Z</time>
      </trkpt>
      <trkpt lat="45.99024" lon="4.94196">
        <ele>288</ele>
        <time>2023-09-24T13:51:06Z</time>
      </trkpt>
      <trkpt lat="45.9902" lon="4.94193">
        <ele>288.1</ele>
        <time>2023-09-24T13:51:07Z</time>
      </trkpt>
      <trkpt lat="45.99016" lon="4.9419">
        <ele>288.2</ele>
        <time>2023-09-24T13:51:08Z</time>
      </trkpt>
      <trkpt lat="45.99013" lon="4.94188">
        <ele>288.2</ele>
        <time>2023-09-24T13:51:09Z</time>
      </trkpt>
      <trkpt lat="45.99008" lon="4.94186">
        <ele>288.3</ele>
        <time>2023-09-24T13:51:10Z</time>
      </trkpt>
      <trkpt lat="45.99004" lon="4.94184">
        <ele>288.4</ele>
        <time>2023-09-24T13:51:11Z</time>
      </trkpt>
      <trkpt lat="45.99" lon="4.94181">
        <ele>288.5</ele>
        <time>2023-09-24T13:51:12Z</time>
      </trkpt>
      <trkpt lat="45.98998" lon="4.9418">
        <ele>288.5</ele>
        <time>2023-09-24T13:51:13Z</time>
      </trkpt>
      <trkpt lat="45.98994" lon="4.94178">
        <ele>288.6</ele>
        <time>2023-09-24T13:51:14Z</time>
      </trkpt>
      <trkpt lat="45.98989" lon="4.94178">
        <ele>288.6</ele>
        <time>2023-09-24T13:51:15Z</time>
      </trkpt>
      <trkpt lat="45.98985" lon="4.94176">
        <ele>288.7</ele>
        <time>2023-09-24T13:51:16Z</time>
      </trkpt>
      <trkpt lat="45.98982" lon="4.94173">
        <ele>288.8</ele>
        <time>2023-09-24T13:51:17Z</time>
      </trkpt>
      <trkpt lat="45.98977" lon="4.94171">
        <ele>288.8</ele>
        <time>2023-09-24T13:51:18Z</time>
      </trkpt>
      <trkpt lat="45.98974" lon="4.94169">
        <ele>288.9</ele>
        <time>2023-09-24T13:51:19Z</time>
      </trkpt>
      <trkpt lat="45.9897" lon="4.94167">
        <ele>289</ele>
        <time>2023-09-24T13:51:20Z</time>
      </trkpt>
      <trkpt lat="45.98965" lon="4.94165">
        <ele>289.1</ele>
        <time>2023-09-24T13:51:21Z</time>
      </trkpt>
      <trkpt lat="45.98962" lon="4.94163">
        <ele>289.3</ele>
        <time>2023-09-24T13:51:22Z</time>
      </trkpt>
      <trkpt lat="45.98958" lon="4.94162">
        <ele>289.3</ele>
        <time>2023-09-24T13:51:23Z</time>
      </trkpt>
      <trkpt lat="45.98954" lon="4.9416">
        <ele>289.5</ele>
        <time>2023-09-24T13:51:24Z</time>
      </trkpt>
      <trkpt lat="45.9895" lon="4.94158">
        <ele>289.6</ele>
        <time>2023-09-24T13:51:25Z</time>
      </trkpt>
      <trkpt lat="45.98946" lon="4.94156">
        <ele>289.8</ele>
        <time>2023-09-24T13:51:26Z</time>
      </trkpt>
      <trkpt lat="45.98942" lon="4.94154">
        <ele>289.9</ele>
        <time>2023-09-24T13:51:27Z</time>
      </trkpt>
      <trkpt lat="45.98938" lon="4.94152">
        <ele>289.9</ele>
        <time>2023-09-24T13:51:28Z</time>
      </trkpt>
      <trkpt lat="45.98934" lon="4.94151">
        <ele>289.9</ele>
        <time>2023-09-24T13:51:29Z</time>
      </trkpt>
      <trkpt lat="45.9893" lon="4.94149">
        <ele>289.9</ele>
        <time>2023-09-24T13:51:30Z</time>
      </trkpt>
      <trkpt lat="45.98926" lon="4.94146">
        <ele>290</ele>
        <time>2023-09-24T13:51:31Z</time>
      </trkpt>
      <trkpt lat="45.98922" lon="4.94144">
        <ele>290</ele>
        <time>2023-09-24T13:51:32Z</time>
      </trkpt>
      <trkpt lat="45.98918" lon="4.94142">
        <ele>289.9</ele>
        <time>2023-09-24T13:51:33Z</time>
      </trkpt>
      <trkpt lat="45.98913" lon="4.94142">
        <ele>289.8</ele>
        <time>2023-09-24T13:51:34Z</time>
      </trkpt>
      <trkpt lat="45.9891" lon="4.9414">
        <ele>289.7</ele>
        <time>2023-09-24T13:51:35Z</time>
      </trkpt>
      <trkpt lat="45.98906" lon="4.94138">
        <ele>289.6</ele>
        <time>2023-09-24T13:51:36Z</time>
      </trkpt>
      <trkpt lat="45.98903" lon="4.94136">
        <ele>289.6</ele>
        <time>2023-09-24T13:51:37Z</time>
      </trkpt>
      <trkpt lat="45.98899" lon="4.94134">
        <ele>289.5</ele>
        <time>2023-09-24T13:51:38Z</time>
      </trkpt>
      <trkpt lat="45.98895" lon="4.94133">
        <ele>289.4</ele>
        <time>2023-09-24T13:51:39Z</time>
      </trkpt>
      <trkpt lat="45.98891" lon="4.9413">
        <ele>289.4</ele>
        <time>2023-09-24T13:51:40Z</time>
      </trkpt>
      <trkpt lat="45.98888" lon="4.94129">
        <ele>289.4</ele>
        <time>2023-09-24T13:51:41Z</time>
      </trkpt>
      <trkpt lat="45.98884" lon="4.94127">
        <ele>289.4</ele>
        <time>2023-09-24T13:51:42Z</time>
      </trkpt>
      <trkpt lat="45.98881" lon="4.94124">
        <ele>289.5</ele>
        <time>2023-09-24T13:51:43Z</time>
      </trkpt>
      <trkpt lat="45.98877" lon="4.94122">
        <ele>289.6</ele>
        <time>2023-09-24T13:51:44Z</time>
      </trkpt>
      <trkpt lat="45.98873" lon="4.94122">
        <ele>289.6</ele>
        <time>2023-09-24T13:51:45Z</time>
      </trkpt>
      <trkpt lat="45.98869" lon="4.9412">
        <ele>289.7</ele>
        <time>2023-09-24T13:51:46Z</time>
      </trkpt>
      <trkpt lat="45.98865" lon="4.94117">
        <ele>289.8</ele>
        <time>2023-09-24T13:51:47Z</time>
      </trkpt>
      <trkpt lat="45.98861" lon="4.94116">
        <ele>289.8</ele>
        <time>2023-09-24T13:51:48Z</time>
      </trkpt>
      <trkpt lat="45.98858" lon="4.94114">
        <ele>289.8</ele>
        <time>2023-09-24T13:51:49Z</time>
      </trkpt>
      <trkpt lat="45.98855" lon="4.94113">
        <ele>289.7</ele>
        <time>2023-09-24T13:51:50Z</time>
      </trkpt>
      <trkpt lat="45.9885" lon="4.94111">
        <ele>289.6</ele>
        <time>2023-09-24T13:51:51Z</time>
      </trkpt>
      <trkpt lat="45.98847" lon="4.94109">
        <ele>289.6</ele>
        <time>2023-09-24T13:51:52Z</time>
      </trkpt>
      <trkpt lat="45.98843" lon="4.94107">
        <ele>289.6</ele>
        <time>2023-09-24T13:51:53Z</time>
      </trkpt>
      <trkpt lat="45.98839" lon="4.94105">
        <ele>289.6</ele>
        <time>2023-09-24T13:51:54Z</time>
      </trkpt>
      <trkpt lat="45.98835" lon="4.94103">
        <ele>289.6</ele>
        <time>2023-09-24T13:51:55Z</time>
      </trkpt>
      <trkpt lat="45.98832" lon="4.94102">
        <ele>289.6</ele>
        <time>2023-09-24T13:51:56Z</time>
      </trkpt>
      <trkpt lat="45.98828" lon="4.941">
        <ele>289.7</ele>
        <time>2023-09-24T13:51:57Z</time>
      </trkpt>
      <trkpt lat="45.98824" lon="4.94098">
        <ele>289.8</ele>
        <time>2023-09-24T13:51:58Z</time>
      </trkpt>
      <trkpt lat="45.9882" lon="4.94096">
        <ele>289.8</ele>
        <time>2023-09-24T13:51:59Z</time>
      </trkpt>
      <trkpt lat="45.98816" lon="4.94096">
        <ele>289.7</ele>
        <time>2023-09-24T13:52:00Z</time>
      </trkpt>
      <trkpt lat="45.98813" lon="4.94097">
        <ele>289.6</ele>
        <time>2023-09-24T13:52:01Z</time>
      </trkpt>
      <trkpt lat="45.98808" lon="4.94097">
        <ele>289.6</ele>
        <time>2023-09-24T13:52:02Z</time>
      </trkpt>
      <trkpt lat="45.98804" lon="4.94097">
        <ele>289.6</ele>
        <time>2023-09-24T13:52:03Z</time>
      </trkpt>
      <trkpt lat="45.98801" lon="4.94096">
        <ele>289.7</ele>
        <time>2023-09-24T13:52:04Z</time>
      </trkpt>
      <trkpt lat="45.98797" lon="4.94097">
        <ele>289.8</ele>
        <time>2023-09-24T13:52:05Z</time>
      </trkpt>
      <trkpt lat="45.98794" lon="4.94098">
        <ele>289.9</ele>
        <time>2023-09-24T13:52:06Z</time>
      </trkpt>
      <trkpt lat="45.9879" lon="4.941">
        <ele>290</ele>
        <time>2023-09-24T13:52:07Z</time>
      </trkpt>
      <trkpt lat="45.98786" lon="4.94103">
        <ele>290</ele>
        <time>2023-09-24T13:52:08Z</time>
      </trkpt>
      <trkpt lat="45.98783" lon="4.94105">
        <ele>290</ele>
        <time>2023-09-24T13:52:09Z</time>
      </trkpt>
      <trkpt lat="45.9878" lon="4.94106">
        <ele>290.1</ele>
        <time>2023-09-24T13:52:10Z</time>
      </trkpt>
      <trkpt lat="45.98777" lon="4.94108">
        <ele>290.1</ele>
        <time>2023-09-24T13:52:11Z</time>
      </trkpt>
      <trkpt lat="45.98774" lon="4.9411">
        <ele>290.2</ele>
        <time>2023-09-24T13:52:12Z</time>
      </trkpt>
      <trkpt lat="45.9877" lon="4.9411">
        <ele>290.3</ele>
        <time>2023-09-24T13:52:13Z</time>
      </trkpt>
      <trkpt lat="45.98768" lon="4.94111">
        <ele>290.4</ele>
        <time>2023-09-24T13:52:14Z</time>
      </trkpt>
      <trkpt lat="45.98764" lon="4.94113">
        <ele>290.4</ele>
        <time>2023-09-24T13:52:15Z</time>
      </trkpt>
      <trkpt lat="45.98762" lon="4.94114">
        <ele>290.4</ele>
        <time>2023-09-24T13:52:16Z</time>
      </trkpt>
      <trkpt lat="45.98759" lon="4.94115">
        <ele>290.4</ele>
        <time>2023-09-24T13:52:17Z</time>
      </trkpt>
      <trkpt lat="45.98756" lon="4.94115">
        <ele>290.5</ele>
        <time>2023-09-24T13:52:18Z</time>
      </trkpt>
      <trkpt lat="45.98753" lon="4.94117">
        <ele>290.5</ele>
        <time>2023-09-24T13:52:19Z</time>
      </trkpt>
      <trkpt lat="45.9875" lon="4.94118">
        <ele>290.5</ele>
        <time>2023-09-24T13:52:20Z</time>
      </trkpt>
      <trkpt lat="45.98746" lon="4.9412">
        <ele>290.4</ele>
        <time>2023-09-24T13:52:21Z</time>
      </trkpt>
      <trkpt lat="45.98743" lon="4.94121">
        <ele>290.4</ele>
        <time>2023-09-24T13:52:22Z</time>
      </trkpt>
      <trkpt lat="45.9874" lon="4.94123">
        <ele>290.3</ele>
        <time>2023-09-24T13:52:23Z</time>
      </trkpt>
      <trkpt lat="45.98736" lon="4.94125">
        <ele>290.3</ele>
        <time>2023-09-24T13:52:24Z</time>
      </trkpt>
      <trkpt lat="45.98733" lon="4.94126">
        <ele>290.3</ele>
        <time>2023-09-24T13:52:25Z</time>
      </trkpt>
      <trkpt lat="45.9873" lon="4.94127">
        <ele>290.3</ele>
        <time>2023-09-24T13:52:26Z</time>
      </trkpt>
      <trkpt lat="45.98726" lon="4.94128">
        <ele>290.3</ele>
        <time>2023-09-24T13:52:27Z</time>
      </trkpt>
      <trkpt lat="45.98722" lon="4.9413">
        <ele>290.3</ele>
        <time>2023-09-24T13:52:28Z</time>
      </trkpt>
      <trkpt lat="45.98719" lon="4.94131">
        <ele>290.5</ele>
        <time>2023-09-24T13:52:29Z</time>
      </trkpt>
      <trkpt lat="45.98717" lon="4.94134">
        <ele>290.5</ele>
        <time>2023-09-24T13:52:30Z</time>
      </trkpt>
      <trkpt lat="45.98713" lon="4.94134">
        <ele>290.7</ele>
        <time>2023-09-24T13:52:31Z</time>
      </trkpt>
      <trkpt lat="45.98709" lon="4.94134">
        <ele>291</ele>
        <time>2023-09-24T13:52:32Z</time>
      </trkpt>
      <trkpt lat="45.98705" lon="4.94136">
        <ele>291.2</ele>
        <time>2023-09-24T13:52:33Z</time>
      </trkpt>
      <trkpt lat="45.98702" lon="4.94138">
        <ele>291.4</ele>
        <time>2023-09-24T13:52:34Z</time>
      </trkpt>
      <trkpt lat="45.98698" lon="4.94139">
        <ele>291.7</ele>
        <time>2023-09-24T13:52:35Z</time>
      </trkpt>
      <trkpt lat="45.98695" lon="4.9414">
        <ele>291.8</ele>
        <time>2023-09-24T13:52:36Z</time>
      </trkpt>
      <trkpt lat="45.98691" lon="4.94143">
        <ele>291.5</ele>
        <time>2023-09-24T13:52:37Z</time>
      </trkpt>
      <trkpt lat="45.98687" lon="4.94144">
        <ele>291.3</ele>
        <time>2023-09-24T13:52:38Z</time>
      </trkpt>
      <trkpt lat="45.98683" lon="4.94146">
        <ele>291</ele>
        <time>2023-09-24T13:52:39Z</time>
      </trkpt>
      <trkpt lat="45.9868" lon="4.94147">
        <ele>290.9</ele>
        <time>2023-09-24T13:52:40Z</time>
      </trkpt>
      <trkpt lat="45.98676" lon="4.94149">
        <ele>290.7</ele>
        <time>2023-09-24T13:52:41Z</time>
      </trkpt>
      <trkpt lat="45.98673" lon="4.9415">
        <ele>290.6</ele>
        <time>2023-09-24T13:52:42Z</time>
      </trkpt>
      <trkpt lat="45.98669" lon="4.94152">
        <ele>290.5</ele>
        <time>2023-09-24T13:52:43Z</time>
      </trkpt>
      <trkpt lat="45.98665" lon="4.94154">
        <ele>290.5</ele>
        <time>2023-09-24T13:52:44Z</time>
      </trkpt>
      <trkpt lat="45.98661" lon="4.94155">
        <ele>290.5</ele>
        <time>2023-09-24T13:52:45Z</time>
      </trkpt>
      <trkpt lat="45.98658" lon="4.94156">
        <ele>290.6</ele>
        <time>2023-09-24T13:52:46Z</time>
      </trkpt>
      <trkpt lat="45.98654" lon="4.94158">
        <ele>290.6</ele>
        <time>2023-09-24T13:52:47Z</time>
      </trkpt>
      <trkpt lat="45.98651" lon="4.94158">
        <ele>290.7</ele>
        <time>2023-09-24T13:52:48Z</time>
      </trkpt>
      <trkpt lat="45.98647" lon="4.94161">
        <ele>290.8</ele>
        <time>2023-09-24T13:52:49Z</time>
      </trkpt>
      <trkpt lat="45.98644" lon="4.94162">
        <ele>290.8</ele>
        <time>2023-09-24T13:52:50Z</time>
      </trkpt>
      <trkpt lat="45.98639" lon="4.94163">
        <ele>291</ele>
        <time>2023-09-24T13:52:51Z</time>
      </trkpt>
      <trkpt lat="45.98635" lon="4.94164">
        <ele>291</ele>
        <time>2023-09-24T13:52:52Z</time>
      </trkpt>
      <trkpt lat="45.98631" lon="4.94166">
        <ele>291</ele>
        <time>2023-09-24T13:52:53Z</time>
      </trkpt>
      <trkpt lat="45.98627" lon="4.94167">
        <ele>291</ele>
        <time>2023-09-24T13:52:54Z</time>
      </trkpt>
      <trkpt lat="45.98623" lon="4.94169">
        <ele>291</ele>
        <time>2023-09-24T13:52:55Z</time>
      </trkpt>
      <trkpt lat="45.98619" lon="4.9417">
        <ele>291</ele>
        <time>2023-09-24T13:52:56Z</time>
      </trkpt>
      <trkpt lat="45.98615" lon="4.94171">
        <ele>291</ele>
        <time>2023-09-24T13:52:57Z</time>
      </trkpt>
      <trkpt lat="45.98611" lon="4.94173">
        <ele>291</ele>
        <time>2023-09-24T13:52:58Z</time>
      </trkpt>
      <trkpt lat="45.98607" lon="4.94175">
        <ele>291</ele>
        <time>2023-09-24T13:52:59Z</time>
      </trkpt>
      <trkpt lat="45.98603" lon="4.94175">
        <ele>291</ele>
        <time>2023-09-24T13:53:00Z</time>
      </trkpt>
      <trkpt lat="45.98599" lon="4.94176">
        <ele>291</ele>
        <time>2023-09-24T13:53:01Z</time>
      </trkpt>
      <trkpt lat="45.98595" lon="4.94177">
        <ele>291</ele>
        <time>2023-09-24T13:53:02Z</time>
      </trkpt>
      <trkpt lat="45.98591" lon="4.94177">
        <ele>291</ele>
        <time>2023-09-24T13:53:03Z</time>
      </trkpt>
      <trkpt lat="45.98588" lon="4.94178">
        <ele>291</ele>
        <time>2023-09-24T13:53:04Z</time>
      </trkpt>
      <trkpt lat="45.98584" lon="4.94178">
        <ele>291</ele>
        <time>2023-09-24T13:53:05Z</time>
      </trkpt>
      <trkpt lat="45.9858" lon="4.94179">
        <ele>291</ele>
        <time>2023-09-24T13:53:06Z</time>
      </trkpt>
      <trkpt lat="45.98576" lon="4.9418">
        <ele>291</ele>
        <time>2023-09-24T13:53:07Z</time>
      </trkpt>
      <trkpt lat="45.98572" lon="4.94181">
        <ele>291</ele>
        <time>2023-09-24T13:53:08Z</time>
      </trkpt>
      <trkpt lat="45.98568" lon="4.94182">
        <ele>291</ele>
        <time>2023-09-24T13:53:09Z</time>
      </trkpt>
      <trkpt lat="45.98564" lon="4.94183">
        <ele>291</ele>
        <time>2023-09-24T13:53:10Z</time>
      </trkpt>
      <trkpt lat="45.9856" lon="4.94184">
        <ele>291</ele>
        <time>2023-09-24T13:53:11Z</time>
      </trkpt>
      <trkpt lat="45.98556" lon="4.94184">
        <ele>291</ele>
        <time>2023-09-24T13:53:12Z</time>
      </trkpt>
      <trkpt lat="45.98552" lon="4.94183">
        <ele>291</ele>
        <time>2023-09-24T13:53:13Z</time>
      </trkpt>
      <trkpt lat="45.98548" lon="4.94182">
        <ele>291</ele>
        <time>2023-09-24T13:53:14Z</time>
      </trkpt>
      <trkpt lat="45.98544" lon="4.94181">
        <ele>291</ele>
        <time>2023-09-24T13:53:15Z</time>
      </trkpt>
      <trkpt lat="45.9854" lon="4.94179">
        <ele>291</ele>
        <time>2023-09-24T13:53:16Z</time>
      </trkpt>
      <trkpt lat="45.98536" lon="4.94176">
        <ele>291</ele>
        <time>2023-09-24T13:53:17Z</time>
      </trkpt>
      <trkpt lat="45.98533" lon="4.94174">
        <ele>291</ele>
        <time>2023-09-24T13:53:18Z</time>
      </trkpt>
      <trkpt lat="45.98529" lon="4.94172">
        <ele>291</ele>
        <time>2023-09-24T13:53:19Z</time>
      </trkpt>
      <trkpt lat="45.98526" lon="4.94168">
        <ele>291</ele>
        <time>2023-09-24T13:53:20Z</time>
      </trkpt>
      <trkpt lat="45.98523" lon="4.94165">
        <ele>291</ele>
        <time>2023-09-24T13:53:21Z</time>
      </trkpt>
      <trkpt lat="45.9852" lon="4.94161">
        <ele>291</ele>
        <time>2023-09-24T13:53:22Z</time>
      </trkpt>
      <trkpt lat="45.98517" lon="4.94158">
        <ele>291</ele>
        <time>2023-09-24T13:53:23Z</time>
      </trkpt>
      <trkpt lat="45.98514" lon="4.94153">
        <ele>291</ele>
        <time>2023-09-24T13:53:24Z</time>
      </trkpt>
      <trkpt lat="45.98512" lon="4.94148">
        <ele>291</ele>
        <time>2023-09-24T13:53:25Z</time>
      </trkpt>
      <trkpt lat="45.98509" lon="4.94144">
        <ele>291</ele>
        <time>2023-09-24T13:53:26Z</time>
      </trkpt>
      <trkpt lat="45.98507" lon="4.94139">
        <ele>291</ele>
        <time>2023-09-24T13:53:27Z</time>
      </trkpt>
      <trkpt lat="45.98504" lon="4.94134">
        <ele>291</ele>
        <time>2023-09-24T13:53:28Z</time>
      </trkpt>
      <trkpt lat="45.98502" lon="4.9413">
        <ele>291</ele>
        <time>2023-09-24T13:53:29Z</time>
      </trkpt>
      <trkpt lat="45.98499" lon="4.94126">
        <ele>291</ele>
        <time>2023-09-24T13:53:30Z</time>
      </trkpt>
      <trkpt lat="45.98496" lon="4.94122">
        <ele>291</ele>
        <time>2023-09-24T13:53:31Z</time>
      </trkpt>
      <trkpt lat="45.98493" lon="4.94119">
        <ele>291</ele>
        <time>2023-09-24T13:53:32Z</time>
      </trkpt>
      <trkpt lat="45.98489" lon="4.94116">
        <ele>291</ele>
        <time>2023-09-24T13:53:33Z</time>
      </trkpt>
      <trkpt lat="45.98485" lon="4.94113">
        <ele>291</ele>
        <time>2023-09-24T13:53:34Z</time>
      </trkpt>
      <trkpt lat="45.98482" lon="4.9411">
        <ele>291</ele>
        <time>2023-09-24T13:53:35Z</time>
      </trkpt>
      <trkpt lat="45.98478" lon="4.94108">
        <ele>291.1</ele>
        <time>2023-09-24T13:53:36Z</time>
      </trkpt>
      <trkpt lat="45.98474" lon="4.94106">
        <ele>291.2</ele>
        <time>2023-09-24T13:53:37Z</time>
      </trkpt>
      <trkpt lat="45.9847" lon="4.94105">
        <ele>291.2</ele>
        <time>2023-09-24T13:53:38Z</time>
      </trkpt>
      <trkpt lat="45.98466" lon="4.94103">
        <ele>291.3</ele>
        <time>2023-09-24T13:53:39Z</time>
      </trkpt>
      <trkpt lat="45.98462" lon="4.94101">
        <ele>291.4</ele>
        <time>2023-09-24T13:53:40Z</time>
      </trkpt>
      <trkpt lat="45.98458" lon="4.94099">
        <ele>291.4</ele>
        <time>2023-09-24T13:53:41Z</time>
      </trkpt>
      <trkpt lat="45.98454" lon="4.94098">
        <ele>291.5</ele>
        <time>2023-09-24T13:53:42Z</time>
      </trkpt>
      <trkpt lat="45.98451" lon="4.94095">
        <ele>291.6</ele>
        <time>2023-09-24T13:53:43Z</time>
      </trkpt>
      <trkpt lat="45.98447" lon="4.94093">
        <ele>291.7</ele>
        <time>2023-09-24T13:53:44Z</time>
      </trkpt>
      <trkpt lat="45.98443" lon="4.9409">
        <ele>291.7</ele>
        <time>2023-09-24T13:53:45Z</time>
      </trkpt>
      <trkpt lat="45.98439" lon="4.94088">
        <ele>291.7</ele>
        <time>2023-09-24T13:53:46Z</time>
      </trkpt>
      <trkpt lat="45.98435" lon="4.94086">
        <ele>291.6</ele>
        <time>2023-09-24T13:53:47Z</time>
      </trkpt>
      <trkpt lat="45.98432" lon="4.94083">
        <ele>291.6</ele>
        <time>2023-09-24T13:53:48Z</time>
      </trkpt>
      <trkpt lat="45.98429" lon="4.9408">
        <ele>291.5</ele>
        <time>2023-09-24T13:53:49Z</time>
      </trkpt>
      <trkpt lat="45.98425" lon="4.94077">
        <ele>291.5</ele>
        <time>2023-09-24T13:53:50Z</time>
      </trkpt>
      <trkpt lat="45.98421" lon="4.94074">
        <ele>291.4</ele>
        <time>2023-09-24T13:53:51Z</time>
      </trkpt>
      <trkpt lat="45.98418" lon="4.9407">
        <ele>291.5</ele>
        <time>2023-09-24T13:53:52Z</time>
      </trkpt>
      <trkpt lat="45.98415" lon="4.94066">
        <ele>291.6</ele>
        <time>2023-09-24T13:53:53Z</time>
      </trkpt>
      <trkpt lat="45.98413" lon="4.94063">
        <ele>291.7</ele>
        <time>2023-09-24T13:53:54Z</time>
      </trkpt>
      <trkpt lat="45.98409" lon="4.94059">
        <ele>291.9</ele>
        <time>2023-09-24T13:53:55Z</time>
      </trkpt>
      <trkpt lat="45.98406" lon="4.94057">
        <ele>291.9</ele>
        <time>2023-09-24T13:53:56Z</time>
      </trkpt>
      <trkpt lat="45.98403" lon="4.94053">
        <ele>292</ele>
        <time>2023-09-24T13:53:57Z</time>
      </trkpt>
      <trkpt lat="45.98399" lon="4.9405">
        <ele>292</ele>
        <time>2023-09-24T13:53:58Z</time>
      </trkpt>
      <trkpt lat="45.98395" lon="4.94047">
        <ele>292</ele>
        <time>2023-09-24T13:53:59Z</time>
      </trkpt>
      <trkpt lat="45.98393" lon="4.94045">
        <ele>292</ele>
        <time>2023-09-24T13:54:00Z</time>
      </trkpt>
      <trkpt lat="45.98389" lon="4.94042">
        <ele>292</ele>
        <time>2023-09-24T13:54:01Z</time>
      </trkpt>
      <trkpt lat="45.98386" lon="4.94038">
        <ele>292</ele>
        <time>2023-09-24T13:54:02Z</time>
      </trkpt>
      <trkpt lat="45.98382" lon="4.94035">
        <ele>292</ele>
        <time>2023-09-24T13:54:03Z</time>
      </trkpt>
      <trkpt lat="45.98378" lon="4.94031">
        <ele>292</ele>
        <time>2023-09-24T13:54:04Z</time>
      </trkpt>
      <trkpt lat="45.98375" lon="4.94028">
        <ele>292</ele>
        <time>2023-09-24T13:54:05Z</time>
      </trkpt>
      <trkpt lat="45.98372" lon="4.94024">
        <ele>292</ele>
        <time>2023-09-24T13:54:06Z</time>
      </trkpt>
      <trkpt lat="45.98369" lon="4.94021">
        <ele>292</ele>
        <time>2023-09-24T13:54:07Z</time>
      </trkpt>
      <trkpt lat="45.98365" lon="4.94018">
        <ele>292</ele>
        <time>2023-09-24T13:54:08Z</time>
      </trkpt>
      <trkpt lat="45.98362" lon="4.94016">
        <ele>292</ele>
        <time>2023-09-24T13:54:09Z</time>
      </trkpt>
      <trkpt lat="45.98359" lon="4.94014">
        <ele>292</ele>
        <time>2023-09-24T13:54:10Z</time>
      </trkpt>
      <trkpt lat="45.98356" lon="4.94012">
        <ele>292</ele>
        <time>2023-09-24T13:54:11Z</time>
      </trkpt>
      <trkpt lat="45.98354" lon="4.94009">
        <ele>292</ele>
        <time>2023-09-24T13:54:12Z</time>
      </trkpt>
      <trkpt lat="45.98351" lon="4.94005">
        <ele>292</ele>
        <time>2023-09-24T13:54:13Z</time>
      </trkpt>
      <trkpt lat="45.98348" lon="4.94003">
        <ele>292</ele>
        <time>2023-09-24T13:54:14Z</time>
      </trkpt>
      <trkpt lat="45.98345" lon="4.94">
        <ele>292</ele>
        <time>2023-09-24T13:54:15Z</time>
      </trkpt>
      <trkpt lat="45.98342" lon="4.93997">
        <ele>292</ele>
        <time>2023-09-24T13:54:16Z</time>
      </trkpt>
      <trkpt lat="45.98338" lon="4.93994">
        <ele>292</ele>
        <time>2023-09-24T13:54:17Z</time>
      </trkpt>
      <trkpt lat="45.98335" lon="4.9399">
        <ele>292</ele>
        <time>2023-09-24T13:54:18Z</time>
      </trkpt>
      <trkpt lat="45.98331" lon="4.93987">
        <ele>292</ele>
        <time>2023-09-24T13:54:19Z</time>
      </trkpt>
      <trkpt lat="45.98328" lon="4.93985">
        <ele>292</ele>
        <time>2023-09-24T13:54:20Z</time>
      </trkpt>
      <trkpt lat="45.98325" lon="4.93982">
        <ele>292</ele>
        <time>2023-09-24T13:54:21Z</time>
      </trkpt>
      <trkpt lat="45.98322" lon="4.93978">
        <ele>292</ele>
        <time>2023-09-24T13:54:22Z</time>
      </trkpt>
      <trkpt lat="45.98319" lon="4.93976">
        <ele>292</ele>
        <time>2023-09-24T13:54:23Z</time>
      </trkpt>
      <trkpt lat="45.98315" lon="4.93973">
        <ele>292</ele>
        <time>2023-09-24T13:54:24Z</time>
      </trkpt>
      <trkpt lat="45.98312" lon="4.93971">
        <ele>292</ele>
        <time>2023-09-24T13:54:25Z</time>
      </trkpt>
      <trkpt lat="45.98309" lon="4.93968">
        <ele>292</ele>
        <time>2023-09-24T13:54:26Z</time>
      </trkpt>
      <trkpt lat="45.98306" lon="4.93966">
        <ele>292</ele>
        <time>2023-09-24T13:54:27Z</time>
      </trkpt>
      <trkpt lat="45.98303" lon="4.93963">
        <ele>292</ele>
        <time>2023-09-24T13:54:28Z</time>
      </trkpt>
      <trkpt lat="45.983" lon="4.93959">
        <ele>292.1</ele>
        <time>2023-09-24T13:54:29Z</time>
      </trkpt>
      <trkpt lat="45.98296" lon="4.93956">
        <ele>292.2</ele>
        <time>2023-09-24T13:54:30Z</time>
      </trkpt>
      <trkpt lat="45.98294" lon="4.93953">
        <ele>292.3</ele>
        <time>2023-09-24T13:54:31Z</time>
      </trkpt>
      <trkpt lat="45.9829" lon="4.93951">
        <ele>292.4</ele>
        <time>2023-09-24T13:54:32Z</time>
      </trkpt>
      <trkpt lat="45.98288" lon="4.93948">
        <ele>292.6</ele>
        <time>2023-09-24T13:54:33Z</time>
      </trkpt>
      <trkpt lat="45.98285" lon="4.93944">
        <ele>292.7</ele>
        <time>2023-09-24T13:54:34Z</time>
      </trkpt>
      <trkpt lat="45.98282" lon="4.93941">
        <ele>292.9</ele>
        <time>2023-09-24T13:54:35Z</time>
      </trkpt>
      <trkpt lat="45.98279" lon="4.93939">
        <ele>293</ele>
        <time>2023-09-24T13:54:36Z</time>
      </trkpt>
      <trkpt lat="45.98276" lon="4.93936">
        <ele>293</ele>
        <time>2023-09-24T13:54:37Z</time>
      </trkpt>
      <trkpt lat="45.98273" lon="4.93934">
        <ele>293</ele>
        <time>2023-09-24T13:54:38Z</time>
      </trkpt>
      <trkpt lat="45.9827" lon="4.93932">
        <ele>293</ele>
        <time>2023-09-24T13:54:39Z</time>
      </trkpt>
      <trkpt lat="45.98267" lon="4.9393">
        <ele>293</ele>
        <time>2023-09-24T13:54:40Z</time>
      </trkpt>
      <trkpt lat="45.98263" lon="4.93928">
        <ele>293</ele>
        <time>2023-09-24T13:54:41Z</time>
      </trkpt>
      <trkpt lat="45.9826" lon="4.93926">
        <ele>293</ele>
        <time>2023-09-24T13:54:42Z</time>
      </trkpt>
      <trkpt lat="45.98257" lon="4.93924">
        <ele>293</ele>
        <time>2023-09-24T13:54:43Z</time>
      </trkpt>
      <trkpt lat="45.98254" lon="4.93923">
        <ele>293</ele>
        <time>2023-09-24T13:54:44Z</time>
      </trkpt>
      <trkpt lat="45.98251" lon="4.93922">
        <ele>293</ele>
        <time>2023-09-24T13:54:45Z</time>
      </trkpt>
      <trkpt lat="45.98248" lon="4.93922">
        <ele>293</ele>
        <time>2023-09-24T13:54:46Z</time>
      </trkpt>
      <trkpt lat="45.98243" lon="4.93921">
        <ele>293</ele>
        <time>2023-09-24T13:54:47Z</time>
      </trkpt>
      <trkpt lat="45.9824" lon="4.93921">
        <ele>292.9</ele>
        <time>2023-09-24T13:54:48Z</time>
      </trkpt>
      <trkpt lat="45.98237" lon="4.9392">
        <ele>292.9</ele>
        <time>2023-09-24T13:54:49Z</time>
      </trkpt>
      <trkpt lat="45.98233" lon="4.9392">
        <ele>292.9</ele>
        <time>2023-09-24T13:54:50Z</time>
      </trkpt>
      <trkpt lat="45.98229" lon="4.9392">
        <ele>292.9</ele>
        <time>2023-09-24T13:54:51Z</time>
      </trkpt>
      <trkpt lat="45.98226" lon="4.9392">
        <ele>292.9</ele>
        <time>2023-09-24T13:54:52Z</time>
      </trkpt>
      <trkpt lat="45.98222" lon="4.93919">
        <ele>292.9</ele>
        <time>2023-09-24T13:54:53Z</time>
      </trkpt>
      <trkpt lat="45.98218" lon="4.93919">
        <ele>292.9</ele>
        <time>2023-09-24T13:54:54Z</time>
      </trkpt>
      <trkpt lat="45.98214" lon="4.93918">
        <ele>292.9</ele>
        <time>2023-09-24T13:54:55Z</time>
      </trkpt>
      <trkpt lat="45.98211" lon="4.93917">
        <ele>293</ele>
        <time>2023-09-24T13:54:56Z</time>
      </trkpt>
      <trkpt lat="45.98207" lon="4.93917">
        <ele>293</ele>
        <time>2023-09-24T13:54:57Z</time>
      </trkpt>
      <trkpt lat="45.98203" lon="4.93916">
        <ele>293</ele>
        <time>2023-09-24T13:54:58Z</time>
      </trkpt>
      <trkpt lat="45.982" lon="4.93916">
        <ele>293</ele>
        <time>2023-09-24T13:54:59Z</time>
      </trkpt>
      <trkpt lat="45.98196" lon="4.93915">
        <ele>293</ele>
        <time>2023-09-24T13:55:00Z</time>
      </trkpt>
      <trkpt lat="45.98193" lon="4.93915">
        <ele>293</ele>
        <time>2023-09-24T13:55:01Z</time>
      </trkpt>
      <trkpt lat="45.98189" lon="4.93914">
        <ele>293</ele>
        <time>2023-09-24T13:55:02Z</time>
      </trkpt>
      <trkpt lat="45.98185" lon="4.93914">
        <ele>293</ele>
        <time>2023-09-24T13:55:03Z</time>
      </trkpt>
      <trkpt lat="45.98182" lon="4.93913">
        <ele>293</ele>
        <time>2023-09-24T13:55:04Z</time>
      </trkpt>
      <trkpt lat="45.98178" lon="4.93913">
        <ele>293</ele>
        <time>2023-09-24T13:55:05Z</time>
      </trkpt>
      <trkpt lat="45.98174" lon="4.93913">
        <ele>293</ele>
        <time>2023-09-24T13:55:06Z</time>
      </trkpt>
      <trkpt lat="45.98171" lon="4.93913">
        <ele>293</ele>
        <time>2023-09-24T13:55:07Z</time>
      </trkpt>
      <trkpt lat="45.98167" lon="4.93912">
        <ele>293</ele>
        <time>2023-09-24T13:55:08Z</time>
      </trkpt>
      <trkpt lat="45.98164" lon="4.93911">
        <ele>292.9</ele>
        <time>2023-09-24T13:55:09Z</time>
      </trkpt>
      <trkpt lat="45.9816" lon="4.9391">
        <ele>292.8</ele>
        <time>2023-09-24T13:55:10Z</time>
      </trkpt>
      <trkpt lat="45.98156" lon="4.93911">
        <ele>292.7</ele>
        <time>2023-09-24T13:55:11Z</time>
      </trkpt>
      <trkpt lat="45.98153" lon="4.93911">
        <ele>292.6</ele>
        <time>2023-09-24T13:55:12Z</time>
      </trkpt>
      <trkpt lat="45.98149" lon="4.9391">
        <ele>292.5</ele>
        <time>2023-09-24T13:55:13Z</time>
      </trkpt>
      <trkpt lat="45.98145" lon="4.9391">
        <ele>292.4</ele>
        <time>2023-09-24T13:55:14Z</time>
      </trkpt>
      <trkpt lat="45.98141" lon="4.93909">
        <ele>292.3</ele>
        <time>2023-09-24T13:55:15Z</time>
      </trkpt>
      <trkpt lat="45.98137" lon="4.93909">
        <ele>292.3</ele>
        <time>2023-09-24T13:55:16Z</time>
      </trkpt>
      <trkpt lat="45.98133" lon="4.93909">
        <ele>292.3</ele>
        <time>2023-09-24T13:55:17Z</time>
      </trkpt>
      <trkpt lat="45.9813" lon="4.93908">
        <ele>292.3</ele>
        <time>2023-09-24T13:55:18Z</time>
      </trkpt>
      <trkpt lat="45.98126" lon="4.93908">
        <ele>292.3</ele>
        <time>2023-09-24T13:55:19Z</time>
      </trkpt>
      <trkpt lat="45.98123" lon="4.93908">
        <ele>292.3</ele>
        <time>2023-09-24T13:55:20Z</time>
      </trkpt>
      <trkpt lat="45.98119" lon="4.93907">
        <ele>292.3</ele>
        <time>2023-09-24T13:55:21Z</time>
      </trkpt>
      <trkpt lat="45.98115" lon="4.93906">
        <ele>292.4</ele>
        <time>2023-09-24T13:55:22Z</time>
      </trkpt>
      <trkpt lat="45.98112" lon="4.93907">
        <ele>292.3</ele>
        <time>2023-09-24T13:55:23Z</time>
      </trkpt>
      <trkpt lat="45.98108" lon="4.93905">
        <ele>292.4</ele>
        <time>2023-09-24T13:55:24Z</time>
      </trkpt>
      <trkpt lat="45.98104" lon="4.93904">
        <ele>292.5</ele>
        <time>2023-09-24T13:55:25Z</time>
      </trkpt>
      <trkpt lat="45.981" lon="4.93904">
        <ele>292.5</ele>
        <time>2023-09-24T13:55:26Z</time>
      </trkpt>
      <trkpt lat="45.98097" lon="4.93904">
        <ele>292.5</ele>
        <time>2023-09-24T13:55:27Z</time>
      </trkpt>
      <trkpt lat="45.98092" lon="4.93904">
        <ele>292.5</ele>
        <time>2023-09-24T13:55:28Z</time>
      </trkpt>
      <trkpt lat="45.98089" lon="4.93904">
        <ele>292.5</ele>
        <time>2023-09-24T13:55:29Z</time>
      </trkpt>
      <trkpt lat="45.98085" lon="4.93903">
        <ele>292.5</ele>
        <time>2023-09-24T13:55:30Z</time>
      </trkpt>
      <trkpt lat="45.9808" lon="4.93902">
        <ele>292.6</ele>
        <time>2023-09-24T13:55:31Z</time>
      </trkpt>
      <trkpt lat="45.98077" lon="4.93901">
        <ele>292.7</ele>
        <time>2023-09-24T13:55:32Z</time>
      </trkpt>
      <trkpt lat="45.98073" lon="4.93901">
        <ele>292.7</ele>
        <time>2023-09-24T13:55:33Z</time>
      </trkpt>
      <trkpt lat="45.98069" lon="4.939">
        <ele>292.8</ele>
        <time>2023-09-24T13:55:34Z</time>
      </trkpt>
      <trkpt lat="45.98066" lon="4.93899">
        <ele>292.9</ele>
        <time>2023-09-24T13:55:35Z</time>
      </trkpt>
      <trkpt lat="45.98062" lon="4.93898">
        <ele>292.9</ele>
        <time>2023-09-24T13:55:36Z</time>
      </trkpt>
      <trkpt lat="45.98058" lon="4.93897">
        <ele>293</ele>
        <time>2023-09-24T13:55:37Z</time>
      </trkpt>
      <trkpt lat="45.98055" lon="4.93895">
        <ele>293</ele>
        <time>2023-09-24T13:55:38Z</time>
      </trkpt>
      <trkpt lat="45.98051" lon="4.93893">
        <ele>293</ele>
        <time>2023-09-24T13:55:39Z</time>
      </trkpt>
      <trkpt lat="45.98047" lon="4.93892">
        <ele>293</ele>
        <time>2023-09-24T13:55:40Z</time>
      </trkpt>
      <trkpt lat="45.98044" lon="4.93889">
        <ele>293</ele>
        <time>2023-09-24T13:55:41Z</time>
      </trkpt>
      <trkpt lat="45.9804" lon="4.93887">
        <ele>293</ele>
        <time>2023-09-24T13:55:42Z</time>
      </trkpt>
      <trkpt lat="45.98037" lon="4.93884">
        <ele>293.1</ele>
        <time>2023-09-24T13:55:43Z</time>
      </trkpt>
      <trkpt lat="45.98034" lon="4.9388">
        <ele>293.2</ele>
        <time>2023-09-24T13:55:44Z</time>
      </trkpt>
      <trkpt lat="45.9803" lon="4.93877">
        <ele>293.4</ele>
        <time>2023-09-24T13:55:45Z</time>
      </trkpt>
      <trkpt lat="45.98029" lon="4.93875">
        <ele>293.5</ele>
        <time>2023-09-24T13:55:46Z</time>
      </trkpt>
      <trkpt lat="45.98026" lon="4.9387">
        <ele>293.7</ele>
        <time>2023-09-24T13:55:47Z</time>
      </trkpt>
      <trkpt lat="45.98024" lon="4.93866">
        <ele>294</ele>
        <time>2023-09-24T13:55:48Z</time>
      </trkpt>
      <trkpt lat="45.98021" lon="4.93862">
        <ele>294.2</ele>
        <time>2023-09-24T13:55:49Z</time>
      </trkpt>
      <trkpt lat="45.98019" lon="4.93859">
        <ele>294.3</ele>
        <time>2023-09-24T13:55:50Z</time>
      </trkpt>
      <trkpt lat="45.98017" lon="4.93854">
        <ele>294.3</ele>
        <time>2023-09-24T13:55:51Z</time>
      </trkpt>
      <trkpt lat="45.98015" lon="4.93851">
        <ele>294.3</ele>
        <time>2023-09-24T13:55:52Z</time>
      </trkpt>
      <trkpt lat="45.98013" lon="4.93847">
        <ele>294.3</ele>
        <time>2023-09-24T13:55:53Z</time>
      </trkpt>
      <trkpt lat="45.98011" lon="4.93843">
        <ele>294.2</ele>
        <time>2023-09-24T13:55:54Z</time>
      </trkpt>
      <trkpt lat="45.98009" lon="4.93838">
        <ele>294.1</ele>
        <time>2023-09-24T13:55:55Z</time>
      </trkpt>
      <trkpt lat="45.98007" lon="4.93834">
        <ele>294</ele>
        <time>2023-09-24T13:55:56Z</time>
      </trkpt>
      <trkpt lat="45.98004" lon="4.9383">
        <ele>294</ele>
        <time>2023-09-24T13:55:57Z</time>
      </trkpt>
      <trkpt lat="45.98002" lon="4.93825">
        <ele>294</ele>
        <time>2023-09-24T13:55:58Z</time>
      </trkpt>
      <trkpt lat="45.98" lon="4.93821">
        <ele>294</ele>
        <time>2023-09-24T13:55:59Z</time>
      </trkpt>
      <trkpt lat="45.97999" lon="4.93817">
        <ele>294</ele>
        <time>2023-09-24T13:56:00Z</time>
      </trkpt>
      <trkpt lat="45.97997" lon="4.93813">
        <ele>294.1</ele>
        <time>2023-09-24T13:56:01Z</time>
      </trkpt>
      <trkpt lat="45.97994" lon="4.93809">
        <ele>294.2</ele>
        <time>2023-09-24T13:56:02Z</time>
      </trkpt>
      <trkpt lat="45.97992" lon="4.93805">
        <ele>294.3</ele>
        <time>2023-09-24T13:56:03Z</time>
      </trkpt>
      <trkpt lat="45.97989" lon="4.93802">
        <ele>294.4</ele>
        <time>2023-09-24T13:56:04Z</time>
      </trkpt>
      <trkpt lat="45.97987" lon="4.93797">
        <ele>294.5</ele>
        <time>2023-09-24T13:56:05Z</time>
      </trkpt>
      <trkpt lat="45.97985" lon="4.93794">
        <ele>294.5</ele>
        <time>2023-09-24T13:56:06Z</time>
      </trkpt>
      <trkpt lat="45.97983" lon="4.9379">
        <ele>294.6</ele>
        <time>2023-09-24T13:56:07Z</time>
      </trkpt>
      <trkpt lat="45.9798" lon="4.93787">
        <ele>294.7</ele>
        <time>2023-09-24T13:56:08Z</time>
      </trkpt>
      <trkpt lat="45.97977" lon="4.93783">
        <ele>294.8</ele>
        <time>2023-09-24T13:56:09Z</time>
      </trkpt>
      <trkpt lat="45.97975" lon="4.93781">
        <ele>294.9</ele>
        <time>2023-09-24T13:56:10Z</time>
      </trkpt>
      <trkpt lat="45.97973" lon="4.93777">
        <ele>295</ele>
        <time>2023-09-24T13:56:11Z</time>
      </trkpt>
      <trkpt lat="45.9797" lon="4.93774">
        <ele>295.1</ele>
        <time>2023-09-24T13:56:12Z</time>
      </trkpt>
      <trkpt lat="45.97967" lon="4.93771">
        <ele>295.1</ele>
        <time>2023-09-24T13:56:13Z</time>
      </trkpt>
      <trkpt lat="45.97964" lon="4.93767">
        <ele>295.2</ele>
        <time>2023-09-24T13:56:14Z</time>
      </trkpt>
      <trkpt lat="45.97961" lon="4.93765">
        <ele>295.2</ele>
        <time>2023-09-24T13:56:15Z</time>
      </trkpt>
      <trkpt lat="45.97958" lon="4.93762">
        <ele>295.2</ele>
        <time>2023-09-24T13:56:16Z</time>
      </trkpt>
      <trkpt lat="45.97955" lon="4.9376">
        <ele>295.2</ele>
        <time>2023-09-24T13:56:17Z</time>
      </trkpt>
      <trkpt lat="45.97952" lon="4.93758">
        <ele>295.2</ele>
        <time>2023-09-24T13:56:18Z</time>
      </trkpt>
      <trkpt lat="45.97948" lon="4.93754">
        <ele>295.1</ele>
        <time>2023-09-24T13:56:19Z</time>
      </trkpt>
      <trkpt lat="45.97945" lon="4.93754">
        <ele>295.1</ele>
        <time>2023-09-24T13:56:20Z</time>
      </trkpt>
      <trkpt lat="45.97943" lon="4.93753">
        <ele>295.2</ele>
        <time>2023-09-24T13:56:21Z</time>
      </trkpt>
      <trkpt lat="45.97939" lon="4.93752">
        <ele>295.4</ele>
        <time>2023-09-24T13:56:22Z</time>
      </trkpt>
      <trkpt lat="45.97936" lon="4.9375">
        <ele>295.6</ele>
        <time>2023-09-24T13:56:23Z</time>
      </trkpt>
      <trkpt lat="45.97935" lon="4.9375">
        <ele>295.7</ele>
        <time>2023-09-24T13:56:24Z</time>
      </trkpt>
      <trkpt lat="45.97932" lon="4.93748">
        <ele>295.9</ele>
        <time>2023-09-24T13:56:25Z</time>
      </trkpt>
      <trkpt lat="45.9793" lon="4.93747">
        <ele>296.1</ele>
        <time>2023-09-24T13:56:26Z</time>
      </trkpt>
      <trkpt lat="45.97927" lon="4.93747">
        <ele>296.3</ele>
        <time>2023-09-24T13:56:27Z</time>
      </trkpt>
      <trkpt lat="45.97924" lon="4.93746">
        <ele>296.5</ele>
        <time>2023-09-24T13:56:28Z</time>
      </trkpt>
      <trkpt lat="45.9792" lon="4.93745">
        <ele>296.8</ele>
        <time>2023-09-24T13:56:29Z</time>
      </trkpt>
      <trkpt lat="45.97919" lon="4.93744">
        <ele>296.9</ele>
        <time>2023-09-24T13:56:30Z</time>
      </trkpt>
      <trkpt lat="45.97915" lon="4.93742">
        <ele>297.1</ele>
        <time>2023-09-24T13:56:31Z</time>
      </trkpt>
      <trkpt lat="45.97913" lon="4.93742">
        <ele>297.2</ele>
        <time>2023-09-24T13:56:32Z</time>
      </trkpt>
      <trkpt lat="45.97911" lon="4.93741">
        <ele>297.3</ele>
        <time>2023-09-24T13:56:33Z</time>
      </trkpt>
      <trkpt lat="45.97907" lon="4.9374">
        <ele>297.6</ele>
        <time>2023-09-24T13:56:34Z</time>
      </trkpt>
      <trkpt lat="45.97904" lon="4.93737">
        <ele>297.7</ele>
        <time>2023-09-24T13:56:35Z</time>
      </trkpt>
      <trkpt lat="45.97902" lon="4.93737">
        <ele>297.8</ele>
        <time>2023-09-24T13:56:36Z</time>
      </trkpt>
      <trkpt lat="45.97899" lon="4.93736">
        <ele>298</ele>
        <time>2023-09-24T13:56:37Z</time>
      </trkpt>
      <trkpt lat="45.97895" lon="4.93736">
        <ele>298.2</ele>
        <time>2023-09-24T13:56:38Z</time>
      </trkpt>
      <trkpt lat="45.97894" lon="4.93735">
        <ele>298.2</ele>
        <time>2023-09-24T13:56:39Z</time>
      </trkpt>
      <trkpt lat="45.97891" lon="4.93734">
        <ele>298.3</ele>
        <time>2023-09-24T13:56:41Z</time>
      </trkpt>
      <trkpt lat="45.9789" lon="4.93734">
        <ele>298.4</ele>
        <time>2023-09-24T13:56:42Z</time>
      </trkpt>
      <trkpt lat="45.97887" lon="4.93733">
        <ele>298.5</ele>
        <time>2023-09-24T13:56:43Z</time>
      </trkpt>
      <trkpt lat="45.97885" lon="4.93732">
        <ele>298.6</ele>
        <time>2023-09-24T13:56:44Z</time>
      </trkpt>
      <trkpt lat="45.97882" lon="4.93732">
        <ele>298.8</ele>
        <time>2023-09-24T13:56:45Z</time>
      </trkpt>
      <trkpt lat="45.9788" lon="4.93731">
        <ele>298.9</ele>
        <time>2023-09-24T13:56:46Z</time>
      </trkpt>
      <trkpt lat="45.97875" lon="4.93729">
        <ele>299.1</ele>
        <time>2023-09-24T13:56:47Z</time>
      </trkpt>
      <trkpt lat="45.97872" lon="4.93728">
        <ele>299.3</ele>
        <time>2023-09-24T13:56:48Z</time>
      </trkpt>
      <trkpt lat="45.97871" lon="4.93727">
        <ele>299.3</ele>
        <time>2023-09-24T13:56:49Z</time>
      </trkpt>
      <trkpt lat="45.97867" lon="4.93726">
        <ele>299.6</ele>
        <time>2023-09-24T13:56:50Z</time>
      </trkpt>
      <trkpt lat="45.97866" lon="4.93726">
        <ele>299.7</ele>
        <time>2023-09-24T13:56:51Z</time>
      </trkpt>
      <trkpt lat="45.97863" lon="4.93726">
        <ele>299.9</ele>
        <time>2023-09-24T13:56:52Z</time>
      </trkpt>
      <trkpt lat="45.97862" lon="4.93726">
        <ele>299.9</ele>
        <time>2023-09-24T13:56:53Z</time>
      </trkpt>
      <trkpt lat="45.97858" lon="4.93725">
        <ele>300.2</ele>
        <time>2023-09-24T13:56:54Z</time>
      </trkpt>
      <trkpt lat="45.97856" lon="4.93725">
        <ele>300.3</ele>
        <time>2023-09-24T13:56:55Z</time>
      </trkpt>
      <trkpt lat="45.97853" lon="4.93724">
        <ele>300.6</ele>
        <time>2023-09-24T13:56:56Z</time>
      </trkpt>
      <trkpt lat="45.97851" lon="4.93724">
        <ele>300.7</ele>
        <time>2023-09-24T13:56:57Z</time>
      </trkpt>
      <trkpt lat="45.97848" lon="4.93723">
        <ele>300.9</ele>
        <time>2023-09-24T13:56:58Z</time>
      </trkpt>
      <trkpt lat="45.97847" lon="4.93722">
        <ele>301</ele>
        <time>2023-09-24T13:56:59Z</time>
      </trkpt>
      <trkpt lat="45.97843" lon="4.93721">
        <ele>301.3</ele>
        <time>2023-09-24T13:57:00Z</time>
      </trkpt>
      <trkpt lat="45.97842" lon="4.93721">
        <ele>301.4</ele>
        <time>2023-09-24T13:57:01Z</time>
      </trkpt>
      <trkpt lat="45.97838" lon="4.9372">
        <ele>301.7</ele>
        <time>2023-09-24T13:57:02Z</time>
      </trkpt>
      <trkpt lat="45.97837" lon="4.9372">
        <ele>301.8</ele>
        <time>2023-09-24T13:57:03Z</time>
      </trkpt>
      <trkpt lat="45.97833" lon="4.9372">
        <ele>302.1</ele>
        <time>2023-09-24T13:57:04Z</time>
      </trkpt>
      <trkpt lat="45.97832" lon="4.93719">
        <ele>302.2</ele>
        <time>2023-09-24T13:57:05Z</time>
      </trkpt>
      <trkpt lat="45.97828" lon="4.93719">
        <ele>302.3</ele>
        <time>2023-09-24T13:57:06Z</time>
      </trkpt>
      <trkpt lat="45.97826" lon="4.93719">
        <ele>302.4</ele>
        <time>2023-09-24T13:57:07Z</time>
      </trkpt>
      <trkpt lat="45.97822" lon="4.93718">
        <ele>302.6</ele>
        <time>2023-09-24T13:57:08Z</time>
      </trkpt>
      <trkpt lat="45.97821" lon="4.93717">
        <ele>302.6</ele>
        <time>2023-09-24T13:57:09Z</time>
      </trkpt>
      <trkpt lat="45.97818" lon="4.93716">
        <ele>302.8</ele>
        <time>2023-09-24T13:57:10Z</time>
      </trkpt>
      <trkpt lat="45.97817" lon="4.93716">
        <ele>302.8</ele>
        <time>2023-09-24T13:57:11Z</time>
      </trkpt>
      <trkpt lat="45.97813" lon="4.93716">
        <ele>303</ele>
        <time>2023-09-24T13:57:12Z</time>
      </trkpt>
      <trkpt lat="45.97811" lon="4.93716">
        <ele>303</ele>
        <time>2023-09-24T13:57:13Z</time>
      </trkpt>
      <trkpt lat="45.97808" lon="4.93716">
        <ele>303.1</ele>
        <time>2023-09-24T13:57:14Z</time>
      </trkpt>
      <trkpt lat="45.97806" lon="4.93715">
        <ele>303.2</ele>
        <time>2023-09-24T13:57:15Z</time>
      </trkpt>
      <trkpt lat="45.97802" lon="4.93716">
        <ele>303.3</ele>
        <time>2023-09-24T13:57:16Z</time>
      </trkpt>
      <trkpt lat="45.97801" lon="4.93715">
        <ele>303.3</ele>
        <time>2023-09-24T13:57:17Z</time>
      </trkpt>
      <trkpt lat="45.97797" lon="4.93715">
        <ele>303.3</ele>
        <time>2023-09-24T13:57:18Z</time>
      </trkpt>
      <trkpt lat="45.97795" lon="4.93715">
        <ele>303.4</ele>
        <time>2023-09-24T13:57:19Z</time>
      </trkpt>
      <trkpt lat="45.97792" lon="4.93715">
        <ele>303.4</ele>
        <time>2023-09-24T13:57:20Z</time>
      </trkpt>
      <trkpt lat="45.97791" lon="4.93715">
        <ele>303.4</ele>
        <time>2023-09-24T13:57:21Z</time>
      </trkpt>
      <trkpt lat="45.97788" lon="4.93714">
        <ele>303.5</ele>
        <time>2023-09-24T13:57:22Z</time>
      </trkpt>
      <trkpt lat="45.97785" lon="4.93714">
        <ele>303.5</ele>
        <time>2023-09-24T13:57:23Z</time>
      </trkpt>
      <trkpt lat="45.97782" lon="4.93714">
        <ele>303.5</ele>
        <time>2023-09-24T13:57:24Z</time>
      </trkpt>
      <trkpt lat="45.97779" lon="4.93714">
        <ele>303.6</ele>
        <time>2023-09-24T13:57:25Z</time>
      </trkpt>
      <trkpt lat="45.97776" lon="4.93714">
        <ele>303.6</ele>
        <time>2023-09-24T13:57:26Z</time>
      </trkpt>
      <trkpt lat="45.97773" lon="4.93715">
        <ele>303.6</ele>
        <time>2023-09-24T13:57:27Z</time>
      </trkpt>
      <trkpt lat="45.9777" lon="4.93715">
        <ele>303.7</ele>
        <time>2023-09-24T13:57:28Z</time>
      </trkpt>
      <trkpt lat="45.97767" lon="4.93715">
        <ele>303.8</ele>
        <time>2023-09-24T13:57:29Z</time>
      </trkpt>
      <trkpt lat="45.97764" lon="4.93715">
        <ele>303.9</ele>
        <time>2023-09-24T13:57:30Z</time>
      </trkpt>
      <trkpt lat="45.9776" lon="4.93715">
        <ele>304</ele>
        <time>2023-09-24T13:57:31Z</time>
      </trkpt>
      <trkpt lat="45.97758" lon="4.93715">
        <ele>304</ele>
        <time>2023-09-24T13:57:32Z</time>
      </trkpt>
      <trkpt lat="45.97756" lon="4.93715">
        <ele>304.1</ele>
        <time>2023-09-24T13:57:33Z</time>
      </trkpt>
      <trkpt lat="45.97752" lon="4.93714">
        <ele>304.2</ele>
        <time>2023-09-24T13:57:35Z</time>
      </trkpt>
      <trkpt lat="45.97748" lon="4.93715">
        <ele>304.3</ele>
        <time>2023-09-24T13:57:36Z</time>
      </trkpt>
      <trkpt lat="45.97745" lon="4.93716">
        <ele>304.2</ele>
        <time>2023-09-24T13:57:37Z</time>
      </trkpt>
      <trkpt lat="45.97741" lon="4.93716">
        <ele>304.2</ele>
        <time>2023-09-24T13:57:38Z</time>
      </trkpt>
      <trkpt lat="45.97737" lon="4.93717">
        <ele>304.2</ele>
        <time>2023-09-24T13:57:39Z</time>
      </trkpt>
      <trkpt lat="45.97734" lon="4.93718">
        <ele>304.2</ele>
        <time>2023-09-24T13:57:40Z</time>
      </trkpt>
      <trkpt lat="45.97731" lon="4.93719">
        <ele>304.1</ele>
        <time>2023-09-24T13:57:41Z</time>
      </trkpt>
      <trkpt lat="45.97726" lon="4.93719">
        <ele>304.1</ele>
        <time>2023-09-24T13:57:42Z</time>
      </trkpt>
      <trkpt lat="45.97723" lon="4.9372">
        <ele>304.1</ele>
        <time>2023-09-24T13:57:43Z</time>
      </trkpt>
      <trkpt lat="45.97719" lon="4.9372">
        <ele>304.1</ele>
        <time>2023-09-24T13:57:44Z</time>
      </trkpt>
      <trkpt lat="45.97716" lon="4.9372">
        <ele>304.1</ele>
        <time>2023-09-24T13:57:45Z</time>
      </trkpt>
      <trkpt lat="45.97712" lon="4.93721">
        <ele>304</ele>
        <time>2023-09-24T13:57:46Z</time>
      </trkpt>
      <trkpt lat="45.9771" lon="4.93722">
        <ele>304</ele>
        <time>2023-09-24T13:57:47Z</time>
      </trkpt>
      <trkpt lat="45.97707" lon="4.93722">
        <ele>304</ele>
        <time>2023-09-24T13:57:48Z</time>
      </trkpt>
      <trkpt lat="45.97704" lon="4.93721">
        <ele>304</ele>
        <time>2023-09-24T13:57:49Z</time>
      </trkpt>
      <trkpt lat="45.977" lon="4.93721">
        <ele>304</ele>
        <time>2023-09-24T13:57:50Z</time>
      </trkpt>
      <trkpt lat="45.97698" lon="4.93721">
        <ele>304</ele>
        <time>2023-09-24T13:57:51Z</time>
      </trkpt>
      <trkpt lat="45.97695" lon="4.93721">
        <ele>304</ele>
        <time>2023-09-24T13:57:52Z</time>
      </trkpt>
      <trkpt lat="45.97691" lon="4.93721">
        <ele>304</ele>
        <time>2023-09-24T13:57:53Z</time>
      </trkpt>
      <trkpt lat="45.97688" lon="4.93721">
        <ele>304</ele>
        <time>2023-09-24T13:57:54Z</time>
      </trkpt>
      <trkpt lat="45.97685" lon="4.9372">
        <ele>304.1</ele>
        <time>2023-09-24T13:57:55Z</time>
      </trkpt>
      <trkpt lat="45.97682" lon="4.93718">
        <ele>304.2</ele>
        <time>2023-09-24T13:57:56Z</time>
      </trkpt>
      <trkpt lat="45.97678" lon="4.93716">
        <ele>304.2</ele>
        <time>2023-09-24T13:57:57Z</time>
      </trkpt>
      <trkpt lat="45.97675" lon="4.93715">
        <ele>304.3</ele>
        <time>2023-09-24T13:57:58Z</time>
      </trkpt>
      <trkpt lat="45.97671" lon="4.93713">
        <ele>304.3</ele>
        <time>2023-09-24T13:57:59Z</time>
      </trkpt>
      <trkpt lat="45.97668" lon="4.93712">
        <ele>304.4</ele>
        <time>2023-09-24T13:58:00Z</time>
      </trkpt>
      <trkpt lat="45.97665" lon="4.93709">
        <ele>304.4</ele>
        <time>2023-09-24T13:58:01Z</time>
      </trkpt>
      <trkpt lat="45.97662" lon="4.93707">
        <ele>304.5</ele>
        <time>2023-09-24T13:58:02Z</time>
      </trkpt>
      <trkpt lat="45.97658" lon="4.93706">
        <ele>304.5</ele>
        <time>2023-09-24T13:58:03Z</time>
      </trkpt>
      <trkpt lat="45.97655" lon="4.93704">
        <ele>304.5</ele>
        <time>2023-09-24T13:58:04Z</time>
      </trkpt>
      <trkpt lat="45.97651" lon="4.93701">
        <ele>304.6</ele>
        <time>2023-09-24T13:58:05Z</time>
      </trkpt>
      <trkpt lat="45.97649" lon="4.93699">
        <ele>304.7</ele>
        <time>2023-09-24T13:58:06Z</time>
      </trkpt>
      <trkpt lat="45.97645" lon="4.93697">
        <ele>304.8</ele>
        <time>2023-09-24T13:58:07Z</time>
      </trkpt>
      <trkpt lat="45.97642" lon="4.93695">
        <ele>305</ele>
        <time>2023-09-24T13:58:08Z</time>
      </trkpt>
      <trkpt lat="45.97639" lon="4.93694">
        <ele>305</ele>
        <time>2023-09-24T13:58:09Z</time>
      </trkpt>
      <trkpt lat="45.97636" lon="4.93691">
        <ele>305</ele>
        <time>2023-09-24T13:58:10Z</time>
      </trkpt>
      <trkpt lat="45.97633" lon="4.93689">
        <ele>305</ele>
        <time>2023-09-24T13:58:11Z</time>
      </trkpt>
      <trkpt lat="45.97629" lon="4.93687">
        <ele>305</ele>
        <time>2023-09-24T13:58:12Z</time>
      </trkpt>
      <trkpt lat="45.97626" lon="4.93685">
        <ele>305</ele>
        <time>2023-09-24T13:58:13Z</time>
      </trkpt>
      <trkpt lat="45.97623" lon="4.93684">
        <ele>305</ele>
        <time>2023-09-24T13:58:14Z</time>
      </trkpt>
      <trkpt lat="45.97618" lon="4.93683">
        <ele>305</ele>
        <time>2023-09-24T13:58:15Z</time>
      </trkpt>
      <trkpt lat="45.97614" lon="4.9368">
        <ele>305.1</ele>
        <time>2023-09-24T13:58:16Z</time>
      </trkpt>
      <trkpt lat="45.97611" lon="4.93679">
        <ele>305.1</ele>
        <time>2023-09-24T13:58:17Z</time>
      </trkpt>
      <trkpt lat="45.97608" lon="4.93678">
        <ele>305.1</ele>
        <time>2023-09-24T13:58:18Z</time>
      </trkpt>
      <trkpt lat="45.97604" lon="4.93677">
        <ele>305.1</ele>
        <time>2023-09-24T13:58:19Z</time>
      </trkpt>
      <trkpt lat="45.976" lon="4.93678">
        <ele>304.9</ele>
        <time>2023-09-24T13:58:20Z</time>
      </trkpt>
      <trkpt lat="45.97597" lon="4.93676">
        <ele>305</ele>
        <time>2023-09-24T13:58:21Z</time>
      </trkpt>
      <trkpt lat="45.97594" lon="4.93675">
        <ele>305</ele>
        <time>2023-09-24T13:58:22Z</time>
      </trkpt>
      <trkpt lat="45.9759" lon="4.93674">
        <ele>304.9</ele>
        <time>2023-09-24T13:58:23Z</time>
      </trkpt>
      <trkpt lat="45.97587" lon="4.93673">
        <ele>304.9</ele>
        <time>2023-09-24T13:58:24Z</time>
      </trkpt>
      <trkpt lat="45.97584" lon="4.93672">
        <ele>304.8</ele>
        <time>2023-09-24T13:58:25Z</time>
      </trkpt>
      <trkpt lat="45.9758" lon="4.93671">
        <ele>304.9</ele>
        <time>2023-09-24T13:58:26Z</time>
      </trkpt>
      <trkpt lat="45.97577" lon="4.9367">
        <ele>305.1</ele>
        <time>2023-09-24T13:58:27Z</time>
      </trkpt>
      <trkpt lat="45.97573" lon="4.93669">
        <ele>305.3</ele>
        <time>2023-09-24T13:58:28Z</time>
      </trkpt>
      <trkpt lat="45.97569" lon="4.93668">
        <ele>305.4</ele>
        <time>2023-09-24T13:58:29Z</time>
      </trkpt>
      <trkpt lat="45.97565" lon="4.93668">
        <ele>305.6</ele>
        <time>2023-09-24T13:58:30Z</time>
      </trkpt>
      <trkpt lat="45.97562" lon="4.93668">
        <ele>305.7</ele>
        <time>2023-09-24T13:58:31Z</time>
      </trkpt>
      <trkpt lat="45.97558" lon="4.93669">
        <ele>305.8</ele>
        <time>2023-09-24T13:58:32Z</time>
      </trkpt>
      <trkpt lat="45.97554" lon="4.93669">
        <ele>305.8</ele>
        <time>2023-09-24T13:58:33Z</time>
      </trkpt>
      <trkpt lat="45.9755" lon="4.93669">
        <ele>305.8</ele>
        <time>2023-09-24T13:58:34Z</time>
      </trkpt>
      <trkpt lat="45.97546" lon="4.93669">
        <ele>305.8</ele>
        <time>2023-09-24T13:58:35Z</time>
      </trkpt>
      <trkpt lat="45.97542" lon="4.93671">
        <ele>305.7</ele>
        <time>2023-09-24T13:58:36Z</time>
      </trkpt>
      <trkpt lat="45.97539" lon="4.93672">
        <ele>305.6</ele>
        <time>2023-09-24T13:58:37Z</time>
      </trkpt>
      <trkpt lat="45.97535" lon="4.93673">
        <ele>305.5</ele>
        <time>2023-09-24T13:58:38Z</time>
      </trkpt>
      <trkpt lat="45.97532" lon="4.93673">
        <ele>305.5</ele>
        <time>2023-09-24T13:58:39Z</time>
      </trkpt>
      <trkpt lat="45.97528" lon="4.93674">
        <ele>305.5</ele>
        <time>2023-09-24T13:58:40Z</time>
      </trkpt>
      <trkpt lat="45.97525" lon="4.93673">
        <ele>305.5</ele>
        <time>2023-09-24T13:58:41Z</time>
      </trkpt>
      <trkpt lat="45.9752" lon="4.93675">
        <ele>305.4</ele>
        <time>2023-09-24T13:58:42Z</time>
      </trkpt>
      <trkpt lat="45.97516" lon="4.93676">
        <ele>305.3</ele>
        <time>2023-09-24T13:58:43Z</time>
      </trkpt>
      <trkpt lat="45.97512" lon="4.93678">
        <ele>305.2</ele>
        <time>2023-09-24T13:58:44Z</time>
      </trkpt>
      <trkpt lat="45.97508" lon="4.93679">
        <ele>305.1</ele>
        <time>2023-09-24T13:58:45Z</time>
      </trkpt>
      <trkpt lat="45.97503" lon="4.9368">
        <ele>305</ele>
        <time>2023-09-24T13:58:46Z</time>
      </trkpt>
      <trkpt lat="45.97498" lon="4.93681">
        <ele>305</ele>
        <time>2023-09-24T13:58:47Z</time>
      </trkpt>
      <trkpt lat="45.97494" lon="4.93682">
        <ele>304.9</ele>
        <time>2023-09-24T13:58:48Z</time>
      </trkpt>
      <trkpt lat="45.9749" lon="4.93683">
        <ele>304.8</ele>
        <time>2023-09-24T13:58:49Z</time>
      </trkpt>
      <trkpt lat="45.97485" lon="4.93685">
        <ele>304.7</ele>
        <time>2023-09-24T13:58:50Z</time>
      </trkpt>
      <trkpt lat="45.9748" lon="4.93686">
        <ele>304.6</ele>
        <time>2023-09-24T13:58:51Z</time>
      </trkpt>
      <trkpt lat="45.97476" lon="4.93688">
        <ele>304.5</ele>
        <time>2023-09-24T13:58:52Z</time>
      </trkpt>
      <trkpt lat="45.97472" lon="4.93689">
        <ele>304.4</ele>
      </trkpt>
      <trkpt lat="45.97467" lon="4.9369">
        <ele>304.1</ele>
        <time>2023-09-24T13:58:53Z</time>
      </trkpt>
      <trkpt lat="45.97462" lon="4.93691">
        <ele>303.9</ele>
        <time>2023-09-24T13:58:54Z</time>
      </trkpt>
      <trkpt lat="45.97457" lon="4.93692">
        <ele>303.6</ele>
        <time>2023-09-24T13:58:55Z</time>
      </trkpt>
      <trkpt lat="45.97452" lon="4.93692">
        <ele>303.4</ele>
        <time>2023-09-24T13:58:56Z</time>
      </trkpt>
      <trkpt lat="45.97448" lon="4.93694">
        <ele>303.2</ele>
        <time>2023-09-24T13:58:57Z</time>
      </trkpt>
      <trkpt lat="45.97444" lon="4.93695">
        <ele>303</ele>
        <time>2023-09-24T13:58:58Z</time>
      </trkpt>
      <trkpt lat="45.9744" lon="4.93695">
        <ele>303</ele>
        <time>2023-09-24T13:58:59Z</time>
      </trkpt>
      <trkpt lat="45.97435" lon="4.93695">
        <ele>303</ele>
        <time>2023-09-24T13:59:00Z</time>
      </trkpt>
      <trkpt lat="45.9743" lon="4.93695">
        <ele>303</ele>
        <time>2023-09-24T13:59:01Z</time>
      </trkpt>
      <trkpt lat="45.97426" lon="4.93694">
        <ele>303</ele>
        <time>2023-09-24T13:59:02Z</time>
      </trkpt>
      <trkpt lat="45.97421" lon="4.93694">
        <ele>303</ele>
        <time>2023-09-24T13:59:03Z</time>
      </trkpt>
      <trkpt lat="45.97417" lon="4.93694">
        <ele>303</ele>
        <time>2023-09-24T13:59:04Z</time>
      </trkpt>
      <trkpt lat="45.97412" lon="4.93694">
        <ele>302.8</ele>
        <time>2023-09-24T13:59:05Z</time>
      </trkpt>
      <trkpt lat="45.97407" lon="4.93694">
        <ele>302.7</ele>
        <time>2023-09-24T13:59:06Z</time>
      </trkpt>
      <trkpt lat="45.97402" lon="4.93694">
        <ele>302.5</ele>
        <time>2023-09-24T13:59:07Z</time>
      </trkpt>
      <trkpt lat="45.97398" lon="4.93694">
        <ele>302.3</ele>
        <time>2023-09-24T13:59:08Z</time>
      </trkpt>
      <trkpt lat="45.97393" lon="4.93695">
        <ele>302.1</ele>
        <time>2023-09-24T13:59:09Z</time>
      </trkpt>
      <trkpt lat="45.97388" lon="4.93695">
        <ele>301.9</ele>
        <time>2023-09-24T13:59:10Z</time>
      </trkpt>
      <trkpt lat="45.97382" lon="4.93695">
        <ele>301.7</ele>
        <time>2023-09-24T13:59:11Z</time>
      </trkpt>
      <trkpt lat="45.97378" lon="4.93696">
        <ele>301.5</ele>
        <time>2023-09-24T13:59:12Z</time>
      </trkpt>
      <trkpt lat="45.97373" lon="4.93697">
        <ele>301.2</ele>
        <time>2023-09-24T13:59:13Z</time>
      </trkpt>
      <trkpt lat="45.97369" lon="4.93695">
        <ele>301.2</ele>
        <time>2023-09-24T13:59:14Z</time>
      </trkpt>
      <trkpt lat="45.97364" lon="4.93696">
        <ele>301</ele>
        <time>2023-09-24T13:59:15Z</time>
      </trkpt>
      <trkpt lat="45.97358" lon="4.93696">
        <ele>300.8</ele>
        <time>2023-09-24T13:59:16Z</time>
      </trkpt>
      <trkpt lat="45.97353" lon="4.93696">
        <ele>300.6</ele>
        <time>2023-09-24T13:59:17Z</time>
      </trkpt>
      <trkpt lat="45.97349" lon="4.93696">
        <ele>300.5</ele>
        <time>2023-09-24T13:59:18Z</time>
      </trkpt>
      <trkpt lat="45.97343" lon="4.93696">
        <ele>300.3</ele>
        <time>2023-09-24T13:59:19Z</time>
      </trkpt>
      <trkpt lat="45.97337" lon="4.93697">
        <ele>300</ele>
        <time>2023-09-24T13:59:20Z</time>
      </trkpt>
      <trkpt lat="45.97332" lon="4.93697">
        <ele>300</ele>
        <time>2023-09-24T13:59:21Z</time>
      </trkpt>
      <trkpt lat="45.97326" lon="4.93697">
        <ele>300.1</ele>
        <time>2023-09-24T13:59:22Z</time>
      </trkpt>
      <trkpt lat="45.97321" lon="4.93697">
        <ele>300.3</ele>
        <time>2023-09-24T13:59:23Z</time>
      </trkpt>
      <trkpt lat="45.97316" lon="4.93697">
        <ele>300.5</ele>
        <time>2023-09-24T13:59:24Z</time>
      </trkpt>
      <trkpt lat="45.97311" lon="4.93697">
        <ele>300.6</ele>
        <time>2023-09-24T13:59:25Z</time>
      </trkpt>
      <trkpt lat="45.97306" lon="4.93697">
        <ele>300.8</ele>
        <time>2023-09-24T13:59:26Z</time>
      </trkpt>
      <trkpt lat="45.97302" lon="4.93698">
        <ele>300.6</ele>
        <time>2023-09-24T13:59:27Z</time>
      </trkpt>
      <trkpt lat="45.97297" lon="4.93697">
        <ele>300.5</ele>
        <time>2023-09-24T13:59:28Z</time>
      </trkpt>
      <trkpt lat="45.97294" lon="4.93697">
        <ele>300.4</ele>
        <time>2023-09-24T13:59:29Z</time>
      </trkpt>
      <trkpt lat="45.97291" lon="4.93697">
        <ele>300.3</ele>
        <time>2023-09-24T13:59:30Z</time>
      </trkpt>
      <trkpt lat="45.97287" lon="4.93697">
        <ele>300.2</ele>
        <time>2023-09-24T13:59:31Z</time>
      </trkpt>
      <trkpt lat="45.97283" lon="4.93697">
        <ele>300.1</ele>
        <time>2023-09-24T13:59:32Z</time>
      </trkpt>
      <trkpt lat="45.97279" lon="4.93697">
        <ele>299.9</ele>
        <time>2023-09-24T13:59:33Z</time>
      </trkpt>
      <trkpt lat="45.97276" lon="4.93697">
        <ele>300</ele>
        <time>2023-09-24T13:59:34Z</time>
      </trkpt>
      <trkpt lat="45.97272" lon="4.93697">
        <ele>300.1</ele>
        <time>2023-09-24T13:59:35Z</time>
      </trkpt>
      <trkpt lat="45.97267" lon="4.93697">
        <ele>300.3</ele>
        <time>2023-09-24T13:59:36Z</time>
      </trkpt>
      <trkpt lat="45.97262" lon="4.93697">
        <ele>300.4</ele>
        <time>2023-09-24T13:59:37Z</time>
      </trkpt>
      <trkpt lat="45.9726" lon="4.93697">
        <ele>300.5</ele>
        <time>2023-09-24T13:59:38Z</time>
      </trkpt>
      <trkpt lat="45.97254" lon="4.93697">
        <ele>300.7</ele>
        <time>2023-09-24T13:59:40Z</time>
      </trkpt>
      <trkpt lat="45.97251" lon="4.93697">
        <ele>300.8</ele>
        <time>2023-09-24T13:59:41Z</time>
      </trkpt>
      <trkpt lat="45.97246" lon="4.93697">
        <ele>300.8</ele>
        <time>2023-09-24T13:59:42Z</time>
      </trkpt>
      <trkpt lat="45.97243" lon="4.93698">
        <ele>300.8</ele>
        <time>2023-09-24T13:59:43Z</time>
      </trkpt>
      <trkpt lat="45.97238" lon="4.93698">
        <ele>300.8</ele>
        <time>2023-09-24T13:59:44Z</time>
      </trkpt>
      <trkpt lat="45.97233" lon="4.93698">
        <ele>300.8</ele>
        <time>2023-09-24T13:59:45Z</time>
      </trkpt>
      <trkpt lat="45.97229" lon="4.93699">
        <ele>300.8</ele>
        <time>2023-09-24T13:59:46Z</time>
      </trkpt>
      <trkpt lat="45.97224" lon="4.93699">
        <ele>300.8</ele>
        <time>2023-09-24T13:59:47Z</time>
      </trkpt>
      <trkpt lat="45.97221" lon="4.937">
        <ele>300.8</ele>
        <time>2023-09-24T13:59:48Z</time>
      </trkpt>
      <trkpt lat="45.97217" lon="4.93699">
        <ele>301</ele>
        <time>2023-09-24T13:59:49Z</time>
      </trkpt>
      <trkpt lat="45.97213" lon="4.93701">
        <ele>301</ele>
        <time>2023-09-24T13:59:50Z</time>
      </trkpt>
      <trkpt lat="45.97208" lon="4.93702">
        <ele>301.1</ele>
        <time>2023-09-24T13:59:51Z</time>
      </trkpt>
      <trkpt lat="45.97204" lon="4.93702">
        <ele>301.2</ele>
        <time>2023-09-24T13:59:52Z</time>
      </trkpt>
      <trkpt lat="45.972" lon="4.93704">
        <ele>301.2</ele>
        <time>2023-09-24T13:59:53Z</time>
      </trkpt>
      <trkpt lat="45.97195" lon="4.93704">
        <ele>301.3</ele>
        <time>2023-09-24T13:59:54Z</time>
      </trkpt>
      <trkpt lat="45.97192" lon="4.93705">
        <ele>301.2</ele>
        <time>2023-09-24T13:59:55Z</time>
      </trkpt>
      <trkpt lat="45.97187" lon="4.93705">
        <ele>301.2</ele>
        <time>2023-09-24T13:59:56Z</time>
      </trkpt>
      <trkpt lat="45.97183" lon="4.93705">
        <ele>301.2</ele>
        <time>2023-09-24T13:59:57Z</time>
      </trkpt>
      <trkpt lat="45.97178" lon="4.93706">
        <ele>301.2</ele>
        <time>2023-09-24T13:59:58Z</time>
      </trkpt>
      <trkpt lat="45.97173" lon="4.93706">
        <ele>301.2</ele>
        <time>2023-09-24T13:59:59Z</time>
      </trkpt>
      <trkpt lat="45.97168" lon="4.93707">
        <ele>301.1</ele>
        <time>2023-09-24T14:00:00Z</time>
      </trkpt>
      <trkpt lat="45.97164" lon="4.93707">
        <ele>301.1</ele>
        <time>2023-09-24T14:00:01Z</time>
      </trkpt>
      <trkpt lat="45.97159" lon="4.93706">
        <ele>301.1</ele>
        <time>2023-09-24T14:00:02Z</time>
      </trkpt>
      <trkpt lat="45.97155" lon="4.93705">
        <ele>301.1</ele>
        <time>2023-09-24T14:00:03Z</time>
      </trkpt>
      <trkpt lat="45.9715" lon="4.93705">
        <ele>301</ele>
        <time>2023-09-24T14:00:04Z</time>
      </trkpt>
      <trkpt lat="45.97145" lon="4.93705">
        <ele>300.9</ele>
        <time>2023-09-24T14:00:05Z</time>
      </trkpt>
      <trkpt lat="45.9714" lon="4.93705">
        <ele>300.9</ele>
        <time>2023-09-24T14:00:06Z</time>
      </trkpt>
      <trkpt lat="45.97137" lon="4.93705">
        <ele>300.9</ele>
        <time>2023-09-24T14:00:07Z</time>
      </trkpt>
      <trkpt lat="45.97133" lon="4.93704">
        <ele>301</ele>
        <time>2023-09-24T14:00:08Z</time>
      </trkpt>
      <trkpt lat="45.97129" lon="4.93704">
        <ele>301</ele>
        <time>2023-09-24T14:00:09Z</time>
      </trkpt>
      <trkpt lat="45.97124" lon="4.93704">
        <ele>301</ele>
        <time>2023-09-24T14:00:10Z</time>
      </trkpt>
      <trkpt lat="45.97121" lon="4.93704">
        <ele>301</ele>
        <time>2023-09-24T14:00:11Z</time>
      </trkpt>
      <trkpt lat="45.97116" lon="4.93704">
        <ele>301</ele>
        <time>2023-09-24T14:00:12Z</time>
      </trkpt>
      <trkpt lat="45.97113" lon="4.93704">
        <ele>301</ele>
        <time>2023-09-24T14:00:13Z</time>
      </trkpt>
      <trkpt lat="45.97109" lon="4.93705">
        <ele>300.8</ele>
        <time>2023-09-24T14:00:14Z</time>
      </trkpt>
      <trkpt lat="45.97105" lon="4.93705">
        <ele>300.7</ele>
        <time>2023-09-24T14:00:15Z</time>
      </trkpt>
      <trkpt lat="45.97102" lon="4.93705">
        <ele>300.7</ele>
        <time>2023-09-24T14:00:16Z</time>
      </trkpt>
      <trkpt lat="45.97098" lon="4.93704">
        <ele>300.7</ele>
        <time>2023-09-24T14:00:17Z</time>
      </trkpt>
      <trkpt lat="45.97096" lon="4.93704">
        <ele>300.6</ele>
        <time>2023-09-24T14:00:18Z</time>
      </trkpt>
      <trkpt lat="45.97093" lon="4.93705">
        <ele>300.5</ele>
        <time>2023-09-24T14:00:19Z</time>
      </trkpt>
      <trkpt lat="45.97089" lon="4.93706">
        <ele>300.3</ele>
        <time>2023-09-24T14:00:20Z</time>
      </trkpt>
      <trkpt lat="45.97088" lon="4.93706">
        <ele>300.3</ele>
        <time>2023-09-24T14:00:21Z</time>
      </trkpt>
      <trkpt lat="45.97085" lon="4.93706">
        <ele>300.2</ele>
        <time>2023-09-24T14:00:22Z</time>
      </trkpt>
      <trkpt lat="45.97084" lon="4.93706">
        <ele>300.2</ele>
        <time>2023-09-24T14:00:23Z</time>
      </trkpt>
      <trkpt lat="45.97079" lon="4.93706">
        <ele>300.2</ele>
        <time>2023-09-24T14:00:24Z</time>
      </trkpt>
      <trkpt lat="45.97078" lon="4.93705">
        <ele>300.3</ele>
        <time>2023-09-24T14:00:25Z</time>
      </trkpt>
      <trkpt lat="45.97075" lon="4.93705">
        <ele>300.4</ele>
        <time>2023-09-24T14:00:26Z</time>
      </trkpt>
      <trkpt lat="45.9707" lon="4.93705">
        <ele>300.4</ele>
        <time>2023-09-24T14:00:27Z</time>
      </trkpt>
      <trkpt lat="45.97066" lon="4.93706">
        <ele>300.4</ele>
        <time>2023-09-24T14:00:28Z</time>
      </trkpt>
      <trkpt lat="45.97062" lon="4.93706">
        <ele>300.5</ele>
        <time>2023-09-24T14:00:29Z</time>
      </trkpt>
      <trkpt lat="45.97057" lon="4.93706">
        <ele>300.6</ele>
        <time>2023-09-24T14:00:30Z</time>
      </trkpt>
      <trkpt lat="45.97053" lon="4.93707">
        <ele>300.5</ele>
        <time>2023-09-24T14:00:31Z</time>
      </trkpt>
      <trkpt lat="45.97048" lon="4.93708">
        <ele>300.5</ele>
        <time>2023-09-24T14:00:32Z</time>
      </trkpt>
      <trkpt lat="45.97043" lon="4.93708">
        <ele>300.5</ele>
        <time>2023-09-24T14:00:33Z</time>
      </trkpt>
      <trkpt lat="45.97038" lon="4.93709">
        <ele>300.5</ele>
        <time>2023-09-24T14:00:34Z</time>
      </trkpt>
      <trkpt lat="45.97033" lon="4.93709">
        <ele>300.5</ele>
        <time>2023-09-24T14:00:35Z</time>
      </trkpt>
      <trkpt lat="45.97028" lon="4.9371">
        <ele>300.4</ele>
        <time>2023-09-24T14:00:36Z</time>
      </trkpt>
      <trkpt lat="45.97023" lon="4.93711">
        <ele>300.3</ele>
        <time>2023-09-24T14:00:37Z</time>
      </trkpt>
      <trkpt lat="45.97017" lon="4.93711">
        <ele>300.2</ele>
        <time>2023-09-24T14:00:38Z</time>
      </trkpt>
      <trkpt lat="45.97012" lon="4.93712">
        <ele>300.2</ele>
        <time>2023-09-24T14:00:39Z</time>
      </trkpt>
      <trkpt lat="45.97007" lon="4.93713">
        <ele>300.1</ele>
        <time>2023-09-24T14:00:40Z</time>
      </trkpt>
      <trkpt lat="45.97002" lon="4.93714">
        <ele>300</ele>
        <time>2023-09-24T14:00:41Z</time>
      </trkpt>
      <trkpt lat="45.96997" lon="4.93715">
        <ele>299.9</ele>
        <time>2023-09-24T14:00:42Z</time>
      </trkpt>
      <trkpt lat="45.96992" lon="4.93716">
        <ele>299.7</ele>
        <time>2023-09-24T14:00:43Z</time>
      </trkpt>
      <trkpt lat="45.96987" lon="4.93717">
        <ele>299.5</ele>
        <time>2023-09-24T14:00:44Z</time>
      </trkpt>
      <trkpt lat="45.96981" lon="4.93718">
        <ele>299.3</ele>
        <time>2023-09-24T14:00:45Z</time>
      </trkpt>
      <trkpt lat="45.96976" lon="4.93719">
        <ele>299.1</ele>
        <time>2023-09-24T14:00:46Z</time>
      </trkpt>
      <trkpt lat="45.96971" lon="4.93721">
        <ele>299</ele>
        <time>2023-09-24T14:00:47Z</time>
      </trkpt>
      <trkpt lat="45.96965" lon="4.93722">
        <ele>299</ele>
        <time>2023-09-24T14:00:48Z</time>
      </trkpt>
      <trkpt lat="45.96959" lon="4.93723">
        <ele>299</ele>
        <time>2023-09-24T14:00:49Z</time>
      </trkpt>
      <trkpt lat="45.96954" lon="4.93725">
        <ele>298.9</ele>
        <time>2023-09-24T14:00:50Z</time>
      </trkpt>
      <trkpt lat="45.96948" lon="4.93725">
        <ele>298.9</ele>
        <time>2023-09-24T14:00:51Z</time>
      </trkpt>
      <trkpt lat="45.96943" lon="4.93726">
        <ele>298.9</ele>
        <time>2023-09-24T14:00:52Z</time>
      </trkpt>
      <trkpt lat="45.96937" lon="4.93727">
        <ele>298.8</ele>
        <time>2023-09-24T14:00:53Z</time>
      </trkpt>
      <trkpt lat="45.96932" lon="4.93728">
        <ele>298.8</ele>
        <time>2023-09-24T14:00:54Z</time>
      </trkpt>
      <trkpt lat="45.96926" lon="4.93729">
        <ele>298.8</ele>
        <time>2023-09-24T14:00:55Z</time>
      </trkpt>
      <trkpt lat="45.96921" lon="4.93731">
        <ele>298.7</ele>
        <time>2023-09-24T14:00:56Z</time>
      </trkpt>
      <trkpt lat="45.96916" lon="4.93732">
        <ele>298.6</ele>
        <time>2023-09-24T14:00:57Z</time>
      </trkpt>
      <trkpt lat="45.96911" lon="4.93734">
        <ele>298.5</ele>
        <time>2023-09-24T14:00:58Z</time>
      </trkpt>
      <trkpt lat="45.96904" lon="4.93731">
        <ele>298.4</ele>
        <time>2023-09-24T14:00:59Z</time>
      </trkpt>
      <trkpt lat="45.969" lon="4.93727">
        <ele>298.3</ele>
        <time>2023-09-24T14:01:00Z</time>
      </trkpt>
      <trkpt lat="45.96897" lon="4.93726">
        <ele>298.3</ele>
        <time>2023-09-24T14:01:01Z</time>
      </trkpt>
      <trkpt lat="45.96892" lon="4.93728">
        <ele>298.1</ele>
        <time>2023-09-24T14:01:02Z</time>
      </trkpt>
      <trkpt lat="45.96887" lon="4.93732">
        <ele>298</ele>
        <time>2023-09-24T14:01:03Z</time>
      </trkpt>
      <trkpt lat="45.96882" lon="4.93735">
        <ele>298</ele>
        <time>2023-09-24T14:01:04Z</time>
      </trkpt>
      <trkpt lat="45.96877" lon="4.93738">
        <ele>298</ele>
        <time>2023-09-24T14:01:05Z</time>
      </trkpt>
      <trkpt lat="45.96872" lon="4.9374">
        <ele>298</ele>
        <time>2023-09-24T14:01:06Z</time>
      </trkpt>
      <trkpt lat="45.96866" lon="4.93742">
        <ele>298</ele>
        <time>2023-09-24T14:01:07Z</time>
      </trkpt>
      <trkpt lat="45.96861" lon="4.93745">
        <ele>298</ele>
        <time>2023-09-24T14:01:08Z</time>
      </trkpt>
      <trkpt lat="45.96856" lon="4.93747">
        <ele>297.8</ele>
        <time>2023-09-24T14:01:09Z</time>
      </trkpt>
      <trkpt lat="45.9685" lon="4.93748">
        <ele>297.6</ele>
        <time>2023-09-24T14:01:10Z</time>
      </trkpt>
      <trkpt lat="45.96844" lon="4.9375">
        <ele>297.4</ele>
        <time>2023-09-24T14:01:11Z</time>
      </trkpt>
      <trkpt lat="45.96838" lon="4.93752">
        <ele>297.2</ele>
        <time>2023-09-24T14:01:12Z</time>
      </trkpt>
      <trkpt lat="45.96833" lon="4.93753">
        <ele>297</ele>
        <time>2023-09-24T14:01:13Z</time>
      </trkpt>
      <trkpt lat="45.96827" lon="4.93755">
        <ele>297</ele>
        <time>2023-09-24T14:01:14Z</time>
      </trkpt>
      <trkpt lat="45.96821" lon="4.93757">
        <ele>296.9</ele>
        <time>2023-09-24T14:01:15Z</time>
      </trkpt>
      <trkpt lat="45.96816" lon="4.93759">
        <ele>296.8</ele>
        <time>2023-09-24T14:01:16Z</time>
      </trkpt>
      <trkpt lat="45.9681" lon="4.93761">
        <ele>296.7</ele>
        <time>2023-09-24T14:01:17Z</time>
      </trkpt>
      <trkpt lat="45.96804" lon="4.93763">
        <ele>296.5</ele>
        <time>2023-09-24T14:01:18Z</time>
      </trkpt>
      <trkpt lat="45.96798" lon="4.93765">
        <ele>296.3</ele>
        <time>2023-09-24T14:01:19Z</time>
      </trkpt>
      <trkpt lat="45.96792" lon="4.93767">
        <ele>296.2</ele>
        <time>2023-09-24T14:01:20Z</time>
      </trkpt>
      <trkpt lat="45.96787" lon="4.93769">
        <ele>296.1</ele>
        <time>2023-09-24T14:01:21Z</time>
      </trkpt>
      <trkpt lat="45.96781" lon="4.93771">
        <ele>296</ele>
        <time>2023-09-24T14:01:22Z</time>
      </trkpt>
      <trkpt lat="45.96776" lon="4.93774">
        <ele>295.9</ele>
        <time>2023-09-24T14:01:23Z</time>
      </trkpt>
      <trkpt lat="45.9677" lon="4.93775">
        <ele>295.7</ele>
        <time>2023-09-24T14:01:24Z</time>
      </trkpt>
      <trkpt lat="45.96765" lon="4.93777">
        <ele>295.5</ele>
        <time>2023-09-24T14:01:25Z</time>
      </trkpt>
      <trkpt lat="45.9676" lon="4.93779">
        <ele>295.3</ele>
        <time>2023-09-24T14:01:27Z</time>
      </trkpt>
      <trkpt lat="45.96754" lon="4.93781">
        <ele>295.1</ele>
        <time>2023-09-24T14:01:28Z</time>
      </trkpt>
      <trkpt lat="45.96749" lon="4.93782">
        <ele>295</ele>
        <time>2023-09-24T14:01:29Z</time>
      </trkpt>
      <trkpt lat="45.96744" lon="4.93784">
        <ele>295</ele>
        <time>2023-09-24T14:01:30Z</time>
      </trkpt>
      <trkpt lat="45.96739" lon="4.93786">
        <ele>295</ele>
        <time>2023-09-24T14:01:31Z</time>
      </trkpt>
      <trkpt lat="45.96734" lon="4.93787">
        <ele>295</ele>
        <time>2023-09-24T14:01:32Z</time>
      </trkpt>
      <trkpt lat="45.96729" lon="4.93789">
        <ele>295</ele>
        <time>2023-09-24T14:01:33Z</time>
      </trkpt>
      <trkpt lat="45.96725" lon="4.93791">
        <ele>295</ele>
        <time>2023-09-24T14:01:34Z</time>
      </trkpt>
      <trkpt lat="45.9672" lon="4.93793">
        <ele>295</ele>
        <time>2023-09-24T14:01:35Z</time>
      </trkpt>
      <trkpt lat="45.96716" lon="4.93795">
        <ele>295</ele>
        <time>2023-09-24T14:01:36Z</time>
      </trkpt>
      <trkpt lat="45.96711" lon="4.93796">
        <ele>295</ele>
        <time>2023-09-24T14:01:37Z</time>
      </trkpt>
      <trkpt lat="45.96707" lon="4.93797">
        <ele>295</ele>
        <time>2023-09-24T14:01:38Z</time>
      </trkpt>
      <trkpt lat="45.96703" lon="4.93799">
        <ele>295</ele>
        <time>2023-09-24T14:01:39Z</time>
      </trkpt>
      <trkpt lat="45.96698" lon="4.938">
        <ele>295</ele>
        <time>2023-09-24T14:01:40Z</time>
      </trkpt>
      <trkpt lat="45.96694" lon="4.93802">
        <ele>295</ele>
        <time>2023-09-24T14:01:41Z</time>
      </trkpt>
      <trkpt lat="45.9669" lon="4.93804">
        <ele>295</ele>
        <time>2023-09-24T14:01:42Z</time>
      </trkpt>
      <trkpt lat="45.96687" lon="4.93807">
        <ele>295</ele>
        <time>2023-09-24T14:01:43Z</time>
      </trkpt>
      <trkpt lat="45.96683" lon="4.93811">
        <ele>295</ele>
        <time>2023-09-24T14:01:44Z</time>
      </trkpt>
      <trkpt lat="45.96679" lon="4.93815">
        <ele>295</ele>
        <time>2023-09-24T14:01:45Z</time>
      </trkpt>
      <trkpt lat="45.96676" lon="4.9382">
        <ele>295</ele>
        <time>2023-09-24T14:01:46Z</time>
      </trkpt>
      <trkpt lat="45.96676" lon="4.93827">
        <ele>295</ele>
        <time>2023-09-24T14:01:47Z</time>
      </trkpt>
      <trkpt lat="45.96678" lon="4.93835">
        <ele>295</ele>
        <time>2023-09-24T14:01:48Z</time>
      </trkpt>
      <trkpt lat="45.96681" lon="4.93841">
        <ele>295</ele>
        <time>2023-09-24T14:01:49Z</time>
      </trkpt>
      <trkpt lat="45.96685" lon="4.93847">
        <ele>295</ele>
        <time>2023-09-24T14:01:50Z</time>
      </trkpt>
      <trkpt lat="45.96689" lon="4.93851">
        <ele>295</ele>
        <time>2023-09-24T14:01:51Z</time>
      </trkpt>
      <trkpt lat="45.96692" lon="4.93857">
        <ele>295</ele>
        <time>2023-09-24T14:01:52Z</time>
      </trkpt>
      <trkpt lat="45.96696" lon="4.93862">
        <ele>295</ele>
        <time>2023-09-24T14:01:53Z</time>
      </trkpt>
      <trkpt lat="45.967" lon="4.93866">
        <ele>295</ele>
        <time>2023-09-24T14:01:54Z</time>
      </trkpt>
      <trkpt lat="45.96704" lon="4.9387">
        <ele>295</ele>
        <time>2023-09-24T14:01:55Z</time>
      </trkpt>
      <trkpt lat="45.96707" lon="4.93874">
        <ele>295</ele>
        <time>2023-09-24T14:01:56Z</time>
      </trkpt>
      <trkpt lat="45.96711" lon="4.93879">
        <ele>295</ele>
        <time>2023-09-24T14:01:57Z</time>
      </trkpt>
      <trkpt lat="45.96714" lon="4.93883">
        <ele>295</ele>
        <time>2023-09-24T14:01:58Z</time>
      </trkpt>
      <trkpt lat="45.96719" lon="4.93887">
        <ele>295</ele>
        <time>2023-09-24T14:01:59Z</time>
      </trkpt>
      <trkpt lat="45.96722" lon="4.93891">
        <ele>295</ele>
        <time>2023-09-24T14:02:00Z</time>
      </trkpt>
      <trkpt lat="45.96726" lon="4.93896">
        <ele>295</ele>
        <time>2023-09-24T14:02:01Z</time>
      </trkpt>
      <trkpt lat="45.9673" lon="4.939">
        <ele>295</ele>
        <time>2023-09-24T14:02:02Z</time>
      </trkpt>
      <trkpt lat="45.96734" lon="4.93904">
        <ele>295</ele>
        <time>2023-09-24T14:02:03Z</time>
      </trkpt>
      <trkpt lat="45.96737" lon="4.93909">
        <ele>295</ele>
        <time>2023-09-24T14:02:04Z</time>
      </trkpt>
      <trkpt lat="45.96741" lon="4.93913">
        <ele>295</ele>
        <time>2023-09-24T14:02:05Z</time>
      </trkpt>
      <trkpt lat="45.96744" lon="4.93918">
        <ele>295</ele>
        <time>2023-09-24T14:02:06Z</time>
      </trkpt>
      <trkpt lat="45.96748" lon="4.93923">
        <ele>295</ele>
        <time>2023-09-24T14:02:07Z</time>
      </trkpt>
      <trkpt lat="45.96751" lon="4.93927">
        <ele>295</ele>
        <time>2023-09-24T14:02:08Z</time>
      </trkpt>
      <trkpt lat="45.96755" lon="4.93931">
        <ele>295</ele>
        <time>2023-09-24T14:02:09Z</time>
      </trkpt>
      <trkpt lat="45.96758" lon="4.93937">
        <ele>295</ele>
        <time>2023-09-24T14:02:10Z</time>
      </trkpt>
      <trkpt lat="45.96761" lon="4.93942">
        <ele>295</ele>
        <time>2023-09-24T14:02:11Z</time>
      </trkpt>
      <trkpt lat="45.96765" lon="4.93947">
        <ele>295</ele>
        <time>2023-09-24T14:02:12Z</time>
      </trkpt>
      <trkpt lat="45.96768" lon="4.93951">
        <ele>295</ele>
        <time>2023-09-24T14:02:13Z</time>
      </trkpt>
      <trkpt lat="45.96772" lon="4.93956">
        <ele>295</ele>
        <time>2023-09-24T14:02:14Z</time>
      </trkpt>
      <trkpt lat="45.96775" lon="4.93961">
        <ele>295</ele>
        <time>2023-09-24T14:02:15Z</time>
      </trkpt>
      <trkpt lat="45.96778" lon="4.93966">
        <ele>295</ele>
        <time>2023-09-24T14:02:16Z</time>
      </trkpt>
      <trkpt lat="45.96782" lon="4.9397">
        <ele>295</ele>
        <time>2023-09-24T14:02:17Z</time>
      </trkpt>
      <trkpt lat="45.96785" lon="4.93975">
        <ele>295</ele>
        <time>2023-09-24T14:02:18Z</time>
      </trkpt>
      <trkpt lat="45.96788" lon="4.9398">
        <ele>295.1</ele>
        <time>2023-09-24T14:02:19Z</time>
      </trkpt>
      <trkpt lat="45.96791" lon="4.93984">
        <ele>295.2</ele>
        <time>2023-09-24T14:02:20Z</time>
      </trkpt>
      <trkpt lat="45.96795" lon="4.93989">
        <ele>295.4</ele>
        <time>2023-09-24T14:02:21Z</time>
      </trkpt>
      <trkpt lat="45.96798" lon="4.93994">
        <ele>295.6</ele>
        <time>2023-09-24T14:02:22Z</time>
      </trkpt>
      <trkpt lat="45.96801" lon="4.93998">
        <ele>295.8</ele>
        <time>2023-09-24T14:02:23Z</time>
      </trkpt>
      <trkpt lat="45.96804" lon="4.94003">
        <ele>295.9</ele>
        <time>2023-09-24T14:02:24Z</time>
      </trkpt>
      <trkpt lat="45.96807" lon="4.94008">
        <ele>296</ele>
        <time>2023-09-24T14:02:25Z</time>
      </trkpt>
      <trkpt lat="45.9681" lon="4.94013">
        <ele>296</ele>
        <time>2023-09-24T14:02:26Z</time>
      </trkpt>
      <trkpt lat="45.96812" lon="4.94018">
        <ele>296</ele>
        <time>2023-09-24T14:02:27Z</time>
      </trkpt>
      <trkpt lat="45.96815" lon="4.94023">
        <ele>296</ele>
        <time>2023-09-24T14:02:28Z</time>
      </trkpt>
      <trkpt lat="45.96818" lon="4.94029">
        <ele>296</ele>
        <time>2023-09-24T14:02:29Z</time>
      </trkpt>
      <trkpt lat="45.9682" lon="4.94035">
        <ele>296</ele>
        <time>2023-09-24T14:02:30Z</time>
      </trkpt>
      <trkpt lat="45.96823" lon="4.9404">
        <ele>296</ele>
        <time>2023-09-24T14:02:31Z</time>
      </trkpt>
      <trkpt lat="45.96826" lon="4.94046">
        <ele>296</ele>
        <time>2023-09-24T14:02:32Z</time>
      </trkpt>
      <trkpt lat="45.96828" lon="4.94051">
        <ele>296</ele>
        <time>2023-09-24T14:02:33Z</time>
      </trkpt>
      <trkpt lat="45.9683" lon="4.94058">
        <ele>296</ele>
        <time>2023-09-24T14:02:34Z</time>
      </trkpt>
      <trkpt lat="45.96832" lon="4.94064">
        <ele>296</ele>
        <time>2023-09-24T14:02:35Z</time>
      </trkpt>
      <trkpt lat="45.96834" lon="4.9407">
        <ele>296</ele>
        <time>2023-09-24T14:02:36Z</time>
      </trkpt>
      <trkpt lat="45.96837" lon="4.94077">
        <ele>296</ele>
        <time>2023-09-24T14:02:37Z</time>
      </trkpt>
      <trkpt lat="45.96839" lon="4.94084">
        <ele>296</ele>
        <time>2023-09-24T14:02:38Z</time>
      </trkpt>
      <trkpt lat="45.96842" lon="4.9409">
        <ele>296.2</ele>
        <time>2023-09-24T14:02:39Z</time>
      </trkpt>
      <trkpt lat="45.96845" lon="4.94096">
        <ele>296.3</ele>
        <time>2023-09-24T14:02:40Z</time>
      </trkpt>
      <trkpt lat="45.96847" lon="4.94103">
        <ele>296.4</ele>
        <time>2023-09-24T14:02:41Z</time>
      </trkpt>
      <trkpt lat="45.96849" lon="4.94109">
        <ele>296.4</ele>
        <time>2023-09-24T14:02:42Z</time>
      </trkpt>
      <trkpt lat="45.96852" lon="4.94115">
        <ele>296.3</ele>
        <time>2023-09-24T14:02:43Z</time>
      </trkpt>
      <trkpt lat="45.96854" lon="4.94121">
        <ele>296.3</ele>
        <time>2023-09-24T14:02:44Z</time>
      </trkpt>
      <trkpt lat="45.96857" lon="4.94127">
        <ele>296.1</ele>
        <time>2023-09-24T14:02:45Z</time>
      </trkpt>
      <trkpt lat="45.96859" lon="4.94134">
        <ele>296.1</ele>
        <time>2023-09-24T14:02:46Z</time>
      </trkpt>
      <trkpt lat="45.96861" lon="4.9414">
        <ele>296</ele>
        <time>2023-09-24T14:02:47Z</time>
      </trkpt>
      <trkpt lat="45.96864" lon="4.94146">
        <ele>295.8</ele>
        <time>2023-09-24T14:02:48Z</time>
      </trkpt>
      <trkpt lat="45.96866" lon="4.94152">
        <ele>295.6</ele>
        <time>2023-09-24T14:02:49Z</time>
      </trkpt>
      <trkpt lat="45.96868" lon="4.94158">
        <ele>295.5</ele>
        <time>2023-09-24T14:02:50Z</time>
      </trkpt>
      <trkpt lat="45.9687" lon="4.94163">
        <ele>295.4</ele>
        <time>2023-09-24T14:02:51Z</time>
      </trkpt>
      <trkpt lat="45.96871" lon="4.94169">
        <ele>295.4</ele>
        <time>2023-09-24T14:02:52Z</time>
      </trkpt>
      <trkpt lat="45.96874" lon="4.94174">
        <ele>295.3</ele>
        <time>2023-09-24T14:02:53Z</time>
      </trkpt>
      <trkpt lat="45.96875" lon="4.9418">
        <ele>295.5</ele>
        <time>2023-09-24T14:02:54Z</time>
      </trkpt>
      <trkpt lat="45.96877" lon="4.94186">
        <ele>295.6</ele>
        <time>2023-09-24T14:02:55Z</time>
      </trkpt>
      <trkpt lat="45.96879" lon="4.94191">
        <ele>295.6</ele>
        <time>2023-09-24T14:02:56Z</time>
      </trkpt>
      <trkpt lat="45.96881" lon="4.94197">
        <ele>295.6</ele>
        <time>2023-09-24T14:02:57Z</time>
      </trkpt>
      <trkpt lat="45.96883" lon="4.94203">
        <ele>295.4</ele>
        <time>2023-09-24T14:02:58Z</time>
      </trkpt>
      <trkpt lat="45.96885" lon="4.94209">
        <ele>295.3</ele>
        <time>2023-09-24T14:02:59Z</time>
      </trkpt>
      <trkpt lat="45.96887" lon="4.94215">
        <ele>295.1</ele>
        <time>2023-09-24T14:03:00Z</time>
      </trkpt>
      <trkpt lat="45.9689" lon="4.94221">
        <ele>295</ele>
        <time>2023-09-24T14:03:01Z</time>
      </trkpt>
      <trkpt lat="45.96892" lon="4.94227">
        <ele>295</ele>
        <time>2023-09-24T14:03:02Z</time>
      </trkpt>
      <trkpt lat="45.96895" lon="4.94233">
        <ele>295.1</ele>
        <time>2023-09-24T14:03:03Z</time>
      </trkpt>
      <trkpt lat="45.96897" lon="4.94239">
        <ele>295.1</ele>
        <time>2023-09-24T14:03:04Z</time>
      </trkpt>
      <trkpt lat="45.96899" lon="4.94246">
        <ele>295.2</ele>
        <time>2023-09-24T14:03:05Z</time>
      </trkpt>
      <trkpt lat="45.96902" lon="4.94252">
        <ele>295.1</ele>
        <time>2023-09-24T14:03:06Z</time>
      </trkpt>
      <trkpt lat="45.96904" lon="4.94258">
        <ele>295.1</ele>
        <time>2023-09-24T14:03:07Z</time>
      </trkpt>
      <trkpt lat="45.96906" lon="4.94264">
        <ele>295.1</ele>
        <time>2023-09-24T14:03:08Z</time>
      </trkpt>
      <trkpt lat="45.96908" lon="4.9427">
        <ele>295.1</ele>
        <time>2023-09-24T14:03:09Z</time>
      </trkpt>
      <trkpt lat="45.96911" lon="4.94276">
        <ele>295.2</ele>
        <time>2023-09-24T14:03:10Z</time>
      </trkpt>
      <trkpt lat="45.96913" lon="4.94282">
        <ele>295.3</ele>
        <time>2023-09-24T14:03:11Z</time>
      </trkpt>
      <trkpt lat="45.96915" lon="4.94288">
        <ele>295.4</ele>
        <time>2023-09-24T14:03:12Z</time>
      </trkpt>
      <trkpt lat="45.96917" lon="4.94294">
        <ele>295.6</ele>
        <time>2023-09-24T14:03:13Z</time>
      </trkpt>
      <trkpt lat="45.96919" lon="4.94299">
        <ele>295.6</ele>
        <time>2023-09-24T14:03:14Z</time>
      </trkpt>
      <trkpt lat="45.96921" lon="4.94305">
        <ele>295.7</ele>
        <time>2023-09-24T14:03:15Z</time>
      </trkpt>
      <trkpt lat="45.96923" lon="4.94311">
        <ele>295.6</ele>
        <time>2023-09-24T14:03:16Z</time>
      </trkpt>
      <trkpt lat="45.96926" lon="4.94316">
        <ele>295.5</ele>
        <time>2023-09-24T14:03:17Z</time>
      </trkpt>
      <trkpt lat="45.96927" lon="4.94322">
        <ele>295.5</ele>
        <time>2023-09-24T14:03:18Z</time>
      </trkpt>
      <trkpt lat="45.96929" lon="4.94328">
        <ele>295.5</ele>
        <time>2023-09-24T14:03:19Z</time>
      </trkpt>
      <trkpt lat="45.96932" lon="4.94333">
        <ele>295.4</ele>
        <time>2023-09-24T14:03:20Z</time>
      </trkpt>
      <trkpt lat="45.96934" lon="4.94339">
        <ele>295.6</ele>
        <time>2023-09-24T14:03:21Z</time>
      </trkpt>
      <trkpt lat="45.96936" lon="4.94345">
        <ele>295.7</ele>
        <time>2023-09-24T14:03:22Z</time>
      </trkpt>
      <trkpt lat="45.96938" lon="4.94351">
        <ele>295.9</ele>
        <time>2023-09-24T14:03:23Z</time>
      </trkpt>
      <trkpt lat="45.96939" lon="4.94356">
        <ele>296</ele>
        <time>2023-09-24T14:03:24Z</time>
      </trkpt>
      <trkpt lat="45.96941" lon="4.94362">
        <ele>296.1</ele>
        <time>2023-09-24T14:03:25Z</time>
      </trkpt>
      <trkpt lat="45.96944" lon="4.94368">
        <ele>296</ele>
        <time>2023-09-24T14:03:26Z</time>
      </trkpt>
      <trkpt lat="45.96947" lon="4.94374">
        <ele>295.9</ele>
        <time>2023-09-24T14:03:27Z</time>
      </trkpt>
      <trkpt lat="45.96948" lon="4.9438">
        <ele>295.9</ele>
        <time>2023-09-24T14:03:28Z</time>
      </trkpt>
      <trkpt lat="45.96951" lon="4.94386">
        <ele>295.8</ele>
        <time>2023-09-24T14:03:29Z</time>
      </trkpt>
      <trkpt lat="45.96953" lon="4.94392">
        <ele>295.7</ele>
        <time>2023-09-24T14:03:30Z</time>
      </trkpt>
      <trkpt lat="45.96955" lon="4.94398">
        <ele>295.7</ele>
        <time>2023-09-24T14:03:31Z</time>
      </trkpt>
      <trkpt lat="45.96958" lon="4.94403">
        <ele>295.8</ele>
        <time>2023-09-24T14:03:32Z</time>
      </trkpt>
      <trkpt lat="45.9696" lon="4.9441">
        <ele>295.9</ele>
        <time>2023-09-24T14:03:33Z</time>
      </trkpt>
      <trkpt lat="45.96962" lon="4.94415">
        <ele>296</ele>
        <time>2023-09-24T14:03:34Z</time>
      </trkpt>
      <trkpt lat="45.96964" lon="4.94422">
        <ele>296</ele>
        <time>2023-09-24T14:03:35Z</time>
      </trkpt>
      <trkpt lat="45.96966" lon="4.94427">
        <ele>296</ele>
        <time>2023-09-24T14:03:36Z</time>
      </trkpt>
      <trkpt lat="45.96968" lon="4.94433">
        <ele>296</ele>
        <time>2023-09-24T14:03:37Z</time>
      </trkpt>
      <trkpt lat="45.9697" lon="4.9444">
        <ele>296</ele>
        <time>2023-09-24T14:03:38Z</time>
      </trkpt>
      <trkpt lat="45.96973" lon="4.94445">
        <ele>296</ele>
        <time>2023-09-24T14:03:39Z</time>
      </trkpt>
      <trkpt lat="45.96976" lon="4.94452">
        <ele>296</ele>
        <time>2023-09-24T14:03:40Z</time>
      </trkpt>
      <trkpt lat="45.96978" lon="4.94458">
        <ele>296</ele>
        <time>2023-09-24T14:03:41Z</time>
      </trkpt>
      <trkpt lat="45.9698" lon="4.94464">
        <ele>296</ele>
        <time>2023-09-24T14:03:42Z</time>
      </trkpt>
      <trkpt lat="45.96982" lon="4.9447">
        <ele>296</ele>
        <time>2023-09-24T14:03:43Z</time>
      </trkpt>
      <trkpt lat="45.96984" lon="4.94476">
        <ele>296</ele>
        <time>2023-09-24T14:03:44Z</time>
      </trkpt>
      <trkpt lat="45.96987" lon="4.94482">
        <ele>296</ele>
        <time>2023-09-24T14:03:45Z</time>
      </trkpt>
      <trkpt lat="45.96989" lon="4.94488">
        <ele>296</ele>
        <time>2023-09-24T14:03:46Z</time>
      </trkpt>
      <trkpt lat="45.96991" lon="4.94494">
        <ele>296</ele>
        <time>2023-09-24T14:03:47Z</time>
      </trkpt>
      <trkpt lat="45.96993" lon="4.945">
        <ele>296</ele>
        <time>2023-09-24T14:03:48Z</time>
      </trkpt>
      <trkpt lat="45.96995" lon="4.94506">
        <ele>296</ele>
        <time>2023-09-24T14:03:49Z</time>
      </trkpt>
      <trkpt lat="45.96998" lon="4.94512">
        <ele>296</ele>
        <time>2023-09-24T14:03:50Z</time>
      </trkpt>
      <trkpt lat="45.97" lon="4.94518">
        <ele>296</ele>
        <time>2023-09-24T14:03:51Z</time>
      </trkpt>
      <trkpt lat="45.97002" lon="4.94525">
        <ele>296.1</ele>
        <time>2023-09-24T14:03:52Z</time>
      </trkpt>
      <trkpt lat="45.97005" lon="4.94531">
        <ele>296.2</ele>
        <time>2023-09-24T14:03:53Z</time>
      </trkpt>
      <trkpt lat="45.97007" lon="4.94537">
        <ele>296.3</ele>
        <time>2023-09-24T14:03:54Z</time>
      </trkpt>
      <trkpt lat="45.97009" lon="4.94543">
        <ele>296.3</ele>
        <time>2023-09-24T14:03:55Z</time>
      </trkpt>
      <trkpt lat="45.97012" lon="4.94548">
        <ele>296.4</ele>
        <time>2023-09-24T14:03:56Z</time>
      </trkpt>
      <trkpt lat="45.97014" lon="4.94554">
        <ele>296.5</ele>
        <time>2023-09-24T14:03:57Z</time>
      </trkpt>
      <trkpt lat="45.97016" lon="4.9456">
        <ele>296.6</ele>
        <time>2023-09-24T14:03:58Z</time>
      </trkpt>
      <trkpt lat="45.97019" lon="4.94567">
        <ele>296.7</ele>
        <time>2023-09-24T14:03:59Z</time>
      </trkpt>
      <trkpt lat="45.97021" lon="4.94573">
        <ele>296.8</ele>
        <time>2023-09-24T14:04:00Z</time>
      </trkpt>
      <trkpt lat="45.97023" lon="4.9458">
        <ele>296.8</ele>
        <time>2023-09-24T14:04:01Z</time>
      </trkpt>
      <trkpt lat="45.97026" lon="4.94586">
        <ele>296.9</ele>
        <time>2023-09-24T14:04:02Z</time>
      </trkpt>
      <trkpt lat="45.97028" lon="4.94593">
        <ele>297</ele>
        <time>2023-09-24T14:04:03Z</time>
      </trkpt>
      <trkpt lat="45.97031" lon="4.94599">
        <ele>297</ele>
        <time>2023-09-24T14:04:04Z</time>
      </trkpt>
      <trkpt lat="45.97033" lon="4.94605">
        <ele>297</ele>
        <time>2023-09-24T14:04:05Z</time>
      </trkpt>
      <trkpt lat="45.97035" lon="4.94612">
        <ele>297</ele>
        <time>2023-09-24T14:04:06Z</time>
      </trkpt>
      <trkpt lat="45.97038" lon="4.94618">
        <ele>296.8</ele>
        <time>2023-09-24T14:04:07Z</time>
      </trkpt>
      <trkpt lat="45.9704" lon="4.94624">
        <ele>296.7</ele>
        <time>2023-09-24T14:04:08Z</time>
      </trkpt>
      <trkpt lat="45.97042" lon="4.94631">
        <ele>296.7</ele>
        <time>2023-09-24T14:04:09Z</time>
      </trkpt>
      <trkpt lat="45.97044" lon="4.94637">
        <ele>296.6</ele>
        <time>2023-09-24T14:04:10Z</time>
      </trkpt>
      <trkpt lat="45.97047" lon="4.94644">
        <ele>296.7</ele>
        <time>2023-09-24T14:04:11Z</time>
      </trkpt>
      <trkpt lat="45.97049" lon="4.9465">
        <ele>296.8</ele>
        <time>2023-09-24T14:04:12Z</time>
      </trkpt>
      <trkpt lat="45.97051" lon="4.94656">
        <ele>296.8</ele>
        <time>2023-09-24T14:04:13Z</time>
      </trkpt>
      <trkpt lat="45.97054" lon="4.94663">
        <ele>296.9</ele>
        <time>2023-09-24T14:04:14Z</time>
      </trkpt>
      <trkpt lat="45.97056" lon="4.94669">
        <ele>297</ele>
        <time>2023-09-24T14:04:15Z</time>
      </trkpt>
      <trkpt lat="45.97058" lon="4.94675">
        <ele>297</ele>
        <time>2023-09-24T14:04:16Z</time>
      </trkpt>
      <trkpt lat="45.97061" lon="4.94681">
        <ele>297</ele>
        <time>2023-09-24T14:04:17Z</time>
      </trkpt>
      <trkpt lat="45.97063" lon="4.94687">
        <ele>297</ele>
        <time>2023-09-24T14:04:18Z</time>
      </trkpt>
      <trkpt lat="45.97065" lon="4.94694">
        <ele>297</ele>
        <time>2023-09-24T14:04:19Z</time>
      </trkpt>
      <trkpt lat="45.97067" lon="4.947">
        <ele>297</ele>
        <time>2023-09-24T14:04:20Z</time>
      </trkpt>
      <trkpt lat="45.9707" lon="4.94706">
        <ele>297</ele>
        <time>2023-09-24T14:04:21Z</time>
      </trkpt>
      <trkpt lat="45.97072" lon="4.94713">
        <ele>297</ele>
        <time>2023-09-24T14:04:22Z</time>
      </trkpt>
      <trkpt lat="45.97075" lon="4.94719">
        <ele>297</ele>
        <time>2023-09-24T14:04:23Z</time>
      </trkpt>
      <trkpt lat="45.97077" lon="4.94725">
        <ele>297</ele>
        <time>2023-09-24T14:04:24Z</time>
      </trkpt>
      <trkpt lat="45.97079" lon="4.94731">
        <ele>297</ele>
        <time>2023-09-24T14:04:25Z</time>
      </trkpt>
      <trkpt lat="45.97081" lon="4.94738">
        <ele>297</ele>
        <time>2023-09-24T14:04:26Z</time>
      </trkpt>
      <trkpt lat="45.97084" lon="4.94744">
        <ele>297</ele>
        <time>2023-09-24T14:04:27Z</time>
      </trkpt>
      <trkpt lat="45.97086" lon="4.94751">
        <ele>296.9</ele>
        <time>2023-09-24T14:04:28Z</time>
      </trkpt>
      <trkpt lat="45.97089" lon="4.94757">
        <ele>296.6</ele>
        <time>2023-09-24T14:04:29Z</time>
      </trkpt>
      <trkpt lat="45.97091" lon="4.94764">
        <ele>296.4</ele>
        <time>2023-09-24T14:04:30Z</time>
      </trkpt>
      <trkpt lat="45.97094" lon="4.9477">
        <ele>296.2</ele>
        <time>2023-09-24T14:04:31Z</time>
      </trkpt>
      <trkpt lat="45.97097" lon="4.94777">
        <ele>296</ele>
        <time>2023-09-24T14:04:32Z</time>
      </trkpt>
      <trkpt lat="45.97099" lon="4.94784">
        <ele>295.9</ele>
        <time>2023-09-24T14:04:33Z</time>
      </trkpt>
      <trkpt lat="45.97101" lon="4.94792">
        <ele>295.8</ele>
        <time>2023-09-24T14:04:34Z</time>
      </trkpt>
      <trkpt lat="45.97104" lon="4.94799">
        <ele>295.8</ele>
        <time>2023-09-24T14:04:35Z</time>
      </trkpt>
      <trkpt lat="45.97107" lon="4.94806">
        <ele>295.8</ele>
        <time>2023-09-24T14:04:36Z</time>
      </trkpt>
      <trkpt lat="45.97109" lon="4.94813">
        <ele>295.9</ele>
        <time>2023-09-24T14:04:37Z</time>
      </trkpt>
      <trkpt lat="45.97112" lon="4.94821">
        <ele>296</ele>
        <time>2023-09-24T14:04:38Z</time>
      </trkpt>
      <trkpt lat="45.97115" lon="4.94829">
        <ele>295.9</ele>
        <time>2023-09-24T14:04:39Z</time>
      </trkpt>
      <trkpt lat="45.97118" lon="4.94836">
        <ele>295.7</ele>
        <time>2023-09-24T14:04:40Z</time>
      </trkpt>
      <trkpt lat="45.9712" lon="4.94844">
        <ele>295.4</ele>
        <time>2023-09-24T14:04:41Z</time>
      </trkpt>
      <trkpt lat="45.97123" lon="4.94852">
        <ele>295.2</ele>
        <time>2023-09-24T14:04:42Z</time>
      </trkpt>
      <trkpt lat="45.97126" lon="4.94859">
        <ele>295</ele>
        <time>2023-09-24T14:04:43Z</time>
      </trkpt>
      <trkpt lat="45.97129" lon="4.94867">
        <ele>295.1</ele>
        <time>2023-09-24T14:04:44Z</time>
      </trkpt>
      <trkpt lat="45.97132" lon="4.94874">
        <ele>295.2</ele>
        <time>2023-09-24T14:04:45Z</time>
      </trkpt>
      <trkpt lat="45.97135" lon="4.94881">
        <ele>295.5</ele>
        <time>2023-09-24T14:04:46Z</time>
      </trkpt>
      <trkpt lat="45.97137" lon="4.94888">
        <ele>295.8</ele>
        <time>2023-09-24T14:04:47Z</time>
      </trkpt>
      <trkpt lat="45.9714" lon="4.94895">
        <ele>295.7</ele>
        <time>2023-09-24T14:04:48Z</time>
      </trkpt>
      <trkpt lat="45.97142" lon="4.94903">
        <ele>295.4</ele>
        <time>2023-09-24T14:04:49Z</time>
      </trkpt>
      <trkpt lat="45.97145" lon="4.9491">
        <ele>295.2</ele>
        <time>2023-09-24T14:04:50Z</time>
      </trkpt>
      <trkpt lat="45.97148" lon="4.94917">
        <ele>295</ele>
        <time>2023-09-24T14:04:51Z</time>
      </trkpt>
      <trkpt lat="45.9715" lon="4.94924">
        <ele>295.1</ele>
        <time>2023-09-24T14:04:52Z</time>
      </trkpt>
      <trkpt lat="45.97153" lon="4.94931">
        <ele>295.3</ele>
        <time>2023-09-24T14:04:53Z</time>
      </trkpt>
      <trkpt lat="45.97156" lon="4.94938">
        <ele>295.5</ele>
        <time>2023-09-24T14:04:54Z</time>
      </trkpt>
      <trkpt lat="45.97158" lon="4.94945">
        <ele>295.7</ele>
        <time>2023-09-24T14:04:55Z</time>
      </trkpt>
      <trkpt lat="45.97161" lon="4.94952">
        <ele>295.9</ele>
        <time>2023-09-24T14:04:56Z</time>
      </trkpt>
      <trkpt lat="45.97164" lon="4.94959">
        <ele>296</ele>
        <time>2023-09-24T14:04:57Z</time>
      </trkpt>
      <trkpt lat="45.97166" lon="4.94966">
        <ele>296</ele>
        <time>2023-09-24T14:04:58Z</time>
      </trkpt>
      <trkpt lat="45.97168" lon="4.94973">
        <ele>296</ele>
        <time>2023-09-24T14:04:59Z</time>
      </trkpt>
      <trkpt lat="45.97171" lon="4.9498">
        <ele>296.3</ele>
        <time>2023-09-24T14:05:00Z</time>
      </trkpt>
      <trkpt lat="45.97174" lon="4.94987">
        <ele>296.5</ele>
        <time>2023-09-24T14:05:01Z</time>
      </trkpt>
      <trkpt lat="45.97177" lon="4.94995">
        <ele>296.8</ele>
        <time>2023-09-24T14:05:02Z</time>
      </trkpt>
      <trkpt lat="45.97179" lon="4.95002">
        <ele>297</ele>
        <time>2023-09-24T14:05:03Z</time>
      </trkpt>
      <trkpt lat="45.97182" lon="4.95009">
        <ele>297.1</ele>
        <time>2023-09-24T14:05:04Z</time>
      </trkpt>
      <trkpt lat="45.97185" lon="4.95016">
        <ele>297.2</ele>
        <time>2023-09-24T14:05:05Z</time>
      </trkpt>
      <trkpt lat="45.97187" lon="4.95023">
        <ele>297.2</ele>
        <time>2023-09-24T14:05:06Z</time>
      </trkpt>
      <trkpt lat="45.9719" lon="4.9503">
        <ele>297.2</ele>
        <time>2023-09-24T14:05:07Z</time>
      </trkpt>
      <trkpt lat="45.97193" lon="4.95037">
        <ele>297.4</ele>
        <time>2023-09-24T14:05:08Z</time>
      </trkpt>
      <trkpt lat="45.97195" lon="4.95044">
        <ele>297.6</ele>
        <time>2023-09-24T14:05:09Z</time>
      </trkpt>
      <trkpt lat="45.97198" lon="4.95051">
        <ele>297.6</ele>
        <time>2023-09-24T14:05:10Z</time>
      </trkpt>
      <trkpt lat="45.97201" lon="4.95058">
        <ele>297.7</ele>
      </trkpt>
      <trkpt lat="45.97203" lon="4.95065">
        <ele>297.7</ele>
        <time>2023-09-24T14:05:11Z</time>
      </trkpt>
      <trkpt lat="45.97206" lon="4.95072">
        <ele>297.8</ele>
        <time>2023-09-24T14:05:12Z</time>
      </trkpt>
      <trkpt lat="45.97208" lon="4.9508">
        <ele>297.9</ele>
        <time>2023-09-24T14:05:13Z</time>
      </trkpt>
      <trkpt lat="45.97211" lon="4.95087">
        <ele>297.9</ele>
        <time>2023-09-24T14:05:14Z</time>
      </trkpt>
      <trkpt lat="45.97213" lon="4.95094">
        <ele>298</ele>
        <time>2023-09-24T14:05:15Z</time>
      </trkpt>
      <trkpt lat="45.97216" lon="4.951">
        <ele>298</ele>
        <time>2023-09-24T14:05:16Z</time>
      </trkpt>
      <trkpt lat="45.97218" lon="4.95107">
        <ele>298.2</ele>
        <time>2023-09-24T14:05:17Z</time>
      </trkpt>
      <trkpt lat="45.97221" lon="4.95114">
        <ele>298.2</ele>
        <time>2023-09-24T14:05:18Z</time>
      </trkpt>
      <trkpt lat="45.97223" lon="4.9512">
        <ele>298.3</ele>
        <time>2023-09-24T14:05:19Z</time>
      </trkpt>
      <trkpt lat="45.97225" lon="4.95126">
        <ele>298.3</ele>
        <time>2023-09-24T14:05:20Z</time>
      </trkpt>
      <trkpt lat="45.97227" lon="4.95133">
        <ele>298.4</ele>
        <time>2023-09-24T14:05:21Z</time>
      </trkpt>
      <trkpt lat="45.9723" lon="4.95139">
        <ele>298.4</ele>
        <time>2023-09-24T14:05:22Z</time>
      </trkpt>
      <trkpt lat="45.97232" lon="4.95144">
        <ele>298.3</ele>
        <time>2023-09-24T14:05:23Z</time>
      </trkpt>
      <trkpt lat="45.97234" lon="4.9515">
        <ele>298.2</ele>
        <time>2023-09-24T14:05:24Z</time>
      </trkpt>
      <trkpt lat="45.97236" lon="4.95156">
        <ele>298</ele>
        <time>2023-09-24T14:05:25Z</time>
      </trkpt>
      <trkpt lat="45.97238" lon="4.95161">
        <ele>297.9</ele>
        <time>2023-09-24T14:05:26Z</time>
      </trkpt>
      <trkpt lat="45.9724" lon="4.95167">
        <ele>297.7</ele>
        <time>2023-09-24T14:05:27Z</time>
      </trkpt>
      <trkpt lat="45.97243" lon="4.95172">
        <ele>297.6</ele>
        <time>2023-09-24T14:05:28Z</time>
      </trkpt>
      <trkpt lat="45.97245" lon="4.95178">
        <ele>297.7</ele>
        <time>2023-09-24T14:05:29Z</time>
      </trkpt>
      <trkpt lat="45.97248" lon="4.95184">
        <ele>297.7</ele>
        <time>2023-09-24T14:05:30Z</time>
      </trkpt>
      <trkpt lat="45.97251" lon="4.95189">
        <ele>297.7</ele>
        <time>2023-09-24T14:05:31Z</time>
      </trkpt>
      <trkpt lat="45.97253" lon="4.95194">
        <ele>297.8</ele>
        <time>2023-09-24T14:05:32Z</time>
      </trkpt>
      <trkpt lat="45.97256" lon="4.952">
        <ele>297.6</ele>
        <time>2023-09-24T14:05:33Z</time>
      </trkpt>
      <trkpt lat="45.97258" lon="4.95205">
        <ele>297.4</ele>
        <time>2023-09-24T14:05:34Z</time>
      </trkpt>
      <trkpt lat="45.9726" lon="4.95211">
        <ele>297.3</ele>
        <time>2023-09-24T14:05:35Z</time>
      </trkpt>
      <trkpt lat="45.97263" lon="4.95216">
        <ele>297.1</ele>
        <time>2023-09-24T14:05:36Z</time>
      </trkpt>
      <trkpt lat="45.97265" lon="4.95221">
        <ele>296.9</ele>
        <time>2023-09-24T14:05:37Z</time>
      </trkpt>
      <trkpt lat="45.97268" lon="4.95226">
        <ele>296.8</ele>
        <time>2023-09-24T14:05:38Z</time>
      </trkpt>
      <trkpt lat="45.97269" lon="4.95231">
        <ele>296.8</ele>
        <time>2023-09-24T14:05:39Z</time>
      </trkpt>
      <trkpt lat="45.97269" lon="4.95236">
        <ele>297</ele>
        <time>2023-09-24T14:05:40Z</time>
      </trkpt>
      <trkpt lat="45.97266" lon="4.9524">
        <ele>297.2</ele>
        <time>2023-09-24T14:05:41Z</time>
      </trkpt>
      <trkpt lat="45.97262" lon="4.95241">
        <ele>297.4</ele>
        <time>2023-09-24T14:05:42Z</time>
      </trkpt>
      <trkpt lat="45.97258" lon="4.95242">
        <ele>297.6</ele>
        <time>2023-09-24T14:05:43Z</time>
      </trkpt>
      <trkpt lat="45.97254" lon="4.95244">
        <ele>297.8</ele>
        <time>2023-09-24T14:05:44Z</time>
      </trkpt>
      <trkpt lat="45.97251" lon="4.95242">
        <ele>298</ele>
        <time>2023-09-24T14:05:45Z</time>
      </trkpt>
      <trkpt lat="45.97248" lon="4.95242">
        <ele>298.1</ele>
        <time>2023-09-24T14:05:46Z</time>
      </trkpt>
      <trkpt lat="45.97243" lon="4.95242">
        <ele>298.3</ele>
        <time>2023-09-24T14:05:47Z</time>
      </trkpt>
      <trkpt lat="45.97241" lon="4.95242">
        <ele>298.3</ele>
        <time>2023-09-24T14:05:48Z</time>
      </trkpt>
      <trkpt lat="45.97237" lon="4.95242">
        <ele>298.5</ele>
        <time>2023-09-24T14:05:49Z</time>
      </trkpt>
      <trkpt lat="45.97233" lon="4.95242">
        <ele>298.6</ele>
        <time>2023-09-24T14:05:50Z</time>
      </trkpt>
      <trkpt lat="45.9723" lon="4.95242">
        <ele>298.7</ele>
        <time>2023-09-24T14:05:51Z</time>
      </trkpt>
      <trkpt lat="45.97226" lon="4.95242">
        <ele>298.9</ele>
        <time>2023-09-24T14:05:52Z</time>
      </trkpt>
      <trkpt lat="45.97222" lon="4.95242">
        <ele>299</ele>
        <time>2023-09-24T14:05:53Z</time>
      </trkpt>
      <trkpt lat="45.97218" lon="4.95243">
        <ele>299.2</ele>
        <time>2023-09-24T14:05:54Z</time>
      </trkpt>
      <trkpt lat="45.97216" lon="4.95243">
        <ele>299.2</ele>
        <time>2023-09-24T14:05:55Z</time>
      </trkpt>
      <trkpt lat="45.97213" lon="4.95243">
        <ele>299.3</ele>
        <time>2023-09-24T14:05:56Z</time>
      </trkpt>
      <trkpt lat="45.9721" lon="4.95243">
        <ele>299.4</ele>
        <time>2023-09-24T14:05:57Z</time>
      </trkpt>
      <trkpt lat="45.97206" lon="4.95244">
        <ele>299.6</ele>
        <time>2023-09-24T14:05:58Z</time>
      </trkpt>
      <trkpt lat="45.97203" lon="4.95244">
        <ele>299.7</ele>
        <time>2023-09-24T14:05:59Z</time>
      </trkpt>
      <trkpt lat="45.972" lon="4.95244">
        <ele>299.8</ele>
        <time>2023-09-24T14:06:00Z</time>
      </trkpt>
      <trkpt lat="45.97197" lon="4.95244">
        <ele>299.9</ele>
        <time>2023-09-24T14:06:01Z</time>
      </trkpt>
      <trkpt lat="45.97193" lon="4.95245">
        <ele>300.1</ele>
        <time>2023-09-24T14:06:02Z</time>
      </trkpt>
      <trkpt lat="45.9719" lon="4.95245">
        <ele>300.2</ele>
        <time>2023-09-24T14:06:03Z</time>
      </trkpt>
      <trkpt lat="45.97187" lon="4.95246">
        <ele>300.3</ele>
        <time>2023-09-24T14:06:04Z</time>
      </trkpt>
      <trkpt lat="45.97184" lon="4.95247">
        <ele>300.4</ele>
        <time>2023-09-24T14:06:05Z</time>
      </trkpt>
      <trkpt lat="45.97179" lon="4.95247">
        <ele>300.6</ele>
        <time>2023-09-24T14:06:06Z</time>
      </trkpt>
      <trkpt lat="45.97176" lon="4.95248">
        <ele>300.7</ele>
        <time>2023-09-24T14:06:07Z</time>
      </trkpt>
      <trkpt lat="45.97173" lon="4.95249">
        <ele>300.8</ele>
        <time>2023-09-24T14:06:08Z</time>
      </trkpt>
      <trkpt lat="45.97169" lon="4.9525">
        <ele>300.9</ele>
        <time>2023-09-24T14:06:09Z</time>
      </trkpt>
      <trkpt lat="45.97166" lon="4.95251">
        <ele>301</ele>
        <time>2023-09-24T14:06:10Z</time>
      </trkpt>
      <trkpt lat="45.97163" lon="4.95252">
        <ele>301</ele>
        <time>2023-09-24T14:06:11Z</time>
      </trkpt>
      <trkpt lat="45.9716" lon="4.95256">
        <ele>301</ele>
        <time>2023-09-24T14:06:12Z</time>
      </trkpt>
      <trkpt lat="45.97157" lon="4.95256">
        <ele>301</ele>
        <time>2023-09-24T14:06:13Z</time>
      </trkpt>
      <trkpt lat="45.97154" lon="4.95259">
        <ele>301</ele>
        <time>2023-09-24T14:06:15Z</time>
      </trkpt>
      <trkpt lat="45.97151" lon="4.95262">
        <ele>301</ele>
        <time>2023-09-24T14:06:16Z</time>
      </trkpt>
      <trkpt lat="45.97148" lon="4.95265">
        <ele>301</ele>
        <time>2023-09-24T14:06:17Z</time>
      </trkpt>
      <trkpt lat="45.97145" lon="4.95266">
        <ele>301</ele>
        <time>2023-09-24T14:06:18Z</time>
      </trkpt>
      <trkpt lat="45.97142" lon="4.95269">
        <ele>301</ele>
        <time>2023-09-24T14:06:19Z</time>
      </trkpt>
      <trkpt lat="45.97138" lon="4.9527">
        <ele>300.9</ele>
        <time>2023-09-24T14:06:20Z</time>
      </trkpt>
      <trkpt lat="45.97135" lon="4.95271">
        <ele>300.7</ele>
        <time>2023-09-24T14:06:21Z</time>
      </trkpt>
      <trkpt lat="45.97131" lon="4.95273">
        <ele>300.4</ele>
        <time>2023-09-24T14:06:22Z</time>
      </trkpt>
      <trkpt lat="45.97126" lon="4.95274">
        <ele>300.1</ele>
        <time>2023-09-24T14:06:23Z</time>
      </trkpt>
      <trkpt lat="45.97121" lon="4.95275">
        <ele>299.7</ele>
        <time>2023-09-24T14:06:24Z</time>
      </trkpt>
      <trkpt lat="45.97116" lon="4.95277">
        <ele>299.4</ele>
        <time>2023-09-24T14:06:25Z</time>
      </trkpt>
      <trkpt lat="45.97109" lon="4.95277">
        <ele>298.8</ele>
        <time>2023-09-24T14:06:26Z</time>
      </trkpt>
      <trkpt lat="45.97102" lon="4.95279">
        <ele>298</ele>
        <time>2023-09-24T14:06:27Z</time>
      </trkpt>
      <trkpt lat="45.97096" lon="4.95283">
        <ele>297.2</ele>
        <time>2023-09-24T14:06:28Z</time>
      </trkpt>
      <trkpt lat="45.97088" lon="4.95284">
        <ele>296.3</ele>
        <time>2023-09-24T14:06:29Z</time>
      </trkpt>
      <trkpt lat="45.9708" lon="4.95285">
        <ele>295.5</ele>
        <time>2023-09-24T14:06:30Z</time>
      </trkpt>
      <trkpt lat="45.97074" lon="4.95285">
        <ele>295.1</ele>
        <time>2023-09-24T14:06:31Z</time>
      </trkpt>
      <trkpt lat="45.9707" lon="4.95284">
        <ele>294.8</ele>
      </trkpt>
      <trkpt lat="45.97065" lon="4.95282">
        <ele>294.5</ele>
        <time>2023-09-24T14:06:32Z</time>
      </trkpt>
      <trkpt lat="45.97061" lon="4.9528">
        <ele>294.3</ele>
      </trkpt>
      <trkpt lat="45.97056" lon="4.95278">
        <ele>294</ele>
        <time>2023-09-24T14:06:33Z</time>
      </trkpt>
      <trkpt lat="45.97048" lon="4.95274">
        <ele>293.7</ele>
        <time>2023-09-24T14:06:34Z</time>
      </trkpt>
      <trkpt lat="45.97042" lon="4.9527">
        <ele>293.5</ele>
        <time>2023-09-24T14:06:35Z</time>
      </trkpt>
      <trkpt lat="45.97035" lon="4.95264">
        <ele>293.3</ele>
        <time>2023-09-24T14:06:36Z</time>
      </trkpt>
      <trkpt lat="45.97031" lon="4.95261">
        <ele>293.1</ele>
      </trkpt>
      <trkpt lat="45.97027" lon="4.95258">
        <ele>293</ele>
        <time>2023-09-24T14:06:37Z</time>
      </trkpt>
      <trkpt lat="45.9702" lon="4.95253">
        <ele>292.7</ele>
        <time>2023-09-24T14:06:38Z</time>
      </trkpt>
      <trkpt lat="45.97013" lon="4.95247">
        <ele>292.5</ele>
        <time>2023-09-24T14:06:39Z</time>
      </trkpt>
      <trkpt lat="45.97006" lon="4.95243">
        <ele>292.2</ele>
        <time>2023-09-24T14:06:40Z</time>
      </trkpt>
      <trkpt lat="45.96998" lon="4.95239">
        <ele>291.9</ele>
        <time>2023-09-24T14:06:41Z</time>
      </trkpt>
      <trkpt lat="45.96991" lon="4.95235">
        <ele>291.7</ele>
        <time>2023-09-24T14:06:42Z</time>
      </trkpt>
      <trkpt lat="45.96984" lon="4.95232">
        <ele>291.4</ele>
        <time>2023-09-24T14:06:43Z</time>
      </trkpt>
      <trkpt lat="45.96978" lon="4.95228">
        <ele>291.2</ele>
        <time>2023-09-24T14:06:44Z</time>
      </trkpt>
      <trkpt lat="45.96971" lon="4.95226">
        <ele>291</ele>
        <time>2023-09-24T14:06:45Z</time>
      </trkpt>
      <trkpt lat="45.96965" lon="4.95222">
        <ele>291</ele>
        <time>2023-09-24T14:06:46Z</time>
      </trkpt>
      <trkpt lat="45.96959" lon="4.95219">
        <ele>291</ele>
        <time>2023-09-24T14:06:47Z</time>
      </trkpt>
      <trkpt lat="45.96954" lon="4.95216">
        <ele>291</ele>
        <time>2023-09-24T14:06:48Z</time>
      </trkpt>
      <trkpt lat="45.96948" lon="4.95213">
        <ele>291</ele>
        <time>2023-09-24T14:06:49Z</time>
      </trkpt>
      <trkpt lat="45.96942" lon="4.95209">
        <ele>291</ele>
        <time>2023-09-24T14:06:50Z</time>
      </trkpt>
      <trkpt lat="45.96937" lon="4.95209">
        <ele>290.9</ele>
        <time>2023-09-24T14:06:51Z</time>
      </trkpt>
      <trkpt lat="45.96931" lon="4.95206">
        <ele>290.8</ele>
        <time>2023-09-24T14:06:52Z</time>
      </trkpt>
      <trkpt lat="45.96926" lon="4.95203">
        <ele>290.8</ele>
        <time>2023-09-24T14:06:53Z</time>
      </trkpt>
      <trkpt lat="45.96922" lon="4.952">
        <ele>290.8</ele>
        <time>2023-09-24T14:06:54Z</time>
      </trkpt>
      <trkpt lat="45.96917" lon="4.95198">
        <ele>290.9</ele>
        <time>2023-09-24T14:06:55Z</time>
      </trkpt>
      <trkpt lat="45.96913" lon="4.95196">
        <ele>290.9</ele>
        <time>2023-09-24T14:06:56Z</time>
      </trkpt>
      <trkpt lat="45.96908" lon="4.95194">
        <ele>291</ele>
        <time>2023-09-24T14:06:57Z</time>
      </trkpt>
      <trkpt lat="45.96904" lon="4.95193">
        <ele>291</ele>
        <time>2023-09-24T14:06:58Z</time>
      </trkpt>
      <trkpt lat="45.96899" lon="4.95192">
        <ele>290.9</ele>
        <time>2023-09-24T14:06:59Z</time>
      </trkpt>
      <trkpt lat="45.96895" lon="4.95191">
        <ele>290.9</ele>
        <time>2023-09-24T14:07:00Z</time>
      </trkpt>
      <trkpt lat="45.96891" lon="4.95189">
        <ele>290.8</ele>
        <time>2023-09-24T14:07:01Z</time>
      </trkpt>
      <trkpt lat="45.96886" lon="4.95188">
        <ele>290.7</ele>
        <time>2023-09-24T14:07:02Z</time>
      </trkpt>
      <trkpt lat="45.96882" lon="4.95186">
        <ele>290.5</ele>
        <time>2023-09-24T14:07:03Z</time>
      </trkpt>
      <trkpt lat="45.96877" lon="4.95185">
        <ele>290.4</ele>
        <time>2023-09-24T14:07:04Z</time>
      </trkpt>
      <trkpt lat="45.96872" lon="4.95183">
        <ele>290.2</ele>
        <time>2023-09-24T14:07:05Z</time>
      </trkpt>
      <trkpt lat="45.96867" lon="4.95181">
        <ele>290.1</ele>
        <time>2023-09-24T14:07:06Z</time>
      </trkpt>
      <trkpt lat="45.96862" lon="4.9518">
        <ele>290</ele>
        <time>2023-09-24T14:07:07Z</time>
      </trkpt>
      <trkpt lat="45.96858" lon="4.95179">
        <ele>290</ele>
        <time>2023-09-24T14:07:08Z</time>
      </trkpt>
      <trkpt lat="45.96853" lon="4.95177">
        <ele>290</ele>
        <time>2023-09-24T14:07:09Z</time>
      </trkpt>
      <trkpt lat="45.96848" lon="4.95174">
        <ele>290</ele>
        <time>2023-09-24T14:07:10Z</time>
      </trkpt>
      <trkpt lat="45.96843" lon="4.95171">
        <ele>290</ele>
        <time>2023-09-24T14:07:11Z</time>
      </trkpt>
      <trkpt lat="45.96839" lon="4.9517">
        <ele>290</ele>
        <time>2023-09-24T14:07:12Z</time>
      </trkpt>
      <trkpt lat="45.96834" lon="4.95169">
        <ele>290</ele>
        <time>2023-09-24T14:07:13Z</time>
      </trkpt>
      <trkpt lat="45.96829" lon="4.95169">
        <ele>290.2</ele>
        <time>2023-09-24T14:07:14Z</time>
      </trkpt>
      <trkpt lat="45.96825" lon="4.95169">
        <ele>290.3</ele>
        <time>2023-09-24T14:07:15Z</time>
      </trkpt>
      <trkpt lat="45.9682" lon="4.95169">
        <ele>290.5</ele>
        <time>2023-09-24T14:07:16Z</time>
      </trkpt>
      <trkpt lat="45.96812" lon="4.9517">
        <ele>290.8</ele>
        <time>2023-09-24T14:07:17Z</time>
      </trkpt>
      <trkpt lat="45.96807" lon="4.9517">
        <ele>290.9</ele>
        <time>2023-09-24T14:07:18Z</time>
      </trkpt>
      <trkpt lat="45.96803" lon="4.95171">
        <ele>291</ele>
        <time>2023-09-24T14:07:19Z</time>
      </trkpt>
      <trkpt lat="45.96798" lon="4.95171">
        <ele>291</ele>
        <time>2023-09-24T14:07:20Z</time>
      </trkpt>
      <trkpt lat="45.96795" lon="4.95171">
        <ele>291</ele>
        <time>2023-09-24T14:07:21Z</time>
      </trkpt>
      <trkpt lat="45.96791" lon="4.95171">
        <ele>291</ele>
        <time>2023-09-24T14:07:22Z</time>
      </trkpt>
      <trkpt lat="45.96787" lon="4.95171">
        <ele>291</ele>
        <time>2023-09-24T14:07:23Z</time>
      </trkpt>
      <trkpt lat="45.96782" lon="4.95171">
        <ele>291</ele>
        <time>2023-09-24T14:07:24Z</time>
      </trkpt>
      <trkpt lat="45.96778" lon="4.95172">
        <ele>291</ele>
        <time>2023-09-24T14:07:25Z</time>
      </trkpt>
      <trkpt lat="45.96774" lon="4.95171">
        <ele>291.1</ele>
        <time>2023-09-24T14:07:26Z</time>
      </trkpt>
      <trkpt lat="45.96769" lon="4.95171">
        <ele>291.3</ele>
        <time>2023-09-24T14:07:27Z</time>
      </trkpt>
      <trkpt lat="45.96765" lon="4.95172">
        <ele>291.5</ele>
        <time>2023-09-24T14:07:28Z</time>
      </trkpt>
      <trkpt lat="45.96761" lon="4.95172">
        <ele>291.6</ele>
        <time>2023-09-24T14:07:29Z</time>
      </trkpt>
      <trkpt lat="45.96757" lon="4.95171">
        <ele>291.7</ele>
        <time>2023-09-24T14:07:30Z</time>
      </trkpt>
      <trkpt lat="45.96753" lon="4.95171">
        <ele>291.9</ele>
        <time>2023-09-24T14:07:31Z</time>
      </trkpt>
      <trkpt lat="45.96749" lon="4.95172">
        <ele>292</ele>
        <time>2023-09-24T14:07:32Z</time>
      </trkpt>
      <trkpt lat="45.96746" lon="4.95172">
        <ele>292</ele>
        <time>2023-09-24T14:07:33Z</time>
      </trkpt>
      <trkpt lat="45.96742" lon="4.95171">
        <ele>292</ele>
        <time>2023-09-24T14:07:34Z</time>
      </trkpt>
      <trkpt lat="45.96738" lon="4.95171">
        <ele>292</ele>
        <time>2023-09-24T14:07:35Z</time>
      </trkpt>
      <trkpt lat="45.96734" lon="4.95171">
        <ele>292</ele>
        <time>2023-09-24T14:07:36Z</time>
      </trkpt>
      <trkpt lat="45.9673" lon="4.95171">
        <ele>292</ele>
        <time>2023-09-24T14:07:37Z</time>
      </trkpt>
      <trkpt lat="45.96726" lon="4.95171">
        <ele>292</ele>
        <time>2023-09-24T14:07:38Z</time>
      </trkpt>
      <trkpt lat="45.96722" lon="4.95171">
        <ele>292</ele>
        <time>2023-09-24T14:07:39Z</time>
      </trkpt>
      <trkpt lat="45.96718" lon="4.95171">
        <ele>292</ele>
        <time>2023-09-24T14:07:40Z</time>
      </trkpt>
      <trkpt lat="45.96714" lon="4.95171">
        <ele>292</ele>
        <time>2023-09-24T14:07:41Z</time>
      </trkpt>
      <trkpt lat="45.9671" lon="4.95171">
        <ele>292.1</ele>
        <time>2023-09-24T14:07:42Z</time>
      </trkpt>
      <trkpt lat="45.96706" lon="4.95172">
        <ele>292.1</ele>
        <time>2023-09-24T14:07:43Z</time>
      </trkpt>
      <trkpt lat="45.96702" lon="4.95171">
        <ele>292.1</ele>
        <time>2023-09-24T14:07:44Z</time>
      </trkpt>
      <trkpt lat="45.96699" lon="4.95172">
        <ele>292.2</ele>
        <time>2023-09-24T14:07:45Z</time>
      </trkpt>
      <trkpt lat="45.96695" lon="4.95172">
        <ele>292.2</ele>
        <time>2023-09-24T14:07:46Z</time>
      </trkpt>
      <trkpt lat="45.96691" lon="4.95172">
        <ele>292.3</ele>
        <time>2023-09-24T14:07:47Z</time>
      </trkpt>
      <trkpt lat="45.96687" lon="4.95172">
        <ele>292.4</ele>
        <time>2023-09-24T14:07:48Z</time>
      </trkpt>
      <trkpt lat="45.96683" lon="4.95172">
        <ele>292.5</ele>
        <time>2023-09-24T14:07:49Z</time>
      </trkpt>
      <trkpt lat="45.96679" lon="4.95172">
        <ele>292.6</ele>
        <time>2023-09-24T14:07:50Z</time>
      </trkpt>
      <trkpt lat="45.96675" lon="4.95172">
        <ele>292.8</ele>
        <time>2023-09-24T14:07:51Z</time>
      </trkpt>
      <trkpt lat="45.96671" lon="4.95173">
        <ele>292.9</ele>
        <time>2023-09-24T14:07:52Z</time>
      </trkpt>
      <trkpt lat="45.96667" lon="4.95173">
        <ele>293</ele>
        <time>2023-09-24T14:07:53Z</time>
      </trkpt>
      <trkpt lat="45.96663" lon="4.95172">
        <ele>293</ele>
        <time>2023-09-24T14:07:54Z</time>
      </trkpt>
      <trkpt lat="45.96659" lon="4.95172">
        <ele>293</ele>
        <time>2023-09-24T14:07:55Z</time>
      </trkpt>
      <trkpt lat="45.96655" lon="4.95172">
        <ele>293</ele>
        <time>2023-09-24T14:07:56Z</time>
      </trkpt>
      <trkpt lat="45.96651" lon="4.95173">
        <ele>293</ele>
        <time>2023-09-24T14:07:57Z</time>
      </trkpt>
      <trkpt lat="45.96647" lon="4.95175">
        <ele>293</ele>
        <time>2023-09-24T14:07:59Z</time>
      </trkpt>
      <trkpt lat="45.96643" lon="4.95178">
        <ele>293</ele>
        <time>2023-09-24T14:08:00Z</time>
      </trkpt>
      <trkpt lat="45.96639" lon="4.9518">
        <ele>293</ele>
        <time>2023-09-24T14:08:01Z</time>
      </trkpt>
      <trkpt lat="45.96635" lon="4.95181">
        <ele>293</ele>
        <time>2023-09-24T14:08:02Z</time>
      </trkpt>
      <trkpt lat="45.96632" lon="4.95183">
        <ele>293</ele>
        <time>2023-09-24T14:08:03Z</time>
      </trkpt>
      <trkpt lat="45.96628" lon="4.95185">
        <ele>293</ele>
        <time>2023-09-24T14:08:04Z</time>
      </trkpt>
      <trkpt lat="45.96624" lon="4.95186">
        <ele>293</ele>
        <time>2023-09-24T14:08:05Z</time>
      </trkpt>
      <trkpt lat="45.9662" lon="4.95188">
        <ele>293</ele>
        <time>2023-09-24T14:08:06Z</time>
      </trkpt>
      <trkpt lat="45.96616" lon="4.95189">
        <ele>293</ele>
        <time>2023-09-24T14:08:07Z</time>
      </trkpt>
      <trkpt lat="45.96612" lon="4.95191">
        <ele>293</ele>
        <time>2023-09-24T14:08:08Z</time>
      </trkpt>
      <trkpt lat="45.96608" lon="4.95191">
        <ele>293</ele>
        <time>2023-09-24T14:08:09Z</time>
      </trkpt>
      <trkpt lat="45.96604" lon="4.95192">
        <ele>293</ele>
        <time>2023-09-24T14:08:10Z</time>
      </trkpt>
      <trkpt lat="45.966" lon="4.95193">
        <ele>293</ele>
        <time>2023-09-24T14:08:11Z</time>
      </trkpt>
      <trkpt lat="45.96595" lon="4.95194">
        <ele>293</ele>
        <time>2023-09-24T14:08:12Z</time>
      </trkpt>
      <trkpt lat="45.96592" lon="4.95195">
        <ele>293</ele>
        <time>2023-09-24T14:08:13Z</time>
      </trkpt>
      <trkpt lat="45.96587" lon="4.95197">
        <ele>293</ele>
        <time>2023-09-24T14:08:14Z</time>
      </trkpt>
      <trkpt lat="45.96584" lon="4.95198">
        <ele>293</ele>
        <time>2023-09-24T14:08:15Z</time>
      </trkpt>
      <trkpt lat="45.96579" lon="4.95199">
        <ele>293</ele>
        <time>2023-09-24T14:08:16Z</time>
      </trkpt>
      <trkpt lat="45.96575" lon="4.952">
        <ele>293</ele>
        <time>2023-09-24T14:08:17Z</time>
      </trkpt>
      <trkpt lat="45.96571" lon="4.95201">
        <ele>293</ele>
        <time>2023-09-24T14:08:18Z</time>
      </trkpt>
      <trkpt lat="45.96567" lon="4.95201">
        <ele>293</ele>
        <time>2023-09-24T14:08:19Z</time>
      </trkpt>
      <trkpt lat="45.96563" lon="4.95202">
        <ele>293</ele>
        <time>2023-09-24T14:08:20Z</time>
      </trkpt>
      <trkpt lat="45.96559" lon="4.95202">
        <ele>293</ele>
        <time>2023-09-24T14:08:21Z</time>
      </trkpt>
      <trkpt lat="45.96555" lon="4.95203">
        <ele>293</ele>
        <time>2023-09-24T14:08:22Z</time>
      </trkpt>
      <trkpt lat="45.96551" lon="4.95204">
        <ele>293.1</ele>
        <time>2023-09-24T14:08:23Z</time>
      </trkpt>
      <trkpt lat="45.96547" lon="4.95205">
        <ele>293.2</ele>
        <time>2023-09-24T14:08:24Z</time>
      </trkpt>
      <trkpt lat="45.96543" lon="4.95206">
        <ele>293.3</ele>
        <time>2023-09-24T14:08:25Z</time>
      </trkpt>
      <trkpt lat="45.96539" lon="4.95206">
        <ele>293.3</ele>
        <time>2023-09-24T14:08:26Z</time>
      </trkpt>
      <trkpt lat="45.96535" lon="4.95206">
        <ele>293.4</ele>
        <time>2023-09-24T14:08:27Z</time>
      </trkpt>
      <trkpt lat="45.96531" lon="4.95207">
        <ele>293.5</ele>
        <time>2023-09-24T14:08:28Z</time>
      </trkpt>
      <trkpt lat="45.96527" lon="4.95207">
        <ele>293.5</ele>
        <time>2023-09-24T14:08:29Z</time>
      </trkpt>
      <trkpt lat="45.96522" lon="4.95207">
        <ele>293.5</ele>
        <time>2023-09-24T14:08:30Z</time>
      </trkpt>
      <trkpt lat="45.96518" lon="4.95208">
        <ele>293.5</ele>
        <time>2023-09-24T14:08:31Z</time>
      </trkpt>
      <trkpt lat="45.96514" lon="4.95209">
        <ele>293.5</ele>
        <time>2023-09-24T14:08:32Z</time>
      </trkpt>
      <trkpt lat="45.9651" lon="4.95209">
        <ele>293.5</ele>
        <time>2023-09-24T14:08:33Z</time>
      </trkpt>
      <trkpt lat="45.96506" lon="4.95209">
        <ele>293.5</ele>
        <time>2023-09-24T14:08:34Z</time>
      </trkpt>
      <trkpt lat="45.96502" lon="4.9521">
        <ele>293.4</ele>
        <time>2023-09-24T14:08:35Z</time>
      </trkpt>
      <trkpt lat="45.96498" lon="4.95209">
        <ele>293.4</ele>
        <time>2023-09-24T14:08:36Z</time>
      </trkpt>
      <trkpt lat="45.96493" lon="4.95209">
        <ele>293.2</ele>
        <time>2023-09-24T14:08:37Z</time>
      </trkpt>
      <trkpt lat="45.96489" lon="4.95208">
        <ele>293.1</ele>
        <time>2023-09-24T14:08:38Z</time>
      </trkpt>
      <trkpt lat="45.96484" lon="4.95207">
        <ele>293</ele>
        <time>2023-09-24T14:08:39Z</time>
      </trkpt>
      <trkpt lat="45.9648" lon="4.95206">
        <ele>292.9</ele>
        <time>2023-09-24T14:08:40Z</time>
      </trkpt>
      <trkpt lat="45.96476" lon="4.95204">
        <ele>292.8</ele>
        <time>2023-09-24T14:08:41Z</time>
      </trkpt>
      <trkpt lat="45.96471" lon="4.95201">
        <ele>292.8</ele>
        <time>2023-09-24T14:08:42Z</time>
      </trkpt>
      <trkpt lat="45.96467" lon="4.95197">
        <ele>292.9</ele>
        <time>2023-09-24T14:08:43Z</time>
      </trkpt>
      <trkpt lat="45.96464" lon="4.95195">
        <ele>293</ele>
        <time>2023-09-24T14:08:44Z</time>
      </trkpt>
      <trkpt lat="45.9646" lon="4.95192">
        <ele>293.1</ele>
        <time>2023-09-24T14:08:45Z</time>
      </trkpt>
      <trkpt lat="45.96456" lon="4.95189">
        <ele>293.2</ele>
        <time>2023-09-24T14:08:46Z</time>
      </trkpt>
      <trkpt lat="45.96452" lon="4.95185">
        <ele>293.3</ele>
        <time>2023-09-24T14:08:47Z</time>
      </trkpt>
      <trkpt lat="45.96449" lon="4.95181">
        <ele>293.5</ele>
        <time>2023-09-24T14:08:48Z</time>
      </trkpt>
      <trkpt lat="45.96446" lon="4.95177">
        <ele>293.6</ele>
        <time>2023-09-24T14:08:49Z</time>
      </trkpt>
      <trkpt lat="45.96442" lon="4.95173">
        <ele>293.6</ele>
        <time>2023-09-24T14:08:50Z</time>
      </trkpt>
      <trkpt lat="45.96438" lon="4.9517">
        <ele>293.4</ele>
        <time>2023-09-24T14:08:51Z</time>
      </trkpt>
      <trkpt lat="45.96435" lon="4.95167">
        <ele>293.3</ele>
        <time>2023-09-24T14:08:52Z</time>
      </trkpt>
      <trkpt lat="45.96431" lon="4.95163">
        <ele>293.2</ele>
        <time>2023-09-24T14:08:53Z</time>
      </trkpt>
      <trkpt lat="45.96428" lon="4.95159">
        <ele>293.3</ele>
        <time>2023-09-24T14:08:54Z</time>
      </trkpt>
      <trkpt lat="45.96424" lon="4.95156">
        <ele>293.2</ele>
        <time>2023-09-24T14:08:55Z</time>
      </trkpt>
      <trkpt lat="45.96421" lon="4.95152">
        <ele>293.3</ele>
        <time>2023-09-24T14:08:56Z</time>
      </trkpt>
      <trkpt lat="45.96417" lon="4.95148">
        <ele>293.4</ele>
        <time>2023-09-24T14:08:57Z</time>
      </trkpt>
      <trkpt lat="45.96414" lon="4.95145">
        <ele>293.4</ele>
        <time>2023-09-24T14:08:58Z</time>
      </trkpt>
      <trkpt lat="45.9641" lon="4.95141">
        <ele>293.4</ele>
        <time>2023-09-24T14:08:59Z</time>
      </trkpt>
      <trkpt lat="45.96406" lon="4.95137">
        <ele>293.3</ele>
        <time>2023-09-24T14:09:00Z</time>
      </trkpt>
      <trkpt lat="45.96403" lon="4.95133">
        <ele>293.2</ele>
        <time>2023-09-24T14:09:01Z</time>
      </trkpt>
      <trkpt lat="45.96399" lon="4.9513">
        <ele>293</ele>
        <time>2023-09-24T14:09:02Z</time>
      </trkpt>
      <trkpt lat="45.96394" lon="4.95127">
        <ele>292.8</ele>
        <time>2023-09-24T14:09:03Z</time>
      </trkpt>
      <trkpt lat="45.9639" lon="4.95124">
        <ele>292.6</ele>
        <time>2023-09-24T14:09:04Z</time>
      </trkpt>
      <trkpt lat="45.96386" lon="4.95122">
        <ele>292.5</ele>
        <time>2023-09-24T14:09:05Z</time>
      </trkpt>
      <trkpt lat="45.96382" lon="4.95119">
        <ele>292.5</ele>
        <time>2023-09-24T14:09:06Z</time>
      </trkpt>
      <trkpt lat="45.96378" lon="4.95116">
        <ele>292.5</ele>
        <time>2023-09-24T14:09:07Z</time>
      </trkpt>
      <trkpt lat="45.96374" lon="4.95112">
        <ele>292.4</ele>
        <time>2023-09-24T14:09:08Z</time>
      </trkpt>
      <trkpt lat="45.9637" lon="4.95109">
        <ele>292.4</ele>
        <time>2023-09-24T14:09:09Z</time>
      </trkpt>
      <trkpt lat="45.96367" lon="4.95105">
        <ele>292.4</ele>
        <time>2023-09-24T14:09:10Z</time>
      </trkpt>
      <trkpt lat="45.96363" lon="4.95102">
        <ele>292.4</ele>
        <time>2023-09-24T14:09:11Z</time>
      </trkpt>
      <trkpt lat="45.96359" lon="4.95099">
        <ele>292.4</ele>
        <time>2023-09-24T14:09:12Z</time>
      </trkpt>
      <trkpt lat="45.96354" lon="4.95098">
        <ele>292.2</ele>
        <time>2023-09-24T14:09:13Z</time>
      </trkpt>
      <trkpt lat="45.96349" lon="4.95098">
        <ele>292</ele>
        <time>2023-09-24T14:09:14Z</time>
      </trkpt>
      <trkpt lat="45.96344" lon="4.95098">
        <ele>291.9</ele>
        <time>2023-09-24T14:09:15Z</time>
      </trkpt>
      <trkpt lat="45.96339" lon="4.95098">
        <ele>291.7</ele>
        <time>2023-09-24T14:09:16Z</time>
      </trkpt>
      <trkpt lat="45.96334" lon="4.95096">
        <ele>291.6</ele>
        <time>2023-09-24T14:09:17Z</time>
      </trkpt>
      <trkpt lat="45.9633" lon="4.95096">
        <ele>291.5</ele>
        <time>2023-09-24T14:09:18Z</time>
      </trkpt>
      <trkpt lat="45.96325" lon="4.95095">
        <ele>291.4</ele>
        <time>2023-09-24T14:09:19Z</time>
      </trkpt>
      <trkpt lat="45.9632" lon="4.95095">
        <ele>291.3</ele>
        <time>2023-09-24T14:09:20Z</time>
      </trkpt>
      <trkpt lat="45.96316" lon="4.95094">
        <ele>291.2</ele>
        <time>2023-09-24T14:09:21Z</time>
      </trkpt>
      <trkpt lat="45.96311" lon="4.95093">
        <ele>291.1</ele>
        <time>2023-09-24T14:09:22Z</time>
      </trkpt>
      <trkpt lat="45.96307" lon="4.95093">
        <ele>291</ele>
      </trkpt>
      <trkpt lat="45.96302" lon="4.95092">
        <ele>290.9</ele>
        <time>2023-09-24T14:09:23Z</time>
      </trkpt>
      <trkpt lat="45.96298" lon="4.95091">
        <ele>290.7</ele>
        <time>2023-09-24T14:09:24Z</time>
      </trkpt>
      <trkpt lat="45.96293" lon="4.9509">
        <ele>290.5</ele>
        <time>2023-09-24T14:09:25Z</time>
      </trkpt>
      <trkpt lat="45.96288" lon="4.95089">
        <ele>290.4</ele>
        <time>2023-09-24T14:09:26Z</time>
      </trkpt>
      <trkpt lat="45.96284" lon="4.95088">
        <ele>290.2</ele>
        <time>2023-09-24T14:09:27Z</time>
      </trkpt>
      <trkpt lat="45.96279" lon="4.95088">
        <ele>290</ele>
        <time>2023-09-24T14:09:28Z</time>
      </trkpt>
      <trkpt lat="45.96275" lon="4.95088">
        <ele>290</ele>
        <time>2023-09-24T14:09:29Z</time>
      </trkpt>
      <trkpt lat="45.9627" lon="4.95088">
        <ele>290</ele>
        <time>2023-09-24T14:09:30Z</time>
      </trkpt>
      <trkpt lat="45.96265" lon="4.95088">
        <ele>289.9</ele>
        <time>2023-09-24T14:09:31Z</time>
      </trkpt>
      <trkpt lat="45.96261" lon="4.95088">
        <ele>289.9</ele>
        <time>2023-09-24T14:09:32Z</time>
      </trkpt>
      <trkpt lat="45.96256" lon="4.95089">
        <ele>289.8</ele>
        <time>2023-09-24T14:09:33Z</time>
      </trkpt>
      <trkpt lat="45.96252" lon="4.95089">
        <ele>289.8</ele>
        <time>2023-09-24T14:09:34Z</time>
      </trkpt>
      <trkpt lat="45.96247" lon="4.95089">
        <ele>289.7</ele>
        <time>2023-09-24T14:09:35Z</time>
      </trkpt>
      <trkpt lat="45.96242" lon="4.9509">
        <ele>289.5</ele>
        <time>2023-09-24T14:09:36Z</time>
      </trkpt>
      <trkpt lat="45.96238" lon="4.95091">
        <ele>289.3</ele>
        <time>2023-09-24T14:09:37Z</time>
      </trkpt>
      <trkpt lat="45.96233" lon="4.95091">
        <ele>289.1</ele>
        <time>2023-09-24T14:09:38Z</time>
      </trkpt>
      <trkpt lat="45.96229" lon="4.95091">
        <ele>289</ele>
        <time>2023-09-24T14:09:39Z</time>
      </trkpt>
      <trkpt lat="45.96225" lon="4.95092">
        <ele>288.8</ele>
        <time>2023-09-24T14:09:40Z</time>
      </trkpt>
      <trkpt lat="45.96221" lon="4.95093">
        <ele>288.7</ele>
        <time>2023-09-24T14:09:41Z</time>
      </trkpt>
      <trkpt lat="45.96217" lon="4.95094">
        <ele>288.6</ele>
        <time>2023-09-24T14:09:42Z</time>
      </trkpt>
      <trkpt lat="45.96212" lon="4.95094">
        <ele>288.6</ele>
        <time>2023-09-24T14:09:43Z</time>
      </trkpt>
      <trkpt lat="45.96208" lon="4.95095">
        <ele>288.6</ele>
        <time>2023-09-24T14:09:44Z</time>
      </trkpt>
      <trkpt lat="45.96204" lon="4.95096">
        <ele>288.5</ele>
        <time>2023-09-24T14:09:45Z</time>
      </trkpt>
      <trkpt lat="45.96199" lon="4.95097">
        <ele>288.5</ele>
        <time>2023-09-24T14:09:46Z</time>
      </trkpt>
      <trkpt lat="45.96195" lon="4.95098">
        <ele>288.5</ele>
        <time>2023-09-24T14:09:47Z</time>
      </trkpt>
      <trkpt lat="45.96191" lon="4.951">
        <ele>288.4</ele>
        <time>2023-09-24T14:09:48Z</time>
      </trkpt>
      <trkpt lat="45.96187" lon="4.95102">
        <ele>288.3</ele>
        <time>2023-09-24T14:09:49Z</time>
      </trkpt>
      <trkpt lat="45.96182" lon="4.95105">
        <ele>288.2</ele>
        <time>2023-09-24T14:09:50Z</time>
      </trkpt>
      <trkpt lat="45.96178" lon="4.95108">
        <ele>288.1</ele>
        <time>2023-09-24T14:09:51Z</time>
      </trkpt>
      <trkpt lat="45.96175" lon="4.95113">
        <ele>287.9</ele>
        <time>2023-09-24T14:09:52Z</time>
      </trkpt>
      <trkpt lat="45.96172" lon="4.95117">
        <ele>287.8</ele>
        <time>2023-09-24T14:09:53Z</time>
      </trkpt>
      <trkpt lat="45.96167" lon="4.95121">
        <ele>287.6</ele>
        <time>2023-09-24T14:09:54Z</time>
      </trkpt>
      <trkpt lat="45.96163" lon="4.95125">
        <ele>287.6</ele>
        <time>2023-09-24T14:09:55Z</time>
      </trkpt>
      <trkpt lat="45.9616" lon="4.95129">
        <ele>287.5</ele>
        <time>2023-09-24T14:09:56Z</time>
      </trkpt>
      <trkpt lat="45.96157" lon="4.95134">
        <ele>287.5</ele>
        <time>2023-09-24T14:09:57Z</time>
      </trkpt>
      <trkpt lat="45.96153" lon="4.95138">
        <ele>287.5</ele>
        <time>2023-09-24T14:09:58Z</time>
      </trkpt>
      <trkpt lat="45.9615" lon="4.95141">
        <ele>287.6</ele>
        <time>2023-09-24T14:09:59Z</time>
      </trkpt>
      <trkpt lat="45.96146" lon="4.95145">
        <ele>287.6</ele>
        <time>2023-09-24T14:10:01Z</time>
      </trkpt>
      <trkpt lat="45.96142" lon="4.95148">
        <ele>287.6</ele>
        <time>2023-09-24T14:10:02Z</time>
      </trkpt>
      <trkpt lat="45.96138" lon="4.95151">
        <ele>287.5</ele>
        <time>2023-09-24T14:10:03Z</time>
      </trkpt>
      <trkpt lat="45.96134" lon="4.95154">
        <ele>287.4</ele>
        <time>2023-09-24T14:10:04Z</time>
      </trkpt>
      <trkpt lat="45.96131" lon="4.95156">
        <ele>287.3</ele>
        <time>2023-09-24T14:10:05Z</time>
      </trkpt>
      <trkpt lat="45.96126" lon="4.95159">
        <ele>287.1</ele>
        <time>2023-09-24T14:10:06Z</time>
      </trkpt>
      <trkpt lat="45.96123" lon="4.95162">
        <ele>287.1</ele>
        <time>2023-09-24T14:10:07Z</time>
      </trkpt>
      <trkpt lat="45.96119" lon="4.95165">
        <ele>287</ele>
        <time>2023-09-24T14:10:08Z</time>
      </trkpt>
      <trkpt lat="45.96114" lon="4.95168">
        <ele>287</ele>
        <time>2023-09-24T14:10:09Z</time>
      </trkpt>
      <trkpt lat="45.9611" lon="4.95171">
        <ele>287</ele>
        <time>2023-09-24T14:10:10Z</time>
      </trkpt>
      <trkpt lat="45.96106" lon="4.95174">
        <ele>287</ele>
        <time>2023-09-24T14:10:11Z</time>
      </trkpt>
      <trkpt lat="45.96101" lon="4.95176">
        <ele>287</ele>
        <time>2023-09-24T14:10:12Z</time>
      </trkpt>
      <trkpt lat="45.96096" lon="4.95179">
        <ele>287</ele>
        <time>2023-09-24T14:10:13Z</time>
      </trkpt>
      <trkpt lat="45.96091" lon="4.9518">
        <ele>287</ele>
        <time>2023-09-24T14:10:14Z</time>
      </trkpt>
      <trkpt lat="45.96086" lon="4.95181">
        <ele>287</ele>
        <time>2023-09-24T14:10:15Z</time>
      </trkpt>
      <trkpt lat="45.96082" lon="4.95182">
        <ele>287</ele>
        <time>2023-09-24T14:10:16Z</time>
      </trkpt>
      <trkpt lat="45.96077" lon="4.95183">
        <ele>287.1</ele>
        <time>2023-09-24T14:10:17Z</time>
      </trkpt>
      <trkpt lat="45.96072" lon="4.95184">
        <ele>287.2</ele>
        <time>2023-09-24T14:10:18Z</time>
      </trkpt>
      <trkpt lat="45.96067" lon="4.95185">
        <ele>287.2</ele>
        <time>2023-09-24T14:10:19Z</time>
      </trkpt>
      <trkpt lat="45.96063" lon="4.95187">
        <ele>287.2</ele>
        <time>2023-09-24T14:10:20Z</time>
      </trkpt>
      <trkpt lat="45.96058" lon="4.95188">
        <ele>287.2</ele>
        <time>2023-09-24T14:10:21Z</time>
      </trkpt>
      <trkpt lat="45.96053" lon="4.95189">
        <ele>287.3</ele>
        <time>2023-09-24T14:10:22Z</time>
      </trkpt>
      <trkpt lat="45.96049" lon="4.9519">
        <ele>287.4</ele>
        <time>2023-09-24T14:10:23Z</time>
      </trkpt>
      <trkpt lat="45.96044" lon="4.95192">
        <ele>287.5</ele>
        <time>2023-09-24T14:10:24Z</time>
      </trkpt>
      <trkpt lat="45.96039" lon="4.95193">
        <ele>287.6</ele>
        <time>2023-09-24T14:10:25Z</time>
      </trkpt>
      <trkpt lat="45.96034" lon="4.95194">
        <ele>287.8</ele>
        <time>2023-09-24T14:10:26Z</time>
      </trkpt>
      <trkpt lat="45.9603" lon="4.95196">
        <ele>287.9</ele>
        <time>2023-09-24T14:10:27Z</time>
      </trkpt>
      <trkpt lat="45.96025" lon="4.95197">
        <ele>288</ele>
        <time>2023-09-24T14:10:28Z</time>
      </trkpt>
      <trkpt lat="45.9602" lon="4.95199">
        <ele>288</ele>
        <time>2023-09-24T14:10:29Z</time>
      </trkpt>
      <trkpt lat="45.96016" lon="4.952">
        <ele>288</ele>
        <time>2023-09-24T14:10:30Z</time>
      </trkpt>
      <trkpt lat="45.96011" lon="4.95202">
        <ele>288</ele>
        <time>2023-09-24T14:10:31Z</time>
      </trkpt>
      <trkpt lat="45.96006" lon="4.95203">
        <ele>288</ele>
        <time>2023-09-24T14:10:32Z</time>
      </trkpt>
      <trkpt lat="45.96002" lon="4.95204">
        <ele>288</ele>
        <time>2023-09-24T14:10:33Z</time>
      </trkpt>
      <trkpt lat="45.95997" lon="4.95206">
        <ele>288.1</ele>
        <time>2023-09-24T14:10:34Z</time>
      </trkpt>
      <trkpt lat="45.95992" lon="4.95208">
        <ele>288.3</ele>
        <time>2023-09-24T14:10:35Z</time>
      </trkpt>
      <trkpt lat="45.95988" lon="4.95208">
        <ele>288.4</ele>
        <time>2023-09-24T14:10:36Z</time>
      </trkpt>
      <trkpt lat="45.95983" lon="4.9521">
        <ele>288.6</ele>
        <time>2023-09-24T14:10:37Z</time>
      </trkpt>
      <trkpt lat="45.95978" lon="4.9521">
        <ele>288.8</ele>
        <time>2023-09-24T14:10:38Z</time>
      </trkpt>
      <trkpt lat="45.95973" lon="4.95212">
        <ele>289</ele>
        <time>2023-09-24T14:10:39Z</time>
      </trkpt>
      <trkpt lat="45.95968" lon="4.95213">
        <ele>289.1</ele>
        <time>2023-09-24T14:10:40Z</time>
      </trkpt>
      <trkpt lat="45.95963" lon="4.95214">
        <ele>289.1</ele>
        <time>2023-09-24T14:10:41Z</time>
      </trkpt>
      <trkpt lat="45.95958" lon="4.95216">
        <ele>289.1</ele>
        <time>2023-09-24T14:10:42Z</time>
      </trkpt>
      <trkpt lat="45.95953" lon="4.95217">
        <ele>289.1</ele>
        <time>2023-09-24T14:10:43Z</time>
      </trkpt>
      <trkpt lat="45.95948" lon="4.95219">
        <ele>289.1</ele>
        <time>2023-09-24T14:10:44Z</time>
      </trkpt>
      <trkpt lat="45.95944" lon="4.9522">
        <ele>289.1</ele>
        <time>2023-09-24T14:10:45Z</time>
      </trkpt>
      <trkpt lat="45.95939" lon="4.95222">
        <ele>289.2</ele>
        <time>2023-09-24T14:10:46Z</time>
      </trkpt>
      <trkpt lat="45.95934" lon="4.95224">
        <ele>289.4</ele>
        <time>2023-09-24T14:10:47Z</time>
      </trkpt>
      <trkpt lat="45.95929" lon="4.95225">
        <ele>289.6</ele>
        <time>2023-09-24T14:10:48Z</time>
      </trkpt>
      <trkpt lat="45.95925" lon="4.95228">
        <ele>289.7</ele>
        <time>2023-09-24T14:10:49Z</time>
      </trkpt>
      <trkpt lat="45.9592" lon="4.95231">
        <ele>289.9</ele>
        <time>2023-09-24T14:10:50Z</time>
      </trkpt>
      <trkpt lat="45.95916" lon="4.95235">
        <ele>290</ele>
        <time>2023-09-24T14:10:51Z</time>
      </trkpt>
      <trkpt lat="45.95912" lon="4.95238">
        <ele>290.2</ele>
        <time>2023-09-24T14:10:52Z</time>
      </trkpt>
      <trkpt lat="45.95907" lon="4.95242">
        <ele>290.3</ele>
        <time>2023-09-24T14:10:53Z</time>
      </trkpt>
      <trkpt lat="45.95903" lon="4.95245">
        <ele>290.5</ele>
        <time>2023-09-24T14:10:54Z</time>
      </trkpt>
      <trkpt lat="45.95898" lon="4.95248">
        <ele>290.7</ele>
        <time>2023-09-24T14:10:55Z</time>
      </trkpt>
      <trkpt lat="45.95894" lon="4.95251">
        <ele>290.8</ele>
        <time>2023-09-24T14:10:56Z</time>
      </trkpt>
      <trkpt lat="45.95889" lon="4.95253">
        <ele>291</ele>
        <time>2023-09-24T14:10:57Z</time>
      </trkpt>
      <trkpt lat="45.95884" lon="4.95255">
        <ele>291.1</ele>
        <time>2023-09-24T14:10:58Z</time>
      </trkpt>
      <trkpt lat="45.95879" lon="4.95258">
        <ele>291.3</ele>
        <time>2023-09-24T14:10:59Z</time>
      </trkpt>
      <trkpt lat="45.95874" lon="4.9526">
        <ele>291.3</ele>
        <time>2023-09-24T14:11:00Z</time>
      </trkpt>
      <trkpt lat="45.9587" lon="4.95262">
        <ele>291.4</ele>
        <time>2023-09-24T14:11:01Z</time>
      </trkpt>
      <trkpt lat="45.95866" lon="4.95265">
        <ele>291.4</ele>
        <time>2023-09-24T14:11:02Z</time>
      </trkpt>
      <trkpt lat="45.95861" lon="4.95268">
        <ele>291.4</ele>
        <time>2023-09-24T14:11:03Z</time>
      </trkpt>
      <trkpt lat="45.95857" lon="4.9527">
        <ele>291.4</ele>
        <time>2023-09-24T14:11:04Z</time>
      </trkpt>
      <trkpt lat="45.95852" lon="4.95272">
        <ele>291.5</ele>
        <time>2023-09-24T14:11:05Z</time>
      </trkpt>
      <trkpt lat="45.95847" lon="4.95275">
        <ele>291.6</ele>
        <time>2023-09-24T14:11:06Z</time>
      </trkpt>
      <trkpt lat="45.95843" lon="4.95276">
        <ele>291.7</ele>
        <time>2023-09-24T14:11:07Z</time>
      </trkpt>
      <trkpt lat="45.95838" lon="4.95279">
        <ele>291.8</ele>
        <time>2023-09-24T14:11:08Z</time>
      </trkpt>
      <trkpt lat="45.95833" lon="4.95281">
        <ele>291.9</ele>
        <time>2023-09-24T14:11:09Z</time>
      </trkpt>
      <trkpt lat="45.95829" lon="4.95283">
        <ele>292</ele>
        <time>2023-09-24T14:11:10Z</time>
      </trkpt>
      <trkpt lat="45.95824" lon="4.95284">
        <ele>292.1</ele>
        <time>2023-09-24T14:11:11Z</time>
      </trkpt>
      <trkpt lat="45.9582" lon="4.95285">
        <ele>292.2</ele>
        <time>2023-09-24T14:11:12Z</time>
      </trkpt>
      <trkpt lat="45.95816" lon="4.95287">
        <ele>292.3</ele>
        <time>2023-09-24T14:11:13Z</time>
      </trkpt>
      <trkpt lat="45.95813" lon="4.95289">
        <ele>292.3</ele>
        <time>2023-09-24T14:11:14Z</time>
      </trkpt>
      <trkpt lat="45.95808" lon="4.95291">
        <ele>292.4</ele>
        <time>2023-09-24T14:11:15Z</time>
      </trkpt>
      <trkpt lat="45.95804" lon="4.95292">
        <ele>292.5</ele>
        <time>2023-09-24T14:11:16Z</time>
      </trkpt>
      <trkpt lat="45.958" lon="4.95291">
        <ele>292.4</ele>
        <time>2023-09-24T14:11:17Z</time>
      </trkpt>
      <trkpt lat="45.95796" lon="4.9529">
        <ele>292.4</ele>
        <time>2023-09-24T14:11:18Z</time>
      </trkpt>
      <trkpt lat="45.95792" lon="4.95288">
        <ele>292.3</ele>
        <time>2023-09-24T14:11:19Z</time>
      </trkpt>
      <trkpt lat="45.95789" lon="4.95285">
        <ele>292.3</ele>
        <time>2023-09-24T14:11:20Z</time>
      </trkpt>
      <trkpt lat="45.95786" lon="4.95283">
        <ele>292.2</ele>
        <time>2023-09-24T14:11:21Z</time>
      </trkpt>
      <trkpt lat="45.95784" lon="4.9528">
        <ele>292.2</ele>
        <time>2023-09-24T14:11:22Z</time>
      </trkpt>
      <trkpt lat="45.95781" lon="4.95279">
        <ele>292.1</ele>
        <time>2023-09-24T14:11:23Z</time>
      </trkpt>
      <trkpt lat="45.95776" lon="4.95276">
        <ele>292.1</ele>
        <time>2023-09-24T14:11:24Z</time>
      </trkpt>
      <trkpt lat="45.95775" lon="4.95275">
        <ele>292.2</ele>
        <time>2023-09-24T14:11:25Z</time>
      </trkpt>
      <trkpt lat="45.95772" lon="4.95272">
        <ele>292.3</ele>
        <time>2023-09-24T14:11:26Z</time>
      </trkpt>
      <trkpt lat="45.95768" lon="4.95269">
        <ele>292.4</ele>
        <time>2023-09-24T14:11:27Z</time>
      </trkpt>
      <trkpt lat="45.95765" lon="4.95267">
        <ele>292.4</ele>
        <time>2023-09-24T14:11:28Z</time>
      </trkpt>
      <trkpt lat="45.95762" lon="4.95264">
        <ele>292.4</ele>
        <time>2023-09-24T14:11:29Z</time>
      </trkpt>
      <trkpt lat="45.95759" lon="4.95262">
        <ele>292.4</ele>
        <time>2023-09-24T14:11:30Z</time>
      </trkpt>
      <trkpt lat="45.95756" lon="4.9526">
        <ele>292.3</ele>
        <time>2023-09-24T14:11:31Z</time>
      </trkpt>
      <trkpt lat="45.95752" lon="4.95258">
        <ele>292.1</ele>
        <time>2023-09-24T14:11:32Z</time>
      </trkpt>
      <trkpt lat="45.95749" lon="4.95255">
        <ele>292</ele>
        <time>2023-09-24T14:11:33Z</time>
      </trkpt>
      <trkpt lat="45.95744" lon="4.95252">
        <ele>291.8</ele>
        <time>2023-09-24T14:11:34Z</time>
      </trkpt>
      <trkpt lat="45.95741" lon="4.95249">
        <ele>291.7</ele>
        <time>2023-09-24T14:11:35Z</time>
      </trkpt>
      <trkpt lat="45.95737" lon="4.95247">
        <ele>291.6</ele>
        <time>2023-09-24T14:11:36Z</time>
      </trkpt>
      <trkpt lat="45.95734" lon="4.95244">
        <ele>291.6</ele>
        <time>2023-09-24T14:11:37Z</time>
      </trkpt>
      <trkpt lat="45.9573" lon="4.95241">
        <ele>291.5</ele>
        <time>2023-09-24T14:11:38Z</time>
      </trkpt>
      <trkpt lat="45.95727" lon="4.95237">
        <ele>291.3</ele>
        <time>2023-09-24T14:11:39Z</time>
      </trkpt>
      <trkpt lat="45.95723" lon="4.95234">
        <ele>291.1</ele>
        <time>2023-09-24T14:11:40Z</time>
      </trkpt>
      <trkpt lat="45.9572" lon="4.95231">
        <ele>290.9</ele>
        <time>2023-09-24T14:11:41Z</time>
      </trkpt>
      <trkpt lat="45.95716" lon="4.95229">
        <ele>290.8</ele>
        <time>2023-09-24T14:11:42Z</time>
      </trkpt>
      <trkpt lat="45.95712" lon="4.95227">
        <ele>290.6</ele>
        <time>2023-09-24T14:11:43Z</time>
      </trkpt>
      <trkpt lat="45.95708" lon="4.95224">
        <ele>290.5</ele>
        <time>2023-09-24T14:11:44Z</time>
      </trkpt>
      <trkpt lat="45.95704" lon="4.95221">
        <ele>290.4</ele>
        <time>2023-09-24T14:11:45Z</time>
      </trkpt>
      <trkpt lat="45.95699" lon="4.95218">
        <ele>290.3</ele>
        <time>2023-09-24T14:11:46Z</time>
      </trkpt>
      <trkpt lat="45.95694" lon="4.95215">
        <ele>290.2</ele>
        <time>2023-09-24T14:11:47Z</time>
      </trkpt>
      <trkpt lat="45.95689" lon="4.95212">
        <ele>290.1</ele>
        <time>2023-09-24T14:11:48Z</time>
      </trkpt>
      <trkpt lat="45.95684" lon="4.95209">
        <ele>289.9</ele>
        <time>2023-09-24T14:11:49Z</time>
      </trkpt>
      <trkpt lat="45.95679" lon="4.95205">
        <ele>289.7</ele>
        <time>2023-09-24T14:11:50Z</time>
      </trkpt>
      <trkpt lat="45.95674" lon="4.95201">
        <ele>289.5</ele>
        <time>2023-09-24T14:11:51Z</time>
      </trkpt>
      <trkpt lat="45.95668" lon="4.95197">
        <ele>289.1</ele>
        <time>2023-09-24T14:11:52Z</time>
      </trkpt>
      <trkpt lat="45.95662" lon="4.95194">
        <ele>288.8</ele>
        <time>2023-09-24T14:11:53Z</time>
      </trkpt>
      <trkpt lat="45.95657" lon="4.9519">
        <ele>288.8</ele>
        <time>2023-09-24T14:11:54Z</time>
      </trkpt>
      <trkpt lat="45.95651" lon="4.95187">
        <ele>288.6</ele>
        <time>2023-09-24T14:11:55Z</time>
      </trkpt>
      <trkpt lat="45.95646" lon="4.95182">
        <ele>288.4</ele>
        <time>2023-09-24T14:11:56Z</time>
      </trkpt>
      <trkpt lat="45.95641" lon="4.95178">
        <ele>288.1</ele>
        <time>2023-09-24T14:11:57Z</time>
      </trkpt>
      <trkpt lat="45.95635" lon="4.95173">
        <ele>287.9</ele>
        <time>2023-09-24T14:11:58Z</time>
      </trkpt>
      <trkpt lat="45.9563" lon="4.95169">
        <ele>287.7</ele>
        <time>2023-09-24T14:11:59Z</time>
      </trkpt>
      <trkpt lat="45.95625" lon="4.95164">
        <ele>287.5</ele>
        <time>2023-09-24T14:12:00Z</time>
      </trkpt>
      <trkpt lat="45.9562" lon="4.9516">
        <ele>287.4</ele>
        <time>2023-09-24T14:12:01Z</time>
      </trkpt>
      <trkpt lat="45.95615" lon="4.95155">
        <ele>287.2</ele>
        <time>2023-09-24T14:12:02Z</time>
      </trkpt>
      <trkpt lat="45.95609" lon="4.95151">
        <ele>287</ele>
        <time>2023-09-24T14:12:03Z</time>
      </trkpt>
      <trkpt lat="45.95605" lon="4.95147">
        <ele>286.8</ele>
        <time>2023-09-24T14:12:04Z</time>
      </trkpt>
      <trkpt lat="45.95599" lon="4.95143">
        <ele>286.6</ele>
        <time>2023-09-24T14:12:05Z</time>
      </trkpt>
      <trkpt lat="45.95594" lon="4.95138">
        <ele>286.4</ele>
        <time>2023-09-24T14:12:06Z</time>
      </trkpt>
      <trkpt lat="45.95588" lon="4.95134">
        <ele>286.3</ele>
        <time>2023-09-24T14:12:07Z</time>
      </trkpt>
      <trkpt lat="45.95582" lon="4.9513">
        <ele>286.3</ele>
        <time>2023-09-24T14:12:08Z</time>
      </trkpt>
      <trkpt lat="45.95577" lon="4.95126">
        <ele>286.4</ele>
        <time>2023-09-24T14:12:09Z</time>
      </trkpt>
      <trkpt lat="45.95571" lon="4.95122">
        <ele>286.3</ele>
        <time>2023-09-24T14:12:10Z</time>
      </trkpt>
      <trkpt lat="45.95565" lon="4.95119">
        <ele>286.2</ele>
        <time>2023-09-24T14:12:11Z</time>
      </trkpt>
      <trkpt lat="45.95559" lon="4.95116">
        <ele>286.1</ele>
        <time>2023-09-24T14:12:12Z</time>
      </trkpt>
      <trkpt lat="45.95554" lon="4.95113">
        <ele>285.9</ele>
        <time>2023-09-24T14:12:13Z</time>
      </trkpt>
      <trkpt lat="45.95548" lon="4.9511">
        <ele>285.8</ele>
        <time>2023-09-24T14:12:14Z</time>
      </trkpt>
      <trkpt lat="45.95542" lon="4.95108">
        <ele>285.6</ele>
        <time>2023-09-24T14:12:15Z</time>
      </trkpt>
      <trkpt lat="45.95537" lon="4.95106">
        <ele>285.5</ele>
        <time>2023-09-24T14:12:16Z</time>
      </trkpt>
      <trkpt lat="45.95531" lon="4.95105">
        <ele>285.3</ele>
        <time>2023-09-24T14:12:17Z</time>
      </trkpt>
      <trkpt lat="45.95525" lon="4.95104">
        <ele>285.2</ele>
        <time>2023-09-24T14:12:18Z</time>
      </trkpt>
      <trkpt lat="45.9552" lon="4.95104">
        <ele>285.2</ele>
        <time>2023-09-24T14:12:19Z</time>
      </trkpt>
      <trkpt lat="45.95514" lon="4.95105">
        <ele>285.1</ele>
        <time>2023-09-24T14:12:20Z</time>
      </trkpt>
      <trkpt lat="45.95508" lon="4.95106">
        <ele>285.1</ele>
        <time>2023-09-24T14:12:21Z</time>
      </trkpt>
      <trkpt lat="45.95503" lon="4.95106">
        <ele>285</ele>
        <time>2023-09-24T14:12:22Z</time>
      </trkpt>
      <trkpt lat="45.95497" lon="4.95107">
        <ele>285</ele>
        <time>2023-09-24T14:12:23Z</time>
      </trkpt>
      <trkpt lat="45.95491" lon="4.95108">
        <ele>285</ele>
        <time>2023-09-24T14:12:24Z</time>
      </trkpt>
      <trkpt lat="45.95486" lon="4.95109">
        <ele>285</ele>
        <time>2023-09-24T14:12:25Z</time>
      </trkpt>
      <trkpt lat="45.95481" lon="4.9511">
        <ele>285</ele>
        <time>2023-09-24T14:12:26Z</time>
      </trkpt>
      <trkpt lat="45.95475" lon="4.95111">
        <ele>285</ele>
        <time>2023-09-24T14:12:27Z</time>
      </trkpt>
      <trkpt lat="45.9547" lon="4.95113">
        <ele>284.9</ele>
        <time>2023-09-24T14:12:28Z</time>
      </trkpt>
      <trkpt lat="45.95465" lon="4.95114">
        <ele>284.9</ele>
        <time>2023-09-24T14:12:29Z</time>
      </trkpt>
      <trkpt lat="45.95461" lon="4.95114">
        <ele>284.9</ele>
        <time>2023-09-24T14:12:30Z</time>
      </trkpt>
      <trkpt lat="45.95456" lon="4.95114">
        <ele>285</ele>
        <time>2023-09-24T14:12:31Z</time>
      </trkpt>
      <trkpt lat="45.95452" lon="4.95113">
        <ele>285</ele>
        <time>2023-09-24T14:12:32Z</time>
      </trkpt>
      <trkpt lat="45.95448" lon="4.95113">
        <ele>285</ele>
        <time>2023-09-24T14:12:33Z</time>
      </trkpt>
      <trkpt lat="45.95444" lon="4.95113">
        <ele>285</ele>
        <time>2023-09-24T14:12:34Z</time>
      </trkpt>
      <trkpt lat="45.9544" lon="4.95112">
        <ele>285.2</ele>
        <time>2023-09-24T14:12:35Z</time>
      </trkpt>
      <trkpt lat="45.95436" lon="4.95113">
        <ele>285.3</ele>
        <time>2023-09-24T14:12:36Z</time>
      </trkpt>
      <trkpt lat="45.95433" lon="4.95113">
        <ele>285.4</ele>
        <time>2023-09-24T14:12:37Z</time>
      </trkpt>
      <trkpt lat="45.9543" lon="4.95114">
        <ele>285.5</ele>
        <time>2023-09-24T14:12:38Z</time>
      </trkpt>
      <trkpt lat="45.95426" lon="4.95114">
        <ele>285.7</ele>
        <time>2023-09-24T14:12:39Z</time>
      </trkpt>
      <trkpt lat="45.95423" lon="4.95114">
        <ele>285.8</ele>
        <time>2023-09-24T14:12:40Z</time>
      </trkpt>
      <trkpt lat="45.95419" lon="4.95114">
        <ele>285.9</ele>
        <time>2023-09-24T14:12:41Z</time>
      </trkpt>
      <trkpt lat="45.95416" lon="4.95114">
        <ele>286</ele>
        <time>2023-09-24T14:12:42Z</time>
      </trkpt>
      <trkpt lat="45.95413" lon="4.95114">
        <ele>286.1</ele>
        <time>2023-09-24T14:12:43Z</time>
      </trkpt>
      <trkpt lat="45.9541" lon="4.95114">
        <ele>286.2</ele>
        <time>2023-09-24T14:12:44Z</time>
      </trkpt>
      <trkpt lat="45.95407" lon="4.95114">
        <ele>286.3</ele>
        <time>2023-09-24T14:12:45Z</time>
      </trkpt>
      <trkpt lat="45.95403" lon="4.95115">
        <ele>286.5</ele>
        <time>2023-09-24T14:12:46Z</time>
      </trkpt>
      <trkpt lat="45.95399" lon="4.95116">
        <ele>286.6</ele>
        <time>2023-09-24T14:12:47Z</time>
      </trkpt>
      <trkpt lat="45.95396" lon="4.95116">
        <ele>286.7</ele>
        <time>2023-09-24T14:12:48Z</time>
      </trkpt>
      <trkpt lat="45.95393" lon="4.95116">
        <ele>286.9</ele>
        <time>2023-09-24T14:12:49Z</time>
      </trkpt>
      <trkpt lat="45.9539" lon="4.95117">
        <ele>287</ele>
        <time>2023-09-24T14:12:50Z</time>
      </trkpt>
      <trkpt lat="45.95387" lon="4.95116">
        <ele>287.1</ele>
        <time>2023-09-24T14:12:51Z</time>
      </trkpt>
      <trkpt lat="45.95383" lon="4.95117">
        <ele>287.5</ele>
        <time>2023-09-24T14:12:52Z</time>
      </trkpt>
      <trkpt lat="45.95379" lon="4.95117">
        <ele>287.8</ele>
        <time>2023-09-24T14:12:53Z</time>
      </trkpt>
      <trkpt lat="45.95378" lon="4.95117">
        <ele>287.9</ele>
        <time>2023-09-24T14:12:54Z</time>
      </trkpt>
      <trkpt lat="45.95374" lon="4.95118">
        <ele>288.2</ele>
        <time>2023-09-24T14:12:55Z</time>
      </trkpt>
      <trkpt lat="45.95372" lon="4.95118">
        <ele>288.4</ele>
        <time>2023-09-24T14:12:56Z</time>
      </trkpt>
      <trkpt lat="45.95369" lon="4.9512">
        <ele>288.7</ele>
        <time>2023-09-24T14:12:57Z</time>
      </trkpt>
      <trkpt lat="45.95366" lon="4.9512">
        <ele>288.9</ele>
        <time>2023-09-24T14:12:58Z</time>
      </trkpt>
      <trkpt lat="45.95364" lon="4.9512">
        <ele>289.1</ele>
        <time>2023-09-24T14:12:59Z</time>
      </trkpt>
      <trkpt lat="45.9536" lon="4.9512">
        <ele>289.4</ele>
        <time>2023-09-24T14:13:00Z</time>
      </trkpt>
      <trkpt lat="45.95358" lon="4.9512">
        <ele>289.7</ele>
        <time>2023-09-24T14:13:01Z</time>
      </trkpt>
      <trkpt lat="45.95353" lon="4.95121">
        <ele>290.2</ele>
        <time>2023-09-24T14:13:02Z</time>
      </trkpt>
      <trkpt lat="45.9535" lon="4.95121">
        <ele>290.6</ele>
        <time>2023-09-24T14:13:03Z</time>
      </trkpt>
      <trkpt lat="45.95349" lon="4.95122">
        <ele>290.7</ele>
        <time>2023-09-24T14:13:04Z</time>
      </trkpt>
      <trkpt lat="45.95345" lon="4.95122">
        <ele>291.1</ele>
        <time>2023-09-24T14:13:05Z</time>
      </trkpt>
      <trkpt lat="45.95342" lon="4.95123">
        <ele>291.5</ele>
        <time>2023-09-24T14:13:06Z</time>
      </trkpt>
      <trkpt lat="45.95339" lon="4.95123">
        <ele>291.8</ele>
        <time>2023-09-24T14:13:07Z</time>
      </trkpt>
      <trkpt lat="45.95335" lon="4.95123">
        <ele>292.2</ele>
        <time>2023-09-24T14:13:08Z</time>
      </trkpt>
      <trkpt lat="45.95332" lon="4.95124">
        <ele>292.5</ele>
        <time>2023-09-24T14:13:09Z</time>
      </trkpt>
      <trkpt lat="45.95329" lon="4.95126">
        <ele>292.8</ele>
        <time>2023-09-24T14:13:10Z</time>
      </trkpt>
      <trkpt lat="45.95326" lon="4.95126">
        <ele>292.9</ele>
        <time>2023-09-24T14:13:11Z</time>
      </trkpt>
      <trkpt lat="45.95323" lon="4.95127">
        <ele>293.1</ele>
        <time>2023-09-24T14:13:12Z</time>
      </trkpt>
      <trkpt lat="45.95319" lon="4.95129">
        <ele>293.3</ele>
        <time>2023-09-24T14:13:13Z</time>
      </trkpt>
      <trkpt lat="45.95316" lon="4.95129">
        <ele>293.5</ele>
        <time>2023-09-24T14:13:14Z</time>
      </trkpt>
      <trkpt lat="45.95312" lon="4.95131">
        <ele>293.7</ele>
        <time>2023-09-24T14:13:15Z</time>
      </trkpt>
      <trkpt lat="45.95309" lon="4.95132">
        <ele>293.8</ele>
        <time>2023-09-24T14:13:16Z</time>
      </trkpt>
      <trkpt lat="45.95305" lon="4.95133">
        <ele>294</ele>
        <time>2023-09-24T14:13:17Z</time>
      </trkpt>
      <trkpt lat="45.95302" lon="4.95135">
        <ele>294.1</ele>
        <time>2023-09-24T14:13:18Z</time>
      </trkpt>
      <trkpt lat="45.95299" lon="4.95135">
        <ele>294.2</ele>
        <time>2023-09-24T14:13:19Z</time>
      </trkpt>
      <trkpt lat="45.95295" lon="4.95136">
        <ele>294.3</ele>
        <time>2023-09-24T14:13:20Z</time>
      </trkpt>
      <trkpt lat="45.95291" lon="4.95137">
        <ele>294.5</ele>
        <time>2023-09-24T14:13:21Z</time>
      </trkpt>
      <trkpt lat="45.95288" lon="4.95137">
        <ele>294.6</ele>
        <time>2023-09-24T14:13:22Z</time>
      </trkpt>
      <trkpt lat="45.95284" lon="4.95138">
        <ele>294.8</ele>
        <time>2023-09-24T14:13:23Z</time>
      </trkpt>
      <trkpt lat="45.95281" lon="4.95139">
        <ele>294.9</ele>
        <time>2023-09-24T14:13:24Z</time>
      </trkpt>
      <trkpt lat="45.95278" lon="4.9514">
        <ele>295</ele>
        <time>2023-09-24T14:13:25Z</time>
      </trkpt>
      <trkpt lat="45.95274" lon="4.95142">
        <ele>294.9</ele>
        <time>2023-09-24T14:13:26Z</time>
      </trkpt>
      <trkpt lat="45.9527" lon="4.95142">
        <ele>294.7</ele>
        <time>2023-09-24T14:13:27Z</time>
      </trkpt>
      <trkpt lat="45.95266" lon="4.95142">
        <ele>294.6</ele>
        <time>2023-09-24T14:13:28Z</time>
      </trkpt>
      <trkpt lat="45.95262" lon="4.95142">
        <ele>294.4</ele>
        <time>2023-09-24T14:13:29Z</time>
      </trkpt>
      <trkpt lat="45.95258" lon="4.95143">
        <ele>294.3</ele>
        <time>2023-09-24T14:13:30Z</time>
      </trkpt>
      <trkpt lat="45.95254" lon="4.95142">
        <ele>294.1</ele>
        <time>2023-09-24T14:13:31Z</time>
      </trkpt>
      <trkpt lat="45.9525" lon="4.95141">
        <ele>294</ele>
        <time>2023-09-24T14:13:32Z</time>
      </trkpt>
      <trkpt lat="45.95245" lon="4.95141">
        <ele>293.8</ele>
        <time>2023-09-24T14:13:33Z</time>
      </trkpt>
      <trkpt lat="45.9524" lon="4.95142">
        <ele>293.6</ele>
        <time>2023-09-24T14:13:34Z</time>
      </trkpt>
      <trkpt lat="45.95235" lon="4.95143">
        <ele>293.5</ele>
        <time>2023-09-24T14:13:35Z</time>
      </trkpt>
      <trkpt lat="45.9523" lon="4.95143">
        <ele>293.3</ele>
        <time>2023-09-24T14:13:36Z</time>
      </trkpt>
      <trkpt lat="45.95225" lon="4.95144">
        <ele>293.1</ele>
        <time>2023-09-24T14:13:37Z</time>
      </trkpt>
      <trkpt lat="45.95219" lon="4.95145">
        <ele>292.9</ele>
        <time>2023-09-24T14:13:38Z</time>
      </trkpt>
      <trkpt lat="45.95214" lon="4.95146">
        <ele>292.7</ele>
        <time>2023-09-24T14:13:39Z</time>
      </trkpt>
      <trkpt lat="45.95209" lon="4.95147">
        <ele>292.5</ele>
        <time>2023-09-24T14:13:40Z</time>
      </trkpt>
      <trkpt lat="45.95203" lon="4.95148">
        <ele>292.3</ele>
        <time>2023-09-24T14:13:41Z</time>
      </trkpt>
      <trkpt lat="45.95197" lon="4.95148">
        <ele>292.1</ele>
        <time>2023-09-24T14:13:42Z</time>
      </trkpt>
      <trkpt lat="45.95192" lon="4.95149">
        <ele>292</ele>
        <time>2023-09-24T14:13:43Z</time>
      </trkpt>
      <trkpt lat="45.95186" lon="4.95151">
        <ele>291.9</ele>
        <time>2023-09-24T14:13:44Z</time>
      </trkpt>
      <trkpt lat="45.9518" lon="4.95151">
        <ele>291.8</ele>
        <time>2023-09-24T14:13:45Z</time>
      </trkpt>
      <trkpt lat="45.95174" lon="4.95152">
        <ele>291.7</ele>
        <time>2023-09-24T14:13:46Z</time>
      </trkpt>
      <trkpt lat="45.95169" lon="4.95153">
        <ele>291.5</ele>
        <time>2023-09-24T14:13:47Z</time>
      </trkpt>
      <trkpt lat="45.95163" lon="4.95154">
        <ele>291.3</ele>
        <time>2023-09-24T14:13:48Z</time>
      </trkpt>
      <trkpt lat="45.95158" lon="4.95154">
        <ele>291.1</ele>
        <time>2023-09-24T14:13:49Z</time>
      </trkpt>
      <trkpt lat="45.95152" lon="4.95155">
        <ele>290.9</ele>
        <time>2023-09-24T14:13:50Z</time>
      </trkpt>
      <trkpt lat="45.95147" lon="4.95156">
        <ele>290.7</ele>
        <time>2023-09-24T14:13:51Z</time>
      </trkpt>
      <trkpt lat="45.95142" lon="4.95156">
        <ele>290.5</ele>
        <time>2023-09-24T14:13:52Z</time>
      </trkpt>
      <trkpt lat="45.95137" lon="4.95156">
        <ele>290.4</ele>
        <time>2023-09-24T14:13:53Z</time>
      </trkpt>
      <trkpt lat="45.95132" lon="4.95156">
        <ele>290.3</ele>
        <time>2023-09-24T14:13:54Z</time>
      </trkpt>
      <trkpt lat="45.95127" lon="4.95158">
        <ele>290.2</ele>
        <time>2023-09-24T14:13:55Z</time>
      </trkpt>
      <trkpt lat="45.95122" lon="4.95159">
        <ele>290.1</ele>
        <time>2023-09-24T14:13:56Z</time>
      </trkpt>
      <trkpt lat="45.95117" lon="4.95159">
        <ele>290.1</ele>
        <time>2023-09-24T14:13:57Z</time>
      </trkpt>
      <trkpt lat="45.95112" lon="4.9516">
        <ele>290</ele>
        <time>2023-09-24T14:13:58Z</time>
      </trkpt>
      <trkpt lat="45.95107" lon="4.95161">
        <ele>289.9</ele>
        <time>2023-09-24T14:13:59Z</time>
      </trkpt>
      <trkpt lat="45.95103" lon="4.95161">
        <ele>289.8</ele>
        <time>2023-09-24T14:14:00Z</time>
      </trkpt>
      <trkpt lat="45.95098" lon="4.95162">
        <ele>289.6</ele>
        <time>2023-09-24T14:14:01Z</time>
      </trkpt>
      <trkpt lat="45.95094" lon="4.95162">
        <ele>289.5</ele>
        <time>2023-09-24T14:14:02Z</time>
      </trkpt>
      <trkpt lat="45.95089" lon="4.95163">
        <ele>289.3</ele>
        <time>2023-09-24T14:14:03Z</time>
      </trkpt>
      <trkpt lat="45.95085" lon="4.95164">
        <ele>289.2</ele>
        <time>2023-09-24T14:14:04Z</time>
      </trkpt>
      <trkpt lat="45.9508" lon="4.95164">
        <ele>289.1</ele>
        <time>2023-09-24T14:14:05Z</time>
      </trkpt>
      <trkpt lat="45.95075" lon="4.95165">
        <ele>289</ele>
        <time>2023-09-24T14:14:06Z</time>
      </trkpt>
      <trkpt lat="45.9507" lon="4.95166">
        <ele>289</ele>
        <time>2023-09-24T14:14:07Z</time>
      </trkpt>
      <trkpt lat="45.95066" lon="4.95166">
        <ele>289</ele>
        <time>2023-09-24T14:14:08Z</time>
      </trkpt>
      <trkpt lat="45.9506" lon="4.95167">
        <ele>289</ele>
        <time>2023-09-24T14:14:09Z</time>
      </trkpt>
      <trkpt lat="45.95056" lon="4.95168">
        <ele>289</ele>
        <time>2023-09-24T14:14:10Z</time>
      </trkpt>
      <trkpt lat="45.95051" lon="4.95169">
        <ele>289</ele>
        <time>2023-09-24T14:14:11Z</time>
      </trkpt>
      <trkpt lat="45.95046" lon="4.95169">
        <ele>289</ele>
        <time>2023-09-24T14:14:12Z</time>
      </trkpt>
      <trkpt lat="45.95041" lon="4.9517">
        <ele>288.9</ele>
        <time>2023-09-24T14:14:13Z</time>
      </trkpt>
      <trkpt lat="45.95037" lon="4.9517">
        <ele>288.9</ele>
        <time>2023-09-24T14:14:14Z</time>
      </trkpt>
      <trkpt lat="45.95032" lon="4.95171">
        <ele>288.9</ele>
        <time>2023-09-24T14:14:15Z</time>
      </trkpt>
      <trkpt lat="45.95028" lon="4.95174">
        <ele>288.7</ele>
        <time>2023-09-24T14:14:16Z</time>
      </trkpt>
      <trkpt lat="45.95024" lon="4.95176">
        <ele>288.7</ele>
        <time>2023-09-24T14:14:17Z</time>
      </trkpt>
      <trkpt lat="45.9502" lon="4.95177">
        <ele>288.7</ele>
        <time>2023-09-24T14:14:18Z</time>
      </trkpt>
      <trkpt lat="45.95017" lon="4.95176">
        <ele>288.8</ele>
        <time>2023-09-24T14:14:19Z</time>
      </trkpt>
      <trkpt lat="45.95013" lon="4.95177">
        <ele>288.8</ele>
        <time>2023-09-24T14:14:20Z</time>
      </trkpt>
      <trkpt lat="45.95009" lon="4.95177">
        <ele>288.9</ele>
        <time>2023-09-24T14:14:21Z</time>
      </trkpt>
      <trkpt lat="45.95005" lon="4.95179">
        <ele>288.9</ele>
        <time>2023-09-24T14:14:22Z</time>
      </trkpt>
      <trkpt lat="45.95003" lon="4.95182">
        <ele>288.9</ele>
        <time>2023-09-24T14:14:23Z</time>
      </trkpt>
      <trkpt lat="45.95" lon="4.95183">
        <ele>289</ele>
        <time>2023-09-24T14:14:24Z</time>
      </trkpt>
      <trkpt lat="45.94998" lon="4.95186">
        <ele>289</ele>
        <time>2023-09-24T14:14:25Z</time>
      </trkpt>
      <trkpt lat="45.94997" lon="4.95188">
        <ele>289</ele>
        <time>2023-09-24T14:14:26Z</time>
      </trkpt>
      <trkpt lat="45.94994" lon="4.95192">
        <ele>289</ele>
        <time>2023-09-24T14:14:27Z</time>
      </trkpt>
      <trkpt lat="45.94993" lon="4.95193">
        <ele>289</ele>
        <time>2023-09-24T14:14:28Z</time>
      </trkpt>
      <trkpt lat="45.9499" lon="4.95196">
        <ele>289</ele>
        <time>2023-09-24T14:14:29Z</time>
      </trkpt>
      <trkpt lat="45.94987" lon="4.95198">
        <ele>288.9</ele>
        <time>2023-09-24T14:14:30Z</time>
      </trkpt>
      <trkpt lat="45.94985" lon="4.95201">
        <ele>288.9</ele>
        <time>2023-09-24T14:14:31Z</time>
      </trkpt>
      <trkpt lat="45.94982" lon="4.95204">
        <ele>288.9</ele>
        <time>2023-09-24T14:14:32Z</time>
      </trkpt>
      <trkpt lat="45.9498" lon="4.95206">
        <ele>288.9</ele>
        <time>2023-09-24T14:14:33Z</time>
      </trkpt>
      <trkpt lat="45.94977" lon="4.95208">
        <ele>288.9</ele>
        <time>2023-09-24T14:14:34Z</time>
      </trkpt>
      <trkpt lat="45.94974" lon="4.9521">
        <ele>289</ele>
        <time>2023-09-24T14:14:35Z</time>
      </trkpt>
      <trkpt lat="45.94972" lon="4.95214">
        <ele>289</ele>
        <time>2023-09-24T14:14:36Z</time>
      </trkpt>
      <trkpt lat="45.94969" lon="4.95217">
        <ele>289</ele>
        <time>2023-09-24T14:14:37Z</time>
      </trkpt>
      <trkpt lat="45.94965" lon="4.95219">
        <ele>289</ele>
        <time>2023-09-24T14:14:38Z</time>
      </trkpt>
      <trkpt lat="45.94962" lon="4.95222">
        <ele>289</ele>
        <time>2023-09-24T14:14:39Z</time>
      </trkpt>
      <trkpt lat="45.94959" lon="4.95225">
        <ele>289</ele>
        <time>2023-09-24T14:14:40Z</time>
      </trkpt>
      <trkpt lat="45.94956" lon="4.95228">
        <ele>289</ele>
        <time>2023-09-24T14:14:41Z</time>
      </trkpt>
      <trkpt lat="45.94952" lon="4.95229">
        <ele>289</ele>
        <time>2023-09-24T14:14:42Z</time>
      </trkpt>
      <trkpt lat="45.94948" lon="4.95231">
        <ele>289</ele>
        <time>2023-09-24T14:14:43Z</time>
      </trkpt>
      <trkpt lat="45.94945" lon="4.95235">
        <ele>289</ele>
        <time>2023-09-24T14:14:44Z</time>
      </trkpt>
      <trkpt lat="45.94942" lon="4.95238">
        <ele>289</ele>
        <time>2023-09-24T14:14:45Z</time>
      </trkpt>
      <trkpt lat="45.94939" lon="4.95242">
        <ele>289</ele>
        <time>2023-09-24T14:14:46Z</time>
      </trkpt>
      <trkpt lat="45.94935" lon="4.95245">
        <ele>289</ele>
        <time>2023-09-24T14:14:47Z</time>
      </trkpt>
      <trkpt lat="45.94932" lon="4.95247">
        <ele>289</ele>
        <time>2023-09-24T14:14:48Z</time>
      </trkpt>
      <trkpt lat="45.94929" lon="4.9525">
        <ele>289</ele>
        <time>2023-09-24T14:14:49Z</time>
      </trkpt>
      <trkpt lat="45.94926" lon="4.95253">
        <ele>289</ele>
        <time>2023-09-24T14:14:50Z</time>
      </trkpt>
      <trkpt lat="45.94922" lon="4.95256">
        <ele>289</ele>
        <time>2023-09-24T14:14:51Z</time>
      </trkpt>
      <trkpt lat="45.94919" lon="4.95259">
        <ele>289</ele>
        <time>2023-09-24T14:14:52Z</time>
      </trkpt>
      <trkpt lat="45.94916" lon="4.95262">
        <ele>289</ele>
        <time>2023-09-24T14:14:53Z</time>
      </trkpt>
      <trkpt lat="45.94913" lon="4.95265">
        <ele>289</ele>
        <time>2023-09-24T14:14:54Z</time>
      </trkpt>
      <trkpt lat="45.9491" lon="4.95269">
        <ele>289</ele>
        <time>2023-09-24T14:14:55Z</time>
      </trkpt>
      <trkpt lat="45.94907" lon="4.95272">
        <ele>289</ele>
        <time>2023-09-24T14:14:56Z</time>
      </trkpt>
      <trkpt lat="45.94903" lon="4.95275">
        <ele>289</ele>
        <time>2023-09-24T14:14:57Z</time>
      </trkpt>
      <trkpt lat="45.949" lon="4.95279">
        <ele>289</ele>
        <time>2023-09-24T14:14:58Z</time>
      </trkpt>
      <trkpt lat="45.94897" lon="4.95282">
        <ele>289</ele>
        <time>2023-09-24T14:14:59Z</time>
      </trkpt>
      <trkpt lat="45.94894" lon="4.95286">
        <ele>289</ele>
        <time>2023-09-24T14:15:00Z</time>
      </trkpt>
      <trkpt lat="45.94891" lon="4.95289">
        <ele>289</ele>
        <time>2023-09-24T14:15:01Z</time>
      </trkpt>
      <trkpt lat="45.94888" lon="4.95293">
        <ele>289</ele>
        <time>2023-09-24T14:15:02Z</time>
      </trkpt>
      <trkpt lat="45.94885" lon="4.95297">
        <ele>289</ele>
        <time>2023-09-24T14:15:03Z</time>
      </trkpt>
      <trkpt lat="45.94881" lon="4.95298">
        <ele>289.1</ele>
        <time>2023-09-24T14:15:04Z</time>
      </trkpt>
      <trkpt lat="45.94877" lon="4.95301">
        <ele>289.1</ele>
        <time>2023-09-24T14:15:05Z</time>
      </trkpt>
      <trkpt lat="45.94875" lon="4.95305">
        <ele>289</ele>
        <time>2023-09-24T14:15:06Z</time>
      </trkpt>
      <trkpt lat="45.94871" lon="4.95309">
        <ele>289</ele>
        <time>2023-09-24T14:15:07Z</time>
      </trkpt>
      <trkpt lat="45.94868" lon="4.95312">
        <ele>289</ele>
        <time>2023-09-24T14:15:08Z</time>
      </trkpt>
      <trkpt lat="45.94864" lon="4.95315">
        <ele>289</ele>
        <time>2023-09-24T14:15:09Z</time>
      </trkpt>
      <trkpt lat="45.9486" lon="4.95318">
        <ele>289</ele>
        <time>2023-09-24T14:15:10Z</time>
      </trkpt>
      <trkpt lat="45.94857" lon="4.95321">
        <ele>289.1</ele>
        <time>2023-09-24T14:15:11Z</time>
      </trkpt>
      <trkpt lat="45.94853" lon="4.95324">
        <ele>289.1</ele>
        <time>2023-09-24T14:15:12Z</time>
      </trkpt>
      <trkpt lat="45.9485" lon="4.95328">
        <ele>289.1</ele>
        <time>2023-09-24T14:15:13Z</time>
      </trkpt>
      <trkpt lat="45.94846" lon="4.95332">
        <ele>289</ele>
        <time>2023-09-24T14:15:14Z</time>
      </trkpt>
      <trkpt lat="45.94843" lon="4.95335">
        <ele>289</ele>
        <time>2023-09-24T14:15:15Z</time>
      </trkpt>
      <trkpt lat="45.9484" lon="4.95339">
        <ele>289</ele>
        <time>2023-09-24T14:15:16Z</time>
      </trkpt>
      <trkpt lat="45.94837" lon="4.95343">
        <ele>289</ele>
        <time>2023-09-24T14:15:17Z</time>
      </trkpt>
      <trkpt lat="45.94833" lon="4.95346">
        <ele>289</ele>
        <time>2023-09-24T14:15:18Z</time>
      </trkpt>
      <trkpt lat="45.94829" lon="4.95349">
        <ele>289.1</ele>
        <time>2023-09-24T14:15:19Z</time>
      </trkpt>
      <trkpt lat="45.94826" lon="4.95353">
        <ele>289.1</ele>
        <time>2023-09-24T14:15:20Z</time>
      </trkpt>
      <trkpt lat="45.94822" lon="4.95357">
        <ele>289.1</ele>
        <time>2023-09-24T14:15:21Z</time>
      </trkpt>
      <trkpt lat="45.94819" lon="4.9536">
        <ele>289</ele>
        <time>2023-09-24T14:15:22Z</time>
      </trkpt>
      <trkpt lat="45.94816" lon="4.95364">
        <ele>289</ele>
        <time>2023-09-24T14:15:23Z</time>
      </trkpt>
      <trkpt lat="45.94812" lon="4.95368">
        <ele>289</ele>
        <time>2023-09-24T14:15:24Z</time>
      </trkpt>
      <trkpt lat="45.94809" lon="4.95372">
        <ele>289</ele>
        <time>2023-09-24T14:15:25Z</time>
      </trkpt>
      <trkpt lat="45.94806" lon="4.95376">
        <ele>289</ele>
        <time>2023-09-24T14:15:26Z</time>
      </trkpt>
      <trkpt lat="45.94803" lon="4.95379">
        <ele>289.1</ele>
        <time>2023-09-24T14:15:27Z</time>
      </trkpt>
      <trkpt lat="45.948" lon="4.95383">
        <ele>289.2</ele>
        <time>2023-09-24T14:15:28Z</time>
      </trkpt>
      <trkpt lat="45.94796" lon="4.95386">
        <ele>289.3</ele>
        <time>2023-09-24T14:15:29Z</time>
      </trkpt>
      <trkpt lat="45.94792" lon="4.9539">
        <ele>289.5</ele>
        <time>2023-09-24T14:15:30Z</time>
      </trkpt>
      <trkpt lat="45.94789" lon="4.95394">
        <ele>289.5</ele>
        <time>2023-09-24T14:15:31Z</time>
      </trkpt>
      <trkpt lat="45.94786" lon="4.95398">
        <ele>289.5</ele>
        <time>2023-09-24T14:15:32Z</time>
      </trkpt>
      <trkpt lat="45.94783" lon="4.95401">
        <ele>289.5</ele>
        <time>2023-09-24T14:15:33Z</time>
      </trkpt>
      <trkpt lat="45.94779" lon="4.95405">
        <ele>289.4</ele>
        <time>2023-09-24T14:15:34Z</time>
      </trkpt>
      <trkpt lat="45.94776" lon="4.9541">
        <ele>289.3</ele>
        <time>2023-09-24T14:15:35Z</time>
      </trkpt>
      <trkpt lat="45.94773" lon="4.95413">
        <ele>289.3</ele>
        <time>2023-09-24T14:15:36Z</time>
      </trkpt>
      <trkpt lat="45.94769" lon="4.95417">
        <ele>289.3</ele>
        <time>2023-09-24T14:15:37Z</time>
      </trkpt>
      <trkpt lat="45.94766" lon="4.95421">
        <ele>289.4</ele>
        <time>2023-09-24T14:15:38Z</time>
      </trkpt>
      <trkpt lat="45.94763" lon="4.95424">
        <ele>289.4</ele>
        <time>2023-09-24T14:15:39Z</time>
      </trkpt>
      <trkpt lat="45.94759" lon="4.95429">
        <ele>289.4</ele>
        <time>2023-09-24T14:15:40Z</time>
      </trkpt>
      <trkpt lat="45.94756" lon="4.95432">
        <ele>289.4</ele>
        <time>2023-09-24T14:15:41Z</time>
      </trkpt>
      <trkpt lat="45.94753" lon="4.95436">
        <ele>289.3</ele>
        <time>2023-09-24T14:15:42Z</time>
      </trkpt>
      <trkpt lat="45.94749" lon="4.9544">
        <ele>289.2</ele>
        <time>2023-09-24T14:15:43Z</time>
      </trkpt>
      <trkpt lat="45.94746" lon="4.95443">
        <ele>289.2</ele>
        <time>2023-09-24T14:15:44Z</time>
      </trkpt>
      <trkpt lat="45.94742" lon="4.95447">
        <ele>289.3</ele>
        <time>2023-09-24T14:15:45Z</time>
      </trkpt>
      <trkpt lat="45.94739" lon="4.95451">
        <ele>289.3</ele>
        <time>2023-09-24T14:15:46Z</time>
      </trkpt>
      <trkpt lat="45.94735" lon="4.95455">
        <ele>289.3</ele>
        <time>2023-09-24T14:15:47Z</time>
      </trkpt>
      <trkpt lat="45.94732" lon="4.95458">
        <ele>289.3</ele>
        <time>2023-09-24T14:15:48Z</time>
      </trkpt>
      <trkpt lat="45.94729" lon="4.95462">
        <ele>289.3</ele>
        <time>2023-09-24T14:15:49Z</time>
      </trkpt>
      <trkpt lat="45.94725" lon="4.95466">
        <ele>289.2</ele>
        <time>2023-09-24T14:15:50Z</time>
      </trkpt>
      <trkpt lat="45.94722" lon="4.9547">
        <ele>289.1</ele>
        <time>2023-09-24T14:15:51Z</time>
      </trkpt>
      <trkpt lat="45.94718" lon="4.95473">
        <ele>289.1</ele>
        <time>2023-09-24T14:15:52Z</time>
      </trkpt>
      <trkpt lat="45.94714" lon="4.95476">
        <ele>289.3</ele>
        <time>2023-09-24T14:15:53Z</time>
      </trkpt>
      <trkpt lat="45.94711" lon="4.95479">
        <ele>289.3</ele>
        <time>2023-09-24T14:15:54Z</time>
      </trkpt>
      <trkpt lat="45.94707" lon="4.95482">
        <ele>289.4</ele>
        <time>2023-09-24T14:15:55Z</time>
      </trkpt>
      <trkpt lat="45.94704" lon="4.95484">
        <ele>289.4</ele>
        <time>2023-09-24T14:15:56Z</time>
      </trkpt>
      <trkpt lat="45.947" lon="4.95486">
        <ele>289.4</ele>
        <time>2023-09-24T14:15:57Z</time>
      </trkpt>
      <trkpt lat="45.94696" lon="4.95489">
        <ele>289.4</ele>
        <time>2023-09-24T14:15:58Z</time>
      </trkpt>
      <trkpt lat="45.94692" lon="4.95491">
        <ele>289.4</ele>
        <time>2023-09-24T14:15:59Z</time>
      </trkpt>
      <trkpt lat="45.94688" lon="4.95492">
        <ele>289.5</ele>
        <time>2023-09-24T14:16:00Z</time>
      </trkpt>
      <trkpt lat="45.94684" lon="4.95494">
        <ele>289.5</ele>
        <time>2023-09-24T14:16:01Z</time>
      </trkpt>
      <trkpt lat="45.9468" lon="4.95496">
        <ele>289.6</ele>
        <time>2023-09-24T14:16:02Z</time>
      </trkpt>
      <trkpt lat="45.94676" lon="4.95498">
        <ele>289.7</ele>
        <time>2023-09-24T14:16:03Z</time>
      </trkpt>
      <trkpt lat="45.94672" lon="4.95499">
        <ele>289.8</ele>
        <time>2023-09-24T14:16:04Z</time>
      </trkpt>
      <trkpt lat="45.94668" lon="4.955">
        <ele>290</ele>
        <time>2023-09-24T14:16:05Z</time>
      </trkpt>
      <trkpt lat="45.94663" lon="4.95502">
        <ele>289.9</ele>
        <time>2023-09-24T14:16:06Z</time>
      </trkpt>
      <trkpt lat="45.94659" lon="4.95503">
        <ele>289.9</ele>
        <time>2023-09-24T14:16:07Z</time>
      </trkpt>
      <trkpt lat="45.94655" lon="4.95505">
        <ele>289.9</ele>
        <time>2023-09-24T14:16:08Z</time>
      </trkpt>
      <trkpt lat="45.94651" lon="4.95507">
        <ele>289.9</ele>
        <time>2023-09-24T14:16:09Z</time>
      </trkpt>
      <trkpt lat="45.94647" lon="4.95509">
        <ele>289.9</ele>
        <time>2023-09-24T14:16:10Z</time>
      </trkpt>
      <trkpt lat="45.94643" lon="4.9551">
        <ele>289.9</ele>
        <time>2023-09-24T14:16:11Z</time>
      </trkpt>
      <trkpt lat="45.94639" lon="4.95512">
        <ele>290</ele>
        <time>2023-09-24T14:16:12Z</time>
      </trkpt>
      <trkpt lat="45.94635" lon="4.95514">
        <ele>290</ele>
        <time>2023-09-24T14:16:13Z</time>
      </trkpt>
      <trkpt lat="45.94631" lon="4.95516">
        <ele>290</ele>
        <time>2023-09-24T14:16:14Z</time>
      </trkpt>
      <trkpt lat="45.94627" lon="4.95517">
        <ele>290</ele>
        <time>2023-09-24T14:16:15Z</time>
      </trkpt>
      <trkpt lat="45.94623" lon="4.95519">
        <ele>290</ele>
        <time>2023-09-24T14:16:16Z</time>
      </trkpt>
      <trkpt lat="45.94619" lon="4.9552">
        <ele>290</ele>
        <time>2023-09-24T14:16:17Z</time>
      </trkpt>
      <trkpt lat="45.94615" lon="4.95522">
        <ele>290</ele>
        <time>2023-09-24T14:16:18Z</time>
      </trkpt>
      <trkpt lat="45.94611" lon="4.95524">
        <ele>290</ele>
        <time>2023-09-24T14:16:19Z</time>
      </trkpt>
      <trkpt lat="45.94607" lon="4.95526">
        <ele>290.1</ele>
        <time>2023-09-24T14:16:20Z</time>
      </trkpt>
      <trkpt lat="45.94603" lon="4.95528">
        <ele>290.3</ele>
        <time>2023-09-24T14:16:21Z</time>
      </trkpt>
      <trkpt lat="45.94599" lon="4.9553">
        <ele>290.4</ele>
        <time>2023-09-24T14:16:22Z</time>
      </trkpt>
      <trkpt lat="45.94595" lon="4.95532">
        <ele>290.5</ele>
        <time>2023-09-24T14:16:23Z</time>
      </trkpt>
      <trkpt lat="45.94591" lon="4.95533">
        <ele>290.6</ele>
        <time>2023-09-24T14:16:24Z</time>
      </trkpt>
      <trkpt lat="45.94587" lon="4.95535">
        <ele>290.6</ele>
        <time>2023-09-24T14:16:25Z</time>
      </trkpt>
      <trkpt lat="45.94583" lon="4.95537">
        <ele>290.7</ele>
        <time>2023-09-24T14:16:26Z</time>
      </trkpt>
      <trkpt lat="45.94579" lon="4.95538">
        <ele>290.7</ele>
        <time>2023-09-24T14:16:27Z</time>
      </trkpt>
      <trkpt lat="45.94575" lon="4.9554">
        <ele>290.7</ele>
        <time>2023-09-24T14:16:28Z</time>
      </trkpt>
      <trkpt lat="45.94571" lon="4.95542">
        <ele>290.7</ele>
        <time>2023-09-24T14:16:29Z</time>
      </trkpt>
      <trkpt lat="45.94567" lon="4.95544">
        <ele>290.8</ele>
        <time>2023-09-24T14:16:30Z</time>
      </trkpt>
      <trkpt lat="45.94562" lon="4.95546">
        <ele>290.8</ele>
        <time>2023-09-24T14:16:31Z</time>
      </trkpt>
      <trkpt lat="45.94558" lon="4.95547">
        <ele>290.9</ele>
        <time>2023-09-24T14:16:32Z</time>
      </trkpt>
      <trkpt lat="45.94554" lon="4.95549">
        <ele>291</ele>
        <time>2023-09-24T14:16:33Z</time>
      </trkpt>
      <trkpt lat="45.9455" lon="4.95551">
        <ele>290.8</ele>
        <time>2023-09-24T14:16:34Z</time>
      </trkpt>
      <trkpt lat="45.94545" lon="4.95552">
        <ele>290.7</ele>
        <time>2023-09-24T14:16:35Z</time>
      </trkpt>
      <trkpt lat="45.94541" lon="4.95554">
        <ele>290.5</ele>
        <time>2023-09-24T14:16:36Z</time>
      </trkpt>
      <trkpt lat="45.94536" lon="4.95555">
        <ele>290.3</ele>
        <time>2023-09-24T14:16:37Z</time>
      </trkpt>
      <trkpt lat="45.94532" lon="4.95557">
        <ele>290.2</ele>
        <time>2023-09-24T14:16:38Z</time>
      </trkpt>
      <trkpt lat="45.94528" lon="4.95559">
        <ele>290</ele>
        <time>2023-09-24T14:16:39Z</time>
      </trkpt>
      <trkpt lat="45.94523" lon="4.95561">
        <ele>290.1</ele>
        <time>2023-09-24T14:16:40Z</time>
      </trkpt>
      <trkpt lat="45.94519" lon="4.95562">
        <ele>290.2</ele>
        <time>2023-09-24T14:16:41Z</time>
      </trkpt>
      <trkpt lat="45.94515" lon="4.95564">
        <ele>290.3</ele>
        <time>2023-09-24T14:16:42Z</time>
      </trkpt>
      <trkpt lat="45.94512" lon="4.95565">
        <ele>290.4</ele>
        <time>2023-09-24T14:16:43Z</time>
      </trkpt>
      <trkpt lat="45.94508" lon="4.95567">
        <ele>290.4</ele>
        <time>2023-09-24T14:16:44Z</time>
      </trkpt>
      <trkpt lat="45.94504" lon="4.95569">
        <ele>290.4</ele>
        <time>2023-09-24T14:16:45Z</time>
      </trkpt>
      <trkpt lat="45.94501" lon="4.95571">
        <ele>290.4</ele>
        <time>2023-09-24T14:16:46Z</time>
      </trkpt>
      <trkpt lat="45.94498" lon="4.95573">
        <ele>290.4</ele>
        <time>2023-09-24T14:16:47Z</time>
      </trkpt>
      <trkpt lat="45.94495" lon="4.95575">
        <ele>290.3</ele>
        <time>2023-09-24T14:16:48Z</time>
      </trkpt>
      <trkpt lat="45.94492" lon="4.95576">
        <ele>290.3</ele>
        <time>2023-09-24T14:16:49Z</time>
      </trkpt>
      <trkpt lat="45.94489" lon="4.95575">
        <ele>290.3</ele>
        <time>2023-09-24T14:16:50Z</time>
      </trkpt>
      <trkpt lat="45.94487" lon="4.95571">
        <ele>290.4</ele>
        <time>2023-09-24T14:16:51Z</time>
      </trkpt>
      <trkpt lat="45.94486" lon="4.95566">
        <ele>290.6</ele>
        <time>2023-09-24T14:16:52Z</time>
      </trkpt>
      <trkpt lat="45.94485" lon="4.95561">
        <ele>290.8</ele>
        <time>2023-09-24T14:16:53Z</time>
      </trkpt>
      <trkpt lat="45.94485" lon="4.95559">
        <ele>290.9</ele>
        <time>2023-09-24T14:16:54Z</time>
      </trkpt>
      <trkpt lat="45.94484" lon="4.95554">
        <ele>291</ele>
        <time>2023-09-24T14:16:55Z</time>
      </trkpt>
      <trkpt lat="45.94484" lon="4.95552">
        <ele>291</ele>
        <time>2023-09-24T14:16:56Z</time>
      </trkpt>
      <trkpt lat="45.94483" lon="4.95548">
        <ele>291</ele>
        <time>2023-09-24T14:16:57Z</time>
      </trkpt>
      <trkpt lat="45.94483" lon="4.95546">
        <ele>291</ele>
        <time>2023-09-24T14:16:58Z</time>
      </trkpt>
      <trkpt lat="45.94482" lon="4.95542">
        <ele>291</ele>
        <time>2023-09-24T14:16:59Z</time>
      </trkpt>
      <trkpt lat="45.94482" lon="4.95541">
        <ele>291</ele>
        <time>2023-09-24T14:17:00Z</time>
      </trkpt>
      <trkpt lat="45.94482" lon="4.95538">
        <ele>291</ele>
        <time>2023-09-24T14:17:01Z</time>
      </trkpt>
      <trkpt lat="45.94481" lon="4.95536">
        <ele>291</ele>
        <time>2023-09-24T14:17:02Z</time>
      </trkpt>
      <trkpt lat="45.94481" lon="4.95532">
        <ele>291</ele>
        <time>2023-09-24T14:17:03Z</time>
      </trkpt>
      <trkpt lat="45.94481" lon="4.9553">
        <ele>291</ele>
        <time>2023-09-24T14:17:04Z</time>
      </trkpt>
      <trkpt lat="45.94479" lon="4.95525">
        <ele>290.9</ele>
        <time>2023-09-24T14:17:05Z</time>
      </trkpt>
      <trkpt lat="45.94478" lon="4.95523">
        <ele>290.8</ele>
        <time>2023-09-24T14:17:06Z</time>
      </trkpt>
      <trkpt lat="45.94477" lon="4.95519">
        <ele>290.7</ele>
        <time>2023-09-24T14:17:07Z</time>
      </trkpt>
      <trkpt lat="45.94476" lon="4.95514">
        <ele>290.5</ele>
        <time>2023-09-24T14:17:08Z</time>
      </trkpt>
      <trkpt lat="45.94475" lon="4.95509">
        <ele>290.3</ele>
        <time>2023-09-24T14:17:09Z</time>
      </trkpt>
      <trkpt lat="45.94474" lon="4.95503">
        <ele>290.1</ele>
        <time>2023-09-24T14:17:10Z</time>
      </trkpt>
      <trkpt lat="45.94473" lon="4.95498">
        <ele>290</ele>
        <time>2023-09-24T14:17:11Z</time>
      </trkpt>
      <trkpt lat="45.94471" lon="4.95493">
        <ele>290</ele>
        <time>2023-09-24T14:17:12Z</time>
      </trkpt>
      <trkpt lat="45.9447" lon="4.95487">
        <ele>290</ele>
        <time>2023-09-24T14:17:13Z</time>
      </trkpt>
      <trkpt lat="45.94468" lon="4.95481">
        <ele>290</ele>
        <time>2023-09-24T14:17:14Z</time>
      </trkpt>
      <trkpt lat="45.94467" lon="4.95475">
        <ele>290</ele>
        <time>2023-09-24T14:17:15Z</time>
      </trkpt>
      <trkpt lat="45.94465" lon="4.95469">
        <ele>290</ele>
        <time>2023-09-24T14:17:16Z</time>
      </trkpt>
      <trkpt lat="45.94464" lon="4.95463">
        <ele>290</ele>
        <time>2023-09-24T14:17:17Z</time>
      </trkpt>
      <trkpt lat="45.94462" lon="4.95458">
        <ele>290</ele>
        <time>2023-09-24T14:17:18Z</time>
      </trkpt>
      <trkpt lat="45.9446" lon="4.95452">
        <ele>290</ele>
        <time>2023-09-24T14:17:19Z</time>
      </trkpt>
      <trkpt lat="45.94458" lon="4.95447">
        <ele>290</ele>
        <time>2023-09-24T14:17:20Z</time>
      </trkpt>
      <trkpt lat="45.94457" lon="4.95441">
        <ele>290</ele>
        <time>2023-09-24T14:17:21Z</time>
      </trkpt>
      <trkpt lat="45.94454" lon="4.95435">
        <ele>290</ele>
        <time>2023-09-24T14:17:22Z</time>
      </trkpt>
      <trkpt lat="45.94453" lon="4.9543">
        <ele>290</ele>
        <time>2023-09-24T14:17:23Z</time>
      </trkpt>
      <trkpt lat="45.94451" lon="4.95424">
        <ele>290</ele>
        <time>2023-09-24T14:17:24Z</time>
      </trkpt>
      <trkpt lat="45.94449" lon="4.95419">
        <ele>290</ele>
        <time>2023-09-24T14:17:25Z</time>
      </trkpt>
      <trkpt lat="45.94447" lon="4.95413">
        <ele>290</ele>
        <time>2023-09-24T14:17:26Z</time>
      </trkpt>
      <trkpt lat="45.94445" lon="4.95408">
        <ele>290</ele>
        <time>2023-09-24T14:17:27Z</time>
      </trkpt>
      <trkpt lat="45.94443" lon="4.95402">
        <ele>290</ele>
        <time>2023-09-24T14:17:28Z</time>
      </trkpt>
      <trkpt lat="45.94441" lon="4.95397">
        <ele>290</ele>
        <time>2023-09-24T14:17:29Z</time>
      </trkpt>
      <trkpt lat="45.94439" lon="4.95391">
        <ele>290</ele>
        <time>2023-09-24T14:17:30Z</time>
      </trkpt>
      <trkpt lat="45.94437" lon="4.95385">
        <ele>290</ele>
        <time>2023-09-24T14:17:31Z</time>
      </trkpt>
      <trkpt lat="45.94435" lon="4.9538">
        <ele>290</ele>
        <time>2023-09-24T14:17:32Z</time>
      </trkpt>
      <trkpt lat="45.94432" lon="4.95375">
        <ele>290</ele>
        <time>2023-09-24T14:17:33Z</time>
      </trkpt>
      <trkpt lat="45.9443" lon="4.9537">
        <ele>290</ele>
        <time>2023-09-24T14:17:34Z</time>
      </trkpt>
      <trkpt lat="45.94428" lon="4.95365">
        <ele>290</ele>
        <time>2023-09-24T14:17:35Z</time>
      </trkpt>
      <trkpt lat="45.94425" lon="4.9536">
        <ele>290</ele>
        <time>2023-09-24T14:17:36Z</time>
      </trkpt>
      <trkpt lat="45.94423" lon="4.95354">
        <ele>290</ele>
        <time>2023-09-24T14:17:37Z</time>
      </trkpt>
      <trkpt lat="45.94421" lon="4.95349">
        <ele>290</ele>
        <time>2023-09-24T14:17:38Z</time>
      </trkpt>
      <trkpt lat="45.94419" lon="4.95343">
        <ele>290</ele>
        <time>2023-09-24T14:17:39Z</time>
      </trkpt>
      <trkpt lat="45.94417" lon="4.95338">
        <ele>290</ele>
        <time>2023-09-24T14:17:40Z</time>
      </trkpt>
      <trkpt lat="45.94416" lon="4.95332">
        <ele>290</ele>
        <time>2023-09-24T14:17:41Z</time>
      </trkpt>
      <trkpt lat="45.94414" lon="4.95326">
        <ele>290</ele>
        <time>2023-09-24T14:17:42Z</time>
      </trkpt>
      <trkpt lat="45.94413" lon="4.9532">
        <ele>290</ele>
        <time>2023-09-24T14:17:43Z</time>
      </trkpt>
      <trkpt lat="45.94411" lon="4.95314">
        <ele>290</ele>
        <time>2023-09-24T14:17:44Z</time>
      </trkpt>
      <trkpt lat="45.94408" lon="4.95309">
        <ele>290</ele>
        <time>2023-09-24T14:17:45Z</time>
      </trkpt>
      <trkpt lat="45.94406" lon="4.95303">
        <ele>290</ele>
        <time>2023-09-24T14:17:46Z</time>
      </trkpt>
      <trkpt lat="45.94404" lon="4.95297">
        <ele>290</ele>
      </trkpt>
      <trkpt lat="45.94402" lon="4.95291">
        <ele>290</ele>
        <time>2023-09-24T14:17:47Z</time>
      </trkpt>
      <trkpt lat="45.944" lon="4.95286">
        <ele>290</ele>
        <time>2023-09-24T14:17:48Z</time>
      </trkpt>
      <trkpt lat="45.94398" lon="4.9528">
        <ele>290</ele>
        <time>2023-09-24T14:17:49Z</time>
      </trkpt>
      <trkpt lat="45.94395" lon="4.95275">
        <ele>290</ele>
        <time>2023-09-24T14:17:50Z</time>
      </trkpt>
      <trkpt lat="45.94392" lon="4.9527">
        <ele>290</ele>
        <time>2023-09-24T14:17:51Z</time>
      </trkpt>
      <trkpt lat="45.9439" lon="4.95265">
        <ele>290</ele>
        <time>2023-09-24T14:17:52Z</time>
      </trkpt>
      <trkpt lat="45.94386" lon="4.95261">
        <ele>290</ele>
        <time>2023-09-24T14:17:53Z</time>
      </trkpt>
      <trkpt lat="45.94383" lon="4.95257">
        <ele>290</ele>
        <time>2023-09-24T14:17:54Z</time>
      </trkpt>
      <trkpt lat="45.94379" lon="4.95252">
        <ele>290</ele>
        <time>2023-09-24T14:17:55Z</time>
      </trkpt>
      <trkpt lat="45.94376" lon="4.95248">
        <ele>290</ele>
        <time>2023-09-24T14:17:56Z</time>
      </trkpt>
      <trkpt lat="45.94372" lon="4.95244">
        <ele>290</ele>
        <time>2023-09-24T14:17:57Z</time>
      </trkpt>
      <trkpt lat="45.94369" lon="4.9524">
        <ele>290</ele>
        <time>2023-09-24T14:17:58Z</time>
      </trkpt>
      <trkpt lat="45.94365" lon="4.95236">
        <ele>290</ele>
        <time>2023-09-24T14:17:59Z</time>
      </trkpt>
      <trkpt lat="45.94363" lon="4.95231">
        <ele>290</ele>
        <time>2023-09-24T14:18:00Z</time>
      </trkpt>
      <trkpt lat="45.94361" lon="4.95226">
        <ele>290</ele>
        <time>2023-09-24T14:18:01Z</time>
      </trkpt>
      <trkpt lat="45.94359" lon="4.9522">
        <ele>290</ele>
        <time>2023-09-24T14:18:02Z</time>
      </trkpt>
      <trkpt lat="45.94358" lon="4.95213">
        <ele>290</ele>
        <time>2023-09-24T14:18:03Z</time>
      </trkpt>
      <trkpt lat="45.94357" lon="4.95207">
        <ele>290</ele>
        <time>2023-09-24T14:18:04Z</time>
      </trkpt>
      <trkpt lat="45.94355" lon="4.95202">
        <ele>290</ele>
        <time>2023-09-24T14:18:05Z</time>
      </trkpt>
      <trkpt lat="45.94354" lon="4.95196">
        <ele>290</ele>
        <time>2023-09-24T14:18:06Z</time>
      </trkpt>
      <trkpt lat="45.94353" lon="4.95189">
        <ele>290</ele>
        <time>2023-09-24T14:18:07Z</time>
      </trkpt>
      <trkpt lat="45.94352" lon="4.95183">
        <ele>290</ele>
        <time>2023-09-24T14:18:08Z</time>
      </trkpt>
      <trkpt lat="45.94351" lon="4.95176">
        <ele>290</ele>
        <time>2023-09-24T14:18:09Z</time>
      </trkpt>
      <trkpt lat="45.94351" lon="4.9517">
        <ele>290</ele>
        <time>2023-09-24T14:18:10Z</time>
      </trkpt>
      <trkpt lat="45.9435" lon="4.95165">
        <ele>290</ele>
        <time>2023-09-24T14:18:11Z</time>
      </trkpt>
      <trkpt lat="45.94348" lon="4.95159">
        <ele>290</ele>
        <time>2023-09-24T14:18:12Z</time>
      </trkpt>
      <trkpt lat="45.94347" lon="4.95154">
        <ele>290</ele>
        <time>2023-09-24T14:18:13Z</time>
      </trkpt>
      <trkpt lat="45.94346" lon="4.95148">
        <ele>290</ele>
        <time>2023-09-24T14:18:14Z</time>
      </trkpt>
      <trkpt lat="45.94345" lon="4.95143">
        <ele>290</ele>
        <time>2023-09-24T14:18:15Z</time>
      </trkpt>
      <trkpt lat="45.94343" lon="4.95137">
        <ele>290</ele>
        <time>2023-09-24T14:18:16Z</time>
      </trkpt>
      <trkpt lat="45.94341" lon="4.95131">
        <ele>290</ele>
        <time>2023-09-24T14:18:17Z</time>
      </trkpt>
      <trkpt lat="45.94339" lon="4.95125">
        <ele>290</ele>
        <time>2023-09-24T14:18:18Z</time>
      </trkpt>
      <trkpt lat="45.94338" lon="4.95119">
        <ele>290</ele>
        <time>2023-09-24T14:18:19Z</time>
      </trkpt>
      <trkpt lat="45.94338" lon="4.95112">
        <ele>290</ele>
        <time>2023-09-24T14:18:20Z</time>
      </trkpt>
      <trkpt lat="45.94338" lon="4.95105">
        <ele>290</ele>
        <time>2023-09-24T14:18:21Z</time>
      </trkpt>
      <trkpt lat="45.94338" lon="4.95098">
        <ele>290</ele>
        <time>2023-09-24T14:18:22Z</time>
      </trkpt>
      <trkpt lat="45.94338" lon="4.95092">
        <ele>290</ele>
        <time>2023-09-24T14:18:23Z</time>
      </trkpt>
      <trkpt lat="45.94338" lon="4.95085">
        <ele>290</ele>
        <time>2023-09-24T14:18:24Z</time>
      </trkpt>
      <trkpt lat="45.94338" lon="4.95078">
        <ele>290</ele>
        <time>2023-09-24T14:18:25Z</time>
      </trkpt>
      <trkpt lat="45.94338" lon="4.95071">
        <ele>289.9</ele>
        <time>2023-09-24T14:18:26Z</time>
      </trkpt>
      <trkpt lat="45.94337" lon="4.95064">
        <ele>289.9</ele>
        <time>2023-09-24T14:18:27Z</time>
      </trkpt>
      <trkpt lat="45.94338" lon="4.95058">
        <ele>289.8</ele>
        <time>2023-09-24T14:18:28Z</time>
      </trkpt>
      <trkpt lat="45.94337" lon="4.95051">
        <ele>289.9</ele>
        <time>2023-09-24T14:18:29Z</time>
      </trkpt>
      <trkpt lat="45.94336" lon="4.95043">
        <ele>289.9</ele>
        <time>2023-09-24T14:18:30Z</time>
      </trkpt>
      <trkpt lat="45.94336" lon="4.95037">
        <ele>289.9</ele>
        <time>2023-09-24T14:18:31Z</time>
      </trkpt>
      <trkpt lat="45.94337" lon="4.9503">
        <ele>289.9</ele>
        <time>2023-09-24T14:18:32Z</time>
      </trkpt>
      <trkpt lat="45.94336" lon="4.95024">
        <ele>289.8</ele>
        <time>2023-09-24T14:18:33Z</time>
      </trkpt>
      <trkpt lat="45.94336" lon="4.95017">
        <ele>289.6</ele>
        <time>2023-09-24T14:18:34Z</time>
      </trkpt>
      <trkpt lat="45.94335" lon="4.9501">
        <ele>289.3</ele>
        <time>2023-09-24T14:18:35Z</time>
      </trkpt>
      <trkpt lat="45.94334" lon="4.95003">
        <ele>289.1</ele>
        <time>2023-09-24T14:18:36Z</time>
      </trkpt>
      <trkpt lat="45.94333" lon="4.94997">
        <ele>289</ele>
        <time>2023-09-24T14:18:37Z</time>
      </trkpt>
      <trkpt lat="45.94332" lon="4.94989">
        <ele>289</ele>
        <time>2023-09-24T14:18:38Z</time>
      </trkpt>
      <trkpt lat="45.94331" lon="4.94983">
        <ele>289</ele>
        <time>2023-09-24T14:18:39Z</time>
      </trkpt>
      <trkpt lat="45.9433" lon="4.94976">
        <ele>289</ele>
        <time>2023-09-24T14:18:40Z</time>
      </trkpt>
      <trkpt lat="45.94329" lon="4.94969">
        <ele>289</ele>
        <time>2023-09-24T14:18:41Z</time>
      </trkpt>
      <trkpt lat="45.94328" lon="4.94963">
        <ele>289</ele>
        <time>2023-09-24T14:18:42Z</time>
      </trkpt>
      <trkpt lat="45.94327" lon="4.94956">
        <ele>289</ele>
        <time>2023-09-24T14:18:43Z</time>
      </trkpt>
      <trkpt lat="45.94326" lon="4.94949">
        <ele>289</ele>
        <time>2023-09-24T14:18:44Z</time>
      </trkpt>
      <trkpt lat="45.94324" lon="4.94942">
        <ele>289</ele>
        <time>2023-09-24T14:18:45Z</time>
      </trkpt>
      <trkpt lat="45.94323" lon="4.94936">
        <ele>289</ele>
        <time>2023-09-24T14:18:46Z</time>
      </trkpt>
      <trkpt lat="45.94322" lon="4.94929">
        <ele>289</ele>
        <time>2023-09-24T14:18:47Z</time>
      </trkpt>
      <trkpt lat="45.94321" lon="4.94922">
        <ele>289</ele>
        <time>2023-09-24T14:18:48Z</time>
      </trkpt>
      <trkpt lat="45.9432" lon="4.94916">
        <ele>289</ele>
        <time>2023-09-24T14:18:49Z</time>
      </trkpt>
      <trkpt lat="45.94319" lon="4.94909">
        <ele>289</ele>
        <time>2023-09-24T14:18:50Z</time>
      </trkpt>
      <trkpt lat="45.94318" lon="4.94904">
        <ele>289</ele>
        <time>2023-09-24T14:18:51Z</time>
      </trkpt>
      <trkpt lat="45.94317" lon="4.94898">
        <ele>289</ele>
        <time>2023-09-24T14:18:52Z</time>
      </trkpt>
      <trkpt lat="45.94315" lon="4.94893">
        <ele>289</ele>
        <time>2023-09-24T14:18:53Z</time>
      </trkpt>
      <trkpt lat="45.94312" lon="4.94889">
        <ele>289</ele>
        <time>2023-09-24T14:18:54Z</time>
      </trkpt>
      <trkpt lat="45.94308" lon="4.94887">
        <ele>289</ele>
        <time>2023-09-24T14:18:55Z</time>
      </trkpt>
      <trkpt lat="45.94304" lon="4.9489">
        <ele>289</ele>
        <time>2023-09-24T14:18:56Z</time>
      </trkpt>
      <trkpt lat="45.943" lon="4.94891">
        <ele>289</ele>
        <time>2023-09-24T14:18:57Z</time>
      </trkpt>
      <trkpt lat="45.94296" lon="4.94894">
        <ele>289</ele>
        <time>2023-09-24T14:18:58Z</time>
      </trkpt>
      <trkpt lat="45.94292" lon="4.94896">
        <ele>289</ele>
        <time>2023-09-24T14:18:59Z</time>
      </trkpt>
      <trkpt lat="45.94288" lon="4.94898">
        <ele>289</ele>
        <time>2023-09-24T14:19:00Z</time>
      </trkpt>
      <trkpt lat="45.94284" lon="4.949">
        <ele>289</ele>
        <time>2023-09-24T14:19:01Z</time>
      </trkpt>
      <trkpt lat="45.9428" lon="4.94902">
        <ele>289</ele>
        <time>2023-09-24T14:19:02Z</time>
      </trkpt>
      <trkpt lat="45.94275" lon="4.94904">
        <ele>289.1</ele>
        <time>2023-09-24T14:19:03Z</time>
      </trkpt>
      <trkpt lat="45.94271" lon="4.94907">
        <ele>289.2</ele>
        <time>2023-09-24T14:19:04Z</time>
      </trkpt>
      <trkpt lat="45.94267" lon="4.94909">
        <ele>289.3</ele>
        <time>2023-09-24T14:19:05Z</time>
      </trkpt>
      <trkpt lat="45.94262" lon="4.94911">
        <ele>289.5</ele>
        <time>2023-09-24T14:19:06Z</time>
      </trkpt>
      <trkpt lat="45.94258" lon="4.94913">
        <ele>289.6</ele>
        <time>2023-09-24T14:19:07Z</time>
      </trkpt>
      <trkpt lat="45.94254" lon="4.94915">
        <ele>289.8</ele>
        <time>2023-09-24T14:19:08Z</time>
      </trkpt>
      <trkpt lat="45.9425" lon="4.94917">
        <ele>290</ele>
        <time>2023-09-24T14:19:09Z</time>
      </trkpt>
      <trkpt lat="45.94246" lon="4.94918">
        <ele>290</ele>
        <time>2023-09-24T14:19:10Z</time>
      </trkpt>
      <trkpt lat="45.94242" lon="4.9492">
        <ele>290</ele>
        <time>2023-09-24T14:19:11Z</time>
      </trkpt>
      <trkpt lat="45.94238" lon="4.94922">
        <ele>290</ele>
        <time>2023-09-24T14:19:12Z</time>
      </trkpt>
      <trkpt lat="45.94234" lon="4.94924">
        <ele>290</ele>
        <time>2023-09-24T14:19:14Z</time>
      </trkpt>
      <trkpt lat="45.9423" lon="4.94926">
        <ele>290</ele>
        <time>2023-09-24T14:19:15Z</time>
      </trkpt>
      <trkpt lat="45.94226" lon="4.94928">
        <ele>290</ele>
        <time>2023-09-24T14:19:16Z</time>
      </trkpt>
      <trkpt lat="45.94222" lon="4.9493">
        <ele>290</ele>
        <time>2023-09-24T14:19:17Z</time>
      </trkpt>
      <trkpt lat="45.94218" lon="4.94932">
        <ele>290</ele>
        <time>2023-09-24T14:19:18Z</time>
      </trkpt>
      <trkpt lat="45.94214" lon="4.94934">
        <ele>290</ele>
        <time>2023-09-24T14:19:19Z</time>
      </trkpt>
      <trkpt lat="45.9421" lon="4.94937">
        <ele>290</ele>
        <time>2023-09-24T14:19:20Z</time>
      </trkpt>
      <trkpt lat="45.94205" lon="4.94939">
        <ele>290</ele>
        <time>2023-09-24T14:19:21Z</time>
      </trkpt>
      <trkpt lat="45.94201" lon="4.94941">
        <ele>290</ele>
        <time>2023-09-24T14:19:22Z</time>
      </trkpt>
      <trkpt lat="45.94197" lon="4.94943">
        <ele>290</ele>
        <time>2023-09-24T14:19:23Z</time>
      </trkpt>
      <trkpt lat="45.94192" lon="4.94945">
        <ele>290</ele>
        <time>2023-09-24T14:19:24Z</time>
      </trkpt>
      <trkpt lat="45.94188" lon="4.94947">
        <ele>290.1</ele>
        <time>2023-09-24T14:19:25Z</time>
      </trkpt>
      <trkpt lat="45.94184" lon="4.94949">
        <ele>290.1</ele>
        <time>2023-09-24T14:19:26Z</time>
      </trkpt>
      <trkpt lat="45.94179" lon="4.94951">
        <ele>290.1</ele>
        <time>2023-09-24T14:19:27Z</time>
      </trkpt>
      <trkpt lat="45.94175" lon="4.94953">
        <ele>290.1</ele>
        <time>2023-09-24T14:19:28Z</time>
      </trkpt>
      <trkpt lat="45.94171" lon="4.94955">
        <ele>290.1</ele>
        <time>2023-09-24T14:19:29Z</time>
      </trkpt>
      <trkpt lat="45.94166" lon="4.94957">
        <ele>290</ele>
        <time>2023-09-24T14:19:30Z</time>
      </trkpt>
      <trkpt lat="45.94162" lon="4.94959">
        <ele>289.9</ele>
        <time>2023-09-24T14:19:31Z</time>
      </trkpt>
      <trkpt lat="45.94157" lon="4.94962">
        <ele>289.9</ele>
        <time>2023-09-24T14:19:32Z</time>
      </trkpt>
      <trkpt lat="45.94153" lon="4.94964">
        <ele>289.9</ele>
        <time>2023-09-24T14:19:33Z</time>
      </trkpt>
      <trkpt lat="45.94149" lon="4.94966">
        <ele>289.9</ele>
        <time>2023-09-24T14:19:34Z</time>
      </trkpt>
      <trkpt lat="45.94144" lon="4.94969">
        <ele>289.9</ele>
        <time>2023-09-24T14:19:35Z</time>
      </trkpt>
      <trkpt lat="45.9414" lon="4.94971">
        <ele>290</ele>
        <time>2023-09-24T14:19:36Z</time>
      </trkpt>
      <trkpt lat="45.94135" lon="4.94974">
        <ele>290.1</ele>
        <time>2023-09-24T14:19:37Z</time>
      </trkpt>
      <trkpt lat="45.94131" lon="4.94978">
        <ele>290.1</ele>
        <time>2023-09-24T14:19:38Z</time>
      </trkpt>
      <trkpt lat="45.94127" lon="4.94981">
        <ele>290.2</ele>
        <time>2023-09-24T14:19:39Z</time>
      </trkpt>
      <trkpt lat="45.94122" lon="4.94984">
        <ele>290.2</ele>
        <time>2023-09-24T14:19:40Z</time>
      </trkpt>
      <trkpt lat="45.94118" lon="4.94987">
        <ele>290.1</ele>
        <time>2023-09-24T14:19:41Z</time>
      </trkpt>
      <trkpt lat="45.94114" lon="4.9499">
        <ele>290.1</ele>
        <time>2023-09-24T14:19:42Z</time>
      </trkpt>
      <trkpt lat="45.9411" lon="4.94994">
        <ele>290</ele>
        <time>2023-09-24T14:19:43Z</time>
      </trkpt>
      <trkpt lat="45.94106" lon="4.94997">
        <ele>290</ele>
        <time>2023-09-24T14:19:44Z</time>
      </trkpt>
      <trkpt lat="45.94101" lon="4.95">
        <ele>290</ele>
        <time>2023-09-24T14:19:45Z</time>
      </trkpt>
      <trkpt lat="45.94097" lon="4.95004">
        <ele>290.1</ele>
        <time>2023-09-24T14:19:46Z</time>
      </trkpt>
      <trkpt lat="45.94093" lon="4.95007">
        <ele>290.3</ele>
        <time>2023-09-24T14:19:47Z</time>
      </trkpt>
      <trkpt lat="45.94089" lon="4.9501">
        <ele>290.4</ele>
        <time>2023-09-24T14:19:48Z</time>
      </trkpt>
      <trkpt lat="45.94085" lon="4.95014">
        <ele>290.5</ele>
        <time>2023-09-24T14:19:49Z</time>
      </trkpt>
      <trkpt lat="45.94081" lon="4.95017">
        <ele>290.6</ele>
        <time>2023-09-24T14:19:50Z</time>
      </trkpt>
      <trkpt lat="45.94077" lon="4.9502">
        <ele>290.7</ele>
        <time>2023-09-24T14:19:51Z</time>
      </trkpt>
      <trkpt lat="45.94073" lon="4.95024">
        <ele>290.9</ele>
        <time>2023-09-24T14:19:52Z</time>
      </trkpt>
      <trkpt lat="45.94069" lon="4.95027">
        <ele>291</ele>
      </trkpt>
      <trkpt lat="45.94065" lon="4.9503">
        <ele>291</ele>
        <time>2023-09-24T14:19:53Z</time>
      </trkpt>
      <trkpt lat="45.94061" lon="4.95034">
        <ele>291</ele>
        <time>2023-09-24T14:19:54Z</time>
      </trkpt>
      <trkpt lat="45.94057" lon="4.95037">
        <ele>291</ele>
        <time>2023-09-24T14:19:55Z</time>
      </trkpt>
      <trkpt lat="45.94052" lon="4.9504">
        <ele>291</ele>
        <time>2023-09-24T14:19:56Z</time>
      </trkpt>
      <trkpt lat="45.94048" lon="4.95043">
        <ele>291</ele>
        <time>2023-09-24T14:19:57Z</time>
      </trkpt>
      <trkpt lat="45.94044" lon="4.95046">
        <ele>291</ele>
        <time>2023-09-24T14:19:58Z</time>
      </trkpt>
      <trkpt lat="45.9404" lon="4.9505">
        <ele>291</ele>
        <time>2023-09-24T14:19:59Z</time>
      </trkpt>
      <trkpt lat="45.94037" lon="4.95053">
        <ele>291</ele>
        <time>2023-09-24T14:20:00Z</time>
      </trkpt>
      <trkpt lat="45.94032" lon="4.95057">
        <ele>291</ele>
        <time>2023-09-24T14:20:01Z</time>
      </trkpt>
      <trkpt lat="45.94029" lon="4.9506">
        <ele>291.2</ele>
        <time>2023-09-24T14:20:02Z</time>
      </trkpt>
      <trkpt lat="45.94024" lon="4.95064">
        <ele>291.3</ele>
        <time>2023-09-24T14:20:03Z</time>
      </trkpt>
      <trkpt lat="45.9402" lon="4.95068">
        <ele>291.4</ele>
        <time>2023-09-24T14:20:04Z</time>
      </trkpt>
      <trkpt lat="45.94016" lon="4.95071">
        <ele>291.6</ele>
        <time>2023-09-24T14:20:05Z</time>
      </trkpt>
      <trkpt lat="45.94012" lon="4.95075">
        <ele>291.7</ele>
        <time>2023-09-24T14:20:06Z</time>
      </trkpt>
      <trkpt lat="45.94008" lon="4.95079">
        <ele>291.8</ele>
        <time>2023-09-24T14:20:07Z</time>
      </trkpt>
      <trkpt lat="45.94004" lon="4.95083">
        <ele>292</ele>
        <time>2023-09-24T14:20:08Z</time>
      </trkpt>
      <trkpt lat="45.94" lon="4.95086">
        <ele>292</ele>
        <time>2023-09-24T14:20:09Z</time>
      </trkpt>
      <trkpt lat="45.93996" lon="4.9509">
        <ele>291.9</ele>
        <time>2023-09-24T14:20:10Z</time>
      </trkpt>
      <trkpt lat="45.93992" lon="4.95093">
        <ele>291.8</ele>
        <time>2023-09-24T14:20:11Z</time>
      </trkpt>
      <trkpt lat="45.93988" lon="4.95098">
        <ele>291.8</ele>
        <time>2023-09-24T14:20:12Z</time>
      </trkpt>
      <trkpt lat="45.93984" lon="4.95102">
        <ele>291.8</ele>
        <time>2023-09-24T14:20:13Z</time>
      </trkpt>
      <trkpt lat="45.9398" lon="4.95106">
        <ele>291.9</ele>
        <time>2023-09-24T14:20:14Z</time>
      </trkpt>
      <trkpt lat="45.93976" lon="4.95111">
        <ele>292</ele>
        <time>2023-09-24T14:20:15Z</time>
      </trkpt>
      <trkpt lat="45.93972" lon="4.95115">
        <ele>292</ele>
        <time>2023-09-24T14:20:16Z</time>
      </trkpt>
      <trkpt lat="45.93968" lon="4.95119">
        <ele>291.9</ele>
        <time>2023-09-24T14:20:17Z</time>
      </trkpt>
      <trkpt lat="45.93964" lon="4.95123">
        <ele>291.8</ele>
        <time>2023-09-24T14:20:18Z</time>
      </trkpt>
      <trkpt lat="45.9396" lon="4.95127">
        <ele>291.8</ele>
        <time>2023-09-24T14:20:19Z</time>
      </trkpt>
      <trkpt lat="45.93957" lon="4.95132">
        <ele>291.9</ele>
        <time>2023-09-24T14:20:20Z</time>
      </trkpt>
      <trkpt lat="45.93953" lon="4.95136">
        <ele>291.9</ele>
        <time>2023-09-24T14:20:21Z</time>
      </trkpt>
      <trkpt lat="45.93949" lon="4.9514">
        <ele>292</ele>
        <time>2023-09-24T14:20:22Z</time>
      </trkpt>
      <trkpt lat="45.93946" lon="4.95144">
        <ele>291.8</ele>
        <time>2023-09-24T14:20:23Z</time>
      </trkpt>
      <trkpt lat="45.93942" lon="4.95148">
        <ele>291.6</ele>
        <time>2023-09-24T14:20:24Z</time>
      </trkpt>
      <trkpt lat="45.93938" lon="4.95152">
        <ele>291.4</ele>
        <time>2023-09-24T14:20:25Z</time>
      </trkpt>
      <trkpt lat="45.93934" lon="4.95156">
        <ele>291.2</ele>
        <time>2023-09-24T14:20:26Z</time>
      </trkpt>
      <trkpt lat="45.9393" lon="4.9516">
        <ele>291.1</ele>
        <time>2023-09-24T14:20:27Z</time>
      </trkpt>
      <trkpt lat="45.93927" lon="4.95163">
        <ele>291</ele>
        <time>2023-09-24T14:20:28Z</time>
      </trkpt>
      <trkpt lat="45.93923" lon="4.95167">
        <ele>291</ele>
        <time>2023-09-24T14:20:29Z</time>
      </trkpt>
      <trkpt lat="45.93919" lon="4.9517">
        <ele>291</ele>
        <time>2023-09-24T14:20:30Z</time>
      </trkpt>
      <trkpt lat="45.93915" lon="4.95173">
        <ele>291</ele>
        <time>2023-09-24T14:20:31Z</time>
      </trkpt>
      <trkpt lat="45.9391" lon="4.95177">
        <ele>290.9</ele>
        <time>2023-09-24T14:20:32Z</time>
      </trkpt>
      <trkpt lat="45.93906" lon="4.95179">
        <ele>290.8</ele>
        <time>2023-09-24T14:20:33Z</time>
      </trkpt>
      <trkpt lat="45.93902" lon="4.95182">
        <ele>290.7</ele>
        <time>2023-09-24T14:20:34Z</time>
      </trkpt>
      <trkpt lat="45.93897" lon="4.95185">
        <ele>290.5</ele>
        <time>2023-09-24T14:20:35Z</time>
      </trkpt>
      <trkpt lat="45.93893" lon="4.95188">
        <ele>290.3</ele>
        <time>2023-09-24T14:20:36Z</time>
      </trkpt>
      <trkpt lat="45.93888" lon="4.9519">
        <ele>290.2</ele>
        <time>2023-09-24T14:20:38Z</time>
      </trkpt>
      <trkpt lat="45.93884" lon="4.95193">
        <ele>290</ele>
        <time>2023-09-24T14:20:39Z</time>
      </trkpt>
      <trkpt lat="45.93879" lon="4.95196">
        <ele>290</ele>
        <time>2023-09-24T14:20:40Z</time>
      </trkpt>
      <trkpt lat="45.93875" lon="4.95198">
        <ele>290</ele>
        <time>2023-09-24T14:20:41Z</time>
      </trkpt>
      <trkpt lat="45.9387" lon="4.95201">
        <ele>290</ele>
        <time>2023-09-24T14:20:42Z</time>
      </trkpt>
      <trkpt lat="45.93866" lon="4.95203">
        <ele>290</ele>
        <time>2023-09-24T14:20:43Z</time>
      </trkpt>
      <trkpt lat="45.93861" lon="4.95206">
        <ele>290</ele>
        <time>2023-09-24T14:20:44Z</time>
      </trkpt>
      <trkpt lat="45.93856" lon="4.95209">
        <ele>290</ele>
        <time>2023-09-24T14:20:45Z</time>
      </trkpt>
      <trkpt lat="45.93851" lon="4.95212">
        <ele>290</ele>
        <time>2023-09-24T14:20:46Z</time>
      </trkpt>
      <trkpt lat="45.93846" lon="4.95214">
        <ele>290</ele>
        <time>2023-09-24T14:20:47Z</time>
      </trkpt>
      <trkpt lat="45.93841" lon="4.95215">
        <ele>290</ele>
        <time>2023-09-24T14:20:48Z</time>
      </trkpt>
      <trkpt lat="45.93835" lon="4.95218">
        <ele>290</ele>
        <time>2023-09-24T14:20:49Z</time>
      </trkpt>
      <trkpt lat="45.9383" lon="4.9522">
        <ele>289.9</ele>
        <time>2023-09-24T14:20:50Z</time>
      </trkpt>
      <trkpt lat="45.93825" lon="4.95223">
        <ele>289.7</ele>
        <time>2023-09-24T14:20:51Z</time>
      </trkpt>
      <trkpt lat="45.9382" lon="4.95226">
        <ele>289.4</ele>
        <time>2023-09-24T14:20:52Z</time>
      </trkpt>
      <trkpt lat="45.93815" lon="4.95228">
        <ele>289.3</ele>
        <time>2023-09-24T14:20:53Z</time>
      </trkpt>
      <trkpt lat="45.9381" lon="4.95231">
        <ele>289.1</ele>
        <time>2023-09-24T14:20:54Z</time>
      </trkpt>
      <trkpt lat="45.93805" lon="4.95234">
        <ele>289</ele>
        <time>2023-09-24T14:20:55Z</time>
      </trkpt>
      <trkpt lat="45.93801" lon="4.95236">
        <ele>289</ele>
        <time>2023-09-24T14:20:56Z</time>
      </trkpt>
      <trkpt lat="45.93796" lon="4.95238">
        <ele>289</ele>
        <time>2023-09-24T14:20:57Z</time>
      </trkpt>
      <trkpt lat="45.93791" lon="4.9524">
        <ele>289</ele>
        <time>2023-09-24T14:20:58Z</time>
      </trkpt>
      <trkpt lat="45.93787" lon="4.95243">
        <ele>289</ele>
        <time>2023-09-24T14:20:59Z</time>
      </trkpt>
      <trkpt lat="45.93782" lon="4.95245">
        <ele>289</ele>
        <time>2023-09-24T14:21:00Z</time>
      </trkpt>
      <trkpt lat="45.93778" lon="4.95247">
        <ele>289</ele>
        <time>2023-09-24T14:21:01Z</time>
      </trkpt>
      <trkpt lat="45.93773" lon="4.95249">
        <ele>289</ele>
        <time>2023-09-24T14:21:02Z</time>
      </trkpt>
      <trkpt lat="45.93768" lon="4.95252">
        <ele>289</ele>
        <time>2023-09-24T14:21:03Z</time>
      </trkpt>
      <trkpt lat="45.93763" lon="4.95255">
        <ele>289</ele>
        <time>2023-09-24T14:21:04Z</time>
      </trkpt>
      <trkpt lat="45.93759" lon="4.95258">
        <ele>289</ele>
        <time>2023-09-24T14:21:05Z</time>
      </trkpt>
      <trkpt lat="45.93754" lon="4.9526">
        <ele>289</ele>
        <time>2023-09-24T14:21:06Z</time>
      </trkpt>
      <trkpt lat="45.93749" lon="4.95263">
        <ele>289</ele>
        <time>2023-09-24T14:21:07Z</time>
      </trkpt>
      <trkpt lat="45.93743" lon="4.95264">
        <ele>288.7</ele>
        <time>2023-09-24T14:21:08Z</time>
      </trkpt>
      <trkpt lat="45.93738" lon="4.95266">
        <ele>288.6</ele>
        <time>2023-09-24T14:21:09Z</time>
      </trkpt>
      <trkpt lat="45.93733" lon="4.95267">
        <ele>288.4</ele>
        <time>2023-09-24T14:21:10Z</time>
      </trkpt>
      <trkpt lat="45.93727" lon="4.95267">
        <ele>288.2</ele>
        <time>2023-09-24T14:21:11Z</time>
      </trkpt>
      <trkpt lat="45.93721" lon="4.95267">
        <ele>288</ele>
        <time>2023-09-24T14:21:12Z</time>
      </trkpt>
      <trkpt lat="45.93715" lon="4.95266">
        <ele>288</ele>
        <time>2023-09-24T14:21:13Z</time>
      </trkpt>
      <trkpt lat="45.93709" lon="4.95266">
        <ele>288</ele>
        <time>2023-09-24T14:21:14Z</time>
      </trkpt>
      <trkpt lat="45.93703" lon="4.95266">
        <ele>288</ele>
        <time>2023-09-24T14:21:15Z</time>
      </trkpt>
      <trkpt lat="45.93698" lon="4.95265">
        <ele>288</ele>
        <time>2023-09-24T14:21:16Z</time>
      </trkpt>
      <trkpt lat="45.93692" lon="4.95265">
        <ele>288</ele>
        <time>2023-09-24T14:21:17Z</time>
      </trkpt>
      <trkpt lat="45.93686" lon="4.95264">
        <ele>288</ele>
        <time>2023-09-24T14:21:18Z</time>
      </trkpt>
      <trkpt lat="45.9368" lon="4.95263">
        <ele>288</ele>
        <time>2023-09-24T14:21:19Z</time>
      </trkpt>
      <trkpt lat="45.93675" lon="4.95263">
        <ele>288</ele>
        <time>2023-09-24T14:21:20Z</time>
      </trkpt>
      <trkpt lat="45.93669" lon="4.95262">
        <ele>288</ele>
        <time>2023-09-24T14:21:21Z</time>
      </trkpt>
      <trkpt lat="45.93663" lon="4.9526">
        <ele>288</ele>
        <time>2023-09-24T14:21:22Z</time>
      </trkpt>
      <trkpt lat="45.93658" lon="4.95259">
        <ele>288</ele>
        <time>2023-09-24T14:21:23Z</time>
      </trkpt>
      <trkpt lat="45.93652" lon="4.95259">
        <ele>288</ele>
        <time>2023-09-24T14:21:24Z</time>
      </trkpt>
      <trkpt lat="45.93646" lon="4.95258">
        <ele>288</ele>
        <time>2023-09-24T14:21:25Z</time>
      </trkpt>
      <trkpt lat="45.9364" lon="4.95258">
        <ele>288</ele>
        <time>2023-09-24T14:21:26Z</time>
      </trkpt>
      <trkpt lat="45.93634" lon="4.95257">
        <ele>288</ele>
        <time>2023-09-24T14:21:27Z</time>
      </trkpt>
      <trkpt lat="45.93629" lon="4.95258">
        <ele>288</ele>
        <time>2023-09-24T14:21:28Z</time>
      </trkpt>
      <trkpt lat="45.93623" lon="4.95258">
        <ele>288</ele>
        <time>2023-09-24T14:21:29Z</time>
      </trkpt>
      <trkpt lat="45.93617" lon="4.95258">
        <ele>288</ele>
        <time>2023-09-24T14:21:30Z</time>
      </trkpt>
      <trkpt lat="45.93612" lon="4.95257">
        <ele>288</ele>
        <time>2023-09-24T14:21:31Z</time>
      </trkpt>
      <trkpt lat="45.93606" lon="4.95257">
        <ele>288</ele>
        <time>2023-09-24T14:21:32Z</time>
      </trkpt>
      <trkpt lat="45.936" lon="4.95256">
        <ele>288</ele>
        <time>2023-09-24T14:21:33Z</time>
      </trkpt>
      <trkpt lat="45.93594" lon="4.95256">
        <ele>288</ele>
        <time>2023-09-24T14:21:34Z</time>
      </trkpt>
      <trkpt lat="45.93589" lon="4.95257">
        <ele>288</ele>
        <time>2023-09-24T14:21:35Z</time>
      </trkpt>
      <trkpt lat="45.93583" lon="4.9526">
        <ele>288</ele>
        <time>2023-09-24T14:21:36Z</time>
      </trkpt>
      <trkpt lat="45.93579" lon="4.95267">
        <ele>288.2</ele>
        <time>2023-09-24T14:21:37Z</time>
      </trkpt>
      <trkpt lat="45.93578" lon="4.95274">
        <ele>288.2</ele>
        <time>2023-09-24T14:21:38Z</time>
      </trkpt>
      <trkpt lat="45.93576" lon="4.95283">
        <ele>288.3</ele>
        <time>2023-09-24T14:21:39Z</time>
      </trkpt>
      <trkpt lat="45.93574" lon="4.95291">
        <ele>288.3</ele>
        <time>2023-09-24T14:21:40Z</time>
      </trkpt>
      <trkpt lat="45.93573" lon="4.95299">
        <ele>288.4</ele>
        <time>2023-09-24T14:21:41Z</time>
      </trkpt>
      <trkpt lat="45.93571" lon="4.95306">
        <ele>288.4</ele>
        <time>2023-09-24T14:21:42Z</time>
      </trkpt>
      <trkpt lat="45.9357" lon="4.95314">
        <ele>288.5</ele>
        <time>2023-09-24T14:21:43Z</time>
      </trkpt>
      <trkpt lat="45.93569" lon="4.95321">
        <ele>288.5</ele>
        <time>2023-09-24T14:21:44Z</time>
      </trkpt>
      <trkpt lat="45.93568" lon="4.95328">
        <ele>288.6</ele>
        <time>2023-09-24T14:21:45Z</time>
      </trkpt>
      <trkpt lat="45.93566" lon="4.95334">
        <ele>288.6</ele>
        <time>2023-09-24T14:21:46Z</time>
      </trkpt>
      <trkpt lat="45.93565" lon="4.95341">
        <ele>288.7</ele>
        <time>2023-09-24T14:21:47Z</time>
      </trkpt>
      <trkpt lat="45.93563" lon="4.95347">
        <ele>288.7</ele>
        <time>2023-09-24T14:21:48Z</time>
      </trkpt>
      <trkpt lat="45.93561" lon="4.95353">
        <ele>288.8</ele>
        <time>2023-09-24T14:21:49Z</time>
      </trkpt>
      <trkpt lat="45.93557" lon="4.95357">
        <ele>288.9</ele>
        <time>2023-09-24T14:21:50Z</time>
      </trkpt>
      <trkpt lat="45.93554" lon="4.9536">
        <ele>289</ele>
        <time>2023-09-24T14:21:51Z</time>
      </trkpt>
      <trkpt lat="45.93551" lon="4.95363">
        <ele>289</ele>
        <time>2023-09-24T14:21:52Z</time>
      </trkpt>
      <trkpt lat="45.93548" lon="4.95365">
        <ele>289</ele>
        <time>2023-09-24T14:21:53Z</time>
      </trkpt>
      <trkpt lat="45.93544" lon="4.95368">
        <ele>289</ele>
        <time>2023-09-24T14:21:54Z</time>
      </trkpt>
      <trkpt lat="45.9354" lon="4.9537">
        <ele>289</ele>
        <time>2023-09-24T14:21:55Z</time>
      </trkpt>
      <trkpt lat="45.93537" lon="4.95373">
        <ele>289</ele>
        <time>2023-09-24T14:21:56Z</time>
      </trkpt>
      <trkpt lat="45.93533" lon="4.95376">
        <ele>289</ele>
        <time>2023-09-24T14:21:57Z</time>
      </trkpt>
      <trkpt lat="45.93529" lon="4.95379">
        <ele>289</ele>
        <time>2023-09-24T14:21:58Z</time>
      </trkpt>
      <trkpt lat="45.93522" lon="4.95385">
        <ele>289</ele>
        <time>2023-09-24T14:21:59Z</time>
      </trkpt>
      <trkpt lat="45.93519" lon="4.95388">
        <ele>289</ele>
        <time>2023-09-24T14:22:00Z</time>
      </trkpt>
      <trkpt lat="45.93515" lon="4.95391">
        <ele>289</ele>
        <time>2023-09-24T14:22:01Z</time>
      </trkpt>
      <trkpt lat="45.93511" lon="4.95393">
        <ele>288.9</ele>
        <time>2023-09-24T14:22:02Z</time>
      </trkpt>
      <trkpt lat="45.93507" lon="4.95396">
        <ele>288.9</ele>
        <time>2023-09-24T14:22:03Z</time>
      </trkpt>
      <trkpt lat="45.93504" lon="4.95398">
        <ele>289</ele>
        <time>2023-09-24T14:22:04Z</time>
      </trkpt>
      <trkpt lat="45.935" lon="4.954">
        <ele>289</ele>
        <time>2023-09-24T14:22:05Z</time>
      </trkpt>
      <trkpt lat="45.93496" lon="4.95401">
        <ele>289.1</ele>
        <time>2023-09-24T14:22:06Z</time>
      </trkpt>
      <trkpt lat="45.93492" lon="4.95403">
        <ele>289.3</ele>
        <time>2023-09-24T14:22:07Z</time>
      </trkpt>
      <trkpt lat="45.93489" lon="4.95405">
        <ele>289.4</ele>
        <time>2023-09-24T14:22:08Z</time>
      </trkpt>
      <trkpt lat="45.93486" lon="4.95406">
        <ele>289.5</ele>
        <time>2023-09-24T14:22:09Z</time>
      </trkpt>
      <trkpt lat="45.93483" lon="4.95408">
        <ele>289.6</ele>
        <time>2023-09-24T14:22:10Z</time>
      </trkpt>
      <trkpt lat="45.93482" lon="4.95408">
        <ele>289.6</ele>
        <time>2023-09-24T14:22:11Z</time>
      </trkpt>
      <trkpt lat="45.9348" lon="4.95409">
        <ele>289.7</ele>
        <time>2023-09-24T14:22:12Z</time>
      </trkpt>
    </trkseg>
  </trk>
</gpx>